<?xml version="1.0" encoding="UTF-8" standalone="no" ?>
<gpx xmlns="http://www.topografix.com/GPX/1/1" xmlns:xsi="http://www.w3.org/2001/XMLSchema-instance" xsi:schemaLocation="http://www.topografix.com/GPX/1/1 http://www.topografix.com/GPX/1/1/gpx.xsd" version="1.1" creator="VisuGPX - https://www.visugpx.com">
  <metadata>
    <name>Pornichet 23/01/2020</name>
    <desc><![CDATA[Sortie VTT du jeudi 23 janvier 2020
]]></desc>
  </metadata>
  <trk>
    <name><![CDATA[Pornichet Cyclisme]]></name>
    <trkseg>
      <trkpt lat="47.26407" lon="-2.31572">
        <ele>8.6000003814697</ele>
        <time>2020-01-23T08:26:46.000Z</time>
      </trkpt>
      <trkpt lat="47.26407" lon="-2.31576">
        <ele>8.6000003814697</ele>
        <time>2020-01-23T08:26:47.000Z</time>
      </trkpt>
      <trkpt lat="47.26408" lon="-2.31585">
        <ele>8.6000003814697</ele>
        <time>2020-01-23T08:26:49.000Z</time>
      </trkpt>
      <trkpt lat="47.26408" lon="-2.3159">
        <ele>8.8000001907349</ele>
        <time>2020-01-23T08:26:50.000Z</time>
      </trkpt>
      <trkpt lat="47.26408" lon="-2.3163">
        <ele>8.8000001907349</ele>
        <time>2020-01-23T08:26:58.000Z</time>
      </trkpt>
      <trkpt lat="47.26409" lon="-2.31658">
        <ele>8.8000001907349</ele>
        <time>2020-01-23T08:27:03.000Z</time>
      </trkpt>
      <trkpt lat="47.26398" lon="-2.31668">
        <ele>8.8000001907349</ele>
        <time>2020-01-23T08:27:07.000Z</time>
      </trkpt>
      <trkpt lat="47.26381" lon="-2.31677">
        <ele>8.8000001907349</ele>
        <time>2020-01-23T08:27:13.000Z</time>
      </trkpt>
      <trkpt lat="47.26379" lon="-2.31679">
        <ele>8.3999996185303</ele>
        <time>2020-01-23T08:27:14.000Z</time>
      </trkpt>
      <trkpt lat="47.26377" lon="-2.3168">
        <ele>8</ele>
        <time>2020-01-23T08:27:15.000Z</time>
      </trkpt>
      <trkpt lat="47.26374" lon="-2.31682">
        <ele>7.5999999046326</ele>
        <time>2020-01-23T08:27:16.000Z</time>
      </trkpt>
      <trkpt lat="47.2637" lon="-2.31684">
        <ele>7.1999998092651</ele>
        <time>2020-01-23T08:27:17.000Z</time>
      </trkpt>
      <trkpt lat="47.26366" lon="-2.31687">
        <ele>6.8000001907349</ele>
        <time>2020-01-23T08:27:18.000Z</time>
      </trkpt>
      <trkpt lat="47.26348" lon="-2.31697">
        <ele>6.8000001907349</ele>
        <time>2020-01-23T08:27:22.000Z</time>
      </trkpt>
      <trkpt lat="47.26338" lon="-2.31701">
        <ele>6.8000001907349</ele>
        <time>2020-01-23T08:27:24.000Z</time>
      </trkpt>
      <trkpt lat="47.26322" lon="-2.31709">
        <ele>6.8000001907349</ele>
        <time>2020-01-23T08:27:27.000Z</time>
      </trkpt>
      <trkpt lat="47.26313" lon="-2.31714">
        <ele>6.8000001907349</ele>
        <time>2020-01-23T08:27:29.000Z</time>
      </trkpt>
      <trkpt lat="47.26301" lon="-2.31712">
        <ele>6.1999998092651</ele>
        <time>2020-01-23T08:27:32.000Z</time>
      </trkpt>
      <trkpt lat="47.26299" lon="-2.3171">
        <ele>5.8000001907349</ele>
        <time>2020-01-23T08:27:33.000Z</time>
      </trkpt>
      <trkpt lat="47.26296" lon="-2.31706">
        <ele>5.4000000953674</ele>
        <time>2020-01-23T08:27:34.000Z</time>
      </trkpt>
      <trkpt lat="47.26293" lon="-2.31702">
        <ele>5</ele>
        <time>2020-01-23T08:27:35.000Z</time>
      </trkpt>
      <trkpt lat="47.26291" lon="-2.31698">
        <ele>4.4000000953674</ele>
        <time>2020-01-23T08:27:36.000Z</time>
      </trkpt>
      <trkpt lat="47.26289" lon="-2.31694">
        <ele>4.4000000953674</ele>
        <time>2020-01-23T08:27:37.000Z</time>
      </trkpt>
      <trkpt lat="47.26286" lon="-2.31689">
        <ele>4.4000000953674</ele>
        <time>2020-01-23T08:27:38.000Z</time>
      </trkpt>
      <trkpt lat="47.2628" lon="-2.31676">
        <ele>4.4000000953674</ele>
        <time>2020-01-23T08:27:40.000Z</time>
      </trkpt>
      <trkpt lat="47.26278" lon="-2.31671">
        <ele>4.4000000953674</ele>
        <time>2020-01-23T08:27:41.000Z</time>
      </trkpt>
      <trkpt lat="47.26275" lon="-2.31665">
        <ele>4.4000000953674</ele>
        <time>2020-01-23T08:27:42.000Z</time>
      </trkpt>
      <trkpt lat="47.26264" lon="-2.31644">
        <ele>4.4000000953674</ele>
        <time>2020-01-23T08:27:46.000Z</time>
      </trkpt>
      <trkpt lat="47.26261" lon="-2.31637">
        <ele>4.4000000953674</ele>
        <time>2020-01-23T08:27:47.000Z</time>
      </trkpt>
      <trkpt lat="47.26258" lon="-2.31633">
        <ele>4.4000000953674</ele>
        <time>2020-01-23T08:27:48.000Z</time>
      </trkpt>
      <trkpt lat="47.26248" lon="-2.31619">
        <ele>4.4000000953674</ele>
        <time>2020-01-23T08:27:51.000Z</time>
      </trkpt>
      <trkpt lat="47.26227" lon="-2.31602">
        <ele>4.4000000953674</ele>
        <time>2020-01-23T08:27:56.000Z</time>
      </trkpt>
      <trkpt lat="47.26213" lon="-2.31598">
        <ele>4.4000000953674</ele>
        <time>2020-01-23T08:27:59.000Z</time>
      </trkpt>
      <trkpt lat="47.26208" lon="-2.31598">
        <ele>4.4000000953674</ele>
        <time>2020-01-23T08:28:00.000Z</time>
      </trkpt>
      <trkpt lat="47.26174" lon="-2.31604">
        <ele>4.4000000953674</ele>
        <time>2020-01-23T08:28:07.000Z</time>
      </trkpt>
      <trkpt lat="47.26146" lon="-2.31613">
        <ele>4.4000000953674</ele>
        <time>2020-01-23T08:28:13.000Z</time>
      </trkpt>
      <trkpt lat="47.26142" lon="-2.31614">
        <ele>4.4000000953674</ele>
        <time>2020-01-23T08:28:14.000Z</time>
      </trkpt>
      <trkpt lat="47.26112" lon="-2.31616">
        <ele>4.4000000953674</ele>
        <time>2020-01-23T08:28:20.000Z</time>
      </trkpt>
      <trkpt lat="47.26098" lon="-2.31601">
        <ele>4.4000000953674</ele>
        <time>2020-01-23T08:28:24.000Z</time>
      </trkpt>
      <trkpt lat="47.26087" lon="-2.31584">
        <ele>4.4000000953674</ele>
        <time>2020-01-23T08:28:28.000Z</time>
      </trkpt>
      <trkpt lat="47.26083" lon="-2.31584">
        <ele>4.4000000953674</ele>
        <time>2020-01-23T08:28:29.000Z</time>
      </trkpt>
      <trkpt lat="47.2608" lon="-2.31587">
        <ele>4.4000000953674</ele>
        <time>2020-01-23T08:28:30.000Z</time>
      </trkpt>
      <trkpt lat="47.26071" lon="-2.31598">
        <ele>4.4000000953674</ele>
        <time>2020-01-23T08:28:33.000Z</time>
      </trkpt>
      <trkpt lat="47.26036" lon="-2.3164">
        <ele>4.4000000953674</ele>
        <time>2020-01-23T08:28:43.000Z</time>
      </trkpt>
      <trkpt lat="47.26016" lon="-2.31658">
        <ele>4.4000000953674</ele>
        <time>2020-01-23T08:28:48.000Z</time>
      </trkpt>
      <trkpt lat="47.26007" lon="-2.31664">
        <ele>4.4000000953674</ele>
        <time>2020-01-23T08:28:50.000Z</time>
      </trkpt>
      <trkpt lat="47.25976" lon="-2.3168">
        <ele>4.8000001907349</ele>
        <time>2020-01-23T08:28:57.000Z</time>
      </trkpt>
      <trkpt lat="47.25972" lon="-2.31683">
        <ele>5.4000000953674</ele>
        <time>2020-01-23T08:28:58.000Z</time>
      </trkpt>
      <trkpt lat="47.25968" lon="-2.31686">
        <ele>5.8000001907349</ele>
        <time>2020-01-23T08:28:59.000Z</time>
      </trkpt>
      <trkpt lat="47.25963" lon="-2.31689">
        <ele>6.1999998092651</ele>
        <time>2020-01-23T08:29:00.000Z</time>
      </trkpt>
      <trkpt lat="47.25959" lon="-2.31692">
        <ele>6.5999999046326</ele>
        <time>2020-01-23T08:29:01.000Z</time>
      </trkpt>
      <trkpt lat="47.25951" lon="-2.317">
        <ele>6.5999999046326</ele>
        <time>2020-01-23T08:29:03.000Z</time>
      </trkpt>
      <trkpt lat="47.25947" lon="-2.31705">
        <ele>6.5999999046326</ele>
        <time>2020-01-23T08:29:04.000Z</time>
      </trkpt>
      <trkpt lat="47.25925" lon="-2.31742">
        <ele>6.5999999046326</ele>
        <time>2020-01-23T08:29:10.000Z</time>
      </trkpt>
      <trkpt lat="47.25898" lon="-2.31805">
        <ele>6.5999999046326</ele>
        <time>2020-01-23T08:29:18.000Z</time>
      </trkpt>
      <trkpt lat="47.25873" lon="-2.31856">
        <ele>6.5999999046326</ele>
        <time>2020-01-23T08:29:25.000Z</time>
      </trkpt>
      <trkpt lat="47.25864" lon="-2.31869">
        <ele>6.5999999046326</ele>
        <time>2020-01-23T08:29:27.000Z</time>
      </trkpt>
      <trkpt lat="47.2585" lon="-2.31884">
        <ele>6.5999999046326</ele>
        <time>2020-01-23T08:29:30.000Z</time>
      </trkpt>
      <trkpt lat="47.25841" lon="-2.31891">
        <ele>6.5999999046326</ele>
        <time>2020-01-23T08:29:32.000Z</time>
      </trkpt>
      <trkpt lat="47.25827" lon="-2.31902">
        <ele>6.5999999046326</ele>
        <time>2020-01-23T08:29:35.000Z</time>
      </trkpt>
      <trkpt lat="47.25818" lon="-2.31909">
        <ele>6.5999999046326</ele>
        <time>2020-01-23T08:29:37.000Z</time>
      </trkpt>
      <trkpt lat="47.25814" lon="-2.31908">
        <ele>6.5999999046326</ele>
        <time>2020-01-23T08:29:38.000Z</time>
      </trkpt>
      <trkpt lat="47.25806" lon="-2.31893">
        <ele>6.5999999046326</ele>
        <time>2020-01-23T08:29:41.000Z</time>
      </trkpt>
      <trkpt lat="47.25804" lon="-2.31887">
        <ele>6.5999999046326</ele>
        <time>2020-01-23T08:29:42.000Z</time>
      </trkpt>
      <trkpt lat="47.25793" lon="-2.31857">
        <ele>7</ele>
        <time>2020-01-23T08:29:47.000Z</time>
      </trkpt>
      <trkpt lat="47.25791" lon="-2.3185">
        <ele>7.4000000953674</ele>
        <time>2020-01-23T08:29:48.000Z</time>
      </trkpt>
      <trkpt lat="47.25789" lon="-2.31844">
        <ele>7.8000001907349</ele>
        <time>2020-01-23T08:29:49.000Z</time>
      </trkpt>
      <trkpt lat="47.25786" lon="-2.31837">
        <ele>8.1999998092651</ele>
        <time>2020-01-23T08:29:50.000Z</time>
      </trkpt>
      <trkpt lat="47.25784" lon="-2.31831">
        <ele>8.6000003814697</ele>
        <time>2020-01-23T08:29:51.000Z</time>
      </trkpt>
      <trkpt lat="47.25777" lon="-2.3181">
        <ele>8.6000003814697</ele>
        <time>2020-01-23T08:29:54.000Z</time>
      </trkpt>
      <trkpt lat="47.25758" lon="-2.31757">
        <ele>8.6000003814697</ele>
        <time>2020-01-23T08:30:02.000Z</time>
      </trkpt>
      <trkpt lat="47.25745" lon="-2.31727">
        <ele>8.6000003814697</ele>
        <time>2020-01-23T08:30:07.000Z</time>
      </trkpt>
      <trkpt lat="47.25741" lon="-2.31721">
        <ele>8.6000003814697</ele>
        <time>2020-01-23T08:30:08.000Z</time>
      </trkpt>
      <trkpt lat="47.2573" lon="-2.31709">
        <ele>8.6000003814697</ele>
        <time>2020-01-23T08:30:11.000Z</time>
      </trkpt>
      <trkpt lat="47.25722" lon="-2.31701">
        <ele>8.6000003814697</ele>
        <time>2020-01-23T08:30:13.000Z</time>
      </trkpt>
      <trkpt lat="47.25714" lon="-2.31695">
        <ele>8.6000003814697</ele>
        <time>2020-01-23T08:30:15.000Z</time>
      </trkpt>
      <trkpt lat="47.25702" lon="-2.31688">
        <ele>8.6000003814697</ele>
        <time>2020-01-23T08:30:18.000Z</time>
      </trkpt>
      <trkpt lat="47.25692" lon="-2.31684">
        <ele>8.6000003814697</ele>
        <time>2020-01-23T08:30:20.000Z</time>
      </trkpt>
      <trkpt lat="47.2568" lon="-2.31681">
        <ele>8.6000003814697</ele>
        <time>2020-01-23T08:30:23.000Z</time>
      </trkpt>
      <trkpt lat="47.25676" lon="-2.31681">
        <ele>9</ele>
        <time>2020-01-23T08:30:24.000Z</time>
      </trkpt>
      <trkpt lat="47.25672" lon="-2.31683">
        <ele>9.6000003814697</ele>
        <time>2020-01-23T08:30:25.000Z</time>
      </trkpt>
      <trkpt lat="47.25669" lon="-2.31685">
        <ele>10</ele>
        <time>2020-01-23T08:30:26.000Z</time>
      </trkpt>
      <trkpt lat="47.25666" lon="-2.31687">
        <ele>10.39999961853</ele>
        <time>2020-01-23T08:30:27.000Z</time>
      </trkpt>
      <trkpt lat="47.25662" lon="-2.31689">
        <ele>10.800000190735</ele>
        <time>2020-01-23T08:30:28.000Z</time>
      </trkpt>
      <trkpt lat="47.25652" lon="-2.31697">
        <ele>10.800000190735</ele>
        <time>2020-01-23T08:30:31.000Z</time>
      </trkpt>
      <trkpt lat="47.2564" lon="-2.31711">
        <ele>10.800000190735</ele>
        <time>2020-01-23T08:30:35.000Z</time>
      </trkpt>
      <trkpt lat="47.25637" lon="-2.31714">
        <ele>11.199999809265</ele>
        <time>2020-01-23T08:30:36.000Z</time>
      </trkpt>
      <trkpt lat="47.25634" lon="-2.31717">
        <ele>11.60000038147</ele>
        <time>2020-01-23T08:30:37.000Z</time>
      </trkpt>
      <trkpt lat="47.25632" lon="-2.31722">
        <ele>12</ele>
        <time>2020-01-23T08:30:38.000Z</time>
      </trkpt>
      <trkpt lat="47.2563" lon="-2.31727">
        <ele>12.39999961853</ele>
        <time>2020-01-23T08:30:39.000Z</time>
      </trkpt>
      <trkpt lat="47.25629" lon="-2.31734">
        <ele>13</ele>
        <time>2020-01-23T08:30:40.000Z</time>
      </trkpt>
      <trkpt lat="47.25626" lon="-2.31746">
        <ele>13</ele>
        <time>2020-01-23T08:30:42.000Z</time>
      </trkpt>
      <trkpt lat="47.25617" lon="-2.31761">
        <ele>13</ele>
        <time>2020-01-23T08:30:45.000Z</time>
      </trkpt>
      <trkpt lat="47.25604" lon="-2.31766">
        <ele>13</ele>
        <time>2020-01-23T08:30:48.000Z</time>
      </trkpt>
      <trkpt lat="47.25599" lon="-2.31766">
        <ele>13</ele>
        <time>2020-01-23T08:30:49.000Z</time>
      </trkpt>
      <trkpt lat="47.25589" lon="-2.31768">
        <ele>13</ele>
        <time>2020-01-23T08:30:51.000Z</time>
      </trkpt>
      <trkpt lat="47.25584" lon="-2.3177">
        <ele>13.39999961853</ele>
        <time>2020-01-23T08:30:52.000Z</time>
      </trkpt>
      <trkpt lat="47.2558" lon="-2.31772">
        <ele>13.800000190735</ele>
        <time>2020-01-23T08:30:53.000Z</time>
      </trkpt>
      <trkpt lat="47.25576" lon="-2.31774">
        <ele>14.39999961853</ele>
        <time>2020-01-23T08:30:54.000Z</time>
      </trkpt>
      <trkpt lat="47.25572" lon="-2.31777">
        <ele>14.800000190735</ele>
        <time>2020-01-23T08:30:55.000Z</time>
      </trkpt>
      <trkpt lat="47.25569" lon="-2.3178">
        <ele>15.199999809265</ele>
        <time>2020-01-23T08:30:56.000Z</time>
      </trkpt>
      <trkpt lat="47.25565" lon="-2.31789">
        <ele>15.199999809265</ele>
        <time>2020-01-23T08:30:58.000Z</time>
      </trkpt>
      <trkpt lat="47.25553" lon="-2.31801">
        <ele>15.800000190735</ele>
        <time>2020-01-23T08:31:02.000Z</time>
      </trkpt>
      <trkpt lat="47.2555" lon="-2.31803">
        <ele>16.200000762939</ele>
        <time>2020-01-23T08:31:03.000Z</time>
      </trkpt>
      <trkpt lat="47.25547" lon="-2.31804">
        <ele>16.60000038147</ele>
        <time>2020-01-23T08:31:04.000Z</time>
      </trkpt>
      <trkpt lat="47.25543" lon="-2.31806">
        <ele>17.200000762939</ele>
        <time>2020-01-23T08:31:05.000Z</time>
      </trkpt>
      <trkpt lat="47.2554" lon="-2.31807">
        <ele>17.60000038147</ele>
        <time>2020-01-23T08:31:06.000Z</time>
      </trkpt>
      <trkpt lat="47.25531" lon="-2.31809">
        <ele>17.60000038147</ele>
        <time>2020-01-23T08:31:09.000Z</time>
      </trkpt>
      <trkpt lat="47.25523" lon="-2.31812">
        <ele>17.60000038147</ele>
        <time>2020-01-23T08:31:13.000Z</time>
      </trkpt>
      <trkpt lat="47.25523" lon="-2.31813">
        <ele>17.60000038147</ele>
        <time>2020-01-23T08:31:15.000Z</time>
      </trkpt>
      <trkpt lat="47.25526" lon="-2.31822">
        <ele>19.799999237061</ele>
        <time>2020-01-23T08:41:27.000Z</time>
      </trkpt>
      <trkpt lat="47.25526" lon="-2.31824">
        <ele>19.799999237061</ele>
        <time>2020-01-23T08:41:28.000Z</time>
      </trkpt>
      <trkpt lat="47.25527" lon="-2.31831">
        <ele>19.799999237061</ele>
        <time>2020-01-23T08:41:31.000Z</time>
      </trkpt>
      <trkpt lat="47.25524" lon="-2.31832">
        <ele>19.799999237061</ele>
        <time>2020-01-23T08:41:33.000Z</time>
      </trkpt>
      <trkpt lat="47.25523" lon="-2.31825">
        <ele>19.799999237061</ele>
        <time>2020-01-23T08:41:36.000Z</time>
      </trkpt>
      <trkpt lat="47.25523" lon="-2.31823">
        <ele>19.799999237061</ele>
        <time>2020-01-23T08:41:37.000Z</time>
      </trkpt>
      <trkpt lat="47.25526" lon="-2.31814">
        <ele>19.799999237061</ele>
        <time>2020-01-23T08:41:41.000Z</time>
      </trkpt>
      <trkpt lat="47.25528" lon="-2.31813">
        <ele>19.799999237061</ele>
        <time>2020-01-23T08:41:42.000Z</time>
      </trkpt>
      <trkpt lat="47.25546" lon="-2.31807">
        <ele>19.799999237061</ele>
        <time>2020-01-23T08:41:47.000Z</time>
      </trkpt>
      <trkpt lat="47.25556" lon="-2.31804">
        <ele>19.799999237061</ele>
        <time>2020-01-23T08:41:51.000Z</time>
      </trkpt>
      <trkpt lat="47.25558" lon="-2.31802">
        <ele>19.39999961853</ele>
        <time>2020-01-23T08:41:52.000Z</time>
      </trkpt>
      <trkpt lat="47.2556" lon="-2.31797">
        <ele>19</ele>
        <time>2020-01-23T08:41:53.000Z</time>
      </trkpt>
      <trkpt lat="47.25562" lon="-2.31792">
        <ele>18.60000038147</ele>
        <time>2020-01-23T08:41:54.000Z</time>
      </trkpt>
      <trkpt lat="47.25565" lon="-2.31787">
        <ele>18</ele>
        <time>2020-01-23T08:41:55.000Z</time>
      </trkpt>
      <trkpt lat="47.25568" lon="-2.31782">
        <ele>18.39999961853</ele>
        <time>2020-01-23T08:41:56.000Z</time>
      </trkpt>
      <trkpt lat="47.25571" lon="-2.31778">
        <ele>18.799999237061</ele>
        <time>2020-01-23T08:41:57.000Z</time>
      </trkpt>
      <trkpt lat="47.25574" lon="-2.31774">
        <ele>19.200000762939</ele>
        <time>2020-01-23T08:41:58.000Z</time>
      </trkpt>
      <trkpt lat="47.25578" lon="-2.31769">
        <ele>19.60000038147</ele>
        <time>2020-01-23T08:41:59.000Z</time>
      </trkpt>
      <trkpt lat="47.25583" lon="-2.31764">
        <ele>20</ele>
        <time>2020-01-23T08:42:00.000Z</time>
      </trkpt>
      <trkpt lat="47.25587" lon="-2.31757">
        <ele>20</ele>
        <time>2020-01-23T08:42:01.000Z</time>
      </trkpt>
      <trkpt lat="47.25589" lon="-2.3175">
        <ele>19.60000038147</ele>
        <time>2020-01-23T08:42:02.000Z</time>
      </trkpt>
      <trkpt lat="47.25592" lon="-2.31742">
        <ele>18.799999237061</ele>
        <time>2020-01-23T08:42:03.000Z</time>
      </trkpt>
      <trkpt lat="47.25593" lon="-2.31735">
        <ele>18.39999961853</ele>
        <time>2020-01-23T08:42:04.000Z</time>
      </trkpt>
      <trkpt lat="47.25595" lon="-2.31728">
        <ele>17.799999237061</ele>
        <time>2020-01-23T08:42:05.000Z</time>
      </trkpt>
      <trkpt lat="47.25602" lon="-2.31716">
        <ele>17.799999237061</ele>
        <time>2020-01-23T08:42:07.000Z</time>
      </trkpt>
      <trkpt lat="47.25616" lon="-2.31711">
        <ele>17.39999961853</ele>
        <time>2020-01-23T08:42:10.000Z</time>
      </trkpt>
      <trkpt lat="47.25621" lon="-2.3171">
        <ele>17</ele>
        <time>2020-01-23T08:42:11.000Z</time>
      </trkpt>
      <trkpt lat="47.25627" lon="-2.31709">
        <ele>16.60000038147</ele>
        <time>2020-01-23T08:42:12.000Z</time>
      </trkpt>
      <trkpt lat="47.25632" lon="-2.31707">
        <ele>16.200000762939</ele>
        <time>2020-01-23T08:42:13.000Z</time>
      </trkpt>
      <trkpt lat="47.25637" lon="-2.31705">
        <ele>15.800000190735</ele>
        <time>2020-01-23T08:42:14.000Z</time>
      </trkpt>
      <trkpt lat="47.25647" lon="-2.31697">
        <ele>15.800000190735</ele>
        <time>2020-01-23T08:42:16.000Z</time>
      </trkpt>
      <trkpt lat="47.25658" lon="-2.31677">
        <ele>15.800000190735</ele>
        <time>2020-01-23T08:42:19.000Z</time>
      </trkpt>
      <trkpt lat="47.2566" lon="-2.3167">
        <ele>15.800000190735</ele>
        <time>2020-01-23T08:42:20.000Z</time>
      </trkpt>
      <trkpt lat="47.25663" lon="-2.31666">
        <ele>15.39999961853</ele>
        <time>2020-01-23T08:42:21.000Z</time>
      </trkpt>
      <trkpt lat="47.25667" lon="-2.31663">
        <ele>15</ele>
        <time>2020-01-23T08:42:22.000Z</time>
      </trkpt>
      <trkpt lat="47.25671" lon="-2.31664">
        <ele>14.60000038147</ele>
        <time>2020-01-23T08:42:23.000Z</time>
      </trkpt>
      <trkpt lat="47.25675" lon="-2.31667">
        <ele>14.199999809265</ele>
        <time>2020-01-23T08:42:24.000Z</time>
      </trkpt>
      <trkpt lat="47.2568" lon="-2.3167">
        <ele>13.60000038147</ele>
        <time>2020-01-23T08:42:25.000Z</time>
      </trkpt>
      <trkpt lat="47.25695" lon="-2.31678">
        <ele>13.199999809265</ele>
        <time>2020-01-23T08:42:28.000Z</time>
      </trkpt>
      <trkpt lat="47.257" lon="-2.31681">
        <ele>12.800000190735</ele>
        <time>2020-01-23T08:42:29.000Z</time>
      </trkpt>
      <trkpt lat="47.25705" lon="-2.31685">
        <ele>12.39999961853</ele>
        <time>2020-01-23T08:42:30.000Z</time>
      </trkpt>
      <trkpt lat="47.25711" lon="-2.31689">
        <ele>12</ele>
        <time>2020-01-23T08:42:31.000Z</time>
      </trkpt>
      <trkpt lat="47.25716" lon="-2.31693">
        <ele>11.39999961853</ele>
        <time>2020-01-23T08:42:32.000Z</time>
      </trkpt>
      <trkpt lat="47.25725" lon="-2.317">
        <ele>11.39999961853</ele>
        <time>2020-01-23T08:42:34.000Z</time>
      </trkpt>
      <trkpt lat="47.2573" lon="-2.317">
        <ele>11.39999961853</ele>
        <time>2020-01-23T08:42:35.000Z</time>
      </trkpt>
      <trkpt lat="47.25749" lon="-2.31687">
        <ele>11.39999961853</ele>
        <time>2020-01-23T08:42:39.000Z</time>
      </trkpt>
      <trkpt lat="47.25776" lon="-2.31664">
        <ele>11.39999961853</ele>
        <time>2020-01-23T08:42:46.000Z</time>
      </trkpt>
      <trkpt lat="47.25806" lon="-2.31638">
        <ele>11.39999961853</ele>
        <time>2020-01-23T08:42:55.000Z</time>
      </trkpt>
      <trkpt lat="47.2583" lon="-2.3162">
        <ele>11.39999961853</ele>
        <time>2020-01-23T08:43:02.000Z</time>
      </trkpt>
      <trkpt lat="47.25848" lon="-2.31603">
        <ele>11.39999961853</ele>
        <time>2020-01-23T08:43:08.000Z</time>
      </trkpt>
      <trkpt lat="47.25876" lon="-2.31577">
        <ele>11.39999961853</ele>
        <time>2020-01-23T08:43:15.000Z</time>
      </trkpt>
      <trkpt lat="47.25883" lon="-2.31568">
        <ele>11.39999961853</ele>
        <time>2020-01-23T08:43:17.000Z</time>
      </trkpt>
      <trkpt lat="47.25891" lon="-2.31549">
        <ele>11.39999961853</ele>
        <time>2020-01-23T08:43:20.000Z</time>
      </trkpt>
      <trkpt lat="47.25896" lon="-2.31536">
        <ele>11</ele>
        <time>2020-01-23T08:43:23.000Z</time>
      </trkpt>
      <trkpt lat="47.25897" lon="-2.31533">
        <ele>10.60000038147</ele>
        <time>2020-01-23T08:43:24.000Z</time>
      </trkpt>
      <trkpt lat="47.25898" lon="-2.3153">
        <ele>10.199999809265</ele>
        <time>2020-01-23T08:43:25.000Z</time>
      </trkpt>
      <trkpt lat="47.259" lon="-2.31527">
        <ele>9.8000001907349</ele>
        <time>2020-01-23T08:43:26.000Z</time>
      </trkpt>
      <trkpt lat="47.25901" lon="-2.31525">
        <ele>9.3999996185303</ele>
        <time>2020-01-23T08:43:27.000Z</time>
      </trkpt>
      <trkpt lat="47.25902" lon="-2.3152">
        <ele>9.3999996185303</ele>
        <time>2020-01-23T08:43:30.000Z</time>
      </trkpt>
      <trkpt lat="47.25905" lon="-2.31518">
        <ele>9.3999996185303</ele>
        <time>2020-01-23T08:43:33.000Z</time>
      </trkpt>
      <trkpt lat="47.25908" lon="-2.31518">
        <ele>9.3999996185303</ele>
        <time>2020-01-23T08:43:36.000Z</time>
      </trkpt>
      <trkpt lat="47.2591" lon="-2.31515">
        <ele>9.3999996185303</ele>
        <time>2020-01-23T08:43:40.000Z</time>
      </trkpt>
      <trkpt lat="47.25911" lon="-2.31511">
        <ele>9.3999996185303</ele>
        <time>2020-01-23T08:43:45.000Z</time>
      </trkpt>
      <trkpt lat="47.25911" lon="-2.31508">
        <ele>9.3999996185303</ele>
        <time>2020-01-23T08:43:48.000Z</time>
      </trkpt>
      <trkpt lat="47.25912" lon="-2.31504">
        <ele>9.3999996185303</ele>
        <time>2020-01-23T08:43:50.000Z</time>
      </trkpt>
      <trkpt lat="47.25914" lon="-2.31497">
        <ele>9.3999996185303</ele>
        <time>2020-01-23T08:43:52.000Z</time>
      </trkpt>
      <trkpt lat="47.25924" lon="-2.3147">
        <ele>9.3999996185303</ele>
        <time>2020-01-23T08:43:57.000Z</time>
      </trkpt>
      <trkpt lat="47.25926" lon="-2.31465">
        <ele>9.3999996185303</ele>
        <time>2020-01-23T08:43:58.000Z</time>
      </trkpt>
      <trkpt lat="47.25932" lon="-2.31459">
        <ele>9</ele>
        <time>2020-01-23T08:44:00.000Z</time>
      </trkpt>
      <trkpt lat="47.25936" lon="-2.3146">
        <ele>8.6000003814697</ele>
        <time>2020-01-23T08:44:01.000Z</time>
      </trkpt>
      <trkpt lat="47.25941" lon="-2.31462">
        <ele>8.1999998092651</ele>
        <time>2020-01-23T08:44:02.000Z</time>
      </trkpt>
      <trkpt lat="47.25945" lon="-2.31464">
        <ele>7.8000001907349</ele>
        <time>2020-01-23T08:44:03.000Z</time>
      </trkpt>
      <trkpt lat="47.25948" lon="-2.31468">
        <ele>7.4000000953674</ele>
        <time>2020-01-23T08:44:04.000Z</time>
      </trkpt>
      <trkpt lat="47.25956" lon="-2.31475">
        <ele>7.4000000953674</ele>
        <time>2020-01-23T08:44:06.000Z</time>
      </trkpt>
      <trkpt lat="47.2597" lon="-2.31493">
        <ele>7.4000000953674</ele>
        <time>2020-01-23T08:44:10.000Z</time>
      </trkpt>
      <trkpt lat="47.2598" lon="-2.31516">
        <ele>7.4000000953674</ele>
        <time>2020-01-23T08:44:14.000Z</time>
      </trkpt>
      <trkpt lat="47.25986" lon="-2.31526">
        <ele>7.4000000953674</ele>
        <time>2020-01-23T08:44:16.000Z</time>
      </trkpt>
      <trkpt lat="47.25998" lon="-2.31545">
        <ele>7.4000000953674</ele>
        <time>2020-01-23T08:44:20.000Z</time>
      </trkpt>
      <trkpt lat="47.26013" lon="-2.31563">
        <ele>7.4000000953674</ele>
        <time>2020-01-23T08:44:25.000Z</time>
      </trkpt>
      <trkpt lat="47.26016" lon="-2.31562">
        <ele>7.4000000953674</ele>
        <time>2020-01-23T08:44:26.000Z</time>
      </trkpt>
      <trkpt lat="47.26022" lon="-2.31555">
        <ele>7.4000000953674</ele>
        <time>2020-01-23T08:44:28.000Z</time>
      </trkpt>
      <trkpt lat="47.26033" lon="-2.31529">
        <ele>7.4000000953674</ele>
        <time>2020-01-23T08:44:33.000Z</time>
      </trkpt>
      <trkpt lat="47.26042" lon="-2.31516">
        <ele>7.4000000953674</ele>
        <time>2020-01-23T08:44:37.000Z</time>
      </trkpt>
      <trkpt lat="47.26053" lon="-2.31528">
        <ele>7.4000000953674</ele>
        <time>2020-01-23T08:44:40.000Z</time>
      </trkpt>
      <trkpt lat="47.26057" lon="-2.31534">
        <ele>7.4000000953674</ele>
        <time>2020-01-23T08:44:41.000Z</time>
      </trkpt>
      <trkpt lat="47.26063" lon="-2.31545">
        <ele>7.4000000953674</ele>
        <time>2020-01-23T08:44:43.000Z</time>
      </trkpt>
      <trkpt lat="47.26071" lon="-2.31563">
        <ele>7.4000000953674</ele>
        <time>2020-01-23T08:44:46.000Z</time>
      </trkpt>
      <trkpt lat="47.26073" lon="-2.31568">
        <ele>7.4000000953674</ele>
        <time>2020-01-23T08:44:47.000Z</time>
      </trkpt>
      <trkpt lat="47.26077" lon="-2.31577">
        <ele>6.8000001907349</ele>
        <time>2020-01-23T08:44:49.000Z</time>
      </trkpt>
      <trkpt lat="47.26079" lon="-2.31578">
        <ele>6.4000000953674</ele>
        <time>2020-01-23T08:44:50.000Z</time>
      </trkpt>
      <trkpt lat="47.2608" lon="-2.31578">
        <ele>6</ele>
        <time>2020-01-23T08:44:51.000Z</time>
      </trkpt>
      <trkpt lat="47.26082" lon="-2.31577">
        <ele>5.5999999046326</ele>
        <time>2020-01-23T08:44:52.000Z</time>
      </trkpt>
      <trkpt lat="47.26083" lon="-2.31576">
        <ele>5.1999998092651</ele>
        <time>2020-01-23T08:44:53.000Z</time>
      </trkpt>
      <trkpt lat="47.26085" lon="-2.31578">
        <ele>5.1999998092651</ele>
        <time>2020-01-23T08:44:54.000Z</time>
      </trkpt>
      <trkpt lat="47.26091" lon="-2.31589">
        <ele>5.1999998092651</ele>
        <time>2020-01-23T08:44:57.000Z</time>
      </trkpt>
      <trkpt lat="47.26093" lon="-2.31595">
        <ele>5.1999998092651</ele>
        <time>2020-01-23T08:44:58.000Z</time>
      </trkpt>
      <trkpt lat="47.26103" lon="-2.31611">
        <ele>5.1999998092651</ele>
        <time>2020-01-23T08:45:01.000Z</time>
      </trkpt>
      <trkpt lat="47.2611" lon="-2.31618">
        <ele>5.1999998092651</ele>
        <time>2020-01-23T08:45:03.000Z</time>
      </trkpt>
      <trkpt lat="47.26123" lon="-2.31617">
        <ele>5.1999998092651</ele>
        <time>2020-01-23T08:45:06.000Z</time>
      </trkpt>
      <trkpt lat="47.26127" lon="-2.31615">
        <ele>5.1999998092651</ele>
        <time>2020-01-23T08:45:07.000Z</time>
      </trkpt>
      <trkpt lat="47.26156" lon="-2.31605">
        <ele>5.1999998092651</ele>
        <time>2020-01-23T08:45:13.000Z</time>
      </trkpt>
      <trkpt lat="47.26183" lon="-2.31595">
        <ele>5.1999998092651</ele>
        <time>2020-01-23T08:45:18.000Z</time>
      </trkpt>
      <trkpt lat="47.26194" lon="-2.31592">
        <ele>5.1999998092651</ele>
        <time>2020-01-23T08:45:20.000Z</time>
      </trkpt>
      <trkpt lat="47.2621" lon="-2.31589">
        <ele>5.1999998092651</ele>
        <time>2020-01-23T08:45:23.000Z</time>
      </trkpt>
      <trkpt lat="47.26226" lon="-2.31594">
        <ele>5.1999998092651</ele>
        <time>2020-01-23T08:45:26.000Z</time>
      </trkpt>
      <trkpt lat="47.26231" lon="-2.31597">
        <ele>5.1999998092651</ele>
        <time>2020-01-23T08:45:27.000Z</time>
      </trkpt>
      <trkpt lat="47.26244" lon="-2.31608">
        <ele>5.1999998092651</ele>
        <time>2020-01-23T08:45:30.000Z</time>
      </trkpt>
      <trkpt lat="47.26258" lon="-2.31631">
        <ele>5.1999998092651</ele>
        <time>2020-01-23T08:45:34.000Z</time>
      </trkpt>
      <trkpt lat="47.2626" lon="-2.31637">
        <ele>5.1999998092651</ele>
        <time>2020-01-23T08:45:35.000Z</time>
      </trkpt>
      <trkpt lat="47.26272" lon="-2.31667">
        <ele>5.1999998092651</ele>
        <time>2020-01-23T08:45:40.000Z</time>
      </trkpt>
      <trkpt lat="47.26282" lon="-2.31684">
        <ele>5.1999998092651</ele>
        <time>2020-01-23T08:45:43.000Z</time>
      </trkpt>
      <trkpt lat="47.26289" lon="-2.31696">
        <ele>5.1999998092651</ele>
        <time>2020-01-23T08:45:45.000Z</time>
      </trkpt>
      <trkpt lat="47.26299" lon="-2.31715">
        <ele>5.1999998092651</ele>
        <time>2020-01-23T08:45:49.000Z</time>
      </trkpt>
      <trkpt lat="47.263" lon="-2.31722">
        <ele>5.1999998092651</ele>
        <time>2020-01-23T08:45:50.000Z</time>
      </trkpt>
      <trkpt lat="47.26303" lon="-2.31759">
        <ele>5.1999998092651</ele>
        <time>2020-01-23T08:45:56.000Z</time>
      </trkpt>
      <trkpt lat="47.26307" lon="-2.31781">
        <ele>5.1999998092651</ele>
        <time>2020-01-23T08:46:00.000Z</time>
      </trkpt>
      <trkpt lat="47.26307" lon="-2.31788">
        <ele>5.1999998092651</ele>
        <time>2020-01-23T08:46:01.000Z</time>
      </trkpt>
      <trkpt lat="47.26307" lon="-2.31806">
        <ele>5.1999998092651</ele>
        <time>2020-01-23T08:46:04.000Z</time>
      </trkpt>
      <trkpt lat="47.26306" lon="-2.31824">
        <ele>5.1999998092651</ele>
        <time>2020-01-23T08:46:07.000Z</time>
      </trkpt>
      <trkpt lat="47.26305" lon="-2.31834">
        <ele>5.1999998092651</ele>
        <time>2020-01-23T08:46:09.000Z</time>
      </trkpt>
      <trkpt lat="47.26306" lon="-2.31856">
        <ele>5.1999998092651</ele>
        <time>2020-01-23T08:46:14.000Z</time>
      </trkpt>
      <trkpt lat="47.26305" lon="-2.31882">
        <ele>5.1999998092651</ele>
        <time>2020-01-23T08:46:18.000Z</time>
      </trkpt>
      <trkpt lat="47.26305" lon="-2.31901">
        <ele>5.1999998092651</ele>
        <time>2020-01-23T08:46:22.000Z</time>
      </trkpt>
      <trkpt lat="47.26307" lon="-2.31918">
        <ele>5.1999998092651</ele>
        <time>2020-01-23T08:46:27.000Z</time>
      </trkpt>
      <trkpt lat="47.26309" lon="-2.31921">
        <ele>5.1999998092651</ele>
        <time>2020-01-23T08:46:28.000Z</time>
      </trkpt>
      <trkpt lat="47.26315" lon="-2.31925">
        <ele>5.1999998092651</ele>
        <time>2020-01-23T08:46:31.000Z</time>
      </trkpt>
      <trkpt lat="47.26324" lon="-2.31924">
        <ele>5.1999998092651</ele>
        <time>2020-01-23T08:46:37.000Z</time>
      </trkpt>
      <trkpt lat="47.26338" lon="-2.31928">
        <ele>5.1999998092651</ele>
        <time>2020-01-23T08:46:44.000Z</time>
      </trkpt>
      <trkpt lat="47.26342" lon="-2.31936">
        <ele>5.1999998092651</ele>
        <time>2020-01-23T08:46:49.000Z</time>
      </trkpt>
      <trkpt lat="47.26343" lon="-2.31938">
        <ele>5.1999998092651</ele>
        <time>2020-01-23T08:46:50.000Z</time>
      </trkpt>
      <trkpt lat="47.26347" lon="-2.31951">
        <ele>5.1999998092651</ele>
        <time>2020-01-23T08:46:55.000Z</time>
      </trkpt>
      <trkpt lat="47.26349" lon="-2.31953">
        <ele>5.1999998092651</ele>
        <time>2020-01-23T08:46:56.000Z</time>
      </trkpt>
      <trkpt lat="47.26349" lon="-2.31956">
        <ele>5.1999998092651</ele>
        <time>2020-01-23T08:46:57.000Z</time>
      </trkpt>
      <trkpt lat="47.26353" lon="-2.31967">
        <ele>5.1999998092651</ele>
        <time>2020-01-23T08:47:00.000Z</time>
      </trkpt>
      <trkpt lat="47.2636" lon="-2.31977">
        <ele>5.1999998092651</ele>
        <time>2020-01-23T08:47:04.000Z</time>
      </trkpt>
      <trkpt lat="47.26362" lon="-2.3198">
        <ele>5.1999998092651</ele>
        <time>2020-01-23T08:47:05.000Z</time>
      </trkpt>
      <trkpt lat="47.26372" lon="-2.31986">
        <ele>5.5999999046326</ele>
        <time>2020-01-23T08:47:09.000Z</time>
      </trkpt>
      <trkpt lat="47.26375" lon="-2.31987">
        <ele>6</ele>
        <time>2020-01-23T08:47:10.000Z</time>
      </trkpt>
      <trkpt lat="47.26377" lon="-2.31986">
        <ele>6.4000000953674</ele>
        <time>2020-01-23T08:47:11.000Z</time>
      </trkpt>
      <trkpt lat="47.2638" lon="-2.31985">
        <ele>6.8000001907349</ele>
        <time>2020-01-23T08:47:12.000Z</time>
      </trkpt>
      <trkpt lat="47.26383" lon="-2.31985">
        <ele>7.1999998092651</ele>
        <time>2020-01-23T08:47:13.000Z</time>
      </trkpt>
      <trkpt lat="47.26387" lon="-2.31988">
        <ele>7.1999998092651</ele>
        <time>2020-01-23T08:47:15.000Z</time>
      </trkpt>
      <trkpt lat="47.26396" lon="-2.31989">
        <ele>7.1999998092651</ele>
        <time>2020-01-23T08:47:20.000Z</time>
      </trkpt>
      <trkpt lat="47.26401" lon="-2.31991">
        <ele>8</ele>
        <time>2020-01-23T08:47:23.000Z</time>
      </trkpt>
      <trkpt lat="47.26403" lon="-2.31992">
        <ele>8.6000003814697</ele>
        <time>2020-01-23T08:47:24.000Z</time>
      </trkpt>
      <trkpt lat="47.26404" lon="-2.31993">
        <ele>9</ele>
        <time>2020-01-23T08:47:25.000Z</time>
      </trkpt>
      <trkpt lat="47.26406" lon="-2.31995">
        <ele>9.3999996185303</ele>
        <time>2020-01-23T08:47:26.000Z</time>
      </trkpt>
      <trkpt lat="47.26414" lon="-2.31997">
        <ele>9.3999996185303</ele>
        <time>2020-01-23T08:47:30.000Z</time>
      </trkpt>
      <trkpt lat="47.26426" lon="-2.31997">
        <ele>9.3999996185303</ele>
        <time>2020-01-23T08:47:36.000Z</time>
      </trkpt>
      <trkpt lat="47.26432" lon="-2.31998">
        <ele>9.8000001907349</ele>
        <time>2020-01-23T08:47:39.000Z</time>
      </trkpt>
      <trkpt lat="47.26434" lon="-2.31998">
        <ele>10.199999809265</ele>
        <time>2020-01-23T08:47:40.000Z</time>
      </trkpt>
      <trkpt lat="47.26435" lon="-2.31999">
        <ele>10.60000038147</ele>
        <time>2020-01-23T08:47:41.000Z</time>
      </trkpt>
      <trkpt lat="47.26437" lon="-2.31998">
        <ele>11.199999809265</ele>
        <time>2020-01-23T08:47:42.000Z</time>
      </trkpt>
      <trkpt lat="47.26438" lon="-2.31997">
        <ele>11.60000038147</ele>
        <time>2020-01-23T08:47:43.000Z</time>
      </trkpt>
      <trkpt lat="47.26439" lon="-2.31997">
        <ele>11.60000038147</ele>
        <time>2020-01-23T08:47:44.000Z</time>
      </trkpt>
      <trkpt lat="47.26449" lon="-2.31997">
        <ele>11.60000038147</ele>
        <time>2020-01-23T08:47:48.000Z</time>
      </trkpt>
      <trkpt lat="47.26453" lon="-2.31999">
        <ele>11.60000038147</ele>
        <time>2020-01-23T08:47:50.000Z</time>
      </trkpt>
      <trkpt lat="47.26456" lon="-2.31999">
        <ele>12</ele>
        <time>2020-01-23T08:47:52.000Z</time>
      </trkpt>
      <trkpt lat="47.26457" lon="-2.31998">
        <ele>12.39999961853</ele>
        <time>2020-01-23T08:47:53.000Z</time>
      </trkpt>
      <trkpt lat="47.2646" lon="-2.31998">
        <ele>12.800000190735</ele>
        <time>2020-01-23T08:47:54.000Z</time>
      </trkpt>
      <trkpt lat="47.26461" lon="-2.31997">
        <ele>13.199999809265</ele>
        <time>2020-01-23T08:47:55.000Z</time>
      </trkpt>
      <trkpt lat="47.26462" lon="-2.31997">
        <ele>13.60000038147</ele>
        <time>2020-01-23T08:47:56.000Z</time>
      </trkpt>
      <trkpt lat="47.26472" lon="-2.31995">
        <ele>13.60000038147</ele>
        <time>2020-01-23T08:48:02.000Z</time>
      </trkpt>
      <trkpt lat="47.26482" lon="-2.31994">
        <ele>13.60000038147</ele>
        <time>2020-01-23T08:48:08.000Z</time>
      </trkpt>
      <trkpt lat="47.26484" lon="-2.31995">
        <ele>13.60000038147</ele>
        <time>2020-01-23T08:48:09.000Z</time>
      </trkpt>
      <trkpt lat="47.2649" lon="-2.31998">
        <ele>13.60000038147</ele>
        <time>2020-01-23T08:48:13.000Z</time>
      </trkpt>
      <trkpt lat="47.26504" lon="-2.31999">
        <ele>14.800000190735</ele>
        <time>2020-01-23T08:48:59.000Z</time>
      </trkpt>
      <trkpt lat="47.26506" lon="-2.31999">
        <ele>15.199999809265</ele>
        <time>2020-01-23T08:49:00.000Z</time>
      </trkpt>
      <trkpt lat="47.26508" lon="-2.31998">
        <ele>15.60000038147</ele>
        <time>2020-01-23T08:49:01.000Z</time>
      </trkpt>
      <trkpt lat="47.2651" lon="-2.31998">
        <ele>15.60000038147</ele>
        <time>2020-01-23T08:49:02.000Z</time>
      </trkpt>
      <trkpt lat="47.26515" lon="-2.31998">
        <ele>16.200000762939</ele>
        <time>2020-01-23T08:49:06.000Z</time>
      </trkpt>
      <trkpt lat="47.2652" lon="-2.31998">
        <ele>17.799999237061</ele>
        <time>2020-01-23T08:49:11.000Z</time>
      </trkpt>
      <trkpt lat="47.26531" lon="-2.32008">
        <ele>17.799999237061</ele>
        <time>2020-01-23T08:49:16.000Z</time>
      </trkpt>
      <trkpt lat="47.26536" lon="-2.32015">
        <ele>17.799999237061</ele>
        <time>2020-01-23T08:49:19.000Z</time>
      </trkpt>
      <trkpt lat="47.26537" lon="-2.32018">
        <ele>17.799999237061</ele>
        <time>2020-01-23T08:49:20.000Z</time>
      </trkpt>
      <trkpt lat="47.2654" lon="-2.3203">
        <ele>18.200000762939</ele>
        <time>2020-01-23T08:49:23.000Z</time>
      </trkpt>
      <trkpt lat="47.26541" lon="-2.32033">
        <ele>18.60000038147</ele>
        <time>2020-01-23T08:49:24.000Z</time>
      </trkpt>
      <trkpt lat="47.26543" lon="-2.32036">
        <ele>19</ele>
        <time>2020-01-23T08:49:25.000Z</time>
      </trkpt>
      <trkpt lat="47.26546" lon="-2.32037">
        <ele>19.39999961853</ele>
        <time>2020-01-23T08:49:26.000Z</time>
      </trkpt>
      <trkpt lat="47.26549" lon="-2.32036">
        <ele>19.799999237061</ele>
        <time>2020-01-23T08:49:27.000Z</time>
      </trkpt>
      <trkpt lat="47.26555" lon="-2.32033">
        <ele>19.799999237061</ele>
        <time>2020-01-23T08:49:29.000Z</time>
      </trkpt>
      <trkpt lat="47.26558" lon="-2.32032">
        <ele>19.799999237061</ele>
        <time>2020-01-23T08:49:30.000Z</time>
      </trkpt>
      <trkpt lat="47.2657" lon="-2.32027">
        <ele>20.200000762939</ele>
        <time>2020-01-23T08:49:34.000Z</time>
      </trkpt>
      <trkpt lat="47.26574" lon="-2.32026">
        <ele>20.60000038147</ele>
        <time>2020-01-23T08:49:35.000Z</time>
      </trkpt>
      <trkpt lat="47.26578" lon="-2.32025">
        <ele>21</ele>
        <time>2020-01-23T08:49:36.000Z</time>
      </trkpt>
      <trkpt lat="47.26582" lon="-2.32024">
        <ele>21.39999961853</ele>
        <time>2020-01-23T08:49:37.000Z</time>
      </trkpt>
      <trkpt lat="47.26585" lon="-2.32023">
        <ele>22</ele>
        <time>2020-01-23T08:49:38.000Z</time>
      </trkpt>
      <trkpt lat="47.26602" lon="-2.32018">
        <ele>22</ele>
        <time>2020-01-23T08:49:43.000Z</time>
      </trkpt>
      <trkpt lat="47.26627" lon="-2.32012">
        <ele>22.39999961853</ele>
        <time>2020-01-23T08:49:51.000Z</time>
      </trkpt>
      <trkpt lat="47.2663" lon="-2.3201">
        <ele>22.799999237061</ele>
        <time>2020-01-23T08:49:52.000Z</time>
      </trkpt>
      <trkpt lat="47.26632" lon="-2.32009">
        <ele>23.200000762939</ele>
        <time>2020-01-23T08:49:53.000Z</time>
      </trkpt>
      <trkpt lat="47.26635" lon="-2.32008">
        <ele>23.60000038147</ele>
        <time>2020-01-23T08:49:54.000Z</time>
      </trkpt>
      <trkpt lat="47.26637" lon="-2.32007">
        <ele>24</ele>
        <time>2020-01-23T08:49:55.000Z</time>
      </trkpt>
      <trkpt lat="47.26642" lon="-2.32006">
        <ele>24</ele>
        <time>2020-01-23T08:49:58.000Z</time>
      </trkpt>
      <trkpt lat="47.26644" lon="-2.32007">
        <ele>24</ele>
        <time>2020-01-23T08:50:00.000Z</time>
      </trkpt>
      <trkpt lat="47.26648" lon="-2.32016">
        <ele>24</ele>
        <time>2020-01-23T08:50:03.000Z</time>
      </trkpt>
      <trkpt lat="47.26655" lon="-2.32041">
        <ele>24</ele>
        <time>2020-01-23T08:50:08.000Z</time>
      </trkpt>
      <trkpt lat="47.26665" lon="-2.32079">
        <ele>24</ele>
        <time>2020-01-23T08:50:15.000Z</time>
      </trkpt>
      <trkpt lat="47.26673" lon="-2.32114">
        <ele>24</ele>
        <time>2020-01-23T08:50:21.000Z</time>
      </trkpt>
      <trkpt lat="47.26677" lon="-2.32122">
        <ele>24</ele>
        <time>2020-01-23T08:50:23.000Z</time>
      </trkpt>
      <trkpt lat="47.26683" lon="-2.32116">
        <ele>24</ele>
        <time>2020-01-23T08:50:26.000Z</time>
      </trkpt>
      <trkpt lat="47.26684" lon="-2.321">
        <ele>24</ele>
        <time>2020-01-23T08:50:29.000Z</time>
      </trkpt>
      <trkpt lat="47.26684" lon="-2.32095">
        <ele>24</ele>
        <time>2020-01-23T08:50:30.000Z</time>
      </trkpt>
      <trkpt lat="47.26685" lon="-2.32077">
        <ele>24</ele>
        <time>2020-01-23T08:50:33.000Z</time>
      </trkpt>
      <trkpt lat="47.26685" lon="-2.3206">
        <ele>24</ele>
        <time>2020-01-23T08:50:36.000Z</time>
      </trkpt>
      <trkpt lat="47.26688" lon="-2.32034">
        <ele>24</ele>
        <time>2020-01-23T08:50:41.000Z</time>
      </trkpt>
      <trkpt lat="47.26697" lon="-2.32017">
        <ele>24</ele>
        <time>2020-01-23T08:50:45.000Z</time>
      </trkpt>
      <trkpt lat="47.26711" lon="-2.32001">
        <ele>24</ele>
        <time>2020-01-23T08:50:50.000Z</time>
      </trkpt>
      <trkpt lat="47.26725" lon="-2.31992">
        <ele>23.60000038147</ele>
        <time>2020-01-23T08:50:54.000Z</time>
      </trkpt>
      <trkpt lat="47.26729" lon="-2.3199">
        <ele>23.200000762939</ele>
        <time>2020-01-23T08:50:55.000Z</time>
      </trkpt>
      <trkpt lat="47.26732" lon="-2.31987">
        <ele>22.799999237061</ele>
        <time>2020-01-23T08:50:56.000Z</time>
      </trkpt>
      <trkpt lat="47.26734" lon="-2.31987">
        <ele>22.39999961853</ele>
        <time>2020-01-23T08:50:57.000Z</time>
      </trkpt>
      <trkpt lat="47.26736" lon="-2.31985">
        <ele>22</ele>
        <time>2020-01-23T08:50:58.000Z</time>
      </trkpt>
      <trkpt lat="47.26748" lon="-2.31968">
        <ele>22</ele>
        <time>2020-01-23T08:51:02.000Z</time>
      </trkpt>
      <trkpt lat="47.26761" lon="-2.3195">
        <ele>22</ele>
        <time>2020-01-23T08:51:06.000Z</time>
      </trkpt>
      <trkpt lat="47.26765" lon="-2.3195">
        <ele>22</ele>
        <time>2020-01-23T08:51:07.000Z</time>
      </trkpt>
      <trkpt lat="47.26772" lon="-2.31958">
        <ele>21.39999961853</ele>
        <time>2020-01-23T08:51:09.000Z</time>
      </trkpt>
      <trkpt lat="47.26775" lon="-2.31963">
        <ele>21</ele>
        <time>2020-01-23T08:51:10.000Z</time>
      </trkpt>
      <trkpt lat="47.26777" lon="-2.3197">
        <ele>20.60000038147</ele>
        <time>2020-01-23T08:51:11.000Z</time>
      </trkpt>
      <trkpt lat="47.2678" lon="-2.31976">
        <ele>20</ele>
        <time>2020-01-23T08:51:12.000Z</time>
      </trkpt>
      <trkpt lat="47.26784" lon="-2.31982">
        <ele>19.60000038147</ele>
        <time>2020-01-23T08:51:13.000Z</time>
      </trkpt>
      <trkpt lat="47.26792" lon="-2.31995">
        <ele>19.60000038147</ele>
        <time>2020-01-23T08:51:15.000Z</time>
      </trkpt>
      <trkpt lat="47.268" lon="-2.32011">
        <ele>19.60000038147</ele>
        <time>2020-01-23T08:51:17.000Z</time>
      </trkpt>
      <trkpt lat="47.26804" lon="-2.32019">
        <ele>19.200000762939</ele>
        <time>2020-01-23T08:51:18.000Z</time>
      </trkpt>
      <trkpt lat="47.26807" lon="-2.32027">
        <ele>18.799999237061</ele>
        <time>2020-01-23T08:51:19.000Z</time>
      </trkpt>
      <trkpt lat="47.2681" lon="-2.32036">
        <ele>18.39999961853</ele>
        <time>2020-01-23T08:51:20.000Z</time>
      </trkpt>
      <trkpt lat="47.26812" lon="-2.32045">
        <ele>18</ele>
        <time>2020-01-23T08:51:21.000Z</time>
      </trkpt>
      <trkpt lat="47.26815" lon="-2.32053">
        <ele>17.60000038147</ele>
        <time>2020-01-23T08:51:22.000Z</time>
      </trkpt>
      <trkpt lat="47.26824" lon="-2.32087">
        <ele>17.60000038147</ele>
        <time>2020-01-23T08:51:26.000Z</time>
      </trkpt>
      <trkpt lat="47.26832" lon="-2.3212">
        <ele>17.60000038147</ele>
        <time>2020-01-23T08:51:30.000Z</time>
      </trkpt>
      <trkpt lat="47.26838" lon="-2.32137">
        <ele>17.60000038147</ele>
        <time>2020-01-23T08:51:32.000Z</time>
      </trkpt>
      <trkpt lat="47.26843" lon="-2.32154">
        <ele>17.200000762939</ele>
        <time>2020-01-23T08:51:34.000Z</time>
      </trkpt>
      <trkpt lat="47.26846" lon="-2.32162">
        <ele>16.799999237061</ele>
        <time>2020-01-23T08:51:35.000Z</time>
      </trkpt>
      <trkpt lat="47.26848" lon="-2.3217">
        <ele>16.39999961853</ele>
        <time>2020-01-23T08:51:36.000Z</time>
      </trkpt>
      <trkpt lat="47.26852" lon="-2.32178">
        <ele>16</ele>
        <time>2020-01-23T08:51:37.000Z</time>
      </trkpt>
      <trkpt lat="47.26855" lon="-2.32187">
        <ele>15.39999961853</ele>
        <time>2020-01-23T08:51:38.000Z</time>
      </trkpt>
      <trkpt lat="47.26859" lon="-2.32195">
        <ele>15.39999961853</ele>
        <time>2020-01-23T08:51:39.000Z</time>
      </trkpt>
      <trkpt lat="47.26877" lon="-2.32232">
        <ele>15</ele>
        <time>2020-01-23T08:51:44.000Z</time>
      </trkpt>
      <trkpt lat="47.26881" lon="-2.32238">
        <ele>14.60000038147</ele>
        <time>2020-01-23T08:51:45.000Z</time>
      </trkpt>
      <trkpt lat="47.26884" lon="-2.32245">
        <ele>14.199999809265</ele>
        <time>2020-01-23T08:51:46.000Z</time>
      </trkpt>
      <trkpt lat="47.26887" lon="-2.32251">
        <ele>13.800000190735</ele>
        <time>2020-01-23T08:51:47.000Z</time>
      </trkpt>
      <trkpt lat="47.26891" lon="-2.32257">
        <ele>13.39999961853</ele>
        <time>2020-01-23T08:51:48.000Z</time>
      </trkpt>
      <trkpt lat="47.26895" lon="-2.32264">
        <ele>13</ele>
        <time>2020-01-23T08:51:49.000Z</time>
      </trkpt>
      <trkpt lat="47.26898" lon="-2.32271">
        <ele>12.60000038147</ele>
        <time>2020-01-23T08:51:50.000Z</time>
      </trkpt>
      <trkpt lat="47.26902" lon="-2.32278">
        <ele>12.199999809265</ele>
        <time>2020-01-23T08:51:51.000Z</time>
      </trkpt>
      <trkpt lat="47.26906" lon="-2.32285">
        <ele>11.800000190735</ele>
        <time>2020-01-23T08:51:52.000Z</time>
      </trkpt>
      <trkpt lat="47.26909" lon="-2.32292">
        <ele>11.39999961853</ele>
        <time>2020-01-23T08:51:53.000Z</time>
      </trkpt>
      <trkpt lat="47.26912" lon="-2.323">
        <ele>11.39999961853</ele>
        <time>2020-01-23T08:51:54.000Z</time>
      </trkpt>
      <trkpt lat="47.26915" lon="-2.32308">
        <ele>10.39999961853</ele>
        <time>2020-01-23T08:51:55.000Z</time>
      </trkpt>
      <trkpt lat="47.26918" lon="-2.32316">
        <ele>10</ele>
        <time>2020-01-23T08:51:56.000Z</time>
      </trkpt>
      <trkpt lat="47.2692" lon="-2.32324">
        <ele>9.6000003814697</ele>
        <time>2020-01-23T08:51:57.000Z</time>
      </trkpt>
      <trkpt lat="47.26921" lon="-2.3233">
        <ele>9.1999998092651</ele>
        <time>2020-01-23T08:51:58.000Z</time>
      </trkpt>
      <trkpt lat="47.26923" lon="-2.32337">
        <ele>9.1999998092651</ele>
        <time>2020-01-23T08:51:59.000Z</time>
      </trkpt>
      <trkpt lat="47.2693" lon="-2.32348">
        <ele>9.1999998092651</ele>
        <time>2020-01-23T08:52:02.000Z</time>
      </trkpt>
      <trkpt lat="47.26933" lon="-2.32359">
        <ele>9.1999998092651</ele>
        <time>2020-01-23T08:52:05.000Z</time>
      </trkpt>
      <trkpt lat="47.26937" lon="-2.32376">
        <ele>9.1999998092651</ele>
        <time>2020-01-23T08:52:08.000Z</time>
      </trkpt>
      <trkpt lat="47.26947" lon="-2.32407">
        <ele>9.1999998092651</ele>
        <time>2020-01-23T08:52:13.000Z</time>
      </trkpt>
      <trkpt lat="47.2695" lon="-2.32413">
        <ele>9.1999998092651</ele>
        <time>2020-01-23T08:52:14.000Z</time>
      </trkpt>
      <trkpt lat="47.26965" lon="-2.32438">
        <ele>9.1999998092651</ele>
        <time>2020-01-23T08:52:18.000Z</time>
      </trkpt>
      <trkpt lat="47.26969" lon="-2.32443">
        <ele>9.1999998092651</ele>
        <time>2020-01-23T08:52:19.000Z</time>
      </trkpt>
      <trkpt lat="47.26977" lon="-2.32454">
        <ele>9.1999998092651</ele>
        <time>2020-01-23T08:52:21.000Z</time>
      </trkpt>
      <trkpt lat="47.2699" lon="-2.32482">
        <ele>9.1999998092651</ele>
        <time>2020-01-23T08:52:25.000Z</time>
      </trkpt>
      <trkpt lat="47.27" lon="-2.32501">
        <ele>8.8000001907349</ele>
        <time>2020-01-23T08:52:28.000Z</time>
      </trkpt>
      <trkpt lat="47.27004" lon="-2.32505">
        <ele>8.1999998092651</ele>
        <time>2020-01-23T08:52:29.000Z</time>
      </trkpt>
      <trkpt lat="47.27009" lon="-2.32506">
        <ele>7.8000001907349</ele>
        <time>2020-01-23T08:52:30.000Z</time>
      </trkpt>
      <trkpt lat="47.27014" lon="-2.32505">
        <ele>7.4000000953674</ele>
        <time>2020-01-23T08:52:31.000Z</time>
      </trkpt>
      <trkpt lat="47.27018" lon="-2.32503">
        <ele>7</ele>
        <time>2020-01-23T08:52:32.000Z</time>
      </trkpt>
      <trkpt lat="47.27023" lon="-2.325">
        <ele>7</ele>
        <time>2020-01-23T08:52:33.000Z</time>
      </trkpt>
      <trkpt lat="47.27029" lon="-2.32485">
        <ele>7</ele>
        <time>2020-01-23T08:52:36.000Z</time>
      </trkpt>
      <trkpt lat="47.27029" lon="-2.32478">
        <ele>6.5999999046326</ele>
        <time>2020-01-23T08:52:37.000Z</time>
      </trkpt>
      <trkpt lat="47.2703" lon="-2.3247">
        <ele>6.1999998092651</ele>
        <time>2020-01-23T08:52:38.000Z</time>
      </trkpt>
      <trkpt lat="47.2703" lon="-2.32461">
        <ele>5.8000001907349</ele>
        <time>2020-01-23T08:52:39.000Z</time>
      </trkpt>
      <trkpt lat="47.2703" lon="-2.32452">
        <ele>5.4000000953674</ele>
        <time>2020-01-23T08:52:40.000Z</time>
      </trkpt>
      <trkpt lat="47.2703" lon="-2.32443">
        <ele>4.8000001907349</ele>
        <time>2020-01-23T08:52:41.000Z</time>
      </trkpt>
      <trkpt lat="47.27027" lon="-2.3239">
        <ele>4.8000001907349</ele>
        <time>2020-01-23T08:52:47.000Z</time>
      </trkpt>
      <trkpt lat="47.27022" lon="-2.32343">
        <ele>4.8000001907349</ele>
        <time>2020-01-23T08:52:53.000Z</time>
      </trkpt>
      <trkpt lat="47.27021" lon="-2.32327">
        <ele>4.8000001907349</ele>
        <time>2020-01-23T08:52:55.000Z</time>
      </trkpt>
      <trkpt lat="47.2702" lon="-2.32305">
        <ele>4.8000001907349</ele>
        <time>2020-01-23T08:52:58.000Z</time>
      </trkpt>
      <trkpt lat="47.27022" lon="-2.32252">
        <ele>4.8000001907349</ele>
        <time>2020-01-23T08:53:05.000Z</time>
      </trkpt>
      <trkpt lat="47.27018" lon="-2.32212">
        <ele>4.8000001907349</ele>
        <time>2020-01-23T08:53:11.000Z</time>
      </trkpt>
      <trkpt lat="47.2701" lon="-2.32188">
        <ele>4.8000001907349</ele>
        <time>2020-01-23T08:53:15.000Z</time>
      </trkpt>
      <trkpt lat="47.27003" lon="-2.32176">
        <ele>4.8000001907349</ele>
        <time>2020-01-23T08:53:17.000Z</time>
      </trkpt>
      <trkpt lat="47.26991" lon="-2.3216">
        <ele>4.8000001907349</ele>
        <time>2020-01-23T08:53:20.000Z</time>
      </trkpt>
      <trkpt lat="47.26989" lon="-2.32148">
        <ele>4.8000001907349</ele>
        <time>2020-01-23T08:53:22.000Z</time>
      </trkpt>
      <trkpt lat="47.26997" lon="-2.32134">
        <ele>4.8000001907349</ele>
        <time>2020-01-23T08:53:25.000Z</time>
      </trkpt>
      <trkpt lat="47.2701" lon="-2.32119">
        <ele>4.8000001907349</ele>
        <time>2020-01-23T08:53:29.000Z</time>
      </trkpt>
      <trkpt lat="47.27016" lon="-2.32098">
        <ele>4.8000001907349</ele>
        <time>2020-01-23T08:53:33.000Z</time>
      </trkpt>
      <trkpt lat="47.27017" lon="-2.32077">
        <ele>4.8000001907349</ele>
        <time>2020-01-23T08:53:37.000Z</time>
      </trkpt>
      <trkpt lat="47.27016" lon="-2.32042">
        <ele>5.4000000953674</ele>
        <time>2020-01-23T08:53:43.000Z</time>
      </trkpt>
      <trkpt lat="47.27016" lon="-2.32037">
        <ele>5.8000001907349</ele>
        <time>2020-01-23T08:53:44.000Z</time>
      </trkpt>
      <trkpt lat="47.27015" lon="-2.32031">
        <ele>6.1999998092651</ele>
        <time>2020-01-23T08:53:45.000Z</time>
      </trkpt>
      <trkpt lat="47.27014" lon="-2.32026">
        <ele>6.5999999046326</ele>
        <time>2020-01-23T08:53:46.000Z</time>
      </trkpt>
      <trkpt lat="47.27012" lon="-2.3202">
        <ele>7</ele>
        <time>2020-01-23T08:53:47.000Z</time>
      </trkpt>
      <trkpt lat="47.27011" lon="-2.32014">
        <ele>7</ele>
        <time>2020-01-23T08:53:48.000Z</time>
      </trkpt>
      <trkpt lat="47.27006" lon="-2.31994">
        <ele>7</ele>
        <time>2020-01-23T08:53:53.000Z</time>
      </trkpt>
      <trkpt lat="47.27004" lon="-2.31993">
        <ele>7</ele>
        <time>2020-01-23T08:53:54.000Z</time>
      </trkpt>
      <trkpt lat="47.26998" lon="-2.31994">
        <ele>7</ele>
        <time>2020-01-23T08:53:56.000Z</time>
      </trkpt>
      <trkpt lat="47.26993" lon="-2.31997">
        <ele>7.4000000953674</ele>
        <time>2020-01-23T08:53:58.000Z</time>
      </trkpt>
      <trkpt lat="47.26989" lon="-2.31997">
        <ele>7.8000001907349</ele>
        <time>2020-01-23T08:53:59.000Z</time>
      </trkpt>
      <trkpt lat="47.26986" lon="-2.31998">
        <ele>8.1999998092651</ele>
        <time>2020-01-23T08:54:00.000Z</time>
      </trkpt>
      <trkpt lat="47.26983" lon="-2.31999">
        <ele>8.6000003814697</ele>
        <time>2020-01-23T08:54:01.000Z</time>
      </trkpt>
      <trkpt lat="47.26979" lon="-2.32001">
        <ele>9</ele>
        <time>2020-01-23T08:54:02.000Z</time>
      </trkpt>
      <trkpt lat="47.26975" lon="-2.32002">
        <ele>9</ele>
        <time>2020-01-23T08:54:03.000Z</time>
      </trkpt>
      <trkpt lat="47.26953" lon="-2.32001">
        <ele>9</ele>
        <time>2020-01-23T08:54:09.000Z</time>
      </trkpt>
      <trkpt lat="47.2694" lon="-2.31985">
        <ele>9</ele>
        <time>2020-01-23T08:54:14.000Z</time>
      </trkpt>
      <trkpt lat="47.26937" lon="-2.31982">
        <ele>9.6000003814697</ele>
        <time>2020-01-23T08:54:15.000Z</time>
      </trkpt>
      <trkpt lat="47.26935" lon="-2.31978">
        <ele>10</ele>
        <time>2020-01-23T08:54:16.000Z</time>
      </trkpt>
      <trkpt lat="47.26933" lon="-2.31974">
        <ele>10.39999961853</ele>
        <time>2020-01-23T08:54:17.000Z</time>
      </trkpt>
      <trkpt lat="47.26931" lon="-2.3197">
        <ele>10.800000190735</ele>
        <time>2020-01-23T08:54:18.000Z</time>
      </trkpt>
      <trkpt lat="47.26928" lon="-2.31967">
        <ele>11.199999809265</ele>
        <time>2020-01-23T08:54:19.000Z</time>
      </trkpt>
      <trkpt lat="47.26925" lon="-2.31964">
        <ele>11.199999809265</ele>
        <time>2020-01-23T08:54:20.000Z</time>
      </trkpt>
      <trkpt lat="47.26909" lon="-2.31947">
        <ele>11.60000038147</ele>
        <time>2020-01-23T08:54:25.000Z</time>
      </trkpt>
      <trkpt lat="47.26907" lon="-2.31944">
        <ele>12</ele>
        <time>2020-01-23T08:54:26.000Z</time>
      </trkpt>
      <trkpt lat="47.26905" lon="-2.3194">
        <ele>12.60000038147</ele>
        <time>2020-01-23T08:54:27.000Z</time>
      </trkpt>
      <trkpt lat="47.26902" lon="-2.31936">
        <ele>13</ele>
        <time>2020-01-23T08:54:28.000Z</time>
      </trkpt>
      <trkpt lat="47.26899" lon="-2.31932">
        <ele>13.39999961853</ele>
        <time>2020-01-23T08:54:29.000Z</time>
      </trkpt>
      <trkpt lat="47.26896" lon="-2.31927">
        <ele>13.39999961853</ele>
        <time>2020-01-23T08:54:30.000Z</time>
      </trkpt>
      <trkpt lat="47.26888" lon="-2.3191">
        <ele>13.800000190735</ele>
        <time>2020-01-23T08:54:34.000Z</time>
      </trkpt>
      <trkpt lat="47.26885" lon="-2.31907">
        <ele>14.199999809265</ele>
        <time>2020-01-23T08:54:35.000Z</time>
      </trkpt>
      <trkpt lat="47.26883" lon="-2.31905">
        <ele>14.60000038147</ele>
        <time>2020-01-23T08:54:36.000Z</time>
      </trkpt>
      <trkpt lat="47.26881" lon="-2.31902">
        <ele>15</ele>
        <time>2020-01-23T08:54:37.000Z</time>
      </trkpt>
      <trkpt lat="47.26878" lon="-2.319">
        <ele>15.39999961853</ele>
        <time>2020-01-23T08:54:38.000Z</time>
      </trkpt>
      <trkpt lat="47.26866" lon="-2.31895">
        <ele>15.39999961853</ele>
        <time>2020-01-23T08:54:42.000Z</time>
      </trkpt>
      <trkpt lat="47.26845" lon="-2.31887">
        <ele>15.800000190735</ele>
        <time>2020-01-23T08:54:49.000Z</time>
      </trkpt>
      <trkpt lat="47.26842" lon="-2.31884">
        <ele>16.200000762939</ele>
        <time>2020-01-23T08:54:50.000Z</time>
      </trkpt>
      <trkpt lat="47.2684" lon="-2.31881">
        <ele>16.799999237061</ele>
        <time>2020-01-23T08:54:51.000Z</time>
      </trkpt>
      <trkpt lat="47.26839" lon="-2.31878">
        <ele>17.200000762939</ele>
        <time>2020-01-23T08:54:52.000Z</time>
      </trkpt>
      <trkpt lat="47.26838" lon="-2.31874">
        <ele>17.60000038147</ele>
        <time>2020-01-23T08:54:53.000Z</time>
      </trkpt>
      <trkpt lat="47.26836" lon="-2.31871">
        <ele>17.60000038147</ele>
        <time>2020-01-23T08:54:54.000Z</time>
      </trkpt>
      <trkpt lat="47.26829" lon="-2.31854">
        <ele>18.200000762939</ele>
        <time>2020-01-23T08:54:59.000Z</time>
      </trkpt>
      <trkpt lat="47.26828" lon="-2.3185">
        <ele>18.60000038147</ele>
        <time>2020-01-23T08:55:00.000Z</time>
      </trkpt>
      <trkpt lat="47.26826" lon="-2.31847">
        <ele>19</ele>
        <time>2020-01-23T08:55:01.000Z</time>
      </trkpt>
      <trkpt lat="47.26825" lon="-2.31843">
        <ele>19.39999961853</ele>
        <time>2020-01-23T08:55:02.000Z</time>
      </trkpt>
      <trkpt lat="47.26824" lon="-2.3184">
        <ele>19.799999237061</ele>
        <time>2020-01-23T08:55:03.000Z</time>
      </trkpt>
      <trkpt lat="47.2682" lon="-2.31827">
        <ele>19.799999237061</ele>
        <time>2020-01-23T08:55:07.000Z</time>
      </trkpt>
      <trkpt lat="47.26817" lon="-2.31815">
        <ele>20.60000038147</ele>
        <time>2020-01-23T08:55:11.000Z</time>
      </trkpt>
      <trkpt lat="47.26818" lon="-2.31813">
        <ele>21</ele>
        <time>2020-01-23T08:55:12.000Z</time>
      </trkpt>
      <trkpt lat="47.2682" lon="-2.31811">
        <ele>21.39999961853</ele>
        <time>2020-01-23T08:55:13.000Z</time>
      </trkpt>
      <trkpt lat="47.26822" lon="-2.31808">
        <ele>21.799999237061</ele>
        <time>2020-01-23T08:55:14.000Z</time>
      </trkpt>
      <trkpt lat="47.26838" lon="-2.31796">
        <ele>21.799999237061</ele>
        <time>2020-01-23T08:55:19.000Z</time>
      </trkpt>
      <trkpt lat="47.26856" lon="-2.31785">
        <ele>21.799999237061</ele>
        <time>2020-01-23T08:55:24.000Z</time>
      </trkpt>
      <trkpt lat="47.26874" lon="-2.3177">
        <ele>21.799999237061</ele>
        <time>2020-01-23T08:55:29.000Z</time>
      </trkpt>
      <trkpt lat="47.2688" lon="-2.31761">
        <ele>21.799999237061</ele>
        <time>2020-01-23T08:55:31.000Z</time>
      </trkpt>
      <trkpt lat="47.2689" lon="-2.31729">
        <ele>21.799999237061</ele>
        <time>2020-01-23T08:55:36.000Z</time>
      </trkpt>
      <trkpt lat="47.2689" lon="-2.3171">
        <ele>21.799999237061</ele>
        <time>2020-01-23T08:55:39.000Z</time>
      </trkpt>
      <trkpt lat="47.26889" lon="-2.31698">
        <ele>21.799999237061</ele>
        <time>2020-01-23T08:55:41.000Z</time>
      </trkpt>
      <trkpt lat="47.26885" lon="-2.31651">
        <ele>21.799999237061</ele>
        <time>2020-01-23T08:55:49.000Z</time>
      </trkpt>
      <trkpt lat="47.26884" lon="-2.31645">
        <ele>22.200000762939</ele>
        <time>2020-01-23T08:55:50.000Z</time>
      </trkpt>
      <trkpt lat="47.26884" lon="-2.31639">
        <ele>22.60000038147</ele>
        <time>2020-01-23T08:55:51.000Z</time>
      </trkpt>
      <trkpt lat="47.26885" lon="-2.31634">
        <ele>23</ele>
        <time>2020-01-23T08:55:52.000Z</time>
      </trkpt>
      <trkpt lat="47.26888" lon="-2.31629">
        <ele>23.39999961853</ele>
        <time>2020-01-23T08:55:53.000Z</time>
      </trkpt>
      <trkpt lat="47.26893" lon="-2.31629">
        <ele>23.799999237061</ele>
        <time>2020-01-23T08:55:54.000Z</time>
      </trkpt>
      <trkpt lat="47.26913" lon="-2.31632">
        <ele>23.799999237061</ele>
        <time>2020-01-23T08:55:58.000Z</time>
      </trkpt>
      <trkpt lat="47.26919" lon="-2.31635">
        <ele>23.799999237061</ele>
        <time>2020-01-23T08:55:59.000Z</time>
      </trkpt>
      <trkpt lat="47.26942" lon="-2.31646">
        <ele>23.39999961853</ele>
        <time>2020-01-23T08:56:03.000Z</time>
      </trkpt>
      <trkpt lat="47.26949" lon="-2.31651">
        <ele>23</ele>
        <time>2020-01-23T08:56:04.000Z</time>
      </trkpt>
      <trkpt lat="47.26955" lon="-2.31655">
        <ele>22.60000038147</ele>
        <time>2020-01-23T08:56:05.000Z</time>
      </trkpt>
      <trkpt lat="47.26961" lon="-2.3166">
        <ele>22.200000762939</ele>
        <time>2020-01-23T08:56:06.000Z</time>
      </trkpt>
      <trkpt lat="47.26968" lon="-2.31664">
        <ele>21.799999237061</ele>
        <time>2020-01-23T08:56:07.000Z</time>
      </trkpt>
      <trkpt lat="47.26974" lon="-2.31669">
        <ele>21.200000762939</ele>
        <time>2020-01-23T08:56:08.000Z</time>
      </trkpt>
      <trkpt lat="47.26981" lon="-2.31674">
        <ele>20.799999237061</ele>
        <time>2020-01-23T08:56:09.000Z</time>
      </trkpt>
      <trkpt lat="47.26988" lon="-2.3168">
        <ele>20.39999961853</ele>
        <time>2020-01-23T08:56:10.000Z</time>
      </trkpt>
      <trkpt lat="47.26995" lon="-2.31685">
        <ele>20</ele>
        <time>2020-01-23T08:56:11.000Z</time>
      </trkpt>
      <trkpt lat="47.27" lon="-2.31689">
        <ele>19.60000038147</ele>
        <time>2020-01-23T08:56:12.000Z</time>
      </trkpt>
      <trkpt lat="47.27004" lon="-2.31692">
        <ele>19</ele>
        <time>2020-01-23T08:56:13.000Z</time>
      </trkpt>
      <trkpt lat="47.27007" lon="-2.31695">
        <ele>18.60000038147</ele>
        <time>2020-01-23T08:56:14.000Z</time>
      </trkpt>
      <trkpt lat="47.2701" lon="-2.31697">
        <ele>18</ele>
        <time>2020-01-23T08:56:15.000Z</time>
      </trkpt>
      <trkpt lat="47.27013" lon="-2.317">
        <ele>17.60000038147</ele>
        <time>2020-01-23T08:56:16.000Z</time>
      </trkpt>
      <trkpt lat="47.2702" lon="-2.3171">
        <ele>17.200000762939</ele>
        <time>2020-01-23T08:56:20.000Z</time>
      </trkpt>
      <trkpt lat="47.27023" lon="-2.3171">
        <ele>16.60000038147</ele>
        <time>2020-01-23T08:56:21.000Z</time>
      </trkpt>
      <trkpt lat="47.27024" lon="-2.31708">
        <ele>16.200000762939</ele>
        <time>2020-01-23T08:56:22.000Z</time>
      </trkpt>
      <trkpt lat="47.27026" lon="-2.31706">
        <ele>15.800000190735</ele>
        <time>2020-01-23T08:56:23.000Z</time>
      </trkpt>
      <trkpt lat="47.27026" lon="-2.31704">
        <ele>15.39999961853</ele>
        <time>2020-01-23T08:56:24.000Z</time>
      </trkpt>
      <trkpt lat="47.27027" lon="-2.31695">
        <ele>15.39999961853</ele>
        <time>2020-01-23T08:56:27.000Z</time>
      </trkpt>
      <trkpt lat="47.27029" lon="-2.31671">
        <ele>15.39999961853</ele>
        <time>2020-01-23T08:56:32.000Z</time>
      </trkpt>
      <trkpt lat="47.27027" lon="-2.31653">
        <ele>15.39999961853</ele>
        <time>2020-01-23T08:56:36.000Z</time>
      </trkpt>
      <trkpt lat="47.27026" lon="-2.31635">
        <ele>15.800000190735</ele>
        <time>2020-01-23T08:56:40.000Z</time>
      </trkpt>
      <trkpt lat="47.27026" lon="-2.3163">
        <ele>16.200000762939</ele>
        <time>2020-01-23T08:56:41.000Z</time>
      </trkpt>
      <trkpt lat="47.27025" lon="-2.31625">
        <ele>16.60000038147</ele>
        <time>2020-01-23T08:56:42.000Z</time>
      </trkpt>
      <trkpt lat="47.27024" lon="-2.31621">
        <ele>17</ele>
        <time>2020-01-23T08:56:43.000Z</time>
      </trkpt>
      <trkpt lat="47.27024" lon="-2.31617">
        <ele>17.39999961853</ele>
        <time>2020-01-23T08:56:44.000Z</time>
      </trkpt>
      <trkpt lat="47.27023" lon="-2.31613">
        <ele>17.39999961853</ele>
        <time>2020-01-23T08:56:45.000Z</time>
      </trkpt>
      <trkpt lat="47.27024" lon="-2.31607">
        <ele>17.799999237061</ele>
        <time>2020-01-23T08:56:47.000Z</time>
      </trkpt>
      <trkpt lat="47.27024" lon="-2.31603">
        <ele>18.200000762939</ele>
        <time>2020-01-23T08:56:48.000Z</time>
      </trkpt>
      <trkpt lat="47.27023" lon="-2.316">
        <ele>18.60000038147</ele>
        <time>2020-01-23T08:56:49.000Z</time>
      </trkpt>
      <trkpt lat="47.27022" lon="-2.31597">
        <ele>19.39999961853</ele>
        <time>2020-01-23T08:56:50.000Z</time>
      </trkpt>
      <trkpt lat="47.27015" lon="-2.31574">
        <ele>19.39999961853</ele>
        <time>2020-01-23T08:56:55.000Z</time>
      </trkpt>
      <trkpt lat="47.27013" lon="-2.3157">
        <ele>20</ele>
        <time>2020-01-23T08:56:56.000Z</time>
      </trkpt>
      <trkpt lat="47.27012" lon="-2.31566">
        <ele>20.39999961853</ele>
        <time>2020-01-23T08:56:57.000Z</time>
      </trkpt>
      <trkpt lat="47.27011" lon="-2.31561">
        <ele>20.799999237061</ele>
        <time>2020-01-23T08:56:58.000Z</time>
      </trkpt>
      <trkpt lat="47.27009" lon="-2.31557">
        <ele>21.200000762939</ele>
        <time>2020-01-23T08:56:59.000Z</time>
      </trkpt>
      <trkpt lat="47.27009" lon="-2.31553">
        <ele>21.60000038147</ele>
        <time>2020-01-23T08:57:00.000Z</time>
      </trkpt>
      <trkpt lat="47.27009" lon="-2.31548">
        <ele>21.60000038147</ele>
        <time>2020-01-23T08:57:01.000Z</time>
      </trkpt>
      <trkpt lat="47.27007" lon="-2.31539">
        <ele>21.60000038147</ele>
        <time>2020-01-23T08:57:04.000Z</time>
      </trkpt>
      <trkpt lat="47.27006" lon="-2.31536">
        <ele>21.60000038147</ele>
        <time>2020-01-23T08:57:05.000Z</time>
      </trkpt>
      <trkpt lat="47.27004" lon="-2.3152">
        <ele>21.60000038147</ele>
        <time>2020-01-23T08:57:09.000Z</time>
      </trkpt>
      <trkpt lat="47.27002" lon="-2.31513">
        <ele>22</ele>
        <time>2020-01-23T08:57:11.000Z</time>
      </trkpt>
      <trkpt lat="47.27" lon="-2.31508">
        <ele>22.39999961853</ele>
        <time>2020-01-23T08:57:12.000Z</time>
      </trkpt>
      <trkpt lat="47.26999" lon="-2.31506">
        <ele>22.799999237061</ele>
        <time>2020-01-23T08:57:13.000Z</time>
      </trkpt>
      <trkpt lat="47.26999" lon="-2.31501">
        <ele>23.200000762939</ele>
        <time>2020-01-23T08:57:14.000Z</time>
      </trkpt>
      <trkpt lat="47.26998" lon="-2.31495">
        <ele>23.60000038147</ele>
        <time>2020-01-23T08:57:15.000Z</time>
      </trkpt>
      <trkpt lat="47.26994" lon="-2.31478">
        <ele>23.60000038147</ele>
        <time>2020-01-23T08:57:19.000Z</time>
      </trkpt>
      <trkpt lat="47.26992" lon="-2.31467">
        <ele>24</ele>
        <time>2020-01-23T08:57:22.000Z</time>
      </trkpt>
      <trkpt lat="47.26992" lon="-2.31462">
        <ele>24.39999961853</ele>
        <time>2020-01-23T08:57:23.000Z</time>
      </trkpt>
      <trkpt lat="47.26992" lon="-2.31456">
        <ele>24.799999237061</ele>
        <time>2020-01-23T08:57:24.000Z</time>
      </trkpt>
      <trkpt lat="47.26991" lon="-2.31451">
        <ele>25.200000762939</ele>
        <time>2020-01-23T08:57:25.000Z</time>
      </trkpt>
      <trkpt lat="47.26991" lon="-2.31447">
        <ele>25.60000038147</ele>
        <time>2020-01-23T08:57:26.000Z</time>
      </trkpt>
      <trkpt lat="47.26989" lon="-2.31429">
        <ele>25.60000038147</ele>
        <time>2020-01-23T08:57:30.000Z</time>
      </trkpt>
      <trkpt lat="47.26987" lon="-2.31397">
        <ele>25.60000038147</ele>
        <time>2020-01-23T08:57:37.000Z</time>
      </trkpt>
      <trkpt lat="47.26987" lon="-2.31387">
        <ele>26</ele>
        <time>2020-01-23T08:57:39.000Z</time>
      </trkpt>
      <trkpt lat="47.26986" lon="-2.31383">
        <ele>26.39999961853</ele>
        <time>2020-01-23T08:57:40.000Z</time>
      </trkpt>
      <trkpt lat="47.26986" lon="-2.31379">
        <ele>26.799999237061</ele>
        <time>2020-01-23T08:57:41.000Z</time>
      </trkpt>
      <trkpt lat="47.26985" lon="-2.31376">
        <ele>27.200000762939</ele>
        <time>2020-01-23T08:57:42.000Z</time>
      </trkpt>
      <trkpt lat="47.26985" lon="-2.31373">
        <ele>27.60000038147</ele>
        <time>2020-01-23T08:57:43.000Z</time>
      </trkpt>
      <trkpt lat="47.26983" lon="-2.31347">
        <ele>27.60000038147</ele>
        <time>2020-01-23T08:57:48.000Z</time>
      </trkpt>
      <trkpt lat="47.26982" lon="-2.31342">
        <ele>28</ele>
        <time>2020-01-23T08:57:49.000Z</time>
      </trkpt>
      <trkpt lat="47.26982" lon="-2.31337">
        <ele>28.39999961853</ele>
        <time>2020-01-23T08:57:50.000Z</time>
      </trkpt>
      <trkpt lat="47.26982" lon="-2.31332">
        <ele>29</ele>
        <time>2020-01-23T08:57:51.000Z</time>
      </trkpt>
      <trkpt lat="47.26981" lon="-2.31326">
        <ele>29.39999961853</ele>
        <time>2020-01-23T08:57:52.000Z</time>
      </trkpt>
      <trkpt lat="47.2698" lon="-2.3132">
        <ele>29.799999237061</ele>
        <time>2020-01-23T08:57:53.000Z</time>
      </trkpt>
      <trkpt lat="47.2698" lon="-2.31315">
        <ele>29.799999237061</ele>
        <time>2020-01-23T08:57:54.000Z</time>
      </trkpt>
      <trkpt lat="47.26978" lon="-2.31276">
        <ele>29.799999237061</ele>
        <time>2020-01-23T08:58:01.000Z</time>
      </trkpt>
      <trkpt lat="47.26977" lon="-2.31246">
        <ele>29.799999237061</ele>
        <time>2020-01-23T08:58:05.000Z</time>
      </trkpt>
      <trkpt lat="47.26977" lon="-2.31239">
        <ele>29.799999237061</ele>
        <time>2020-01-23T08:58:06.000Z</time>
      </trkpt>
      <trkpt lat="47.26982" lon="-2.31202">
        <ele>29.799999237061</ele>
        <time>2020-01-23T08:58:11.000Z</time>
      </trkpt>
      <trkpt lat="47.26988" lon="-2.31157">
        <ele>29.799999237061</ele>
        <time>2020-01-23T08:58:16.000Z</time>
      </trkpt>
      <trkpt lat="47.26991" lon="-2.31129">
        <ele>29.39999961853</ele>
        <time>2020-01-23T08:58:19.000Z</time>
      </trkpt>
      <trkpt lat="47.26992" lon="-2.31119">
        <ele>29</ele>
        <time>2020-01-23T08:58:20.000Z</time>
      </trkpt>
      <trkpt lat="47.26992" lon="-2.31109">
        <ele>28.39999961853</ele>
        <time>2020-01-23T08:58:21.000Z</time>
      </trkpt>
      <trkpt lat="47.26992" lon="-2.311">
        <ele>28</ele>
        <time>2020-01-23T08:58:22.000Z</time>
      </trkpt>
      <trkpt lat="47.26991" lon="-2.31092">
        <ele>27.60000038147</ele>
        <time>2020-01-23T08:58:23.000Z</time>
      </trkpt>
      <trkpt lat="47.26989" lon="-2.31085">
        <ele>27.60000038147</ele>
        <time>2020-01-23T08:58:24.000Z</time>
      </trkpt>
      <trkpt lat="47.26988" lon="-2.3108">
        <ele>27.60000038147</ele>
        <time>2020-01-23T08:58:25.000Z</time>
      </trkpt>
      <trkpt lat="47.26995" lon="-2.31066">
        <ele>27</ele>
        <time>2020-01-23T08:58:28.000Z</time>
      </trkpt>
      <trkpt lat="47.27" lon="-2.31062">
        <ele>26.200000762939</ele>
        <time>2020-01-23T08:58:29.000Z</time>
      </trkpt>
      <trkpt lat="47.27004" lon="-2.31059">
        <ele>25.799999237061</ele>
        <time>2020-01-23T08:58:30.000Z</time>
      </trkpt>
      <trkpt lat="47.27009" lon="-2.31055">
        <ele>25.200000762939</ele>
        <time>2020-01-23T08:58:31.000Z</time>
      </trkpt>
      <trkpt lat="47.27014" lon="-2.31051">
        <ele>25.200000762939</ele>
        <time>2020-01-23T08:58:32.000Z</time>
      </trkpt>
      <trkpt lat="47.2704" lon="-2.31029">
        <ele>24.799999237061</ele>
        <time>2020-01-23T08:58:37.000Z</time>
      </trkpt>
      <trkpt lat="47.27044" lon="-2.31026">
        <ele>24.39999961853</ele>
        <time>2020-01-23T08:58:38.000Z</time>
      </trkpt>
      <trkpt lat="47.27048" lon="-2.31022">
        <ele>24</ele>
        <time>2020-01-23T08:58:39.000Z</time>
      </trkpt>
      <trkpt lat="47.27051" lon="-2.31018">
        <ele>23.60000038147</ele>
        <time>2020-01-23T08:58:40.000Z</time>
      </trkpt>
      <trkpt lat="47.27055" lon="-2.31014">
        <ele>23.200000762939</ele>
        <time>2020-01-23T08:58:41.000Z</time>
      </trkpt>
      <trkpt lat="47.27058" lon="-2.31011">
        <ele>23.200000762939</ele>
        <time>2020-01-23T08:58:42.000Z</time>
      </trkpt>
      <trkpt lat="47.27061" lon="-2.30999">
        <ele>23.200000762939</ele>
        <time>2020-01-23T08:58:44.000Z</time>
      </trkpt>
      <trkpt lat="47.27059" lon="-2.30992">
        <ele>23.200000762939</ele>
        <time>2020-01-23T08:58:45.000Z</time>
      </trkpt>
      <trkpt lat="47.27057" lon="-2.30964">
        <ele>22.799999237061</ele>
        <time>2020-01-23T08:58:50.000Z</time>
      </trkpt>
      <trkpt lat="47.27057" lon="-2.30958">
        <ele>22.200000762939</ele>
        <time>2020-01-23T08:58:51.000Z</time>
      </trkpt>
      <trkpt lat="47.27056" lon="-2.30955">
        <ele>21.799999237061</ele>
        <time>2020-01-23T08:58:52.000Z</time>
      </trkpt>
      <trkpt lat="47.27056" lon="-2.30951">
        <ele>21.39999961853</ele>
        <time>2020-01-23T08:58:53.000Z</time>
      </trkpt>
      <trkpt lat="47.27055" lon="-2.30946">
        <ele>21</ele>
        <time>2020-01-23T08:58:54.000Z</time>
      </trkpt>
      <trkpt lat="47.27053" lon="-2.30936">
        <ele>21</ele>
        <time>2020-01-23T08:58:57.000Z</time>
      </trkpt>
      <trkpt lat="47.27053" lon="-2.30933">
        <ele>21</ele>
        <time>2020-01-23T08:58:58.000Z</time>
      </trkpt>
      <trkpt lat="47.27047" lon="-2.30907">
        <ele>21</ele>
        <time>2020-01-23T08:59:03.000Z</time>
      </trkpt>
      <trkpt lat="47.27034" lon="-2.30882">
        <ele>21</ele>
        <time>2020-01-23T08:59:08.000Z</time>
      </trkpt>
      <trkpt lat="47.27024" lon="-2.30862">
        <ele>21</ele>
        <time>2020-01-23T08:59:13.000Z</time>
      </trkpt>
      <trkpt lat="47.27012" lon="-2.30845">
        <ele>21</ele>
        <time>2020-01-23T08:59:19.000Z</time>
      </trkpt>
      <trkpt lat="47.27003" lon="-2.30826">
        <ele>21.39999961853</ele>
        <time>2020-01-23T08:59:25.000Z</time>
      </trkpt>
      <trkpt lat="47.27001" lon="-2.30823">
        <ele>21.799999237061</ele>
        <time>2020-01-23T08:59:26.000Z</time>
      </trkpt>
      <trkpt lat="47.27" lon="-2.30822">
        <ele>22.200000762939</ele>
        <time>2020-01-23T08:59:27.000Z</time>
      </trkpt>
      <trkpt lat="47.26998" lon="-2.30819">
        <ele>22.60000038147</ele>
        <time>2020-01-23T08:59:28.000Z</time>
      </trkpt>
      <trkpt lat="47.26997" lon="-2.30817">
        <ele>23</ele>
        <time>2020-01-23T08:59:29.000Z</time>
      </trkpt>
      <trkpt lat="47.26993" lon="-2.30811">
        <ele>23</ele>
        <time>2020-01-23T08:59:32.000Z</time>
      </trkpt>
      <trkpt lat="47.26987" lon="-2.308">
        <ele>23</ele>
        <time>2020-01-23T08:59:37.000Z</time>
      </trkpt>
      <trkpt lat="47.26972" lon="-2.30777">
        <ele>23.799999237061</ele>
        <time>2020-01-23T08:59:43.000Z</time>
      </trkpt>
      <trkpt lat="47.26969" lon="-2.30773">
        <ele>24.200000762939</ele>
        <time>2020-01-23T08:59:44.000Z</time>
      </trkpt>
      <trkpt lat="47.26967" lon="-2.30768">
        <ele>24.60000038147</ele>
        <time>2020-01-23T08:59:45.000Z</time>
      </trkpt>
      <trkpt lat="47.26964" lon="-2.30764">
        <ele>25</ele>
        <time>2020-01-23T08:59:46.000Z</time>
      </trkpt>
      <trkpt lat="47.26958" lon="-2.30756">
        <ele>25</ele>
        <time>2020-01-23T08:59:48.000Z</time>
      </trkpt>
      <trkpt lat="47.2694" lon="-2.30728">
        <ele>25.60000038147</ele>
        <time>2020-01-23T08:59:55.000Z</time>
      </trkpt>
      <trkpt lat="47.26937" lon="-2.30724">
        <ele>26</ele>
        <time>2020-01-23T08:59:56.000Z</time>
      </trkpt>
      <trkpt lat="47.26934" lon="-2.3072">
        <ele>26.39999961853</ele>
        <time>2020-01-23T08:59:57.000Z</time>
      </trkpt>
      <trkpt lat="47.26932" lon="-2.30716">
        <ele>26.799999237061</ele>
        <time>2020-01-23T08:59:58.000Z</time>
      </trkpt>
      <trkpt lat="47.26929" lon="-2.30712">
        <ele>27.200000762939</ele>
        <time>2020-01-23T08:59:59.000Z</time>
      </trkpt>
      <trkpt lat="47.2692" lon="-2.30696">
        <ele>27.200000762939</ele>
        <time>2020-01-23T09:00:03.000Z</time>
      </trkpt>
      <trkpt lat="47.26905" lon="-2.30676">
        <ele>27.60000038147</ele>
        <time>2020-01-23T09:00:09.000Z</time>
      </trkpt>
      <trkpt lat="47.26903" lon="-2.30673">
        <ele>28</ele>
        <time>2020-01-23T09:00:10.000Z</time>
      </trkpt>
      <trkpt lat="47.26901" lon="-2.3067">
        <ele>28.39999961853</ele>
        <time>2020-01-23T09:00:11.000Z</time>
      </trkpt>
      <trkpt lat="47.26898" lon="-2.30668">
        <ele>28.799999237061</ele>
        <time>2020-01-23T09:00:12.000Z</time>
      </trkpt>
      <trkpt lat="47.26895" lon="-2.30667">
        <ele>29.200000762939</ele>
        <time>2020-01-23T09:00:13.000Z</time>
      </trkpt>
      <trkpt lat="47.26888" lon="-2.3067">
        <ele>29.200000762939</ele>
        <time>2020-01-23T09:00:15.000Z</time>
      </trkpt>
      <trkpt lat="47.26872" lon="-2.30692">
        <ele>29.200000762939</ele>
        <time>2020-01-23T09:00:20.000Z</time>
      </trkpt>
      <trkpt lat="47.26862" lon="-2.30708">
        <ele>29.200000762939</ele>
        <time>2020-01-23T09:00:23.000Z</time>
      </trkpt>
      <trkpt lat="47.26854" lon="-2.30727">
        <ele>29.200000762939</ele>
        <time>2020-01-23T09:00:26.000Z</time>
      </trkpt>
      <trkpt lat="47.26836" lon="-2.30769">
        <ele>29.200000762939</ele>
        <time>2020-01-23T09:00:32.000Z</time>
      </trkpt>
      <trkpt lat="47.26833" lon="-2.30776">
        <ele>29.200000762939</ele>
        <time>2020-01-23T09:00:33.000Z</time>
      </trkpt>
      <trkpt lat="47.26831" lon="-2.30783">
        <ele>29.200000762939</ele>
        <time>2020-01-23T09:00:34.000Z</time>
      </trkpt>
      <trkpt lat="47.26819" lon="-2.30797">
        <ele>29.200000762939</ele>
        <time>2020-01-23T09:00:37.000Z</time>
      </trkpt>
      <trkpt lat="47.26813" lon="-2.30801">
        <ele>29.200000762939</ele>
        <time>2020-01-23T09:00:38.000Z</time>
      </trkpt>
      <trkpt lat="47.26799" lon="-2.30814">
        <ele>29.200000762939</ele>
        <time>2020-01-23T09:00:41.000Z</time>
      </trkpt>
      <trkpt lat="47.26791" lon="-2.30823">
        <ele>29.200000762939</ele>
        <time>2020-01-23T09:00:43.000Z</time>
      </trkpt>
      <trkpt lat="47.26783" lon="-2.30831">
        <ele>29.200000762939</ele>
        <time>2020-01-23T09:00:45.000Z</time>
      </trkpt>
      <trkpt lat="47.26772" lon="-2.30842">
        <ele>29.200000762939</ele>
        <time>2020-01-23T09:00:48.000Z</time>
      </trkpt>
      <trkpt lat="47.26761" lon="-2.30853">
        <ele>29.200000762939</ele>
        <time>2020-01-23T09:00:51.000Z</time>
      </trkpt>
      <trkpt lat="47.26753" lon="-2.30861">
        <ele>29.200000762939</ele>
        <time>2020-01-23T09:00:53.000Z</time>
      </trkpt>
      <trkpt lat="47.26749" lon="-2.30865">
        <ele>29.200000762939</ele>
        <time>2020-01-23T09:00:54.000Z</time>
      </trkpt>
      <trkpt lat="47.26734" lon="-2.30865">
        <ele>29.200000762939</ele>
        <time>2020-01-23T09:00:57.000Z</time>
      </trkpt>
      <trkpt lat="47.26725" lon="-2.30849">
        <ele>29.200000762939</ele>
        <time>2020-01-23T09:01:00.000Z</time>
      </trkpt>
      <trkpt lat="47.26718" lon="-2.30837">
        <ele>29.200000762939</ele>
        <time>2020-01-23T09:01:02.000Z</time>
      </trkpt>
      <trkpt lat="47.26708" lon="-2.30814">
        <ele>29.200000762939</ele>
        <time>2020-01-23T09:01:06.000Z</time>
      </trkpt>
      <trkpt lat="47.26692" lon="-2.30771">
        <ele>29.200000762939</ele>
        <time>2020-01-23T09:01:12.000Z</time>
      </trkpt>
      <trkpt lat="47.26678" lon="-2.30739">
        <ele>29.200000762939</ele>
        <time>2020-01-23T09:01:17.000Z</time>
      </trkpt>
      <trkpt lat="47.26676" lon="-2.30734">
        <ele>28.799999237061</ele>
        <time>2020-01-23T09:01:18.000Z</time>
      </trkpt>
      <trkpt lat="47.26674" lon="-2.30729">
        <ele>28.39999961853</ele>
        <time>2020-01-23T09:01:19.000Z</time>
      </trkpt>
      <trkpt lat="47.26671" lon="-2.30724">
        <ele>28</ele>
        <time>2020-01-23T09:01:20.000Z</time>
      </trkpt>
      <trkpt lat="47.26669" lon="-2.3072">
        <ele>27.39999961853</ele>
        <time>2020-01-23T09:01:21.000Z</time>
      </trkpt>
      <trkpt lat="47.26668" lon="-2.30715">
        <ele>27</ele>
        <time>2020-01-23T09:01:22.000Z</time>
      </trkpt>
      <trkpt lat="47.26665" lon="-2.3071">
        <ele>27</ele>
        <time>2020-01-23T09:01:23.000Z</time>
      </trkpt>
      <trkpt lat="47.26663" lon="-2.30706">
        <ele>27</ele>
        <time>2020-01-23T09:01:24.000Z</time>
      </trkpt>
      <trkpt lat="47.26662" lon="-2.30697">
        <ele>27</ele>
        <time>2020-01-23T09:01:26.000Z</time>
      </trkpt>
      <trkpt lat="47.2666" lon="-2.30694">
        <ele>26.60000038147</ele>
        <time>2020-01-23T09:01:27.000Z</time>
      </trkpt>
      <trkpt lat="47.26658" lon="-2.30694">
        <ele>26.200000762939</ele>
        <time>2020-01-23T09:01:28.000Z</time>
      </trkpt>
      <trkpt lat="47.26656" lon="-2.30695">
        <ele>25.799999237061</ele>
        <time>2020-01-23T09:01:29.000Z</time>
      </trkpt>
      <trkpt lat="47.26654" lon="-2.30698">
        <ele>25.39999961853</ele>
        <time>2020-01-23T09:01:30.000Z</time>
      </trkpt>
      <trkpt lat="47.26654" lon="-2.30701">
        <ele>25</ele>
        <time>2020-01-23T09:01:31.000Z</time>
      </trkpt>
      <trkpt lat="47.2665" lon="-2.30709">
        <ele>25</ele>
        <time>2020-01-23T09:01:33.000Z</time>
      </trkpt>
      <trkpt lat="47.26643" lon="-2.30722">
        <ele>25</ele>
        <time>2020-01-23T09:01:37.000Z</time>
      </trkpt>
      <trkpt lat="47.26634" lon="-2.30727">
        <ele>25</ele>
        <time>2020-01-23T09:01:40.000Z</time>
      </trkpt>
      <trkpt lat="47.26628" lon="-2.30737">
        <ele>25</ele>
        <time>2020-01-23T09:01:43.000Z</time>
      </trkpt>
      <trkpt lat="47.26625" lon="-2.30745">
        <ele>24.60000038147</ele>
        <time>2020-01-23T09:01:46.000Z</time>
      </trkpt>
      <trkpt lat="47.26625" lon="-2.30746">
        <ele>23.60000038147</ele>
        <time>2020-01-23T09:01:47.000Z</time>
      </trkpt>
      <trkpt lat="47.26624" lon="-2.30748">
        <ele>23.200000762939</ele>
        <time>2020-01-23T09:01:48.000Z</time>
      </trkpt>
      <trkpt lat="47.26622" lon="-2.30751">
        <ele>22.799999237061</ele>
        <time>2020-01-23T09:01:49.000Z</time>
      </trkpt>
      <trkpt lat="47.26617" lon="-2.30755">
        <ele>22.799999237061</ele>
        <time>2020-01-23T09:01:51.000Z</time>
      </trkpt>
      <trkpt lat="47.26615" lon="-2.30756">
        <ele>22.799999237061</ele>
        <time>2020-01-23T09:01:52.000Z</time>
      </trkpt>
      <trkpt lat="47.26602" lon="-2.30771">
        <ele>22.799999237061</ele>
        <time>2020-01-23T09:01:57.000Z</time>
      </trkpt>
      <trkpt lat="47.26599" lon="-2.30775">
        <ele>22.799999237061</ele>
        <time>2020-01-23T09:01:58.000Z</time>
      </trkpt>
      <trkpt lat="47.26583" lon="-2.30794">
        <ele>22.799999237061</ele>
        <time>2020-01-23T09:02:03.000Z</time>
      </trkpt>
      <trkpt lat="47.26576" lon="-2.30805">
        <ele>22.39999961853</ele>
        <time>2020-01-23T09:02:06.000Z</time>
      </trkpt>
      <trkpt lat="47.26574" lon="-2.30807">
        <ele>22</ele>
        <time>2020-01-23T09:02:07.000Z</time>
      </trkpt>
      <trkpt lat="47.26571" lon="-2.3081">
        <ele>21.60000038147</ele>
        <time>2020-01-23T09:02:08.000Z</time>
      </trkpt>
      <trkpt lat="47.2657" lon="-2.30813">
        <ele>21.200000762939</ele>
        <time>2020-01-23T09:02:09.000Z</time>
      </trkpt>
      <trkpt lat="47.26568" lon="-2.30816">
        <ele>20.799999237061</ele>
        <time>2020-01-23T09:02:10.000Z</time>
      </trkpt>
      <trkpt lat="47.26565" lon="-2.30821">
        <ele>20.799999237061</ele>
        <time>2020-01-23T09:02:12.000Z</time>
      </trkpt>
      <trkpt lat="47.26558" lon="-2.30833">
        <ele>20.799999237061</ele>
        <time>2020-01-23T09:02:17.000Z</time>
      </trkpt>
      <trkpt lat="47.26549" lon="-2.30847">
        <ele>20.799999237061</ele>
        <time>2020-01-23T09:02:22.000Z</time>
      </trkpt>
      <trkpt lat="47.26539" lon="-2.30857">
        <ele>20.799999237061</ele>
        <time>2020-01-23T09:02:26.000Z</time>
      </trkpt>
      <trkpt lat="47.26537" lon="-2.3086">
        <ele>20.799999237061</ele>
        <time>2020-01-23T09:02:27.000Z</time>
      </trkpt>
      <trkpt lat="47.26535" lon="-2.30863">
        <ele>20.39999961853</ele>
        <time>2020-01-23T09:02:28.000Z</time>
      </trkpt>
      <trkpt lat="47.26533" lon="-2.30866">
        <ele>19.799999237061</ele>
        <time>2020-01-23T09:02:29.000Z</time>
      </trkpt>
      <trkpt lat="47.26529" lon="-2.30869">
        <ele>19.39999961853</ele>
        <time>2020-01-23T09:02:30.000Z</time>
      </trkpt>
      <trkpt lat="47.26528" lon="-2.30872">
        <ele>19</ele>
        <time>2020-01-23T09:02:31.000Z</time>
      </trkpt>
      <trkpt lat="47.26526" lon="-2.30873">
        <ele>18.60000038147</ele>
        <time>2020-01-23T09:02:32.000Z</time>
      </trkpt>
      <trkpt lat="47.26524" lon="-2.30875">
        <ele>18.60000038147</ele>
        <time>2020-01-23T09:02:33.000Z</time>
      </trkpt>
      <trkpt lat="47.26514" lon="-2.30882">
        <ele>18.60000038147</ele>
        <time>2020-01-23T09:02:38.000Z</time>
      </trkpt>
      <trkpt lat="47.26511" lon="-2.30884">
        <ele>18.60000038147</ele>
        <time>2020-01-23T09:02:39.000Z</time>
      </trkpt>
      <trkpt lat="47.26505" lon="-2.30881">
        <ele>18.60000038147</ele>
        <time>2020-01-23T09:02:42.000Z</time>
      </trkpt>
      <trkpt lat="47.26495" lon="-2.30867">
        <ele>18.60000038147</ele>
        <time>2020-01-23T09:02:47.000Z</time>
      </trkpt>
      <trkpt lat="47.26492" lon="-2.3086">
        <ele>19</ele>
        <time>2020-01-23T09:02:49.000Z</time>
      </trkpt>
      <trkpt lat="47.26489" lon="-2.30856">
        <ele>19.60000038147</ele>
        <time>2020-01-23T09:02:50.000Z</time>
      </trkpt>
      <trkpt lat="47.26488" lon="-2.30853">
        <ele>20</ele>
        <time>2020-01-23T09:02:51.000Z</time>
      </trkpt>
      <trkpt lat="47.26487" lon="-2.30849">
        <ele>20.39999961853</ele>
        <time>2020-01-23T09:02:52.000Z</time>
      </trkpt>
      <trkpt lat="47.26486" lon="-2.30847">
        <ele>21</ele>
        <time>2020-01-23T09:02:53.000Z</time>
      </trkpt>
      <trkpt lat="47.26485" lon="-2.30844">
        <ele>21</ele>
        <time>2020-01-23T09:02:54.000Z</time>
      </trkpt>
      <trkpt lat="47.26483" lon="-2.30842">
        <ele>21.39999961853</ele>
        <time>2020-01-23T09:02:55.000Z</time>
      </trkpt>
      <trkpt lat="47.26482" lon="-2.30838">
        <ele>21.799999237061</ele>
        <time>2020-01-23T09:02:56.000Z</time>
      </trkpt>
      <trkpt lat="47.26481" lon="-2.30836">
        <ele>22.200000762939</ele>
        <time>2020-01-23T09:02:57.000Z</time>
      </trkpt>
      <trkpt lat="47.2648" lon="-2.30833">
        <ele>22.60000038147</ele>
        <time>2020-01-23T09:02:58.000Z</time>
      </trkpt>
      <trkpt lat="47.26479" lon="-2.3083">
        <ele>23</ele>
        <time>2020-01-23T09:02:59.000Z</time>
      </trkpt>
      <trkpt lat="47.26476" lon="-2.30824">
        <ele>23</ele>
        <time>2020-01-23T09:03:01.000Z</time>
      </trkpt>
      <trkpt lat="47.26471" lon="-2.30811">
        <ele>23</ele>
        <time>2020-01-23T09:03:07.000Z</time>
      </trkpt>
      <trkpt lat="47.26463" lon="-2.30789">
        <ele>23</ele>
        <time>2020-01-23T09:03:12.000Z</time>
      </trkpt>
      <trkpt lat="47.26462" lon="-2.30785">
        <ele>23.60000038147</ele>
        <time>2020-01-23T09:03:13.000Z</time>
      </trkpt>
      <trkpt lat="47.2646" lon="-2.3078">
        <ele>24</ele>
        <time>2020-01-23T09:03:14.000Z</time>
      </trkpt>
      <trkpt lat="47.26458" lon="-2.30776">
        <ele>24.39999961853</ele>
        <time>2020-01-23T09:03:15.000Z</time>
      </trkpt>
      <trkpt lat="47.26457" lon="-2.30771">
        <ele>24.799999237061</ele>
        <time>2020-01-23T09:03:16.000Z</time>
      </trkpt>
      <trkpt lat="47.26455" lon="-2.30766">
        <ele>25.200000762939</ele>
        <time>2020-01-23T09:03:17.000Z</time>
      </trkpt>
      <trkpt lat="47.26452" lon="-2.30756">
        <ele>25.200000762939</ele>
        <time>2020-01-23T09:03:19.000Z</time>
      </trkpt>
      <trkpt lat="47.26445" lon="-2.30733">
        <ele>25.200000762939</ele>
        <time>2020-01-23T09:03:25.000Z</time>
      </trkpt>
      <trkpt lat="47.26436" lon="-2.30713">
        <ele>25.200000762939</ele>
        <time>2020-01-23T09:03:31.000Z</time>
      </trkpt>
      <trkpt lat="47.26435" lon="-2.30711">
        <ele>25.60000038147</ele>
        <time>2020-01-23T09:03:32.000Z</time>
      </trkpt>
      <trkpt lat="47.26434" lon="-2.30708">
        <ele>26</ele>
        <time>2020-01-23T09:03:33.000Z</time>
      </trkpt>
      <trkpt lat="47.26432" lon="-2.30705">
        <ele>26.60000038147</ele>
        <time>2020-01-23T09:03:34.000Z</time>
      </trkpt>
      <trkpt lat="47.26431" lon="-2.30703">
        <ele>27</ele>
        <time>2020-01-23T09:03:35.000Z</time>
      </trkpt>
      <trkpt lat="47.2643" lon="-2.30701">
        <ele>27.39999961853</ele>
        <time>2020-01-23T09:03:36.000Z</time>
      </trkpt>
      <trkpt lat="47.26429" lon="-2.30699">
        <ele>27.39999961853</ele>
        <time>2020-01-23T09:03:37.000Z</time>
      </trkpt>
      <trkpt lat="47.26422" lon="-2.30687">
        <ele>27.39999961853</ele>
        <time>2020-01-23T09:03:43.000Z</time>
      </trkpt>
      <trkpt lat="47.26407" lon="-2.30679">
        <ele>27.39999961853</ele>
        <time>2020-01-23T09:03:49.000Z</time>
      </trkpt>
      <trkpt lat="47.26403" lon="-2.30676">
        <ele>27.39999961853</ele>
        <time>2020-01-23T09:03:51.000Z</time>
      </trkpt>
      <trkpt lat="47.26398" lon="-2.30673">
        <ele>27.39999961853</ele>
        <time>2020-01-23T09:03:54.000Z</time>
      </trkpt>
      <trkpt lat="47.26395" lon="-2.30671">
        <ele>27.39999961853</ele>
        <time>2020-01-23T09:03:55.000Z</time>
      </trkpt>
      <trkpt lat="47.26388" lon="-2.30664">
        <ele>27.39999961853</ele>
        <time>2020-01-23T09:03:59.000Z</time>
      </trkpt>
      <trkpt lat="47.26384" lon="-2.30658">
        <ele>27.39999961853</ele>
        <time>2020-01-23T09:04:01.000Z</time>
      </trkpt>
      <trkpt lat="47.26377" lon="-2.30647">
        <ele>27.39999961853</ele>
        <time>2020-01-23T09:04:05.000Z</time>
      </trkpt>
      <trkpt lat="47.26369" lon="-2.30633">
        <ele>27.39999961853</ele>
        <time>2020-01-23T09:04:09.000Z</time>
      </trkpt>
      <trkpt lat="47.26353" lon="-2.30609">
        <ele>27.39999961853</ele>
        <time>2020-01-23T09:04:15.000Z</time>
      </trkpt>
      <trkpt lat="47.26349" lon="-2.30601">
        <ele>27.39999961853</ele>
        <time>2020-01-23T09:04:17.000Z</time>
      </trkpt>
      <trkpt lat="47.26347" lon="-2.30589">
        <ele>27.39999961853</ele>
        <time>2020-01-23T09:04:20.000Z</time>
      </trkpt>
      <trkpt lat="47.26346" lon="-2.30585">
        <ele>27.39999961853</ele>
        <time>2020-01-23T09:04:22.000Z</time>
      </trkpt>
      <trkpt lat="47.26345" lon="-2.3058">
        <ele>27.39999961853</ele>
        <time>2020-01-23T09:04:27.000Z</time>
      </trkpt>
      <trkpt lat="47.26345" lon="-2.30578">
        <ele>27.39999961853</ele>
        <time>2020-01-23T09:04:28.000Z</time>
      </trkpt>
      <trkpt lat="47.26345" lon="-2.30568">
        <ele>27.799999237061</ele>
        <time>2020-01-23T09:04:31.000Z</time>
      </trkpt>
      <trkpt lat="47.26345" lon="-2.30564">
        <ele>28.200000762939</ele>
        <time>2020-01-23T09:04:32.000Z</time>
      </trkpt>
      <trkpt lat="47.26345" lon="-2.30561">
        <ele>28.60000038147</ele>
        <time>2020-01-23T09:04:33.000Z</time>
      </trkpt>
      <trkpt lat="47.26344" lon="-2.30559">
        <ele>29</ele>
        <time>2020-01-23T09:04:34.000Z</time>
      </trkpt>
      <trkpt lat="47.26344" lon="-2.30555">
        <ele>29.39999961853</ele>
        <time>2020-01-23T09:04:35.000Z</time>
      </trkpt>
      <trkpt lat="47.26342" lon="-2.30545">
        <ele>29.39999961853</ele>
        <time>2020-01-23T09:04:38.000Z</time>
      </trkpt>
      <trkpt lat="47.2634" lon="-2.30529">
        <ele>29.39999961853</ele>
        <time>2020-01-23T09:04:43.000Z</time>
      </trkpt>
      <trkpt lat="47.26339" lon="-2.30526">
        <ele>29.39999961853</ele>
        <time>2020-01-23T09:04:44.000Z</time>
      </trkpt>
      <trkpt lat="47.26334" lon="-2.30499">
        <ele>29.39999961853</ele>
        <time>2020-01-23T09:04:50.000Z</time>
      </trkpt>
      <trkpt lat="47.26329" lon="-2.30472">
        <ele>29.39999961853</ele>
        <time>2020-01-23T09:04:56.000Z</time>
      </trkpt>
      <trkpt lat="47.26324" lon="-2.30451">
        <ele>29.39999961853</ele>
        <time>2020-01-23T09:05:01.000Z</time>
      </trkpt>
      <trkpt lat="47.26319" lon="-2.30427">
        <ele>29.39999961853</ele>
        <time>2020-01-23T09:05:07.000Z</time>
      </trkpt>
      <trkpt lat="47.26312" lon="-2.30403">
        <ele>29.39999961853</ele>
        <time>2020-01-23T09:05:14.000Z</time>
      </trkpt>
      <trkpt lat="47.26307" lon="-2.30379">
        <ele>29.39999961853</ele>
        <time>2020-01-23T09:05:20.000Z</time>
      </trkpt>
      <trkpt lat="47.26303" lon="-2.3034">
        <ele>29.39999961853</ele>
        <time>2020-01-23T09:05:27.000Z</time>
      </trkpt>
      <trkpt lat="47.26295" lon="-2.30317">
        <ele>29.39999961853</ele>
        <time>2020-01-23T09:05:32.000Z</time>
      </trkpt>
      <trkpt lat="47.26289" lon="-2.30301">
        <ele>29.39999961853</ele>
        <time>2020-01-23T09:05:35.000Z</time>
      </trkpt>
      <trkpt lat="47.26284" lon="-2.30283">
        <ele>29.39999961853</ele>
        <time>2020-01-23T09:05:38.000Z</time>
      </trkpt>
      <trkpt lat="47.26279" lon="-2.30249">
        <ele>29.39999961853</ele>
        <time>2020-01-23T09:05:44.000Z</time>
      </trkpt>
      <trkpt lat="47.26274" lon="-2.30218">
        <ele>29.39999961853</ele>
        <time>2020-01-23T09:05:50.000Z</time>
      </trkpt>
      <trkpt lat="47.2627" lon="-2.30199">
        <ele>29.39999961853</ele>
        <time>2020-01-23T09:05:54.000Z</time>
      </trkpt>
      <trkpt lat="47.26268" lon="-2.30185">
        <ele>29.799999237061</ele>
        <time>2020-01-23T09:05:57.000Z</time>
      </trkpt>
      <trkpt lat="47.26266" lon="-2.30179">
        <ele>30.200000762939</ele>
        <time>2020-01-23T09:05:58.000Z</time>
      </trkpt>
      <trkpt lat="47.26264" lon="-2.30174">
        <ele>30.60000038147</ele>
        <time>2020-01-23T09:05:59.000Z</time>
      </trkpt>
      <trkpt lat="47.26262" lon="-2.30168">
        <ele>31</ele>
        <time>2020-01-23T09:06:00.000Z</time>
      </trkpt>
      <trkpt lat="47.2626" lon="-2.30164">
        <ele>31.39999961853</ele>
        <time>2020-01-23T09:06:01.000Z</time>
      </trkpt>
      <trkpt lat="47.26251" lon="-2.30139">
        <ele>31.39999961853</ele>
        <time>2020-01-23T09:06:06.000Z</time>
      </trkpt>
      <trkpt lat="47.26247" lon="-2.30132">
        <ele>31.39999961853</ele>
        <time>2020-01-23T09:06:08.000Z</time>
      </trkpt>
      <trkpt lat="47.26239" lon="-2.30132">
        <ele>31.39999961853</ele>
        <time>2020-01-23T09:06:10.000Z</time>
      </trkpt>
      <trkpt lat="47.26212" lon="-2.30142">
        <ele>31.39999961853</ele>
        <time>2020-01-23T09:06:16.000Z</time>
      </trkpt>
      <trkpt lat="47.26189" lon="-2.3015">
        <ele>31.39999961853</ele>
        <time>2020-01-23T09:06:21.000Z</time>
      </trkpt>
      <trkpt lat="47.26175" lon="-2.30155">
        <ele>31.39999961853</ele>
        <time>2020-01-23T09:06:25.000Z</time>
      </trkpt>
      <trkpt lat="47.26173" lon="-2.30153">
        <ele>31.39999961853</ele>
        <time>2020-01-23T09:06:26.000Z</time>
      </trkpt>
      <trkpt lat="47.26166" lon="-2.30147">
        <ele>31</ele>
        <time>2020-01-23T09:06:30.000Z</time>
      </trkpt>
      <trkpt lat="47.26162" lon="-2.30149">
        <ele>30.60000038147</ele>
        <time>2020-01-23T09:06:31.000Z</time>
      </trkpt>
      <trkpt lat="47.26158" lon="-2.3015">
        <ele>30.200000762939</ele>
        <time>2020-01-23T09:06:32.000Z</time>
      </trkpt>
      <trkpt lat="47.26154" lon="-2.30152">
        <ele>29.60000038147</ele>
        <time>2020-01-23T09:06:33.000Z</time>
      </trkpt>
      <trkpt lat="47.26149" lon="-2.30154">
        <ele>29.200000762939</ele>
        <time>2020-01-23T09:06:34.000Z</time>
      </trkpt>
      <trkpt lat="47.26144" lon="-2.30155">
        <ele>29.200000762939</ele>
        <time>2020-01-23T09:06:35.000Z</time>
      </trkpt>
      <trkpt lat="47.26115" lon="-2.30164">
        <ele>28.799999237061</ele>
        <time>2020-01-23T09:06:41.000Z</time>
      </trkpt>
      <trkpt lat="47.26112" lon="-2.30165">
        <ele>28.39999961853</ele>
        <time>2020-01-23T09:06:42.000Z</time>
      </trkpt>
      <trkpt lat="47.26108" lon="-2.30166">
        <ele>27.60000038147</ele>
        <time>2020-01-23T09:06:43.000Z</time>
      </trkpt>
      <trkpt lat="47.26106" lon="-2.30165">
        <ele>27.200000762939</ele>
        <time>2020-01-23T09:06:44.000Z</time>
      </trkpt>
      <trkpt lat="47.26104" lon="-2.30163">
        <ele>27.200000762939</ele>
        <time>2020-01-23T09:06:45.000Z</time>
      </trkpt>
      <trkpt lat="47.26101" lon="-2.30158">
        <ele>26.799999237061</ele>
        <time>2020-01-23T09:06:47.000Z</time>
      </trkpt>
      <trkpt lat="47.261" lon="-2.30155">
        <ele>26.39999961853</ele>
        <time>2020-01-23T09:06:48.000Z</time>
      </trkpt>
      <trkpt lat="47.26098" lon="-2.30154">
        <ele>26</ele>
        <time>2020-01-23T09:06:49.000Z</time>
      </trkpt>
      <trkpt lat="47.26094" lon="-2.30153">
        <ele>25.60000038147</ele>
        <time>2020-01-23T09:06:50.000Z</time>
      </trkpt>
      <trkpt lat="47.2609" lon="-2.30154">
        <ele>25.200000762939</ele>
        <time>2020-01-23T09:06:51.000Z</time>
      </trkpt>
      <trkpt lat="47.26086" lon="-2.30154">
        <ele>25.200000762939</ele>
        <time>2020-01-23T09:06:52.000Z</time>
      </trkpt>
      <trkpt lat="47.26081" lon="-2.30155">
        <ele>25.200000762939</ele>
        <time>2020-01-23T09:06:53.000Z</time>
      </trkpt>
      <trkpt lat="47.26077" lon="-2.30155">
        <ele>25.200000762939</ele>
        <time>2020-01-23T09:06:54.000Z</time>
      </trkpt>
      <trkpt lat="47.26064" lon="-2.30143">
        <ele>25.200000762939</ele>
        <time>2020-01-23T09:06:58.000Z</time>
      </trkpt>
      <trkpt lat="47.26054" lon="-2.30142">
        <ele>24.799999237061</ele>
        <time>2020-01-23T09:07:01.000Z</time>
      </trkpt>
      <trkpt lat="47.26051" lon="-2.30143">
        <ele>24.200000762939</ele>
        <time>2020-01-23T09:07:02.000Z</time>
      </trkpt>
      <trkpt lat="47.26047" lon="-2.30144">
        <ele>23.799999237061</ele>
        <time>2020-01-23T09:07:03.000Z</time>
      </trkpt>
      <trkpt lat="47.26043" lon="-2.30144">
        <ele>23.39999961853</ele>
        <time>2020-01-23T09:07:04.000Z</time>
      </trkpt>
      <trkpt lat="47.2604" lon="-2.30143">
        <ele>23</ele>
        <time>2020-01-23T09:07:05.000Z</time>
      </trkpt>
      <trkpt lat="47.26032" lon="-2.30141">
        <ele>23</ele>
        <time>2020-01-23T09:07:08.000Z</time>
      </trkpt>
      <trkpt lat="47.26031" lon="-2.30139">
        <ele>23</ele>
        <time>2020-01-23T09:07:09.000Z</time>
      </trkpt>
      <trkpt lat="47.26026" lon="-2.30134">
        <ele>23</ele>
        <time>2020-01-23T09:07:12.000Z</time>
      </trkpt>
      <trkpt lat="47.26023" lon="-2.30135">
        <ele>23</ele>
        <time>2020-01-23T09:07:13.000Z</time>
      </trkpt>
      <trkpt lat="47.26013" lon="-2.30135">
        <ele>23</ele>
        <time>2020-01-23T09:07:16.000Z</time>
      </trkpt>
      <trkpt lat="47.26008" lon="-2.30134">
        <ele>22.60000038147</ele>
        <time>2020-01-23T09:07:17.000Z</time>
      </trkpt>
      <trkpt lat="47.26004" lon="-2.30133">
        <ele>22.200000762939</ele>
        <time>2020-01-23T09:07:18.000Z</time>
      </trkpt>
      <trkpt lat="47.25999" lon="-2.30134">
        <ele>21.799999237061</ele>
        <time>2020-01-23T09:07:19.000Z</time>
      </trkpt>
      <trkpt lat="47.25995" lon="-2.30134">
        <ele>21.39999961853</ele>
        <time>2020-01-23T09:07:20.000Z</time>
      </trkpt>
      <trkpt lat="47.25991" lon="-2.30135">
        <ele>20.799999237061</ele>
        <time>2020-01-23T09:07:21.000Z</time>
      </trkpt>
      <trkpt lat="47.25974" lon="-2.30143">
        <ele>20.799999237061</ele>
        <time>2020-01-23T09:07:25.000Z</time>
      </trkpt>
      <trkpt lat="47.2597" lon="-2.30146">
        <ele>20.39999961853</ele>
        <time>2020-01-23T09:07:26.000Z</time>
      </trkpt>
      <trkpt lat="47.25966" lon="-2.30151">
        <ele>20</ele>
        <time>2020-01-23T09:07:27.000Z</time>
      </trkpt>
      <trkpt lat="47.25964" lon="-2.30155">
        <ele>19.60000038147</ele>
        <time>2020-01-23T09:07:28.000Z</time>
      </trkpt>
      <trkpt lat="47.25961" lon="-2.30159">
        <ele>19.200000762939</ele>
        <time>2020-01-23T09:07:29.000Z</time>
      </trkpt>
      <trkpt lat="47.25958" lon="-2.30163">
        <ele>18.799999237061</ele>
        <time>2020-01-23T09:07:30.000Z</time>
      </trkpt>
      <trkpt lat="47.25943" lon="-2.3017">
        <ele>18.799999237061</ele>
        <time>2020-01-23T09:07:34.000Z</time>
      </trkpt>
      <trkpt lat="47.25921" lon="-2.30174">
        <ele>18.799999237061</ele>
        <time>2020-01-23T09:07:40.000Z</time>
      </trkpt>
      <trkpt lat="47.259" lon="-2.30179">
        <ele>18.799999237061</ele>
        <time>2020-01-23T09:07:46.000Z</time>
      </trkpt>
      <trkpt lat="47.25891" lon="-2.30193">
        <ele>18.799999237061</ele>
        <time>2020-01-23T09:07:50.000Z</time>
      </trkpt>
      <trkpt lat="47.25891" lon="-2.30199">
        <ele>18.799999237061</ele>
        <time>2020-01-23T09:07:51.000Z</time>
      </trkpt>
      <trkpt lat="47.25893" lon="-2.3021">
        <ele>18.799999237061</ele>
        <time>2020-01-23T09:07:53.000Z</time>
      </trkpt>
      <trkpt lat="47.25896" lon="-2.30237">
        <ele>19.200000762939</ele>
        <time>2020-01-23T09:07:58.000Z</time>
      </trkpt>
      <trkpt lat="47.25897" lon="-2.30242">
        <ele>19.60000038147</ele>
        <time>2020-01-23T09:07:59.000Z</time>
      </trkpt>
      <trkpt lat="47.25897" lon="-2.30248">
        <ele>20</ele>
        <time>2020-01-23T09:08:00.000Z</time>
      </trkpt>
      <trkpt lat="47.25897" lon="-2.30253">
        <ele>20.39999961853</ele>
        <time>2020-01-23T09:08:01.000Z</time>
      </trkpt>
      <trkpt lat="47.25897" lon="-2.30259">
        <ele>20.799999237061</ele>
        <time>2020-01-23T09:08:02.000Z</time>
      </trkpt>
      <trkpt lat="47.25898" lon="-2.30276">
        <ele>20.799999237061</ele>
        <time>2020-01-23T09:08:05.000Z</time>
      </trkpt>
      <trkpt lat="47.25896" lon="-2.30302">
        <ele>20.799999237061</ele>
        <time>2020-01-23T09:08:10.000Z</time>
      </trkpt>
      <trkpt lat="47.25893" lon="-2.30306">
        <ele>20.799999237061</ele>
        <time>2020-01-23T09:08:11.000Z</time>
      </trkpt>
      <trkpt lat="47.25886" lon="-2.30308">
        <ele>20.799999237061</ele>
        <time>2020-01-23T09:08:13.000Z</time>
      </trkpt>
      <trkpt lat="47.2587" lon="-2.30298">
        <ele>20.799999237061</ele>
        <time>2020-01-23T09:08:17.000Z</time>
      </trkpt>
      <trkpt lat="47.25866" lon="-2.30293">
        <ele>21.200000762939</ele>
        <time>2020-01-23T09:08:18.000Z</time>
      </trkpt>
      <trkpt lat="47.25861" lon="-2.30288">
        <ele>21.799999237061</ele>
        <time>2020-01-23T09:08:19.000Z</time>
      </trkpt>
      <trkpt lat="47.25856" lon="-2.30284">
        <ele>22.200000762939</ele>
        <time>2020-01-23T09:08:20.000Z</time>
      </trkpt>
      <trkpt lat="47.25851" lon="-2.3028">
        <ele>22.60000038147</ele>
        <time>2020-01-23T09:08:21.000Z</time>
      </trkpt>
      <trkpt lat="47.25845" lon="-2.30277">
        <ele>23</ele>
        <time>2020-01-23T09:08:22.000Z</time>
      </trkpt>
      <trkpt lat="47.2582" lon="-2.30264">
        <ele>22.60000038147</ele>
        <time>2020-01-23T09:08:26.000Z</time>
      </trkpt>
      <trkpt lat="47.25813" lon="-2.30262">
        <ele>22.200000762939</ele>
        <time>2020-01-23T09:08:27.000Z</time>
      </trkpt>
      <trkpt lat="47.25807" lon="-2.30259">
        <ele>21.799999237061</ele>
        <time>2020-01-23T09:08:28.000Z</time>
      </trkpt>
      <trkpt lat="47.258" lon="-2.30257">
        <ele>21.39999961853</ele>
        <time>2020-01-23T09:08:29.000Z</time>
      </trkpt>
      <trkpt lat="47.25793" lon="-2.30254">
        <ele>21</ele>
        <time>2020-01-23T09:08:30.000Z</time>
      </trkpt>
      <trkpt lat="47.25774" lon="-2.30243">
        <ele>21</ele>
        <time>2020-01-23T09:08:33.000Z</time>
      </trkpt>
      <trkpt lat="47.25741" lon="-2.30226">
        <ele>21</ele>
        <time>2020-01-23T09:08:39.000Z</time>
      </trkpt>
      <trkpt lat="47.25725" lon="-2.30218">
        <ele>21</ele>
        <time>2020-01-23T09:08:42.000Z</time>
      </trkpt>
      <trkpt lat="47.25714" lon="-2.30218">
        <ele>21</ele>
        <time>2020-01-23T09:08:44.000Z</time>
      </trkpt>
      <trkpt lat="47.25697" lon="-2.30234">
        <ele>21</ele>
        <time>2020-01-23T09:08:48.000Z</time>
      </trkpt>
      <trkpt lat="47.25689" lon="-2.30259">
        <ele>21.39999961853</ele>
        <time>2020-01-23T09:08:52.000Z</time>
      </trkpt>
      <trkpt lat="47.25688" lon="-2.30266">
        <ele>21.799999237061</ele>
        <time>2020-01-23T09:08:53.000Z</time>
      </trkpt>
      <trkpt lat="47.25688" lon="-2.30273">
        <ele>22.200000762939</ele>
        <time>2020-01-23T09:08:54.000Z</time>
      </trkpt>
      <trkpt lat="47.25689" lon="-2.3028">
        <ele>22.60000038147</ele>
        <time>2020-01-23T09:08:55.000Z</time>
      </trkpt>
      <trkpt lat="47.2569" lon="-2.30287">
        <ele>23</ele>
        <time>2020-01-23T09:08:56.000Z</time>
      </trkpt>
      <trkpt lat="47.25686" lon="-2.30308">
        <ele>23</ele>
        <time>2020-01-23T09:08:59.000Z</time>
      </trkpt>
      <trkpt lat="47.25672" lon="-2.30319">
        <ele>23</ele>
        <time>2020-01-23T09:09:02.000Z</time>
      </trkpt>
      <trkpt lat="47.25667" lon="-2.30321">
        <ele>23</ele>
        <time>2020-01-23T09:09:03.000Z</time>
      </trkpt>
      <trkpt lat="47.25662" lon="-2.30324">
        <ele>23</ele>
        <time>2020-01-23T09:09:04.000Z</time>
      </trkpt>
      <trkpt lat="47.25649" lon="-2.30334">
        <ele>23</ele>
        <time>2020-01-23T09:09:07.000Z</time>
      </trkpt>
      <trkpt lat="47.25636" lon="-2.30344">
        <ele>23</ele>
        <time>2020-01-23T09:09:11.000Z</time>
      </trkpt>
      <trkpt lat="47.25631" lon="-2.3034">
        <ele>23</ele>
        <time>2020-01-23T09:09:13.000Z</time>
      </trkpt>
      <trkpt lat="47.2563" lon="-2.30335">
        <ele>23</ele>
        <time>2020-01-23T09:09:14.000Z</time>
      </trkpt>
      <trkpt lat="47.25628" lon="-2.30317">
        <ele>23</ele>
        <time>2020-01-23T09:09:17.000Z</time>
      </trkpt>
      <trkpt lat="47.25627" lon="-2.30304">
        <ele>23</ele>
        <time>2020-01-23T09:09:19.000Z</time>
      </trkpt>
      <trkpt lat="47.25626" lon="-2.30278">
        <ele>23</ele>
        <time>2020-01-23T09:09:23.000Z</time>
      </trkpt>
      <trkpt lat="47.25623" lon="-2.30266">
        <ele>23</ele>
        <time>2020-01-23T09:09:25.000Z</time>
      </trkpt>
      <trkpt lat="47.25622" lon="-2.3026">
        <ele>23</ele>
        <time>2020-01-23T09:09:26.000Z</time>
      </trkpt>
      <trkpt lat="47.25615" lon="-2.30233">
        <ele>23</ele>
        <time>2020-01-23T09:09:30.000Z</time>
      </trkpt>
      <trkpt lat="47.25613" lon="-2.30226">
        <ele>23</ele>
        <time>2020-01-23T09:09:31.000Z</time>
      </trkpt>
      <trkpt lat="47.25608" lon="-2.30215">
        <ele>23.39999961853</ele>
        <time>2020-01-23T09:09:33.000Z</time>
      </trkpt>
      <trkpt lat="47.25605" lon="-2.3021">
        <ele>23.799999237061</ele>
        <time>2020-01-23T09:09:34.000Z</time>
      </trkpt>
      <trkpt lat="47.25601" lon="-2.30206">
        <ele>24.200000762939</ele>
        <time>2020-01-23T09:09:35.000Z</time>
      </trkpt>
      <trkpt lat="47.25598" lon="-2.30202">
        <ele>25</ele>
        <time>2020-01-23T09:09:36.000Z</time>
      </trkpt>
      <trkpt lat="47.25594" lon="-2.30199">
        <ele>25</ele>
        <time>2020-01-23T09:09:37.000Z</time>
      </trkpt>
      <trkpt lat="47.25584" lon="-2.30191">
        <ele>25</ele>
        <time>2020-01-23T09:09:40.000Z</time>
      </trkpt>
      <trkpt lat="47.25577" lon="-2.30188">
        <ele>25</ele>
        <time>2020-01-23T09:09:42.000Z</time>
      </trkpt>
      <trkpt lat="47.25568" lon="-2.30187">
        <ele>25</ele>
        <time>2020-01-23T09:09:44.000Z</time>
      </trkpt>
      <trkpt lat="47.25564" lon="-2.30187">
        <ele>25</ele>
        <time>2020-01-23T09:09:45.000Z</time>
      </trkpt>
      <trkpt lat="47.25549" lon="-2.30193">
        <ele>25</ele>
        <time>2020-01-23T09:09:48.000Z</time>
      </trkpt>
      <trkpt lat="47.25529" lon="-2.302">
        <ele>25</ele>
        <time>2020-01-23T09:09:53.000Z</time>
      </trkpt>
      <trkpt lat="47.25515" lon="-2.30197">
        <ele>25</ele>
        <time>2020-01-23T09:09:57.000Z</time>
      </trkpt>
      <trkpt lat="47.25511" lon="-2.30198">
        <ele>25</ele>
        <time>2020-01-23T09:09:58.000Z</time>
      </trkpt>
      <trkpt lat="47.25505" lon="-2.30203">
        <ele>25</ele>
        <time>2020-01-23T09:10:00.000Z</time>
      </trkpt>
      <trkpt lat="47.25502" lon="-2.30206">
        <ele>25</ele>
        <time>2020-01-23T09:10:01.000Z</time>
      </trkpt>
      <trkpt lat="47.2549" lon="-2.30223">
        <ele>25</ele>
        <time>2020-01-23T09:10:05.000Z</time>
      </trkpt>
      <trkpt lat="47.25483" lon="-2.30241">
        <ele>25</ele>
        <time>2020-01-23T09:10:10.000Z</time>
      </trkpt>
      <trkpt lat="47.25477" lon="-2.30247">
        <ele>25</ele>
        <time>2020-01-23T09:10:13.000Z</time>
      </trkpt>
      <trkpt lat="47.25475" lon="-2.30247">
        <ele>25</ele>
        <time>2020-01-23T09:10:14.000Z</time>
      </trkpt>
      <trkpt lat="47.25462" lon="-2.30242">
        <ele>25</ele>
        <time>2020-01-23T09:10:18.000Z</time>
      </trkpt>
      <trkpt lat="47.25457" lon="-2.30241">
        <ele>25</ele>
        <time>2020-01-23T09:10:19.000Z</time>
      </trkpt>
      <trkpt lat="47.25448" lon="-2.30239">
        <ele>25.39999961853</ele>
        <time>2020-01-23T09:10:21.000Z</time>
      </trkpt>
      <trkpt lat="47.25444" lon="-2.30238">
        <ele>25.799999237061</ele>
        <time>2020-01-23T09:10:22.000Z</time>
      </trkpt>
      <trkpt lat="47.25441" lon="-2.30237">
        <ele>26.39999961853</ele>
        <time>2020-01-23T09:10:23.000Z</time>
      </trkpt>
      <trkpt lat="47.25437" lon="-2.30235">
        <ele>26.799999237061</ele>
        <time>2020-01-23T09:10:24.000Z</time>
      </trkpt>
      <trkpt lat="47.25433" lon="-2.30234">
        <ele>27.200000762939</ele>
        <time>2020-01-23T09:10:25.000Z</time>
      </trkpt>
      <trkpt lat="47.25422" lon="-2.30229">
        <ele>27.200000762939</ele>
        <time>2020-01-23T09:10:28.000Z</time>
      </trkpt>
      <trkpt lat="47.25417" lon="-2.30229">
        <ele>27.200000762939</ele>
        <time>2020-01-23T09:10:29.000Z</time>
      </trkpt>
      <trkpt lat="47.25404" lon="-2.30223">
        <ele>27.200000762939</ele>
        <time>2020-01-23T09:10:32.000Z</time>
      </trkpt>
      <trkpt lat="47.254" lon="-2.30221">
        <ele>27.200000762939</ele>
        <time>2020-01-23T09:10:33.000Z</time>
      </trkpt>
      <trkpt lat="47.25387" lon="-2.30215">
        <ele>27.200000762939</ele>
        <time>2020-01-23T09:10:38.000Z</time>
      </trkpt>
      <trkpt lat="47.25372" lon="-2.30212">
        <ele>27.200000762939</ele>
        <time>2020-01-23T09:10:43.000Z</time>
      </trkpt>
      <trkpt lat="47.25347" lon="-2.30211">
        <ele>27.200000762939</ele>
        <time>2020-01-23T09:10:49.000Z</time>
      </trkpt>
      <trkpt lat="47.25332" lon="-2.3021">
        <ele>27.60000038147</ele>
        <time>2020-01-23T09:10:53.000Z</time>
      </trkpt>
      <trkpt lat="47.25328" lon="-2.30209">
        <ele>28</ele>
        <time>2020-01-23T09:10:54.000Z</time>
      </trkpt>
      <trkpt lat="47.25324" lon="-2.30208">
        <ele>28.39999961853</ele>
        <time>2020-01-23T09:10:55.000Z</time>
      </trkpt>
      <trkpt lat="47.25321" lon="-2.30207">
        <ele>28.799999237061</ele>
        <time>2020-01-23T09:10:56.000Z</time>
      </trkpt>
      <trkpt lat="47.25318" lon="-2.30206">
        <ele>29.200000762939</ele>
        <time>2020-01-23T09:10:57.000Z</time>
      </trkpt>
      <trkpt lat="47.2531" lon="-2.30206">
        <ele>29.200000762939</ele>
        <time>2020-01-23T09:11:00.000Z</time>
      </trkpt>
      <trkpt lat="47.25302" lon="-2.30212">
        <ele>29.200000762939</ele>
        <time>2020-01-23T09:11:04.000Z</time>
      </trkpt>
      <trkpt lat="47.25298" lon="-2.30211">
        <ele>29.200000762939</ele>
        <time>2020-01-23T09:11:06.000Z</time>
      </trkpt>
      <trkpt lat="47.25285" lon="-2.30206">
        <ele>29.200000762939</ele>
        <time>2020-01-23T09:11:10.000Z</time>
      </trkpt>
      <trkpt lat="47.25277" lon="-2.30202">
        <ele>29.60000038147</ele>
        <time>2020-01-23T09:11:12.000Z</time>
      </trkpt>
      <trkpt lat="47.25273" lon="-2.30201">
        <ele>30</ele>
        <time>2020-01-23T09:11:13.000Z</time>
      </trkpt>
      <trkpt lat="47.25269" lon="-2.30199">
        <ele>30.39999961853</ele>
        <time>2020-01-23T09:11:14.000Z</time>
      </trkpt>
      <trkpt lat="47.25266" lon="-2.30197">
        <ele>31.39999961853</ele>
        <time>2020-01-23T09:11:15.000Z</time>
      </trkpt>
      <trkpt lat="47.25246" lon="-2.30188">
        <ele>31.39999961853</ele>
        <time>2020-01-23T09:11:20.000Z</time>
      </trkpt>
      <trkpt lat="47.25217" lon="-2.30173">
        <ele>31.39999961853</ele>
        <time>2020-01-23T09:11:27.000Z</time>
      </trkpt>
      <trkpt lat="47.25214" lon="-2.3017">
        <ele>31.799999237061</ele>
        <time>2020-01-23T09:11:28.000Z</time>
      </trkpt>
      <trkpt lat="47.2521" lon="-2.30167">
        <ele>32.200000762939</ele>
        <time>2020-01-23T09:11:29.000Z</time>
      </trkpt>
      <trkpt lat="47.25207" lon="-2.30163">
        <ele>32.599998474121</ele>
        <time>2020-01-23T09:11:30.000Z</time>
      </trkpt>
      <trkpt lat="47.25204" lon="-2.30159">
        <ele>33</ele>
        <time>2020-01-23T09:11:31.000Z</time>
      </trkpt>
      <trkpt lat="47.25201" lon="-2.30156">
        <ele>33.400001525879</ele>
        <time>2020-01-23T09:11:32.000Z</time>
      </trkpt>
      <trkpt lat="47.25189" lon="-2.30137">
        <ele>33.400001525879</ele>
        <time>2020-01-23T09:11:37.000Z</time>
      </trkpt>
      <trkpt lat="47.2518" lon="-2.30121">
        <ele>33.799999237061</ele>
        <time>2020-01-23T09:11:41.000Z</time>
      </trkpt>
      <trkpt lat="47.25176" lon="-2.3012">
        <ele>34.200000762939</ele>
        <time>2020-01-23T09:11:42.000Z</time>
      </trkpt>
      <trkpt lat="47.25172" lon="-2.3012">
        <ele>34.599998474121</ele>
        <time>2020-01-23T09:11:43.000Z</time>
      </trkpt>
      <trkpt lat="47.25169" lon="-2.30121">
        <ele>35</ele>
        <time>2020-01-23T09:11:44.000Z</time>
      </trkpt>
      <trkpt lat="47.25164" lon="-2.30122">
        <ele>35.400001525879</ele>
        <time>2020-01-23T09:11:45.000Z</time>
      </trkpt>
      <trkpt lat="47.25157" lon="-2.30124">
        <ele>35.400001525879</ele>
        <time>2020-01-23T09:11:47.000Z</time>
      </trkpt>
      <trkpt lat="47.25137" lon="-2.30127">
        <ele>35.400001525879</ele>
        <time>2020-01-23T09:11:52.000Z</time>
      </trkpt>
      <trkpt lat="47.25123" lon="-2.30128">
        <ele>35.400001525879</ele>
        <time>2020-01-23T09:11:56.000Z</time>
      </trkpt>
      <trkpt lat="47.25098" lon="-2.30133">
        <ele>35.400001525879</ele>
        <time>2020-01-23T09:12:02.000Z</time>
      </trkpt>
      <trkpt lat="47.25078" lon="-2.30135">
        <ele>35.400001525879</ele>
        <time>2020-01-23T09:12:07.000Z</time>
      </trkpt>
      <trkpt lat="47.2507" lon="-2.30132">
        <ele>35.799999237061</ele>
        <time>2020-01-23T09:12:10.000Z</time>
      </trkpt>
      <trkpt lat="47.25068" lon="-2.3013">
        <ele>36.200000762939</ele>
        <time>2020-01-23T09:12:11.000Z</time>
      </trkpt>
      <trkpt lat="47.25067" lon="-2.30128">
        <ele>36.599998474121</ele>
        <time>2020-01-23T09:12:12.000Z</time>
      </trkpt>
      <trkpt lat="47.25068" lon="-2.30125">
        <ele>37</ele>
        <time>2020-01-23T09:12:13.000Z</time>
      </trkpt>
      <trkpt lat="47.25068" lon="-2.30121">
        <ele>37.400001525879</ele>
        <time>2020-01-23T09:12:14.000Z</time>
      </trkpt>
      <trkpt lat="47.25069" lon="-2.30117">
        <ele>37.400001525879</ele>
        <time>2020-01-23T09:12:15.000Z</time>
      </trkpt>
      <trkpt lat="47.25069" lon="-2.30113">
        <ele>37.400001525879</ele>
        <time>2020-01-23T09:12:16.000Z</time>
      </trkpt>
      <trkpt lat="47.25071" lon="-2.30086">
        <ele>37.400001525879</ele>
        <time>2020-01-23T09:12:22.000Z</time>
      </trkpt>
      <trkpt lat="47.25073" lon="-2.30064">
        <ele>37.400001525879</ele>
        <time>2020-01-23T09:12:27.000Z</time>
      </trkpt>
      <trkpt lat="47.25072" lon="-2.30061">
        <ele>37.400001525879</ele>
        <time>2020-01-23T09:12:28.000Z</time>
      </trkpt>
      <trkpt lat="47.25069" lon="-2.30058">
        <ele>37.400001525879</ele>
        <time>2020-01-23T09:12:30.000Z</time>
      </trkpt>
      <trkpt lat="47.25062" lon="-2.30057">
        <ele>37.400001525879</ele>
        <time>2020-01-23T09:12:33.000Z</time>
      </trkpt>
      <trkpt lat="47.25055" lon="-2.30056">
        <ele>37.400001525879</ele>
        <time>2020-01-23T09:12:35.000Z</time>
      </trkpt>
      <trkpt lat="47.25029" lon="-2.30053">
        <ele>37.400001525879</ele>
        <time>2020-01-23T09:12:42.000Z</time>
      </trkpt>
      <trkpt lat="47.25009" lon="-2.30053">
        <ele>37.799999237061</ele>
        <time>2020-01-23T09:12:47.000Z</time>
      </trkpt>
      <trkpt lat="47.25006" lon="-2.30053">
        <ele>38.400001525879</ele>
        <time>2020-01-23T09:12:48.000Z</time>
      </trkpt>
      <trkpt lat="47.25002" lon="-2.30053">
        <ele>38.799999237061</ele>
        <time>2020-01-23T09:12:49.000Z</time>
      </trkpt>
      <trkpt lat="47.24998" lon="-2.30053">
        <ele>39.200000762939</ele>
        <time>2020-01-23T09:12:50.000Z</time>
      </trkpt>
      <trkpt lat="47.24995" lon="-2.30054">
        <ele>39.599998474121</ele>
        <time>2020-01-23T09:12:51.000Z</time>
      </trkpt>
      <trkpt lat="47.24983" lon="-2.30056">
        <ele>39.599998474121</ele>
        <time>2020-01-23T09:12:54.000Z</time>
      </trkpt>
      <trkpt lat="47.2495" lon="-2.30055">
        <ele>39.599998474121</ele>
        <time>2020-01-23T09:13:02.000Z</time>
      </trkpt>
      <trkpt lat="47.24913" lon="-2.30055">
        <ele>39.599998474121</ele>
        <time>2020-01-23T09:13:11.000Z</time>
      </trkpt>
      <trkpt lat="47.24904" lon="-2.30051">
        <ele>39.599998474121</ele>
        <time>2020-01-23T09:13:14.000Z</time>
      </trkpt>
      <trkpt lat="47.24904" lon="-2.30046">
        <ele>39.599998474121</ele>
        <time>2020-01-23T09:13:15.000Z</time>
      </trkpt>
      <trkpt lat="47.24902" lon="-2.30022">
        <ele>39.599998474121</ele>
        <time>2020-01-23T09:13:19.000Z</time>
      </trkpt>
      <trkpt lat="47.24897" lon="-2.30004">
        <ele>39.599998474121</ele>
        <time>2020-01-23T09:13:22.000Z</time>
      </trkpt>
      <trkpt lat="47.24894" lon="-2.29985">
        <ele>39.599998474121</ele>
        <time>2020-01-23T09:13:25.000Z</time>
      </trkpt>
      <trkpt lat="47.24884" lon="-2.29945">
        <ele>39.599998474121</ele>
        <time>2020-01-23T09:13:31.000Z</time>
      </trkpt>
      <trkpt lat="47.24879" lon="-2.29916">
        <ele>39.599998474121</ele>
        <time>2020-01-23T09:13:35.000Z</time>
      </trkpt>
      <trkpt lat="47.24878" lon="-2.299">
        <ele>39.599998474121</ele>
        <time>2020-01-23T09:13:37.000Z</time>
      </trkpt>
      <trkpt lat="47.24877" lon="-2.29885">
        <ele>39.599998474121</ele>
        <time>2020-01-23T09:13:39.000Z</time>
      </trkpt>
      <trkpt lat="47.24873" lon="-2.29865">
        <ele>40</ele>
        <time>2020-01-23T09:13:42.000Z</time>
      </trkpt>
      <trkpt lat="47.24872" lon="-2.29859">
        <ele>40.400001525879</ele>
        <time>2020-01-23T09:13:43.000Z</time>
      </trkpt>
      <trkpt lat="47.2487" lon="-2.29852">
        <ele>41.200000762939</ele>
        <time>2020-01-23T09:13:44.000Z</time>
      </trkpt>
      <trkpt lat="47.24869" lon="-2.29845">
        <ele>41.599998474121</ele>
        <time>2020-01-23T09:13:45.000Z</time>
      </trkpt>
      <trkpt lat="47.24866" lon="-2.29833">
        <ele>41.599998474121</ele>
        <time>2020-01-23T09:13:47.000Z</time>
      </trkpt>
      <trkpt lat="47.24855" lon="-2.29833">
        <ele>41.599998474121</ele>
        <time>2020-01-23T09:13:50.000Z</time>
      </trkpt>
      <trkpt lat="47.24851" lon="-2.29836">
        <ele>41.599998474121</ele>
        <time>2020-01-23T09:13:51.000Z</time>
      </trkpt>
      <trkpt lat="47.24842" lon="-2.29841">
        <ele>41.599998474121</ele>
        <time>2020-01-23T09:13:53.000Z</time>
      </trkpt>
      <trkpt lat="47.24832" lon="-2.29845">
        <ele>41.599998474121</ele>
        <time>2020-01-23T09:13:55.000Z</time>
      </trkpt>
      <trkpt lat="47.24809" lon="-2.29852">
        <ele>41.599998474121</ele>
        <time>2020-01-23T09:13:59.000Z</time>
      </trkpt>
      <trkpt lat="47.24797" lon="-2.29858">
        <ele>41.599998474121</ele>
        <time>2020-01-23T09:14:01.000Z</time>
      </trkpt>
      <trkpt lat="47.24786" lon="-2.29865">
        <ele>41.599998474121</ele>
        <time>2020-01-23T09:14:03.000Z</time>
      </trkpt>
      <trkpt lat="47.24765" lon="-2.29881">
        <ele>41.599998474121</ele>
        <time>2020-01-23T09:14:07.000Z</time>
      </trkpt>
      <trkpt lat="47.2473" lon="-2.29902">
        <ele>41.599998474121</ele>
        <time>2020-01-23T09:14:13.000Z</time>
      </trkpt>
      <trkpt lat="47.24712" lon="-2.29908">
        <ele>41.200000762939</ele>
        <time>2020-01-23T09:14:16.000Z</time>
      </trkpt>
      <trkpt lat="47.24706" lon="-2.2991">
        <ele>40.799999237061</ele>
        <time>2020-01-23T09:14:17.000Z</time>
      </trkpt>
      <trkpt lat="47.247" lon="-2.29912">
        <ele>40.400001525879</ele>
        <time>2020-01-23T09:14:18.000Z</time>
      </trkpt>
      <trkpt lat="47.24694" lon="-2.29914">
        <ele>40</ele>
        <time>2020-01-23T09:14:19.000Z</time>
      </trkpt>
      <trkpt lat="47.24688" lon="-2.29916">
        <ele>39.599998474121</ele>
        <time>2020-01-23T09:14:20.000Z</time>
      </trkpt>
      <trkpt lat="47.24676" lon="-2.2992">
        <ele>39.599998474121</ele>
        <time>2020-01-23T09:14:22.000Z</time>
      </trkpt>
      <trkpt lat="47.24642" lon="-2.29933">
        <ele>39.599998474121</ele>
        <time>2020-01-23T09:14:28.000Z</time>
      </trkpt>
      <trkpt lat="47.2461" lon="-2.29943">
        <ele>39.599998474121</ele>
        <time>2020-01-23T09:14:34.000Z</time>
      </trkpt>
      <trkpt lat="47.24605" lon="-2.29944">
        <ele>39.599998474121</ele>
        <time>2020-01-23T09:14:35.000Z</time>
      </trkpt>
      <trkpt lat="47.24599" lon="-2.29942">
        <ele>39.599998474121</ele>
        <time>2020-01-23T09:14:37.000Z</time>
      </trkpt>
      <trkpt lat="47.2459" lon="-2.29932">
        <ele>39.599998474121</ele>
        <time>2020-01-23T09:14:40.000Z</time>
      </trkpt>
      <trkpt lat="47.24586" lon="-2.29928">
        <ele>39.599998474121</ele>
        <time>2020-01-23T09:14:41.000Z</time>
      </trkpt>
      <trkpt lat="47.24583" lon="-2.29924">
        <ele>39.599998474121</ele>
        <time>2020-01-23T09:14:42.000Z</time>
      </trkpt>
      <trkpt lat="47.24572" lon="-2.29902">
        <ele>39.599998474121</ele>
        <time>2020-01-23T09:14:46.000Z</time>
      </trkpt>
      <trkpt lat="47.24562" lon="-2.29879">
        <ele>39.599998474121</ele>
        <time>2020-01-23T09:14:51.000Z</time>
      </trkpt>
      <trkpt lat="47.24555" lon="-2.29873">
        <ele>39.599998474121</ele>
        <time>2020-01-23T09:14:53.000Z</time>
      </trkpt>
      <trkpt lat="47.24546" lon="-2.29869">
        <ele>39.599998474121</ele>
        <time>2020-01-23T09:14:55.000Z</time>
      </trkpt>
      <trkpt lat="47.24522" lon="-2.2986">
        <ele>39.599998474121</ele>
        <time>2020-01-23T09:15:00.000Z</time>
      </trkpt>
      <trkpt lat="47.24517" lon="-2.29858">
        <ele>39.599998474121</ele>
        <time>2020-01-23T09:15:01.000Z</time>
      </trkpt>
      <trkpt lat="47.24512" lon="-2.29856">
        <ele>39.200000762939</ele>
        <time>2020-01-23T09:15:02.000Z</time>
      </trkpt>
      <trkpt lat="47.24508" lon="-2.29853">
        <ele>38.599998474121</ele>
        <time>2020-01-23T09:15:03.000Z</time>
      </trkpt>
      <trkpt lat="47.24503" lon="-2.2985">
        <ele>38.200000762939</ele>
        <time>2020-01-23T09:15:04.000Z</time>
      </trkpt>
      <trkpt lat="47.24498" lon="-2.29847">
        <ele>37.799999237061</ele>
        <time>2020-01-23T09:15:05.000Z</time>
      </trkpt>
      <trkpt lat="47.24493" lon="-2.29842">
        <ele>37.400001525879</ele>
        <time>2020-01-23T09:15:06.000Z</time>
      </trkpt>
      <trkpt lat="47.24489" lon="-2.29838">
        <ele>37.400001525879</ele>
        <time>2020-01-23T09:15:07.000Z</time>
      </trkpt>
      <trkpt lat="47.24482" lon="-2.2983">
        <ele>37.400001525879</ele>
        <time>2020-01-23T09:15:09.000Z</time>
      </trkpt>
      <trkpt lat="47.24475" lon="-2.29817">
        <ele>37.400001525879</ele>
        <time>2020-01-23T09:15:12.000Z</time>
      </trkpt>
      <trkpt lat="47.24465" lon="-2.29792">
        <ele>37.400001525879</ele>
        <time>2020-01-23T09:15:17.000Z</time>
      </trkpt>
      <trkpt lat="47.24463" lon="-2.29785">
        <ele>37.400001525879</ele>
        <time>2020-01-23T09:15:18.000Z</time>
      </trkpt>
      <trkpt lat="47.24457" lon="-2.29755">
        <ele>37.400001525879</ele>
        <time>2020-01-23T09:15:22.000Z</time>
      </trkpt>
      <trkpt lat="47.24452" lon="-2.29741">
        <ele>37.400001525879</ele>
        <time>2020-01-23T09:15:24.000Z</time>
      </trkpt>
      <trkpt lat="47.24444" lon="-2.29715">
        <ele>37.400001525879</ele>
        <time>2020-01-23T09:15:28.000Z</time>
      </trkpt>
      <trkpt lat="47.24441" lon="-2.29702">
        <ele>37.400001525879</ele>
        <time>2020-01-23T09:15:30.000Z</time>
      </trkpt>
      <trkpt lat="47.24434" lon="-2.29695">
        <ele>37.400001525879</ele>
        <time>2020-01-23T09:15:32.000Z</time>
      </trkpt>
      <trkpt lat="47.24422" lon="-2.29697">
        <ele>37.400001525879</ele>
        <time>2020-01-23T09:15:35.000Z</time>
      </trkpt>
      <trkpt lat="47.24403" lon="-2.29708">
        <ele>37.400001525879</ele>
        <time>2020-01-23T09:15:40.000Z</time>
      </trkpt>
      <trkpt lat="47.24394" lon="-2.29728">
        <ele>37.400001525879</ele>
        <time>2020-01-23T09:15:44.000Z</time>
      </trkpt>
      <trkpt lat="47.24382" lon="-2.29754">
        <ele>36.599998474121</ele>
        <time>2020-01-23T09:15:48.000Z</time>
      </trkpt>
      <trkpt lat="47.24379" lon="-2.29761">
        <ele>36.200000762939</ele>
        <time>2020-01-23T09:15:49.000Z</time>
      </trkpt>
      <trkpt lat="47.24377" lon="-2.29768">
        <ele>35.799999237061</ele>
        <time>2020-01-23T09:15:50.000Z</time>
      </trkpt>
      <trkpt lat="47.24374" lon="-2.29775">
        <ele>35.400001525879</ele>
        <time>2020-01-23T09:15:51.000Z</time>
      </trkpt>
      <trkpt lat="47.2437" lon="-2.29782">
        <ele>35.400001525879</ele>
        <time>2020-01-23T09:15:52.000Z</time>
      </trkpt>
      <trkpt lat="47.24363" lon="-2.29793">
        <ele>35.400001525879</ele>
        <time>2020-01-23T09:15:54.000Z</time>
      </trkpt>
      <trkpt lat="47.2435" lon="-2.29806">
        <ele>35.400001525879</ele>
        <time>2020-01-23T09:15:57.000Z</time>
      </trkpt>
      <trkpt lat="47.24345" lon="-2.29809">
        <ele>35.400001525879</ele>
        <time>2020-01-23T09:15:58.000Z</time>
      </trkpt>
      <trkpt lat="47.24326" lon="-2.29818">
        <ele>35.400001525879</ele>
        <time>2020-01-23T09:16:02.000Z</time>
      </trkpt>
      <trkpt lat="47.24322" lon="-2.29837">
        <ele>35.400001525879</ele>
        <time>2020-01-23T09:16:05.000Z</time>
      </trkpt>
      <trkpt lat="47.24322" lon="-2.29844">
        <ele>35.400001525879</ele>
        <time>2020-01-23T09:16:06.000Z</time>
      </trkpt>
      <trkpt lat="47.24323" lon="-2.29851">
        <ele>35.400001525879</ele>
        <time>2020-01-23T09:16:07.000Z</time>
      </trkpt>
      <trkpt lat="47.24324" lon="-2.29859">
        <ele>35</ele>
        <time>2020-01-23T09:16:08.000Z</time>
      </trkpt>
      <trkpt lat="47.24324" lon="-2.29866">
        <ele>34.599998474121</ele>
        <time>2020-01-23T09:16:09.000Z</time>
      </trkpt>
      <trkpt lat="47.24323" lon="-2.29872">
        <ele>34.200000762939</ele>
        <time>2020-01-23T09:16:10.000Z</time>
      </trkpt>
      <trkpt lat="47.24322" lon="-2.29879">
        <ele>33.799999237061</ele>
        <time>2020-01-23T09:16:11.000Z</time>
      </trkpt>
      <trkpt lat="47.24319" lon="-2.29885">
        <ele>33.400001525879</ele>
        <time>2020-01-23T09:16:12.000Z</time>
      </trkpt>
      <trkpt lat="47.24314" lon="-2.29889">
        <ele>33.400001525879</ele>
        <time>2020-01-23T09:16:13.000Z</time>
      </trkpt>
      <trkpt lat="47.2431" lon="-2.29893">
        <ele>33.400001525879</ele>
        <time>2020-01-23T09:16:14.000Z</time>
      </trkpt>
      <trkpt lat="47.2429" lon="-2.29908">
        <ele>33.400001525879</ele>
        <time>2020-01-23T09:16:18.000Z</time>
      </trkpt>
      <trkpt lat="47.24285" lon="-2.29912">
        <ele>33.400001525879</ele>
        <time>2020-01-23T09:16:19.000Z</time>
      </trkpt>
      <trkpt lat="47.24268" lon="-2.29928">
        <ele>33.400001525879</ele>
        <time>2020-01-23T09:16:23.000Z</time>
      </trkpt>
      <trkpt lat="47.24263" lon="-2.29937">
        <ele>33.400001525879</ele>
        <time>2020-01-23T09:16:25.000Z</time>
      </trkpt>
      <trkpt lat="47.24258" lon="-2.29942">
        <ele>33.400001525879</ele>
        <time>2020-01-23T09:16:26.000Z</time>
      </trkpt>
      <trkpt lat="47.24248" lon="-2.29949">
        <ele>33.400001525879</ele>
        <time>2020-01-23T09:16:28.000Z</time>
      </trkpt>
      <trkpt lat="47.24238" lon="-2.29954">
        <ele>33.400001525879</ele>
        <time>2020-01-23T09:16:30.000Z</time>
      </trkpt>
      <trkpt lat="47.24224" lon="-2.29959">
        <ele>33.400001525879</ele>
        <time>2020-01-23T09:16:33.000Z</time>
      </trkpt>
      <trkpt lat="47.24202" lon="-2.2997">
        <ele>33.400001525879</ele>
        <time>2020-01-23T09:16:38.000Z</time>
      </trkpt>
      <trkpt lat="47.2419" lon="-2.29972">
        <ele>33.400001525879</ele>
        <time>2020-01-23T09:16:42.000Z</time>
      </trkpt>
      <trkpt lat="47.24178" lon="-2.29975">
        <ele>33.400001525879</ele>
        <time>2020-01-23T09:16:46.000Z</time>
      </trkpt>
      <trkpt lat="47.24174" lon="-2.29977">
        <ele>33.799999237061</ele>
        <time>2020-01-23T09:16:48.000Z</time>
      </trkpt>
      <trkpt lat="47.24173" lon="-2.29977">
        <ele>34.200000762939</ele>
        <time>2020-01-23T09:16:49.000Z</time>
      </trkpt>
      <trkpt lat="47.24172" lon="-2.29978">
        <ele>34.599998474121</ele>
        <time>2020-01-23T09:16:50.000Z</time>
      </trkpt>
      <trkpt lat="47.24169" lon="-2.29977">
        <ele>35.599998474121</ele>
        <time>2020-01-23T09:17:41.000Z</time>
      </trkpt>
      <trkpt lat="47.24166" lon="-2.29973">
        <ele>35.599998474121</ele>
        <time>2020-01-23T09:17:44.000Z</time>
      </trkpt>
      <trkpt lat="47.24167" lon="-2.29969">
        <ele>35.599998474121</ele>
        <time>2020-01-23T09:17:46.000Z</time>
      </trkpt>
      <trkpt lat="47.24168" lon="-2.29965">
        <ele>35.599998474121</ele>
        <time>2020-01-23T09:17:48.000Z</time>
      </trkpt>
      <trkpt lat="47.2417" lon="-2.29953">
        <ele>35.599998474121</ele>
        <time>2020-01-23T09:17:52.000Z</time>
      </trkpt>
      <trkpt lat="47.24168" lon="-2.29948">
        <ele>35.599998474121</ele>
        <time>2020-01-23T09:17:53.000Z</time>
      </trkpt>
      <trkpt lat="47.24164" lon="-2.29929">
        <ele>35.599998474121</ele>
        <time>2020-01-23T09:17:57.000Z</time>
      </trkpt>
      <trkpt lat="47.24161" lon="-2.29902">
        <ele>35.599998474121</ele>
        <time>2020-01-23T09:18:03.000Z</time>
      </trkpt>
      <trkpt lat="47.24161" lon="-2.29876">
        <ele>35.599998474121</ele>
        <time>2020-01-23T09:18:07.000Z</time>
      </trkpt>
      <trkpt lat="47.24159" lon="-2.29856">
        <ele>35.599998474121</ele>
        <time>2020-01-23T09:18:11.000Z</time>
      </trkpt>
      <trkpt lat="47.24147" lon="-2.29849">
        <ele>35.599998474121</ele>
        <time>2020-01-23T09:18:15.000Z</time>
      </trkpt>
      <trkpt lat="47.2413" lon="-2.29852">
        <ele>35.599998474121</ele>
        <time>2020-01-23T09:18:20.000Z</time>
      </trkpt>
      <trkpt lat="47.24112" lon="-2.29854">
        <ele>35.599998474121</ele>
        <time>2020-01-23T09:18:25.000Z</time>
      </trkpt>
      <trkpt lat="47.24092" lon="-2.29854">
        <ele>35.599998474121</ele>
        <time>2020-01-23T09:18:30.000Z</time>
      </trkpt>
      <trkpt lat="47.24085" lon="-2.29857">
        <ele>35.599998474121</ele>
        <time>2020-01-23T09:18:33.000Z</time>
      </trkpt>
      <trkpt lat="47.24084" lon="-2.2986">
        <ele>35.599998474121</ele>
        <time>2020-01-23T09:18:34.000Z</time>
      </trkpt>
      <trkpt lat="47.24076" lon="-2.2989">
        <ele>35.599998474121</ele>
        <time>2020-01-23T09:18:39.000Z</time>
      </trkpt>
      <trkpt lat="47.24075" lon="-2.29896">
        <ele>35.599998474121</ele>
        <time>2020-01-23T09:18:40.000Z</time>
      </trkpt>
      <trkpt lat="47.24076" lon="-2.29907">
        <ele>35.599998474121</ele>
        <time>2020-01-23T09:18:42.000Z</time>
      </trkpt>
      <trkpt lat="47.24074" lon="-2.29932">
        <ele>35.599998474121</ele>
        <time>2020-01-23T09:18:46.000Z</time>
      </trkpt>
      <trkpt lat="47.24075" lon="-2.2994">
        <ele>35.599998474121</ele>
        <time>2020-01-23T09:18:49.000Z</time>
      </trkpt>
      <trkpt lat="47.24074" lon="-2.29942">
        <ele>35.599998474121</ele>
        <time>2020-01-23T09:18:50.000Z</time>
      </trkpt>
      <trkpt lat="47.24082" lon="-2.29953">
        <ele>35.599998474121</ele>
        <time>2020-01-23T09:18:55.000Z</time>
      </trkpt>
      <trkpt lat="47.24081" lon="-2.29959">
        <ele>35.599998474121</ele>
        <time>2020-01-23T09:18:57.000Z</time>
      </trkpt>
      <trkpt lat="47.24082" lon="-2.2997">
        <ele>35.599998474121</ele>
        <time>2020-01-23T09:19:00.000Z</time>
      </trkpt>
      <trkpt lat="47.24083" lon="-2.29972">
        <ele>35.599998474121</ele>
        <time>2020-01-23T09:19:01.000Z</time>
      </trkpt>
      <trkpt lat="47.24086" lon="-2.29975">
        <ele>35.599998474121</ele>
        <time>2020-01-23T09:19:03.000Z</time>
      </trkpt>
      <trkpt lat="47.24092" lon="-2.29977">
        <ele>35.599998474121</ele>
        <time>2020-01-23T09:19:05.000Z</time>
      </trkpt>
      <trkpt lat="47.24105" lon="-2.29981">
        <ele>35.599998474121</ele>
        <time>2020-01-23T09:19:09.000Z</time>
      </trkpt>
      <trkpt lat="47.24123" lon="-2.29981">
        <ele>35.599998474121</ele>
        <time>2020-01-23T09:19:14.000Z</time>
      </trkpt>
      <trkpt lat="47.24143" lon="-2.2998">
        <ele>35.599998474121</ele>
        <time>2020-01-23T09:19:20.000Z</time>
      </trkpt>
      <trkpt lat="47.24148" lon="-2.2998">
        <ele>35.599998474121</ele>
        <time>2020-01-23T09:19:22.000Z</time>
      </trkpt>
      <trkpt lat="47.24153" lon="-2.29983">
        <ele>35.599998474121</ele>
        <time>2020-01-23T09:19:24.000Z</time>
      </trkpt>
      <trkpt lat="47.24163" lon="-2.29991">
        <ele>35.599998474121</ele>
        <time>2020-01-23T09:19:28.000Z</time>
      </trkpt>
      <trkpt lat="47.24166" lon="-2.29998">
        <ele>35.599998474121</ele>
        <time>2020-01-23T09:19:30.000Z</time>
      </trkpt>
      <trkpt lat="47.24171" lon="-2.30006">
        <ele>35.599998474121</ele>
        <time>2020-01-23T09:19:32.000Z</time>
      </trkpt>
      <trkpt lat="47.24178" lon="-2.30016">
        <ele>35.599998474121</ele>
        <time>2020-01-23T09:19:35.000Z</time>
      </trkpt>
      <trkpt lat="47.2418" lon="-2.30024">
        <ele>35.200000762939</ele>
        <time>2020-01-23T09:19:37.000Z</time>
      </trkpt>
      <trkpt lat="47.24181" lon="-2.30027">
        <ele>34.799999237061</ele>
        <time>2020-01-23T09:19:38.000Z</time>
      </trkpt>
      <trkpt lat="47.24181" lon="-2.30031">
        <ele>34.400001525879</ele>
        <time>2020-01-23T09:19:39.000Z</time>
      </trkpt>
      <trkpt lat="47.24181" lon="-2.30033">
        <ele>34</ele>
        <time>2020-01-23T09:19:40.000Z</time>
      </trkpt>
      <trkpt lat="47.24181" lon="-2.30035">
        <ele>33.599998474121</ele>
        <time>2020-01-23T09:19:41.000Z</time>
      </trkpt>
      <trkpt lat="47.2418" lon="-2.30035">
        <ele>33.599998474121</ele>
        <time>2020-01-23T09:19:42.000Z</time>
      </trkpt>
      <trkpt lat="47.24178" lon="-2.30034">
        <ele>33.599998474121</ele>
        <time>2020-01-23T09:19:44.000Z</time>
      </trkpt>
      <trkpt lat="47.24165" lon="-2.30029">
        <ele>33.599998474121</ele>
        <time>2020-01-23T09:19:49.000Z</time>
      </trkpt>
      <trkpt lat="47.24162" lon="-2.30028">
        <ele>33.599998474121</ele>
        <time>2020-01-23T09:19:50.000Z</time>
      </trkpt>
      <trkpt lat="47.24152" lon="-2.30031">
        <ele>33.599998474121</ele>
        <time>2020-01-23T09:19:54.000Z</time>
      </trkpt>
      <trkpt lat="47.24149" lon="-2.30036">
        <ele>34.400001525879</ele>
        <time>2020-01-23T09:19:56.000Z</time>
      </trkpt>
      <trkpt lat="47.24147" lon="-2.30039">
        <ele>35</ele>
        <time>2020-01-23T09:19:57.000Z</time>
      </trkpt>
      <trkpt lat="47.24146" lon="-2.30042">
        <ele>35.400001525879</ele>
        <time>2020-01-23T09:19:58.000Z</time>
      </trkpt>
      <trkpt lat="47.24145" lon="-2.30046">
        <ele>35.799999237061</ele>
        <time>2020-01-23T09:19:59.000Z</time>
      </trkpt>
      <trkpt lat="47.24146" lon="-2.30052">
        <ele>35.799999237061</ele>
        <time>2020-01-23T09:20:00.000Z</time>
      </trkpt>
      <trkpt lat="47.24148" lon="-2.30069">
        <ele>35.400001525879</ele>
        <time>2020-01-23T09:20:03.000Z</time>
      </trkpt>
      <trkpt lat="47.24149" lon="-2.30076">
        <ele>35</ele>
        <time>2020-01-23T09:20:04.000Z</time>
      </trkpt>
      <trkpt lat="47.2415" lon="-2.30081">
        <ele>34.599998474121</ele>
        <time>2020-01-23T09:20:05.000Z</time>
      </trkpt>
      <trkpt lat="47.24149" lon="-2.30088">
        <ele>34.200000762939</ele>
        <time>2020-01-23T09:20:06.000Z</time>
      </trkpt>
      <trkpt lat="47.24149" lon="-2.30094">
        <ele>33.799999237061</ele>
        <time>2020-01-23T09:20:07.000Z</time>
      </trkpt>
      <trkpt lat="47.24147" lon="-2.30108">
        <ele>33.400001525879</ele>
        <time>2020-01-23T09:20:09.000Z</time>
      </trkpt>
      <trkpt lat="47.24145" lon="-2.30115">
        <ele>33</ele>
        <time>2020-01-23T09:20:10.000Z</time>
      </trkpt>
      <trkpt lat="47.24142" lon="-2.30123">
        <ele>32.599998474121</ele>
        <time>2020-01-23T09:20:11.000Z</time>
      </trkpt>
      <trkpt lat="47.24138" lon="-2.30131">
        <ele>32</ele>
        <time>2020-01-23T09:20:12.000Z</time>
      </trkpt>
      <trkpt lat="47.24134" lon="-2.30136">
        <ele>31.60000038147</ele>
        <time>2020-01-23T09:20:13.000Z</time>
      </trkpt>
      <trkpt lat="47.24127" lon="-2.30147">
        <ele>31.60000038147</ele>
        <time>2020-01-23T09:20:16.000Z</time>
      </trkpt>
      <trkpt lat="47.24124" lon="-2.30153">
        <ele>31.60000038147</ele>
        <time>2020-01-23T09:20:18.000Z</time>
      </trkpt>
      <trkpt lat="47.24119" lon="-2.30161">
        <ele>31.60000038147</ele>
        <time>2020-01-23T09:20:21.000Z</time>
      </trkpt>
      <trkpt lat="47.24104" lon="-2.30165">
        <ele>31.60000038147</ele>
        <time>2020-01-23T09:20:26.000Z</time>
      </trkpt>
      <trkpt lat="47.241" lon="-2.30165">
        <ele>32</ele>
        <time>2020-01-23T09:20:27.000Z</time>
      </trkpt>
      <trkpt lat="47.24096" lon="-2.30164">
        <ele>32.599998474121</ele>
        <time>2020-01-23T09:20:28.000Z</time>
      </trkpt>
      <trkpt lat="47.24092" lon="-2.30163">
        <ele>33</ele>
        <time>2020-01-23T09:20:29.000Z</time>
      </trkpt>
      <trkpt lat="47.24088" lon="-2.30163">
        <ele>33.400001525879</ele>
        <time>2020-01-23T09:20:30.000Z</time>
      </trkpt>
      <trkpt lat="47.24085" lon="-2.30165">
        <ele>33.799999237061</ele>
        <time>2020-01-23T09:20:31.000Z</time>
      </trkpt>
      <trkpt lat="47.24073" lon="-2.30175">
        <ele>33.799999237061</ele>
        <time>2020-01-23T09:20:35.000Z</time>
      </trkpt>
      <trkpt lat="47.24069" lon="-2.30169">
        <ele>33.799999237061</ele>
        <time>2020-01-23T09:20:38.000Z</time>
      </trkpt>
      <trkpt lat="47.24076" lon="-2.30159">
        <ele>33.799999237061</ele>
        <time>2020-01-23T09:20:42.000Z</time>
      </trkpt>
      <trkpt lat="47.24088" lon="-2.30156">
        <ele>33.799999237061</ele>
        <time>2020-01-23T09:20:47.000Z</time>
      </trkpt>
      <trkpt lat="47.2409" lon="-2.30155">
        <ele>33.799999237061</ele>
        <time>2020-01-23T09:20:48.000Z</time>
      </trkpt>
      <trkpt lat="47.24102" lon="-2.30153">
        <ele>33.799999237061</ele>
        <time>2020-01-23T09:20:52.000Z</time>
      </trkpt>
      <trkpt lat="47.24112" lon="-2.3015">
        <ele>33.799999237061</ele>
        <time>2020-01-23T09:20:57.000Z</time>
      </trkpt>
      <trkpt lat="47.2412" lon="-2.30158">
        <ele>33.799999237061</ele>
        <time>2020-01-23T09:21:02.000Z</time>
      </trkpt>
      <trkpt lat="47.24124" lon="-2.30161">
        <ele>33.400001525879</ele>
        <time>2020-01-23T09:21:05.000Z</time>
      </trkpt>
      <trkpt lat="47.24126" lon="-2.30161">
        <ele>33</ele>
        <time>2020-01-23T09:21:06.000Z</time>
      </trkpt>
      <trkpt lat="47.24128" lon="-2.30159">
        <ele>32.599998474121</ele>
        <time>2020-01-23T09:21:07.000Z</time>
      </trkpt>
      <trkpt lat="47.24129" lon="-2.30156">
        <ele>32.200000762939</ele>
        <time>2020-01-23T09:21:08.000Z</time>
      </trkpt>
      <trkpt lat="47.2413" lon="-2.30153">
        <ele>31.799999237061</ele>
        <time>2020-01-23T09:21:09.000Z</time>
      </trkpt>
      <trkpt lat="47.24135" lon="-2.30139">
        <ele>31.799999237061</ele>
        <time>2020-01-23T09:21:12.000Z</time>
      </trkpt>
      <trkpt lat="47.24142" lon="-2.30109">
        <ele>31.799999237061</ele>
        <time>2020-01-23T09:21:18.000Z</time>
      </trkpt>
      <trkpt lat="47.24144" lon="-2.3009">
        <ele>31.799999237061</ele>
        <time>2020-01-23T09:21:23.000Z</time>
      </trkpt>
      <trkpt lat="47.24143" lon="-2.30088">
        <ele>31.799999237061</ele>
        <time>2020-01-23T09:21:24.000Z</time>
      </trkpt>
      <trkpt lat="47.24141" lon="-2.30083">
        <ele>31.799999237061</ele>
        <time>2020-01-23T09:21:27.000Z</time>
      </trkpt>
      <trkpt lat="47.24141" lon="-2.30072">
        <ele>31.799999237061</ele>
        <time>2020-01-23T09:21:32.000Z</time>
      </trkpt>
      <trkpt lat="47.24141" lon="-2.30063">
        <ele>32.200000762939</ele>
        <time>2020-01-23T09:21:35.000Z</time>
      </trkpt>
      <trkpt lat="47.24141" lon="-2.3006">
        <ele>32.599998474121</ele>
        <time>2020-01-23T09:21:36.000Z</time>
      </trkpt>
      <trkpt lat="47.24141" lon="-2.30057">
        <ele>33.200000762939</ele>
        <time>2020-01-23T09:21:37.000Z</time>
      </trkpt>
      <trkpt lat="47.2414" lon="-2.30054">
        <ele>33.599998474121</ele>
        <time>2020-01-23T09:21:38.000Z</time>
      </trkpt>
      <trkpt lat="47.2414" lon="-2.30051">
        <ele>34</ele>
        <time>2020-01-23T09:21:39.000Z</time>
      </trkpt>
      <trkpt lat="47.24138" lon="-2.30045">
        <ele>34.400001525879</ele>
        <time>2020-01-23T09:21:41.000Z</time>
      </trkpt>
      <trkpt lat="47.24137" lon="-2.30042">
        <ele>34.799999237061</ele>
        <time>2020-01-23T09:21:42.000Z</time>
      </trkpt>
      <trkpt lat="47.24135" lon="-2.30039">
        <ele>35.200000762939</ele>
        <time>2020-01-23T09:21:43.000Z</time>
      </trkpt>
      <trkpt lat="47.24135" lon="-2.30035">
        <ele>35.599998474121</ele>
        <time>2020-01-23T09:21:44.000Z</time>
      </trkpt>
      <trkpt lat="47.24134" lon="-2.30031">
        <ele>36</ele>
        <time>2020-01-23T09:21:45.000Z</time>
      </trkpt>
      <trkpt lat="47.24139" lon="-2.30022">
        <ele>36</ele>
        <time>2020-01-23T09:21:48.000Z</time>
      </trkpt>
      <trkpt lat="47.24144" lon="-2.30018">
        <ele>36</ele>
        <time>2020-01-23T09:21:51.000Z</time>
      </trkpt>
      <trkpt lat="47.24156" lon="-2.30017">
        <ele>36</ele>
        <time>2020-01-23T09:21:56.000Z</time>
      </trkpt>
      <trkpt lat="47.24168" lon="-2.30013">
        <ele>36</ele>
        <time>2020-01-23T09:22:01.000Z</time>
      </trkpt>
      <trkpt lat="47.24169" lon="-2.30008">
        <ele>36</ele>
        <time>2020-01-23T09:22:02.000Z</time>
      </trkpt>
      <trkpt lat="47.24168" lon="-2.30003">
        <ele>36</ele>
        <time>2020-01-23T09:22:04.000Z</time>
      </trkpt>
      <trkpt lat="47.24162" lon="-2.2999">
        <ele>36</ele>
        <time>2020-01-23T09:22:09.000Z</time>
      </trkpt>
      <trkpt lat="47.24161" lon="-2.29988">
        <ele>36</ele>
        <time>2020-01-23T09:22:10.000Z</time>
      </trkpt>
      <trkpt lat="47.24162" lon="-2.29965">
        <ele>36</ele>
        <time>2020-01-23T09:22:15.000Z</time>
      </trkpt>
      <trkpt lat="47.24165" lon="-2.2994">
        <ele>36</ele>
        <time>2020-01-23T09:22:20.000Z</time>
      </trkpt>
      <trkpt lat="47.24172" lon="-2.29918">
        <ele>36</ele>
        <time>2020-01-23T09:22:25.000Z</time>
      </trkpt>
      <trkpt lat="47.24173" lon="-2.29915">
        <ele>36</ele>
        <time>2020-01-23T09:22:26.000Z</time>
      </trkpt>
      <trkpt lat="47.24177" lon="-2.29905">
        <ele>36</ele>
        <time>2020-01-23T09:22:30.000Z</time>
      </trkpt>
      <trkpt lat="47.24178" lon="-2.29903">
        <ele>36</ele>
        <time>2020-01-23T09:22:31.000Z</time>
      </trkpt>
      <trkpt lat="47.2418" lon="-2.29896">
        <ele>36.400001525879</ele>
        <time>2020-01-23T09:22:35.000Z</time>
      </trkpt>
      <trkpt lat="47.2418" lon="-2.29894">
        <ele>36.799999237061</ele>
        <time>2020-01-23T09:22:36.000Z</time>
      </trkpt>
      <trkpt lat="47.24179" lon="-2.29892">
        <ele>37.200000762939</ele>
        <time>2020-01-23T09:22:37.000Z</time>
      </trkpt>
      <trkpt lat="47.24177" lon="-2.29888">
        <ele>37.599998474121</ele>
        <time>2020-01-23T09:22:38.000Z</time>
      </trkpt>
      <trkpt lat="47.24175" lon="-2.29884">
        <ele>38</ele>
        <time>2020-01-23T09:22:39.000Z</time>
      </trkpt>
      <trkpt lat="47.24174" lon="-2.29871">
        <ele>38</ele>
        <time>2020-01-23T09:22:42.000Z</time>
      </trkpt>
      <trkpt lat="47.24177" lon="-2.29849">
        <ele>38</ele>
        <time>2020-01-23T09:22:46.000Z</time>
      </trkpt>
      <trkpt lat="47.24172" lon="-2.29836">
        <ele>38</ele>
        <time>2020-01-23T09:22:49.000Z</time>
      </trkpt>
      <trkpt lat="47.24159" lon="-2.29835">
        <ele>38</ele>
        <time>2020-01-23T09:22:53.000Z</time>
      </trkpt>
      <trkpt lat="47.24156" lon="-2.29836">
        <ele>38</ele>
        <time>2020-01-23T09:22:54.000Z</time>
      </trkpt>
      <trkpt lat="47.24148" lon="-2.29836">
        <ele>38</ele>
        <time>2020-01-23T09:22:58.000Z</time>
      </trkpt>
      <trkpt lat="47.24145" lon="-2.29836">
        <ele>38</ele>
        <time>2020-01-23T09:23:02.000Z</time>
      </trkpt>
      <trkpt lat="47.24141" lon="-2.29838">
        <ele>38</ele>
        <time>2020-01-23T09:23:09.000Z</time>
      </trkpt>
      <trkpt lat="47.24134" lon="-2.2984">
        <ele>38</ele>
        <time>2020-01-23T09:23:13.000Z</time>
      </trkpt>
      <trkpt lat="47.24131" lon="-2.29841">
        <ele>38</ele>
        <time>2020-01-23T09:23:14.000Z</time>
      </trkpt>
      <trkpt lat="47.24118" lon="-2.29846">
        <ele>38</ele>
        <time>2020-01-23T09:23:19.000Z</time>
      </trkpt>
      <trkpt lat="47.24102" lon="-2.29846">
        <ele>38</ele>
        <time>2020-01-23T09:23:24.000Z</time>
      </trkpt>
      <trkpt lat="47.24093" lon="-2.29842">
        <ele>38</ele>
        <time>2020-01-23T09:23:28.000Z</time>
      </trkpt>
      <trkpt lat="47.24079" lon="-2.2984">
        <ele>38</ele>
        <time>2020-01-23T09:23:33.000Z</time>
      </trkpt>
      <trkpt lat="47.24073" lon="-2.29837">
        <ele>38</ele>
        <time>2020-01-23T09:23:36.000Z</time>
      </trkpt>
      <trkpt lat="47.24068" lon="-2.29832">
        <ele>38</ele>
        <time>2020-01-23T09:23:38.000Z</time>
      </trkpt>
      <trkpt lat="47.24064" lon="-2.29826">
        <ele>38</ele>
        <time>2020-01-23T09:23:40.000Z</time>
      </trkpt>
      <trkpt lat="47.24058" lon="-2.2982">
        <ele>38</ele>
        <time>2020-01-23T09:23:43.000Z</time>
      </trkpt>
      <trkpt lat="47.24055" lon="-2.29819">
        <ele>38</ele>
        <time>2020-01-23T09:23:44.000Z</time>
      </trkpt>
      <trkpt lat="47.24048" lon="-2.29817">
        <ele>38</ele>
        <time>2020-01-23T09:23:47.000Z</time>
      </trkpt>
      <trkpt lat="47.24045" lon="-2.29816">
        <ele>38</ele>
        <time>2020-01-23T09:23:48.000Z</time>
      </trkpt>
      <trkpt lat="47.24027" lon="-2.29815">
        <ele>38</ele>
        <time>2020-01-23T09:23:54.000Z</time>
      </trkpt>
      <trkpt lat="47.24024" lon="-2.29812">
        <ele>38</ele>
        <time>2020-01-23T09:23:55.000Z</time>
      </trkpt>
      <trkpt lat="47.2402" lon="-2.29798">
        <ele>38</ele>
        <time>2020-01-23T09:23:58.000Z</time>
      </trkpt>
      <trkpt lat="47.24015" lon="-2.29777">
        <ele>38</ele>
        <time>2020-01-23T09:24:03.000Z</time>
      </trkpt>
      <trkpt lat="47.24014" lon="-2.29772">
        <ele>38</ele>
        <time>2020-01-23T09:24:04.000Z</time>
      </trkpt>
      <trkpt lat="47.24013" lon="-2.2975">
        <ele>38</ele>
        <time>2020-01-23T09:24:08.000Z</time>
      </trkpt>
      <trkpt lat="47.24009" lon="-2.29703">
        <ele>38</ele>
        <time>2020-01-23T09:24:16.000Z</time>
      </trkpt>
      <trkpt lat="47.24008" lon="-2.29696">
        <ele>38</ele>
        <time>2020-01-23T09:24:17.000Z</time>
      </trkpt>
      <trkpt lat="47.24007" lon="-2.29675">
        <ele>38</ele>
        <time>2020-01-23T09:24:20.000Z</time>
      </trkpt>
      <trkpt lat="47.24006" lon="-2.29668">
        <ele>38</ele>
        <time>2020-01-23T09:24:21.000Z</time>
      </trkpt>
      <trkpt lat="47.24004" lon="-2.29636">
        <ele>38</ele>
        <time>2020-01-23T09:24:25.000Z</time>
      </trkpt>
      <trkpt lat="47.24003" lon="-2.29621">
        <ele>38</ele>
        <time>2020-01-23T09:24:27.000Z</time>
      </trkpt>
      <trkpt lat="47.24003" lon="-2.2959">
        <ele>38</ele>
        <time>2020-01-23T09:24:31.000Z</time>
      </trkpt>
      <trkpt lat="47.24002" lon="-2.29574">
        <ele>38</ele>
        <time>2020-01-23T09:24:33.000Z</time>
      </trkpt>
      <trkpt lat="47.24" lon="-2.2956">
        <ele>38</ele>
        <time>2020-01-23T09:24:35.000Z</time>
      </trkpt>
      <trkpt lat="47.23998" lon="-2.29546">
        <ele>38</ele>
        <time>2020-01-23T09:24:37.000Z</time>
      </trkpt>
      <trkpt lat="47.23994" lon="-2.29494">
        <ele>38</ele>
        <time>2020-01-23T09:24:44.000Z</time>
      </trkpt>
      <trkpt lat="47.23983" lon="-2.29473">
        <ele>38</ele>
        <time>2020-01-23T09:24:48.000Z</time>
      </trkpt>
      <trkpt lat="47.23971" lon="-2.29449">
        <ele>38</ele>
        <time>2020-01-23T09:24:53.000Z</time>
      </trkpt>
      <trkpt lat="47.23959" lon="-2.29428">
        <ele>38</ele>
        <time>2020-01-23T09:24:59.000Z</time>
      </trkpt>
      <trkpt lat="47.2395" lon="-2.29405">
        <ele>38</ele>
        <time>2020-01-23T09:25:05.000Z</time>
      </trkpt>
      <trkpt lat="47.23942" lon="-2.29389">
        <ele>38</ele>
        <time>2020-01-23T09:25:11.000Z</time>
      </trkpt>
      <trkpt lat="47.23935" lon="-2.29375">
        <ele>38</ele>
        <time>2020-01-23T09:25:17.000Z</time>
      </trkpt>
      <trkpt lat="47.23926" lon="-2.29358">
        <ele>38</ele>
        <time>2020-01-23T09:25:23.000Z</time>
      </trkpt>
      <trkpt lat="47.23917" lon="-2.29342">
        <ele>38</ele>
        <time>2020-01-23T09:25:29.000Z</time>
      </trkpt>
      <trkpt lat="47.23915" lon="-2.2934">
        <ele>37.599998474121</ele>
        <time>2020-01-23T09:25:30.000Z</time>
      </trkpt>
      <trkpt lat="47.23914" lon="-2.29338">
        <ele>37.200000762939</ele>
        <time>2020-01-23T09:25:31.000Z</time>
      </trkpt>
      <trkpt lat="47.23912" lon="-2.29335">
        <ele>36.799999237061</ele>
        <time>2020-01-23T09:25:32.000Z</time>
      </trkpt>
      <trkpt lat="47.23911" lon="-2.29333">
        <ele>36.400001525879</ele>
        <time>2020-01-23T09:25:33.000Z</time>
      </trkpt>
      <trkpt lat="47.23908" lon="-2.29332">
        <ele>36</ele>
        <time>2020-01-23T09:25:34.000Z</time>
      </trkpt>
      <trkpt lat="47.23901" lon="-2.29333">
        <ele>36</ele>
        <time>2020-01-23T09:25:38.000Z</time>
      </trkpt>
      <trkpt lat="47.23898" lon="-2.29334">
        <ele>36</ele>
        <time>2020-01-23T09:25:39.000Z</time>
      </trkpt>
      <trkpt lat="47.23886" lon="-2.29332">
        <ele>36</ele>
        <time>2020-01-23T09:25:43.000Z</time>
      </trkpt>
      <trkpt lat="47.23872" lon="-2.29336">
        <ele>36</ele>
        <time>2020-01-23T09:25:48.000Z</time>
      </trkpt>
      <trkpt lat="47.2386" lon="-2.29352">
        <ele>36</ele>
        <time>2020-01-23T09:25:53.000Z</time>
      </trkpt>
      <trkpt lat="47.23851" lon="-2.29376">
        <ele>36</ele>
        <time>2020-01-23T09:25:58.000Z</time>
      </trkpt>
      <trkpt lat="47.23836" lon="-2.29408">
        <ele>36</ele>
        <time>2020-01-23T09:26:05.000Z</time>
      </trkpt>
      <trkpt lat="47.2382" lon="-2.29437">
        <ele>36</ele>
        <time>2020-01-23T09:26:12.000Z</time>
      </trkpt>
      <trkpt lat="47.23816" lon="-2.29438">
        <ele>36</ele>
        <time>2020-01-23T09:26:13.000Z</time>
      </trkpt>
      <trkpt lat="47.23808" lon="-2.29437">
        <ele>36</ele>
        <time>2020-01-23T09:26:15.000Z</time>
      </trkpt>
      <trkpt lat="47.23804" lon="-2.29437">
        <ele>36</ele>
        <time>2020-01-23T09:26:16.000Z</time>
      </trkpt>
      <trkpt lat="47.23789" lon="-2.29446">
        <ele>36</ele>
        <time>2020-01-23T09:26:20.000Z</time>
      </trkpt>
      <trkpt lat="47.23785" lon="-2.29448">
        <ele>35.599998474121</ele>
        <time>2020-01-23T09:26:21.000Z</time>
      </trkpt>
      <trkpt lat="47.23782" lon="-2.2945">
        <ele>35.200000762939</ele>
        <time>2020-01-23T09:26:22.000Z</time>
      </trkpt>
      <trkpt lat="47.23778" lon="-2.29451">
        <ele>34.799999237061</ele>
        <time>2020-01-23T09:26:23.000Z</time>
      </trkpt>
      <trkpt lat="47.23774" lon="-2.29453">
        <ele>34.400001525879</ele>
        <time>2020-01-23T09:26:24.000Z</time>
      </trkpt>
      <trkpt lat="47.23771" lon="-2.29455">
        <ele>34</ele>
        <time>2020-01-23T09:26:25.000Z</time>
      </trkpt>
      <trkpt lat="47.23759" lon="-2.29475">
        <ele>34</ele>
        <time>2020-01-23T09:26:30.000Z</time>
      </trkpt>
      <trkpt lat="47.23755" lon="-2.29487">
        <ele>34</ele>
        <time>2020-01-23T09:26:32.000Z</time>
      </trkpt>
      <trkpt lat="47.23744" lon="-2.29505">
        <ele>34</ele>
        <time>2020-01-23T09:26:35.000Z</time>
      </trkpt>
      <trkpt lat="47.23741" lon="-2.2951">
        <ele>34</ele>
        <time>2020-01-23T09:26:36.000Z</time>
      </trkpt>
      <trkpt lat="47.23737" lon="-2.29517">
        <ele>33.599998474121</ele>
        <time>2020-01-23T09:26:37.000Z</time>
      </trkpt>
      <trkpt lat="47.23732" lon="-2.29524">
        <ele>33.200000762939</ele>
        <time>2020-01-23T09:26:38.000Z</time>
      </trkpt>
      <trkpt lat="47.2373" lon="-2.29532">
        <ele>32.799999237061</ele>
        <time>2020-01-23T09:26:39.000Z</time>
      </trkpt>
      <trkpt lat="47.2373" lon="-2.29541">
        <ele>32.400001525879</ele>
        <time>2020-01-23T09:26:40.000Z</time>
      </trkpt>
      <trkpt lat="47.23731" lon="-2.2955">
        <ele>31.799999237061</ele>
        <time>2020-01-23T09:26:41.000Z</time>
      </trkpt>
      <trkpt lat="47.23731" lon="-2.29558">
        <ele>31.799999237061</ele>
        <time>2020-01-23T09:26:42.000Z</time>
      </trkpt>
      <trkpt lat="47.23735" lon="-2.29618">
        <ele>31.799999237061</ele>
        <time>2020-01-23T09:26:49.000Z</time>
      </trkpt>
      <trkpt lat="47.23736" lon="-2.29626">
        <ele>31.799999237061</ele>
        <time>2020-01-23T09:26:50.000Z</time>
      </trkpt>
      <trkpt lat="47.23737" lon="-2.29641">
        <ele>31.799999237061</ele>
        <time>2020-01-23T09:26:52.000Z</time>
      </trkpt>
      <trkpt lat="47.23737" lon="-2.29655">
        <ele>31.799999237061</ele>
        <time>2020-01-23T09:26:54.000Z</time>
      </trkpt>
      <trkpt lat="47.23738" lon="-2.29661">
        <ele>31.799999237061</ele>
        <time>2020-01-23T09:26:55.000Z</time>
      </trkpt>
      <trkpt lat="47.23739" lon="-2.29687">
        <ele>31.799999237061</ele>
        <time>2020-01-23T09:26:59.000Z</time>
      </trkpt>
      <trkpt lat="47.2374" lon="-2.29693">
        <ele>31.799999237061</ele>
        <time>2020-01-23T09:27:00.000Z</time>
      </trkpt>
      <trkpt lat="47.23736" lon="-2.29708">
        <ele>31.799999237061</ele>
        <time>2020-01-23T09:27:04.000Z</time>
      </trkpt>
      <trkpt lat="47.23719" lon="-2.29713">
        <ele>31.799999237061</ele>
        <time>2020-01-23T09:27:08.000Z</time>
      </trkpt>
      <trkpt lat="47.23709" lon="-2.29716">
        <ele>31.799999237061</ele>
        <time>2020-01-23T09:27:10.000Z</time>
      </trkpt>
      <trkpt lat="47.23693" lon="-2.29718">
        <ele>31.799999237061</ele>
        <time>2020-01-23T09:27:13.000Z</time>
      </trkpt>
      <trkpt lat="47.23656" lon="-2.29725">
        <ele>31.799999237061</ele>
        <time>2020-01-23T09:27:19.000Z</time>
      </trkpt>
      <trkpt lat="47.23651" lon="-2.29731">
        <ele>31.799999237061</ele>
        <time>2020-01-23T09:27:20.000Z</time>
      </trkpt>
      <trkpt lat="47.23647" lon="-2.29748">
        <ele>31</ele>
        <time>2020-01-23T09:27:22.000Z</time>
      </trkpt>
      <trkpt lat="47.23648" lon="-2.29757">
        <ele>30.60000038147</ele>
        <time>2020-01-23T09:27:23.000Z</time>
      </trkpt>
      <trkpt lat="47.2365" lon="-2.29764">
        <ele>30.200000762939</ele>
        <time>2020-01-23T09:27:24.000Z</time>
      </trkpt>
      <trkpt lat="47.23651" lon="-2.2977">
        <ele>29.799999237061</ele>
        <time>2020-01-23T09:27:25.000Z</time>
      </trkpt>
      <trkpt lat="47.23654" lon="-2.29788">
        <ele>29.799999237061</ele>
        <time>2020-01-23T09:27:28.000Z</time>
      </trkpt>
      <trkpt lat="47.23658" lon="-2.29799">
        <ele>29.799999237061</ele>
        <time>2020-01-23T09:27:30.000Z</time>
      </trkpt>
      <trkpt lat="47.2366" lon="-2.29805">
        <ele>30.200000762939</ele>
        <time>2020-01-23T09:27:31.000Z</time>
      </trkpt>
      <trkpt lat="47.23662" lon="-2.29811">
        <ele>30.60000038147</ele>
        <time>2020-01-23T09:27:32.000Z</time>
      </trkpt>
      <trkpt lat="47.23664" lon="-2.29818">
        <ele>31</ele>
        <time>2020-01-23T09:27:33.000Z</time>
      </trkpt>
      <trkpt lat="47.23666" lon="-2.29823">
        <ele>31.39999961853</ele>
        <time>2020-01-23T09:27:34.000Z</time>
      </trkpt>
      <trkpt lat="47.23669" lon="-2.29829">
        <ele>31.799999237061</ele>
        <time>2020-01-23T09:27:35.000Z</time>
      </trkpt>
      <trkpt lat="47.23671" lon="-2.29835">
        <ele>31.799999237061</ele>
        <time>2020-01-23T09:27:36.000Z</time>
      </trkpt>
      <trkpt lat="47.23681" lon="-2.29859">
        <ele>31.799999237061</ele>
        <time>2020-01-23T09:27:40.000Z</time>
      </trkpt>
      <trkpt lat="47.23688" lon="-2.2987">
        <ele>31.799999237061</ele>
        <time>2020-01-23T09:27:42.000Z</time>
      </trkpt>
      <trkpt lat="47.23703" lon="-2.299">
        <ele>31.799999237061</ele>
        <time>2020-01-23T09:27:48.000Z</time>
      </trkpt>
      <trkpt lat="47.23708" lon="-2.29916">
        <ele>31.799999237061</ele>
        <time>2020-01-23T09:27:51.000Z</time>
      </trkpt>
      <trkpt lat="47.2371" lon="-2.29928">
        <ele>31.799999237061</ele>
        <time>2020-01-23T09:27:53.000Z</time>
      </trkpt>
      <trkpt lat="47.23704" lon="-2.29964">
        <ele>31.799999237061</ele>
        <time>2020-01-23T09:27:58.000Z</time>
      </trkpt>
      <trkpt lat="47.23693" lon="-2.29981">
        <ele>31.799999237061</ele>
        <time>2020-01-23T09:28:01.000Z</time>
      </trkpt>
      <trkpt lat="47.23686" lon="-2.29988">
        <ele>31.799999237061</ele>
        <time>2020-01-23T09:28:03.000Z</time>
      </trkpt>
      <trkpt lat="47.23676" lon="-2.29994">
        <ele>31.39999961853</ele>
        <time>2020-01-23T09:28:06.000Z</time>
      </trkpt>
      <trkpt lat="47.23672" lon="-2.29993">
        <ele>31</ele>
        <time>2020-01-23T09:28:07.000Z</time>
      </trkpt>
      <trkpt lat="47.23669" lon="-2.2999">
        <ele>30.60000038147</ele>
        <time>2020-01-23T09:28:08.000Z</time>
      </trkpt>
      <trkpt lat="47.23667" lon="-2.29986">
        <ele>30.200000762939</ele>
        <time>2020-01-23T09:28:09.000Z</time>
      </trkpt>
      <trkpt lat="47.23664" lon="-2.29982">
        <ele>29.60000038147</ele>
        <time>2020-01-23T09:28:10.000Z</time>
      </trkpt>
      <trkpt lat="47.23661" lon="-2.29977">
        <ele>29.60000038147</ele>
        <time>2020-01-23T09:28:11.000Z</time>
      </trkpt>
      <trkpt lat="47.23658" lon="-2.29972">
        <ele>29.60000038147</ele>
        <time>2020-01-23T09:28:12.000Z</time>
      </trkpt>
      <trkpt lat="47.23651" lon="-2.29956">
        <ele>29.60000038147</ele>
        <time>2020-01-23T09:28:15.000Z</time>
      </trkpt>
      <trkpt lat="47.23649" lon="-2.29945">
        <ele>29.60000038147</ele>
        <time>2020-01-23T09:28:17.000Z</time>
      </trkpt>
      <trkpt lat="47.23646" lon="-2.29933">
        <ele>29.60000038147</ele>
        <time>2020-01-23T09:28:19.000Z</time>
      </trkpt>
      <trkpt lat="47.23635" lon="-2.29909">
        <ele>30</ele>
        <time>2020-01-23T09:28:23.000Z</time>
      </trkpt>
      <trkpt lat="47.23633" lon="-2.29903">
        <ele>30.39999961853</ele>
        <time>2020-01-23T09:28:24.000Z</time>
      </trkpt>
      <trkpt lat="47.2363" lon="-2.29898">
        <ele>30.799999237061</ele>
        <time>2020-01-23T09:28:25.000Z</time>
      </trkpt>
      <trkpt lat="47.23628" lon="-2.29891">
        <ele>31.200000762939</ele>
        <time>2020-01-23T09:28:26.000Z</time>
      </trkpt>
      <trkpt lat="47.23625" lon="-2.29886">
        <ele>31.60000038147</ele>
        <time>2020-01-23T09:28:27.000Z</time>
      </trkpt>
      <trkpt lat="47.23621" lon="-2.29873">
        <ele>31.60000038147</ele>
        <time>2020-01-23T09:28:29.000Z</time>
      </trkpt>
      <trkpt lat="47.236" lon="-2.29816">
        <ele>31.60000038147</ele>
        <time>2020-01-23T09:28:39.000Z</time>
      </trkpt>
      <trkpt lat="47.23593" lon="-2.298">
        <ele>31.60000038147</ele>
        <time>2020-01-23T09:28:43.000Z</time>
      </trkpt>
      <trkpt lat="47.2358" lon="-2.298">
        <ele>31.200000762939</ele>
        <time>2020-01-23T09:28:46.000Z</time>
      </trkpt>
      <trkpt lat="47.23576" lon="-2.29801">
        <ele>30.799999237061</ele>
        <time>2020-01-23T09:28:47.000Z</time>
      </trkpt>
      <trkpt lat="47.23572" lon="-2.29802">
        <ele>30.39999961853</ele>
        <time>2020-01-23T09:28:48.000Z</time>
      </trkpt>
      <trkpt lat="47.23568" lon="-2.29804">
        <ele>30</ele>
        <time>2020-01-23T09:28:49.000Z</time>
      </trkpt>
      <trkpt lat="47.23563" lon="-2.29806">
        <ele>29.60000038147</ele>
        <time>2020-01-23T09:28:50.000Z</time>
      </trkpt>
      <trkpt lat="47.23559" lon="-2.29807">
        <ele>29.60000038147</ele>
        <time>2020-01-23T09:28:51.000Z</time>
      </trkpt>
      <trkpt lat="47.23551" lon="-2.2981">
        <ele>29.60000038147</ele>
        <time>2020-01-23T09:28:53.000Z</time>
      </trkpt>
      <trkpt lat="47.23537" lon="-2.29815">
        <ele>29.60000038147</ele>
        <time>2020-01-23T09:28:56.000Z</time>
      </trkpt>
      <trkpt lat="47.23504" lon="-2.2983">
        <ele>29.60000038147</ele>
        <time>2020-01-23T09:29:02.000Z</time>
      </trkpt>
      <trkpt lat="47.23484" lon="-2.29846">
        <ele>29.200000762939</ele>
        <time>2020-01-23T09:29:07.000Z</time>
      </trkpt>
      <trkpt lat="47.23481" lon="-2.29848">
        <ele>28.799999237061</ele>
        <time>2020-01-23T09:29:08.000Z</time>
      </trkpt>
      <trkpt lat="47.23478" lon="-2.2985">
        <ele>28.39999961853</ele>
        <time>2020-01-23T09:29:09.000Z</time>
      </trkpt>
      <trkpt lat="47.23478" lon="-2.29847">
        <ele>28</ele>
        <time>2020-01-23T09:29:10.000Z</time>
      </trkpt>
      <trkpt lat="47.23476" lon="-2.29846">
        <ele>27.60000038147</ele>
        <time>2020-01-23T09:29:11.000Z</time>
      </trkpt>
      <trkpt lat="47.23475" lon="-2.29831">
        <ele>27.60000038147</ele>
        <time>2020-01-23T09:29:14.000Z</time>
      </trkpt>
      <trkpt lat="47.23475" lon="-2.29805">
        <ele>27.60000038147</ele>
        <time>2020-01-23T09:29:18.000Z</time>
      </trkpt>
      <trkpt lat="47.23485" lon="-2.29788">
        <ele>27.60000038147</ele>
        <time>2020-01-23T09:29:21.000Z</time>
      </trkpt>
      <trkpt lat="47.23487" lon="-2.29781">
        <ele>27.60000038147</ele>
        <time>2020-01-23T09:29:22.000Z</time>
      </trkpt>
      <trkpt lat="47.2349" lon="-2.29766">
        <ele>27.200000762939</ele>
        <time>2020-01-23T09:29:24.000Z</time>
      </trkpt>
      <trkpt lat="47.23491" lon="-2.29759">
        <ele>26.200000762939</ele>
        <time>2020-01-23T09:29:25.000Z</time>
      </trkpt>
      <trkpt lat="47.23493" lon="-2.29753">
        <ele>25.799999237061</ele>
        <time>2020-01-23T09:29:26.000Z</time>
      </trkpt>
      <trkpt lat="47.23496" lon="-2.29745">
        <ele>25.39999961853</ele>
        <time>2020-01-23T09:29:27.000Z</time>
      </trkpt>
      <trkpt lat="47.23508" lon="-2.29725">
        <ele>25</ele>
        <time>2020-01-23T09:29:30.000Z</time>
      </trkpt>
      <trkpt lat="47.2351" lon="-2.29718">
        <ele>24.60000038147</ele>
        <time>2020-01-23T09:29:31.000Z</time>
      </trkpt>
      <trkpt lat="47.23512" lon="-2.29709">
        <ele>24.200000762939</ele>
        <time>2020-01-23T09:29:32.000Z</time>
      </trkpt>
      <trkpt lat="47.23514" lon="-2.29704">
        <ele>23.60000038147</ele>
        <time>2020-01-23T09:29:33.000Z</time>
      </trkpt>
      <trkpt lat="47.23515" lon="-2.29696">
        <ele>23.200000762939</ele>
        <time>2020-01-23T09:29:34.000Z</time>
      </trkpt>
      <trkpt lat="47.23515" lon="-2.29679">
        <ele>23.200000762939</ele>
        <time>2020-01-23T09:29:36.000Z</time>
      </trkpt>
      <trkpt lat="47.23513" lon="-2.29666">
        <ele>23.200000762939</ele>
        <time>2020-01-23T09:29:39.000Z</time>
      </trkpt>
      <trkpt lat="47.23513" lon="-2.29663">
        <ele>22.799999237061</ele>
        <time>2020-01-23T09:29:40.000Z</time>
      </trkpt>
      <trkpt lat="47.23512" lon="-2.2966">
        <ele>22.39999961853</ele>
        <time>2020-01-23T09:29:41.000Z</time>
      </trkpt>
      <trkpt lat="47.23511" lon="-2.29657">
        <ele>22</ele>
        <time>2020-01-23T09:29:42.000Z</time>
      </trkpt>
      <trkpt lat="47.23511" lon="-2.29653">
        <ele>21.60000038147</ele>
        <time>2020-01-23T09:29:43.000Z</time>
      </trkpt>
      <trkpt lat="47.23511" lon="-2.29648">
        <ele>21.200000762939</ele>
        <time>2020-01-23T09:29:44.000Z</time>
      </trkpt>
      <trkpt lat="47.23511" lon="-2.29642">
        <ele>21.200000762939</ele>
        <time>2020-01-23T09:29:45.000Z</time>
      </trkpt>
      <trkpt lat="47.23512" lon="-2.29633">
        <ele>21.200000762939</ele>
        <time>2020-01-23T09:29:46.000Z</time>
      </trkpt>
      <trkpt lat="47.23515" lon="-2.29616">
        <ele>21.200000762939</ele>
        <time>2020-01-23T09:29:48.000Z</time>
      </trkpt>
      <trkpt lat="47.23518" lon="-2.2961">
        <ele>20.799999237061</ele>
        <time>2020-01-23T09:29:49.000Z</time>
      </trkpt>
      <trkpt lat="47.23521" lon="-2.29605">
        <ele>20</ele>
        <time>2020-01-23T09:29:50.000Z</time>
      </trkpt>
      <trkpt lat="47.23524" lon="-2.296">
        <ele>19.60000038147</ele>
        <time>2020-01-23T09:29:51.000Z</time>
      </trkpt>
      <trkpt lat="47.23527" lon="-2.29597">
        <ele>19.200000762939</ele>
        <time>2020-01-23T09:29:52.000Z</time>
      </trkpt>
      <trkpt lat="47.23544" lon="-2.29592">
        <ele>19.200000762939</ele>
        <time>2020-01-23T09:29:56.000Z</time>
      </trkpt>
      <trkpt lat="47.23551" lon="-2.29597">
        <ele>19.200000762939</ele>
        <time>2020-01-23T09:29:58.000Z</time>
      </trkpt>
      <trkpt lat="47.23558" lon="-2.29602">
        <ele>19.200000762939</ele>
        <time>2020-01-23T09:30:00.000Z</time>
      </trkpt>
      <trkpt lat="47.23573" lon="-2.29607">
        <ele>19.200000762939</ele>
        <time>2020-01-23T09:30:05.000Z</time>
      </trkpt>
      <trkpt lat="47.23584" lon="-2.29602">
        <ele>19.60000038147</ele>
        <time>2020-01-23T09:30:09.000Z</time>
      </trkpt>
      <trkpt lat="47.23585" lon="-2.29598">
        <ele>20</ele>
        <time>2020-01-23T09:30:10.000Z</time>
      </trkpt>
      <trkpt lat="47.23585" lon="-2.29594">
        <ele>20.39999961853</ele>
        <time>2020-01-23T09:30:11.000Z</time>
      </trkpt>
      <trkpt lat="47.23585" lon="-2.29589">
        <ele>21</ele>
        <time>2020-01-23T09:30:12.000Z</time>
      </trkpt>
      <trkpt lat="47.23586" lon="-2.29583">
        <ele>21.39999961853</ele>
        <time>2020-01-23T09:30:13.000Z</time>
      </trkpt>
      <trkpt lat="47.23586" lon="-2.29576">
        <ele>21.39999961853</ele>
        <time>2020-01-23T09:30:14.000Z</time>
      </trkpt>
      <trkpt lat="47.23588" lon="-2.29561">
        <ele>21.799999237061</ele>
        <time>2020-01-23T09:30:16.000Z</time>
      </trkpt>
      <trkpt lat="47.23589" lon="-2.29554">
        <ele>22.200000762939</ele>
        <time>2020-01-23T09:30:17.000Z</time>
      </trkpt>
      <trkpt lat="47.2359" lon="-2.29546">
        <ele>22.60000038147</ele>
        <time>2020-01-23T09:30:18.000Z</time>
      </trkpt>
      <trkpt lat="47.23591" lon="-2.29539">
        <ele>23</ele>
        <time>2020-01-23T09:30:19.000Z</time>
      </trkpt>
      <trkpt lat="47.23591" lon="-2.29532">
        <ele>23.39999961853</ele>
        <time>2020-01-23T09:30:20.000Z</time>
      </trkpt>
      <trkpt lat="47.23591" lon="-2.29494">
        <ele>23.39999961853</ele>
        <time>2020-01-23T09:30:26.000Z</time>
      </trkpt>
      <trkpt lat="47.23591" lon="-2.29466">
        <ele>23.799999237061</ele>
        <time>2020-01-23T09:30:31.000Z</time>
      </trkpt>
      <trkpt lat="47.23593" lon="-2.29462">
        <ele>24.200000762939</ele>
        <time>2020-01-23T09:30:32.000Z</time>
      </trkpt>
      <trkpt lat="47.23593" lon="-2.29456">
        <ele>24.799999237061</ele>
        <time>2020-01-23T09:30:33.000Z</time>
      </trkpt>
      <trkpt lat="47.23594" lon="-2.29452">
        <ele>25.200000762939</ele>
        <time>2020-01-23T09:30:34.000Z</time>
      </trkpt>
      <trkpt lat="47.23593" lon="-2.29447">
        <ele>25.60000038147</ele>
        <time>2020-01-23T09:30:35.000Z</time>
      </trkpt>
      <trkpt lat="47.23593" lon="-2.29441">
        <ele>25.60000038147</ele>
        <time>2020-01-23T09:30:36.000Z</time>
      </trkpt>
      <trkpt lat="47.23591" lon="-2.29409">
        <ele>25.60000038147</ele>
        <time>2020-01-23T09:30:41.000Z</time>
      </trkpt>
      <trkpt lat="47.23591" lon="-2.29402">
        <ele>25.60000038147</ele>
        <time>2020-01-23T09:30:42.000Z</time>
      </trkpt>
      <trkpt lat="47.23592" lon="-2.29395">
        <ele>25.60000038147</ele>
        <time>2020-01-23T09:30:43.000Z</time>
      </trkpt>
      <trkpt lat="47.2359" lon="-2.2937">
        <ele>25.60000038147</ele>
        <time>2020-01-23T09:30:46.000Z</time>
      </trkpt>
      <trkpt lat="47.23591" lon="-2.29362">
        <ele>25.60000038147</ele>
        <time>2020-01-23T09:30:47.000Z</time>
      </trkpt>
      <trkpt lat="47.23592" lon="-2.29328">
        <ele>25.200000762939</ele>
        <time>2020-01-23T09:30:51.000Z</time>
      </trkpt>
      <trkpt lat="47.23591" lon="-2.29318">
        <ele>24.799999237061</ele>
        <time>2020-01-23T09:30:52.000Z</time>
      </trkpt>
      <trkpt lat="47.23592" lon="-2.29309">
        <ele>24.39999961853</ele>
        <time>2020-01-23T09:30:53.000Z</time>
      </trkpt>
      <trkpt lat="47.23592" lon="-2.29298">
        <ele>24</ele>
        <time>2020-01-23T09:30:54.000Z</time>
      </trkpt>
      <trkpt lat="47.23592" lon="-2.29288">
        <ele>23.60000038147</ele>
        <time>2020-01-23T09:30:55.000Z</time>
      </trkpt>
      <trkpt lat="47.2359" lon="-2.29253">
        <ele>23.60000038147</ele>
        <time>2020-01-23T09:30:59.000Z</time>
      </trkpt>
      <trkpt lat="47.23591" lon="-2.29246">
        <ele>23.60000038147</ele>
        <time>2020-01-23T09:31:00.000Z</time>
      </trkpt>
      <trkpt lat="47.236" lon="-2.29221">
        <ele>23.60000038147</ele>
        <time>2020-01-23T09:31:05.000Z</time>
      </trkpt>
      <trkpt lat="47.2362" lon="-2.29207">
        <ele>24</ele>
        <time>2020-01-23T09:31:10.000Z</time>
      </trkpt>
      <trkpt lat="47.23625" lon="-2.29206">
        <ele>24.39999961853</ele>
        <time>2020-01-23T09:31:11.000Z</time>
      </trkpt>
      <trkpt lat="47.23631" lon="-2.29206">
        <ele>24.799999237061</ele>
        <time>2020-01-23T09:31:12.000Z</time>
      </trkpt>
      <trkpt lat="47.23636" lon="-2.29205">
        <ele>25.39999961853</ele>
        <time>2020-01-23T09:31:13.000Z</time>
      </trkpt>
      <trkpt lat="47.23642" lon="-2.29205">
        <ele>25.799999237061</ele>
        <time>2020-01-23T09:31:14.000Z</time>
      </trkpt>
      <trkpt lat="47.23646" lon="-2.29202">
        <ele>25.799999237061</ele>
        <time>2020-01-23T09:31:15.000Z</time>
      </trkpt>
      <trkpt lat="47.23656" lon="-2.29199">
        <ele>26.200000762939</ele>
        <time>2020-01-23T09:31:17.000Z</time>
      </trkpt>
      <trkpt lat="47.23661" lon="-2.29197">
        <ele>26.60000038147</ele>
        <time>2020-01-23T09:31:18.000Z</time>
      </trkpt>
      <trkpt lat="47.23665" lon="-2.29195">
        <ele>27</ele>
        <time>2020-01-23T09:31:19.000Z</time>
      </trkpt>
      <trkpt lat="47.23669" lon="-2.29194">
        <ele>27.39999961853</ele>
        <time>2020-01-23T09:31:20.000Z</time>
      </trkpt>
      <trkpt lat="47.23674" lon="-2.29193">
        <ele>27.799999237061</ele>
        <time>2020-01-23T09:31:21.000Z</time>
      </trkpt>
      <trkpt lat="47.23687" lon="-2.29187">
        <ele>27.799999237061</ele>
        <time>2020-01-23T09:31:24.000Z</time>
      </trkpt>
      <trkpt lat="47.23692" lon="-2.29186">
        <ele>27.799999237061</ele>
        <time>2020-01-23T09:31:25.000Z</time>
      </trkpt>
      <trkpt lat="47.2372" lon="-2.29176">
        <ele>27.799999237061</ele>
        <time>2020-01-23T09:31:31.000Z</time>
      </trkpt>
      <trkpt lat="47.23725" lon="-2.29174">
        <ele>27.799999237061</ele>
        <time>2020-01-23T09:31:32.000Z</time>
      </trkpt>
      <trkpt lat="47.23733" lon="-2.2917">
        <ele>27.799999237061</ele>
        <time>2020-01-23T09:31:34.000Z</time>
      </trkpt>
      <trkpt lat="47.23747" lon="-2.29163">
        <ele>27.799999237061</ele>
        <time>2020-01-23T09:31:37.000Z</time>
      </trkpt>
      <trkpt lat="47.23751" lon="-2.29161">
        <ele>28.200000762939</ele>
        <time>2020-01-23T09:31:38.000Z</time>
      </trkpt>
      <trkpt lat="47.23756" lon="-2.29159">
        <ele>28.60000038147</ele>
        <time>2020-01-23T09:31:39.000Z</time>
      </trkpt>
      <trkpt lat="47.2376" lon="-2.29156">
        <ele>29</ele>
        <time>2020-01-23T09:31:40.000Z</time>
      </trkpt>
      <trkpt lat="47.23764" lon="-2.29153">
        <ele>29.39999961853</ele>
        <time>2020-01-23T09:31:41.000Z</time>
      </trkpt>
      <trkpt lat="47.23768" lon="-2.29151">
        <ele>29.799999237061</ele>
        <time>2020-01-23T09:31:42.000Z</time>
      </trkpt>
      <trkpt lat="47.23772" lon="-2.29149">
        <ele>29.799999237061</ele>
        <time>2020-01-23T09:31:43.000Z</time>
      </trkpt>
      <trkpt lat="47.23775" lon="-2.29145">
        <ele>29.799999237061</ele>
        <time>2020-01-23T09:31:44.000Z</time>
      </trkpt>
      <trkpt lat="47.23783" lon="-2.29133">
        <ele>29.799999237061</ele>
        <time>2020-01-23T09:31:47.000Z</time>
      </trkpt>
      <trkpt lat="47.23787" lon="-2.29123">
        <ele>29.799999237061</ele>
        <time>2020-01-23T09:31:49.000Z</time>
      </trkpt>
      <trkpt lat="47.2379" lon="-2.29111">
        <ele>29.799999237061</ele>
        <time>2020-01-23T09:31:51.000Z</time>
      </trkpt>
      <trkpt lat="47.23791" lon="-2.29104">
        <ele>29.799999237061</ele>
        <time>2020-01-23T09:31:52.000Z</time>
      </trkpt>
      <trkpt lat="47.23794" lon="-2.29083">
        <ele>29.799999237061</ele>
        <time>2020-01-23T09:31:55.000Z</time>
      </trkpt>
      <trkpt lat="47.23796" lon="-2.29069">
        <ele>29.799999237061</ele>
        <time>2020-01-23T09:31:57.000Z</time>
      </trkpt>
      <trkpt lat="47.23802" lon="-2.29024">
        <ele>29.799999237061</ele>
        <time>2020-01-23T09:32:02.000Z</time>
      </trkpt>
      <trkpt lat="47.23805" lon="-2.28985">
        <ele>29.799999237061</ele>
        <time>2020-01-23T09:32:06.000Z</time>
      </trkpt>
      <trkpt lat="47.23807" lon="-2.28967">
        <ele>29.799999237061</ele>
        <time>2020-01-23T09:32:08.000Z</time>
      </trkpt>
      <trkpt lat="47.23818" lon="-2.28918">
        <ele>29.799999237061</ele>
        <time>2020-01-23T09:32:14.000Z</time>
      </trkpt>
      <trkpt lat="47.23816" lon="-2.28914">
        <ele>29.39999961853</ele>
        <time>2020-01-23T09:32:15.000Z</time>
      </trkpt>
      <trkpt lat="47.23812" lon="-2.2891">
        <ele>29</ele>
        <time>2020-01-23T09:32:16.000Z</time>
      </trkpt>
      <trkpt lat="47.23807" lon="-2.2891">
        <ele>28.60000038147</ele>
        <time>2020-01-23T09:32:17.000Z</time>
      </trkpt>
      <trkpt lat="47.23802" lon="-2.28909">
        <ele>28.200000762939</ele>
        <time>2020-01-23T09:32:18.000Z</time>
      </trkpt>
      <trkpt lat="47.23796" lon="-2.2891">
        <ele>27</ele>
        <time>2020-01-23T09:32:19.000Z</time>
      </trkpt>
      <trkpt lat="47.2379" lon="-2.28909">
        <ele>26.60000038147</ele>
        <time>2020-01-23T09:32:20.000Z</time>
      </trkpt>
      <trkpt lat="47.23784" lon="-2.28909">
        <ele>26</ele>
        <time>2020-01-23T09:32:21.000Z</time>
      </trkpt>
      <trkpt lat="47.2378" lon="-2.28908">
        <ele>25.60000038147</ele>
        <time>2020-01-23T09:32:22.000Z</time>
      </trkpt>
      <trkpt lat="47.23777" lon="-2.28903">
        <ele>25.200000762939</ele>
        <time>2020-01-23T09:32:23.000Z</time>
      </trkpt>
      <trkpt lat="47.23776" lon="-2.28897">
        <ele>24.799999237061</ele>
        <time>2020-01-23T09:32:24.000Z</time>
      </trkpt>
      <trkpt lat="47.23775" lon="-2.28889">
        <ele>24.39999961853</ele>
        <time>2020-01-23T09:32:25.000Z</time>
      </trkpt>
      <trkpt lat="47.23775" lon="-2.28882">
        <ele>24</ele>
        <time>2020-01-23T09:32:26.000Z</time>
      </trkpt>
      <trkpt lat="47.23775" lon="-2.28873">
        <ele>23.60000038147</ele>
        <time>2020-01-23T09:32:27.000Z</time>
      </trkpt>
      <trkpt lat="47.2377" lon="-2.28822">
        <ele>23.60000038147</ele>
        <time>2020-01-23T09:32:33.000Z</time>
      </trkpt>
      <trkpt lat="47.23767" lon="-2.28772">
        <ele>23.60000038147</ele>
        <time>2020-01-23T09:32:39.000Z</time>
      </trkpt>
      <trkpt lat="47.23768" lon="-2.28765">
        <ele>23.60000038147</ele>
        <time>2020-01-23T09:32:40.000Z</time>
      </trkpt>
      <trkpt lat="47.23766" lon="-2.28751">
        <ele>23.60000038147</ele>
        <time>2020-01-23T09:32:42.000Z</time>
      </trkpt>
      <trkpt lat="47.23763" lon="-2.28745">
        <ele>23.60000038147</ele>
        <time>2020-01-23T09:32:43.000Z</time>
      </trkpt>
      <trkpt lat="47.23759" lon="-2.28721">
        <ele>23.60000038147</ele>
        <time>2020-01-23T09:32:47.000Z</time>
      </trkpt>
      <trkpt lat="47.23761" lon="-2.28713">
        <ele>23.60000038147</ele>
        <time>2020-01-23T09:32:49.000Z</time>
      </trkpt>
      <trkpt lat="47.23764" lon="-2.28704">
        <ele>23.60000038147</ele>
        <time>2020-01-23T09:32:51.000Z</time>
      </trkpt>
      <trkpt lat="47.23774" lon="-2.28678">
        <ele>23.60000038147</ele>
        <time>2020-01-23T09:32:56.000Z</time>
      </trkpt>
      <trkpt lat="47.23779" lon="-2.28663">
        <ele>23.60000038147</ele>
        <time>2020-01-23T09:33:00.000Z</time>
      </trkpt>
      <trkpt lat="47.23783" lon="-2.28647">
        <ele>23.60000038147</ele>
        <time>2020-01-23T09:33:06.000Z</time>
      </trkpt>
      <trkpt lat="47.23792" lon="-2.2863">
        <ele>23.60000038147</ele>
        <time>2020-01-23T09:33:11.000Z</time>
      </trkpt>
      <trkpt lat="47.23793" lon="-2.28625">
        <ele>23.60000038147</ele>
        <time>2020-01-23T09:33:12.000Z</time>
      </trkpt>
      <trkpt lat="47.23793" lon="-2.28615">
        <ele>23.60000038147</ele>
        <time>2020-01-23T09:33:14.000Z</time>
      </trkpt>
      <trkpt lat="47.23791" lon="-2.28607">
        <ele>23.60000038147</ele>
        <time>2020-01-23T09:33:16.000Z</time>
      </trkpt>
      <trkpt lat="47.23786" lon="-2.28599">
        <ele>23.60000038147</ele>
        <time>2020-01-23T09:33:18.000Z</time>
      </trkpt>
      <trkpt lat="47.23785" lon="-2.28582">
        <ele>23</ele>
        <time>2020-01-23T09:33:21.000Z</time>
      </trkpt>
      <trkpt lat="47.23784" lon="-2.2858">
        <ele>22.60000038147</ele>
        <time>2020-01-23T09:33:22.000Z</time>
      </trkpt>
      <trkpt lat="47.23784" lon="-2.28576">
        <ele>22.200000762939</ele>
        <time>2020-01-23T09:33:23.000Z</time>
      </trkpt>
      <trkpt lat="47.23783" lon="-2.28571">
        <ele>21.799999237061</ele>
        <time>2020-01-23T09:33:24.000Z</time>
      </trkpt>
      <trkpt lat="47.23784" lon="-2.28565">
        <ele>21.39999961853</ele>
        <time>2020-01-23T09:33:25.000Z</time>
      </trkpt>
      <trkpt lat="47.23785" lon="-2.28559">
        <ele>21.39999961853</ele>
        <time>2020-01-23T09:33:26.000Z</time>
      </trkpt>
      <trkpt lat="47.23786" lon="-2.28531">
        <ele>21.39999961853</ele>
        <time>2020-01-23T09:33:32.000Z</time>
      </trkpt>
      <trkpt lat="47.2378" lon="-2.28516">
        <ele>21.39999961853</ele>
        <time>2020-01-23T09:33:37.000Z</time>
      </trkpt>
      <trkpt lat="47.23775" lon="-2.28501">
        <ele>21.39999961853</ele>
        <time>2020-01-23T09:33:40.000Z</time>
      </trkpt>
      <trkpt lat="47.2377" lon="-2.28493">
        <ele>21.39999961853</ele>
        <time>2020-01-23T09:33:43.000Z</time>
      </trkpt>
      <trkpt lat="47.23762" lon="-2.28485">
        <ele>21</ele>
        <time>2020-01-23T09:33:45.000Z</time>
      </trkpt>
      <trkpt lat="47.2376" lon="-2.28482">
        <ele>20.60000038147</ele>
        <time>2020-01-23T09:33:46.000Z</time>
      </trkpt>
      <trkpt lat="47.2376" lon="-2.28477">
        <ele>20.200000762939</ele>
        <time>2020-01-23T09:33:47.000Z</time>
      </trkpt>
      <trkpt lat="47.23761" lon="-2.28472">
        <ele>19.799999237061</ele>
        <time>2020-01-23T09:33:48.000Z</time>
      </trkpt>
      <trkpt lat="47.23762" lon="-2.28468">
        <ele>19.39999961853</ele>
        <time>2020-01-23T09:33:49.000Z</time>
      </trkpt>
      <trkpt lat="47.23769" lon="-2.28456">
        <ele>19.39999961853</ele>
        <time>2020-01-23T09:33:53.000Z</time>
      </trkpt>
      <trkpt lat="47.2377" lon="-2.28453">
        <ele>19.39999961853</ele>
        <time>2020-01-23T09:33:54.000Z</time>
      </trkpt>
      <trkpt lat="47.23775" lon="-2.28443">
        <ele>19.39999961853</ele>
        <time>2020-01-23T09:33:57.000Z</time>
      </trkpt>
      <trkpt lat="47.23778" lon="-2.28424">
        <ele>19.39999961853</ele>
        <time>2020-01-23T09:34:01.000Z</time>
      </trkpt>
      <trkpt lat="47.23776" lon="-2.28411">
        <ele>19.39999961853</ele>
        <time>2020-01-23T09:34:03.000Z</time>
      </trkpt>
      <trkpt lat="47.23774" lon="-2.28402">
        <ele>19.39999961853</ele>
        <time>2020-01-23T09:34:04.000Z</time>
      </trkpt>
      <trkpt lat="47.23779" lon="-2.28382">
        <ele>19.39999961853</ele>
        <time>2020-01-23T09:34:07.000Z</time>
      </trkpt>
      <trkpt lat="47.23788" lon="-2.28366">
        <ele>19.39999961853</ele>
        <time>2020-01-23T09:34:10.000Z</time>
      </trkpt>
      <trkpt lat="47.23791" lon="-2.2836">
        <ele>19.39999961853</ele>
        <time>2020-01-23T09:34:11.000Z</time>
      </trkpt>
      <trkpt lat="47.23804" lon="-2.28331">
        <ele>19.39999961853</ele>
        <time>2020-01-23T09:34:16.000Z</time>
      </trkpt>
      <trkpt lat="47.23808" lon="-2.28318">
        <ele>19.39999961853</ele>
        <time>2020-01-23T09:34:18.000Z</time>
      </trkpt>
      <trkpt lat="47.23808" lon="-2.28304">
        <ele>19.39999961853</ele>
        <time>2020-01-23T09:34:20.000Z</time>
      </trkpt>
      <trkpt lat="47.23817" lon="-2.28288">
        <ele>19.39999961853</ele>
        <time>2020-01-23T09:34:23.000Z</time>
      </trkpt>
      <trkpt lat="47.23823" lon="-2.2828">
        <ele>19</ele>
        <time>2020-01-23T09:34:25.000Z</time>
      </trkpt>
      <trkpt lat="47.23825" lon="-2.28273">
        <ele>18.60000038147</ele>
        <time>2020-01-23T09:34:26.000Z</time>
      </trkpt>
      <trkpt lat="47.23826" lon="-2.28267">
        <ele>18.200000762939</ele>
        <time>2020-01-23T09:34:27.000Z</time>
      </trkpt>
      <trkpt lat="47.23826" lon="-2.2826">
        <ele>17.799999237061</ele>
        <time>2020-01-23T09:34:28.000Z</time>
      </trkpt>
      <trkpt lat="47.23827" lon="-2.28254">
        <ele>17.39999961853</ele>
        <time>2020-01-23T09:34:29.000Z</time>
      </trkpt>
      <trkpt lat="47.23827" lon="-2.28247">
        <ele>17.39999961853</ele>
        <time>2020-01-23T09:34:30.000Z</time>
      </trkpt>
      <trkpt lat="47.23823" lon="-2.28223">
        <ele>17.39999961853</ele>
        <time>2020-01-23T09:34:34.000Z</time>
      </trkpt>
      <trkpt lat="47.23822" lon="-2.28217">
        <ele>17.39999961853</ele>
        <time>2020-01-23T09:34:35.000Z</time>
      </trkpt>
      <trkpt lat="47.23822" lon="-2.2821">
        <ele>17.39999961853</ele>
        <time>2020-01-23T09:34:36.000Z</time>
      </trkpt>
      <trkpt lat="47.23822" lon="-2.28189">
        <ele>17.39999961853</ele>
        <time>2020-01-23T09:34:39.000Z</time>
      </trkpt>
      <trkpt lat="47.23822" lon="-2.28142">
        <ele>17.39999961853</ele>
        <time>2020-01-23T09:34:46.000Z</time>
      </trkpt>
      <trkpt lat="47.23823" lon="-2.28134">
        <ele>17</ele>
        <time>2020-01-23T09:34:48.000Z</time>
      </trkpt>
      <trkpt lat="47.23823" lon="-2.28131">
        <ele>16.60000038147</ele>
        <time>2020-01-23T09:34:49.000Z</time>
      </trkpt>
      <trkpt lat="47.23824" lon="-2.28127">
        <ele>16.200000762939</ele>
        <time>2020-01-23T09:34:50.000Z</time>
      </trkpt>
      <trkpt lat="47.23824" lon="-2.28124">
        <ele>15.60000038147</ele>
        <time>2020-01-23T09:34:51.000Z</time>
      </trkpt>
      <trkpt lat="47.23824" lon="-2.28122">
        <ele>15.199999809265</ele>
        <time>2020-01-23T09:34:52.000Z</time>
      </trkpt>
      <trkpt lat="47.23823" lon="-2.2812">
        <ele>15.199999809265</ele>
        <time>2020-01-23T09:34:53.000Z</time>
      </trkpt>
      <trkpt lat="47.23825" lon="-2.28117">
        <ele>15.199999809265</ele>
        <time>2020-01-23T09:34:55.000Z</time>
      </trkpt>
      <trkpt lat="47.23826" lon="-2.2811">
        <ele>15.199999809265</ele>
        <time>2020-01-23T09:34:57.000Z</time>
      </trkpt>
      <trkpt lat="47.23829" lon="-2.28098">
        <ele>15.199999809265</ele>
        <time>2020-01-23T09:34:59.000Z</time>
      </trkpt>
      <trkpt lat="47.23828" lon="-2.28087">
        <ele>15.199999809265</ele>
        <time>2020-01-23T09:35:01.000Z</time>
      </trkpt>
      <trkpt lat="47.23827" lon="-2.28073">
        <ele>14.800000190735</ele>
        <time>2020-01-23T09:35:03.000Z</time>
      </trkpt>
      <trkpt lat="47.23826" lon="-2.28066">
        <ele>14.39999961853</ele>
        <time>2020-01-23T09:35:04.000Z</time>
      </trkpt>
      <trkpt lat="47.23825" lon="-2.28058">
        <ele>14</ele>
        <time>2020-01-23T09:35:05.000Z</time>
      </trkpt>
      <trkpt lat="47.23825" lon="-2.2805">
        <ele>13.60000038147</ele>
        <time>2020-01-23T09:35:06.000Z</time>
      </trkpt>
      <trkpt lat="47.23826" lon="-2.28041">
        <ele>13.199999809265</ele>
        <time>2020-01-23T09:35:07.000Z</time>
      </trkpt>
      <trkpt lat="47.23827" lon="-2.28033">
        <ele>13.199999809265</ele>
        <time>2020-01-23T09:35:08.000Z</time>
      </trkpt>
      <trkpt lat="47.23835" lon="-2.27984">
        <ele>12.800000190735</ele>
        <time>2020-01-23T09:35:14.000Z</time>
      </trkpt>
      <trkpt lat="47.23837" lon="-2.27977">
        <ele>12.39999961853</ele>
        <time>2020-01-23T09:35:15.000Z</time>
      </trkpt>
      <trkpt lat="47.2384" lon="-2.2797">
        <ele>12</ele>
        <time>2020-01-23T09:35:16.000Z</time>
      </trkpt>
      <trkpt lat="47.23843" lon="-2.27963">
        <ele>11.39999961853</ele>
        <time>2020-01-23T09:35:17.000Z</time>
      </trkpt>
      <trkpt lat="47.23846" lon="-2.27957">
        <ele>10.800000190735</ele>
        <time>2020-01-23T09:35:18.000Z</time>
      </trkpt>
      <trkpt lat="47.2385" lon="-2.2795">
        <ele>10.199999809265</ele>
        <time>2020-01-23T09:35:19.000Z</time>
      </trkpt>
      <trkpt lat="47.23854" lon="-2.27944">
        <ele>9.6000003814697</ele>
        <time>2020-01-23T09:35:20.000Z</time>
      </trkpt>
      <trkpt lat="47.23858" lon="-2.27939">
        <ele>9</ele>
        <time>2020-01-23T09:35:21.000Z</time>
      </trkpt>
      <trkpt lat="47.23861" lon="-2.27934">
        <ele>8.6000003814697</ele>
        <time>2020-01-23T09:35:22.000Z</time>
      </trkpt>
      <trkpt lat="47.23866" lon="-2.27929">
        <ele>8.1999998092651</ele>
        <time>2020-01-23T09:35:23.000Z</time>
      </trkpt>
      <trkpt lat="47.2387" lon="-2.27924">
        <ele>7.8000001907349</ele>
        <time>2020-01-23T09:35:24.000Z</time>
      </trkpt>
      <trkpt lat="47.23874" lon="-2.2792">
        <ele>7.4000000953674</ele>
        <time>2020-01-23T09:35:25.000Z</time>
      </trkpt>
      <trkpt lat="47.23879" lon="-2.27916">
        <ele>7</ele>
        <time>2020-01-23T09:35:26.000Z</time>
      </trkpt>
      <trkpt lat="47.23889" lon="-2.27908">
        <ele>6.5999999046326</ele>
        <time>2020-01-23T09:35:28.000Z</time>
      </trkpt>
      <trkpt lat="47.23894" lon="-2.27905">
        <ele>6.1999998092651</ele>
        <time>2020-01-23T09:35:29.000Z</time>
      </trkpt>
      <trkpt lat="47.23899" lon="-2.27902">
        <ele>5.8000001907349</ele>
        <time>2020-01-23T09:35:30.000Z</time>
      </trkpt>
      <trkpt lat="47.23905" lon="-2.27899">
        <ele>5.4000000953674</ele>
        <time>2020-01-23T09:35:31.000Z</time>
      </trkpt>
      <trkpt lat="47.2391" lon="-2.27896">
        <ele>5</ele>
        <time>2020-01-23T09:35:32.000Z</time>
      </trkpt>
      <trkpt lat="47.23916" lon="-2.27893">
        <ele>5</ele>
        <time>2020-01-23T09:35:33.000Z</time>
      </trkpt>
      <trkpt lat="47.23921" lon="-2.27892">
        <ele>5</ele>
        <time>2020-01-23T09:35:34.000Z</time>
      </trkpt>
      <trkpt lat="47.23954" lon="-2.2788">
        <ele>5</ele>
        <time>2020-01-23T09:35:40.000Z</time>
      </trkpt>
      <trkpt lat="47.23987" lon="-2.27866">
        <ele>5</ele>
        <time>2020-01-23T09:35:47.000Z</time>
      </trkpt>
      <trkpt lat="47.24004" lon="-2.27849">
        <ele>5</ele>
        <time>2020-01-23T09:35:52.000Z</time>
      </trkpt>
      <trkpt lat="47.24009" lon="-2.27838">
        <ele>5</ele>
        <time>2020-01-23T09:35:55.000Z</time>
      </trkpt>
      <trkpt lat="47.2402" lon="-2.27834">
        <ele>5</ele>
        <time>2020-01-23T09:35:58.000Z</time>
      </trkpt>
      <trkpt lat="47.24024" lon="-2.27832">
        <ele>5</ele>
        <time>2020-01-23T09:35:59.000Z</time>
      </trkpt>
      <trkpt lat="47.24036" lon="-2.27828">
        <ele>5</ele>
        <time>2020-01-23T09:36:02.000Z</time>
      </trkpt>
      <trkpt lat="47.24049" lon="-2.27825">
        <ele>5</ele>
        <time>2020-01-23T09:36:05.000Z</time>
      </trkpt>
      <trkpt lat="47.2407" lon="-2.27819">
        <ele>5</ele>
        <time>2020-01-23T09:36:11.000Z</time>
      </trkpt>
      <trkpt lat="47.24086" lon="-2.27819">
        <ele>5</ele>
        <time>2020-01-23T09:36:16.000Z</time>
      </trkpt>
      <trkpt lat="47.24097" lon="-2.27808">
        <ele>5</ele>
        <time>2020-01-23T09:36:21.000Z</time>
      </trkpt>
      <trkpt lat="47.2411" lon="-2.27798">
        <ele>5</ele>
        <time>2020-01-23T09:36:26.000Z</time>
      </trkpt>
      <trkpt lat="47.2412" lon="-2.27791">
        <ele>5.4000000953674</ele>
        <time>2020-01-23T09:36:29.000Z</time>
      </trkpt>
      <trkpt lat="47.24124" lon="-2.27788">
        <ele>5.8000001907349</ele>
        <time>2020-01-23T09:36:30.000Z</time>
      </trkpt>
      <trkpt lat="47.24128" lon="-2.27786">
        <ele>6.1999998092651</ele>
        <time>2020-01-23T09:36:31.000Z</time>
      </trkpt>
      <trkpt lat="47.24131" lon="-2.27783">
        <ele>6.5999999046326</ele>
        <time>2020-01-23T09:36:32.000Z</time>
      </trkpt>
      <trkpt lat="47.24134" lon="-2.2778">
        <ele>7</ele>
        <time>2020-01-23T09:36:33.000Z</time>
      </trkpt>
      <trkpt lat="47.24146" lon="-2.27768">
        <ele>7</ele>
        <time>2020-01-23T09:36:37.000Z</time>
      </trkpt>
      <trkpt lat="47.24149" lon="-2.27764">
        <ele>7.4000000953674</ele>
        <time>2020-01-23T09:36:38.000Z</time>
      </trkpt>
      <trkpt lat="47.2415" lon="-2.2776">
        <ele>7.8000001907349</ele>
        <time>2020-01-23T09:36:39.000Z</time>
      </trkpt>
      <trkpt lat="47.24152" lon="-2.27756">
        <ele>8.1999998092651</ele>
        <time>2020-01-23T09:36:40.000Z</time>
      </trkpt>
      <trkpt lat="47.24153" lon="-2.27751">
        <ele>8.8000001907349</ele>
        <time>2020-01-23T09:36:41.000Z</time>
      </trkpt>
      <trkpt lat="47.24154" lon="-2.27746">
        <ele>9.1999998092651</ele>
        <time>2020-01-23T09:36:42.000Z</time>
      </trkpt>
      <trkpt lat="47.24155" lon="-2.27724">
        <ele>9.6000003814697</ele>
        <time>2020-01-23T09:36:46.000Z</time>
      </trkpt>
      <trkpt lat="47.24155" lon="-2.27719">
        <ele>10</ele>
        <time>2020-01-23T09:36:47.000Z</time>
      </trkpt>
      <trkpt lat="47.24155" lon="-2.27713">
        <ele>10.39999961853</ele>
        <time>2020-01-23T09:36:48.000Z</time>
      </trkpt>
      <trkpt lat="47.24155" lon="-2.27708">
        <ele>11.199999809265</ele>
        <time>2020-01-23T09:36:49.000Z</time>
      </trkpt>
      <trkpt lat="47.24153" lon="-2.27698">
        <ele>11.60000038147</ele>
        <time>2020-01-23T09:36:51.000Z</time>
      </trkpt>
      <trkpt lat="47.24152" lon="-2.27692">
        <ele>12</ele>
        <time>2020-01-23T09:36:52.000Z</time>
      </trkpt>
      <trkpt lat="47.24149" lon="-2.27688">
        <ele>12.39999961853</ele>
        <time>2020-01-23T09:36:53.000Z</time>
      </trkpt>
      <trkpt lat="47.24147" lon="-2.27684">
        <ele>12.800000190735</ele>
        <time>2020-01-23T09:36:54.000Z</time>
      </trkpt>
      <trkpt lat="47.24145" lon="-2.27679">
        <ele>13.199999809265</ele>
        <time>2020-01-23T09:36:55.000Z</time>
      </trkpt>
      <trkpt lat="47.24135" lon="-2.27664">
        <ele>13.60000038147</ele>
        <time>2020-01-23T09:36:59.000Z</time>
      </trkpt>
      <trkpt lat="47.24132" lon="-2.2766">
        <ele>14</ele>
        <time>2020-01-23T09:37:00.000Z</time>
      </trkpt>
      <trkpt lat="47.2413" lon="-2.27658">
        <ele>14.39999961853</ele>
        <time>2020-01-23T09:37:01.000Z</time>
      </trkpt>
      <trkpt lat="47.24127" lon="-2.27655">
        <ele>14.800000190735</ele>
        <time>2020-01-23T09:37:02.000Z</time>
      </trkpt>
      <trkpt lat="47.24124" lon="-2.27652">
        <ele>15.199999809265</ele>
        <time>2020-01-23T09:37:03.000Z</time>
      </trkpt>
      <trkpt lat="47.24114" lon="-2.27647">
        <ele>15.199999809265</ele>
        <time>2020-01-23T09:37:06.000Z</time>
      </trkpt>
      <trkpt lat="47.24093" lon="-2.27647">
        <ele>15.199999809265</ele>
        <time>2020-01-23T09:37:12.000Z</time>
      </trkpt>
      <trkpt lat="47.2409" lon="-2.2765">
        <ele>15.199999809265</ele>
        <time>2020-01-23T09:37:13.000Z</time>
      </trkpt>
      <trkpt lat="47.24082" lon="-2.2765">
        <ele>15.199999809265</ele>
        <time>2020-01-23T09:37:15.000Z</time>
      </trkpt>
      <trkpt lat="47.2407" lon="-2.27644">
        <ele>15.60000038147</ele>
        <time>2020-01-23T09:37:18.000Z</time>
      </trkpt>
      <trkpt lat="47.24066" lon="-2.27643">
        <ele>16.200000762939</ele>
        <time>2020-01-23T09:37:19.000Z</time>
      </trkpt>
      <trkpt lat="47.24062" lon="-2.27642">
        <ele>16.60000038147</ele>
        <time>2020-01-23T09:37:20.000Z</time>
      </trkpt>
      <trkpt lat="47.24057" lon="-2.27642">
        <ele>17</ele>
        <time>2020-01-23T09:37:21.000Z</time>
      </trkpt>
      <trkpt lat="47.24053" lon="-2.27641">
        <ele>17.39999961853</ele>
        <time>2020-01-23T09:37:22.000Z</time>
      </trkpt>
      <trkpt lat="47.24044" lon="-2.27645">
        <ele>17.39999961853</ele>
        <time>2020-01-23T09:37:24.000Z</time>
      </trkpt>
      <trkpt lat="47.24031" lon="-2.2765">
        <ele>17.39999961853</ele>
        <time>2020-01-23T09:37:27.000Z</time>
      </trkpt>
      <trkpt lat="47.2402" lon="-2.27651">
        <ele>17.39999961853</ele>
        <time>2020-01-23T09:37:29.000Z</time>
      </trkpt>
      <trkpt lat="47.24002" lon="-2.27654">
        <ele>17.39999961853</ele>
        <time>2020-01-23T09:37:33.000Z</time>
      </trkpt>
      <trkpt lat="47.23995" lon="-2.27661">
        <ele>17.39999961853</ele>
        <time>2020-01-23T09:37:35.000Z</time>
      </trkpt>
      <trkpt lat="47.23985" lon="-2.27677">
        <ele>17.39999961853</ele>
        <time>2020-01-23T09:37:38.000Z</time>
      </trkpt>
      <trkpt lat="47.23979" lon="-2.27686">
        <ele>17.39999961853</ele>
        <time>2020-01-23T09:37:40.000Z</time>
      </trkpt>
      <trkpt lat="47.23964" lon="-2.27702">
        <ele>17.39999961853</ele>
        <time>2020-01-23T09:37:44.000Z</time>
      </trkpt>
      <trkpt lat="47.23956" lon="-2.27708">
        <ele>17.39999961853</ele>
        <time>2020-01-23T09:37:46.000Z</time>
      </trkpt>
      <trkpt lat="47.23922" lon="-2.27729">
        <ele>17.39999961853</ele>
        <time>2020-01-23T09:37:53.000Z</time>
      </trkpt>
      <trkpt lat="47.23896" lon="-2.27743">
        <ele>17.39999961853</ele>
        <time>2020-01-23T09:37:59.000Z</time>
      </trkpt>
      <trkpt lat="47.23878" lon="-2.2775">
        <ele>18.200000762939</ele>
        <time>2020-01-23T09:38:03.000Z</time>
      </trkpt>
      <trkpt lat="47.23873" lon="-2.27752">
        <ele>18.60000038147</ele>
        <time>2020-01-23T09:38:04.000Z</time>
      </trkpt>
      <trkpt lat="47.23868" lon="-2.27753">
        <ele>19</ele>
        <time>2020-01-23T09:38:05.000Z</time>
      </trkpt>
      <trkpt lat="47.23864" lon="-2.27753">
        <ele>19.39999961853</ele>
        <time>2020-01-23T09:38:06.000Z</time>
      </trkpt>
      <trkpt lat="47.23851" lon="-2.27757">
        <ele>19.39999961853</ele>
        <time>2020-01-23T09:38:10.000Z</time>
      </trkpt>
      <trkpt lat="47.23845" lon="-2.27761">
        <ele>19.39999961853</ele>
        <time>2020-01-23T09:38:15.000Z</time>
      </trkpt>
      <trkpt lat="47.23841" lon="-2.27764">
        <ele>19.39999961853</ele>
        <time>2020-01-23T09:38:20.000Z</time>
      </trkpt>
      <trkpt lat="47.23829" lon="-2.2777">
        <ele>19.39999961853</ele>
        <time>2020-01-23T09:38:26.000Z</time>
      </trkpt>
      <trkpt lat="47.2381" lon="-2.2778">
        <ele>19.39999961853</ele>
        <time>2020-01-23T09:38:33.000Z</time>
      </trkpt>
      <trkpt lat="47.23803" lon="-2.27784">
        <ele>19.39999961853</ele>
        <time>2020-01-23T09:38:38.000Z</time>
      </trkpt>
      <trkpt lat="47.23795" lon="-2.27786">
        <ele>19.39999961853</ele>
        <time>2020-01-23T09:38:44.000Z</time>
      </trkpt>
      <trkpt lat="47.23793" lon="-2.27786">
        <ele>19</ele>
        <time>2020-01-23T09:38:47.000Z</time>
      </trkpt>
      <trkpt lat="47.23792" lon="-2.27785">
        <ele>18.60000038147</ele>
        <time>2020-01-23T09:38:48.000Z</time>
      </trkpt>
      <trkpt lat="47.23791" lon="-2.27784">
        <ele>18.200000762939</ele>
        <time>2020-01-23T09:38:49.000Z</time>
      </trkpt>
      <trkpt lat="47.23789" lon="-2.27784">
        <ele>17.799999237061</ele>
        <time>2020-01-23T09:38:50.000Z</time>
      </trkpt>
      <trkpt lat="47.23788" lon="-2.27783">
        <ele>17.39999961853</ele>
        <time>2020-01-23T09:38:51.000Z</time>
      </trkpt>
      <trkpt lat="47.23788" lon="-2.27783">
        <ele>17.39999961853</ele>
        <time>2020-01-23T09:38:52.000Z</time>
      </trkpt>
      <trkpt lat="47.23786" lon="-2.27782">
        <ele>17.39999961853</ele>
        <time>2020-01-23T09:38:56.000Z</time>
      </trkpt>
      <trkpt lat="47.23785" lon="-2.27781">
        <ele>17.39999961853</ele>
        <time>2020-01-23T09:38:57.000Z</time>
      </trkpt>
      <trkpt lat="47.23781" lon="-2.27777">
        <ele>17.39999961853</ele>
        <time>2020-01-23T09:39:04.000Z</time>
      </trkpt>
      <trkpt lat="47.2378" lon="-2.27775">
        <ele>17.39999961853</ele>
        <time>2020-01-23T09:39:06.000Z</time>
      </trkpt>
      <trkpt lat="47.2378" lon="-2.27774">
        <ele>17.39999961853</ele>
        <time>2020-01-23T09:39:08.000Z</time>
      </trkpt>
      <trkpt lat="47.23785" lon="-2.27764">
        <ele>17.39999961853</ele>
        <time>2020-01-23T09:42:19.000Z</time>
      </trkpt>
      <trkpt lat="47.23785" lon="-2.27762">
        <ele>17.39999961853</ele>
        <time>2020-01-23T09:42:20.000Z</time>
      </trkpt>
      <trkpt lat="47.23786" lon="-2.2776">
        <ele>17.39999961853</ele>
        <time>2020-01-23T09:42:21.000Z</time>
      </trkpt>
      <trkpt lat="47.23785" lon="-2.27753">
        <ele>17.39999961853</ele>
        <time>2020-01-23T09:42:25.000Z</time>
      </trkpt>
      <trkpt lat="47.23781" lon="-2.27741">
        <ele>17.39999961853</ele>
        <time>2020-01-23T09:42:31.000Z</time>
      </trkpt>
      <trkpt lat="47.2378" lon="-2.27739">
        <ele>17.39999961853</ele>
        <time>2020-01-23T09:42:32.000Z</time>
      </trkpt>
      <trkpt lat="47.23781" lon="-2.27725">
        <ele>17.39999961853</ele>
        <time>2020-01-23T09:42:37.000Z</time>
      </trkpt>
      <trkpt lat="47.23782" lon="-2.27714">
        <ele>17.39999961853</ele>
        <time>2020-01-23T09:42:42.000Z</time>
      </trkpt>
      <trkpt lat="47.23784" lon="-2.27709">
        <ele>17.39999961853</ele>
        <time>2020-01-23T09:42:46.000Z</time>
      </trkpt>
      <trkpt lat="47.23785" lon="-2.27707">
        <ele>17.39999961853</ele>
        <time>2020-01-23T09:42:48.000Z</time>
      </trkpt>
      <trkpt lat="47.23788" lon="-2.27705">
        <ele>17.39999961853</ele>
        <time>2020-01-23T09:42:52.000Z</time>
      </trkpt>
      <trkpt lat="47.23798" lon="-2.27708">
        <ele>19.39999961853</ele>
        <time>2020-01-23T09:43:12.000Z</time>
      </trkpt>
      <trkpt lat="47.23798" lon="-2.2771">
        <ele>19.39999961853</ele>
        <time>2020-01-23T09:43:13.000Z</time>
      </trkpt>
      <trkpt lat="47.23801" lon="-2.27719">
        <ele>19.39999961853</ele>
        <time>2020-01-23T09:43:17.000Z</time>
      </trkpt>
      <trkpt lat="47.23803" lon="-2.27719">
        <ele>19.39999961853</ele>
        <time>2020-01-23T09:43:18.000Z</time>
      </trkpt>
      <trkpt lat="47.23804" lon="-2.27719">
        <ele>19.799999237061</ele>
        <time>2020-01-23T09:43:19.000Z</time>
      </trkpt>
      <trkpt lat="47.23806" lon="-2.27719">
        <ele>20.200000762939</ele>
        <time>2020-01-23T09:43:20.000Z</time>
      </trkpt>
      <trkpt lat="47.23807" lon="-2.27717">
        <ele>20.60000038147</ele>
        <time>2020-01-23T09:43:21.000Z</time>
      </trkpt>
      <trkpt lat="47.23807" lon="-2.27716">
        <ele>21</ele>
        <time>2020-01-23T09:43:22.000Z</time>
      </trkpt>
      <trkpt lat="47.23807" lon="-2.27714">
        <ele>21.39999961853</ele>
        <time>2020-01-23T09:43:23.000Z</time>
      </trkpt>
      <trkpt lat="47.23807" lon="-2.27712">
        <ele>21.39999961853</ele>
        <time>2020-01-23T09:43:24.000Z</time>
      </trkpt>
      <trkpt lat="47.23807" lon="-2.27707">
        <ele>21.799999237061</ele>
        <time>2020-01-23T09:43:26.000Z</time>
      </trkpt>
      <trkpt lat="47.23808" lon="-2.27704">
        <ele>22.200000762939</ele>
        <time>2020-01-23T09:43:27.000Z</time>
      </trkpt>
      <trkpt lat="47.23808" lon="-2.27702">
        <ele>22.60000038147</ele>
        <time>2020-01-23T09:43:28.000Z</time>
      </trkpt>
      <trkpt lat="47.23809" lon="-2.27699">
        <ele>23</ele>
        <time>2020-01-23T09:43:29.000Z</time>
      </trkpt>
      <trkpt lat="47.23809" lon="-2.27697">
        <ele>23.60000038147</ele>
        <time>2020-01-23T09:43:30.000Z</time>
      </trkpt>
      <trkpt lat="47.23809" lon="-2.27694">
        <ele>23.60000038147</ele>
        <time>2020-01-23T09:43:31.000Z</time>
      </trkpt>
      <trkpt lat="47.2381" lon="-2.2768">
        <ele>23.60000038147</ele>
        <time>2020-01-23T09:43:34.000Z</time>
      </trkpt>
      <trkpt lat="47.2381" lon="-2.27663">
        <ele>23</ele>
        <time>2020-01-23T09:43:38.000Z</time>
      </trkpt>
      <trkpt lat="47.2381" lon="-2.27659">
        <ele>22.39999961853</ele>
        <time>2020-01-23T09:43:39.000Z</time>
      </trkpt>
      <trkpt lat="47.23811" lon="-2.27656">
        <ele>21.799999237061</ele>
        <time>2020-01-23T09:43:40.000Z</time>
      </trkpt>
      <trkpt lat="47.23813" lon="-2.27654">
        <ele>21.39999961853</ele>
        <time>2020-01-23T09:43:41.000Z</time>
      </trkpt>
      <trkpt lat="47.23815" lon="-2.27654">
        <ele>20.799999237061</ele>
        <time>2020-01-23T09:43:42.000Z</time>
      </trkpt>
      <trkpt lat="47.23817" lon="-2.27653">
        <ele>20.200000762939</ele>
        <time>2020-01-23T09:43:43.000Z</time>
      </trkpt>
      <trkpt lat="47.23819" lon="-2.27652">
        <ele>19.799999237061</ele>
        <time>2020-01-23T09:43:44.000Z</time>
      </trkpt>
      <trkpt lat="47.23822" lon="-2.27651">
        <ele>19.200000762939</ele>
        <time>2020-01-23T09:43:45.000Z</time>
      </trkpt>
      <trkpt lat="47.23825" lon="-2.27651">
        <ele>18.799999237061</ele>
        <time>2020-01-23T09:43:46.000Z</time>
      </trkpt>
      <trkpt lat="47.23833" lon="-2.27648">
        <ele>18.799999237061</ele>
        <time>2020-01-23T09:43:48.000Z</time>
      </trkpt>
      <trkpt lat="47.23852" lon="-2.27642">
        <ele>18.799999237061</ele>
        <time>2020-01-23T09:43:53.000Z</time>
      </trkpt>
      <trkpt lat="47.23865" lon="-2.27638">
        <ele>18.799999237061</ele>
        <time>2020-01-23T09:43:56.000Z</time>
      </trkpt>
      <trkpt lat="47.23872" lon="-2.27635">
        <ele>18.799999237061</ele>
        <time>2020-01-23T09:43:58.000Z</time>
      </trkpt>
      <trkpt lat="47.2388" lon="-2.27632">
        <ele>18.799999237061</ele>
        <time>2020-01-23T09:44:00.000Z</time>
      </trkpt>
      <trkpt lat="47.23888" lon="-2.27631">
        <ele>18.799999237061</ele>
        <time>2020-01-23T09:44:02.000Z</time>
      </trkpt>
      <trkpt lat="47.23912" lon="-2.27633">
        <ele>18.799999237061</ele>
        <time>2020-01-23T09:44:09.000Z</time>
      </trkpt>
      <trkpt lat="47.23922" lon="-2.2765">
        <ele>18.799999237061</ele>
        <time>2020-01-23T09:44:13.000Z</time>
      </trkpt>
      <trkpt lat="47.23928" lon="-2.27656">
        <ele>18.799999237061</ele>
        <time>2020-01-23T09:44:15.000Z</time>
      </trkpt>
      <trkpt lat="47.23937" lon="-2.2766">
        <ele>18.799999237061</ele>
        <time>2020-01-23T09:44:17.000Z</time>
      </trkpt>
      <trkpt lat="47.23942" lon="-2.27662">
        <ele>19.200000762939</ele>
        <time>2020-01-23T09:44:18.000Z</time>
      </trkpt>
      <trkpt lat="47.23947" lon="-2.27664">
        <ele>19.60000038147</ele>
        <time>2020-01-23T09:44:19.000Z</time>
      </trkpt>
      <trkpt lat="47.23951" lon="-2.27666">
        <ele>20</ele>
        <time>2020-01-23T09:44:20.000Z</time>
      </trkpt>
      <trkpt lat="47.23956" lon="-2.27668">
        <ele>20.39999961853</ele>
        <time>2020-01-23T09:44:21.000Z</time>
      </trkpt>
      <trkpt lat="47.23961" lon="-2.2767">
        <ele>20.799999237061</ele>
        <time>2020-01-23T09:44:22.000Z</time>
      </trkpt>
      <trkpt lat="47.23971" lon="-2.27674">
        <ele>20.799999237061</ele>
        <time>2020-01-23T09:44:24.000Z</time>
      </trkpt>
      <trkpt lat="47.23975" lon="-2.27675">
        <ele>20.799999237061</ele>
        <time>2020-01-23T09:44:25.000Z</time>
      </trkpt>
      <trkpt lat="47.23984" lon="-2.27672">
        <ele>20.799999237061</ele>
        <time>2020-01-23T09:44:27.000Z</time>
      </trkpt>
      <trkpt lat="47.23988" lon="-2.27668">
        <ele>20.39999961853</ele>
        <time>2020-01-23T09:44:28.000Z</time>
      </trkpt>
      <trkpt lat="47.23993" lon="-2.27664">
        <ele>20</ele>
        <time>2020-01-23T09:44:29.000Z</time>
      </trkpt>
      <trkpt lat="47.23996" lon="-2.27659">
        <ele>19.60000038147</ele>
        <time>2020-01-23T09:44:30.000Z</time>
      </trkpt>
      <trkpt lat="47.24" lon="-2.27655">
        <ele>19.200000762939</ele>
        <time>2020-01-23T09:44:31.000Z</time>
      </trkpt>
      <trkpt lat="47.24004" lon="-2.27653">
        <ele>18.799999237061</ele>
        <time>2020-01-23T09:44:32.000Z</time>
      </trkpt>
      <trkpt lat="47.24014" lon="-2.27651">
        <ele>18.799999237061</ele>
        <time>2020-01-23T09:44:34.000Z</time>
      </trkpt>
      <trkpt lat="47.24036" lon="-2.27648">
        <ele>18.799999237061</ele>
        <time>2020-01-23T09:44:38.000Z</time>
      </trkpt>
      <trkpt lat="47.2404" lon="-2.27644">
        <ele>18.799999237061</ele>
        <time>2020-01-23T09:44:39.000Z</time>
      </trkpt>
      <trkpt lat="47.24042" lon="-2.27634">
        <ele>18.799999237061</ele>
        <time>2020-01-23T09:44:41.000Z</time>
      </trkpt>
      <trkpt lat="47.24036" lon="-2.27614">
        <ele>18.799999237061</ele>
        <time>2020-01-23T09:44:44.000Z</time>
      </trkpt>
      <trkpt lat="47.24034" lon="-2.27583">
        <ele>18.799999237061</ele>
        <time>2020-01-23T09:44:48.000Z</time>
      </trkpt>
      <trkpt lat="47.24034" lon="-2.27575">
        <ele>18.799999237061</ele>
        <time>2020-01-23T09:44:49.000Z</time>
      </trkpt>
      <trkpt lat="47.24035" lon="-2.27553">
        <ele>19.39999961853</ele>
        <time>2020-01-23T09:44:52.000Z</time>
      </trkpt>
      <trkpt lat="47.24035" lon="-2.27547">
        <ele>19.799999237061</ele>
        <time>2020-01-23T09:44:53.000Z</time>
      </trkpt>
      <trkpt lat="47.24035" lon="-2.2754">
        <ele>20.39999961853</ele>
        <time>2020-01-23T09:44:54.000Z</time>
      </trkpt>
      <trkpt lat="47.24036" lon="-2.27534">
        <ele>20.799999237061</ele>
        <time>2020-01-23T09:44:55.000Z</time>
      </trkpt>
      <trkpt lat="47.24036" lon="-2.27528">
        <ele>21.39999961853</ele>
        <time>2020-01-23T09:44:56.000Z</time>
      </trkpt>
      <trkpt lat="47.24039" lon="-2.27504">
        <ele>21.39999961853</ele>
        <time>2020-01-23T09:45:00.000Z</time>
      </trkpt>
      <trkpt lat="47.24042" lon="-2.27483">
        <ele>20.799999237061</ele>
        <time>2020-01-23T09:45:03.000Z</time>
      </trkpt>
      <trkpt lat="47.24044" lon="-2.27476">
        <ele>20</ele>
        <time>2020-01-23T09:45:04.000Z</time>
      </trkpt>
      <trkpt lat="47.24047" lon="-2.27468">
        <ele>19.60000038147</ele>
        <time>2020-01-23T09:45:05.000Z</time>
      </trkpt>
      <trkpt lat="47.24049" lon="-2.27461">
        <ele>19.200000762939</ele>
        <time>2020-01-23T09:45:06.000Z</time>
      </trkpt>
      <trkpt lat="47.24055" lon="-2.27446">
        <ele>19.200000762939</ele>
        <time>2020-01-23T09:45:08.000Z</time>
      </trkpt>
      <trkpt lat="47.24065" lon="-2.27427">
        <ele>19.200000762939</ele>
        <time>2020-01-23T09:45:11.000Z</time>
      </trkpt>
      <trkpt lat="47.24069" lon="-2.27422">
        <ele>19.200000762939</ele>
        <time>2020-01-23T09:45:12.000Z</time>
      </trkpt>
      <trkpt lat="47.24082" lon="-2.27395">
        <ele>18.799999237061</ele>
        <time>2020-01-23T09:45:16.000Z</time>
      </trkpt>
      <trkpt lat="47.24085" lon="-2.27387">
        <ele>18.39999961853</ele>
        <time>2020-01-23T09:45:17.000Z</time>
      </trkpt>
      <trkpt lat="47.24087" lon="-2.27378">
        <ele>18</ele>
        <time>2020-01-23T09:45:18.000Z</time>
      </trkpt>
      <trkpt lat="47.24089" lon="-2.27369">
        <ele>17.60000038147</ele>
        <time>2020-01-23T09:45:19.000Z</time>
      </trkpt>
      <trkpt lat="47.2409" lon="-2.2736">
        <ele>17.200000762939</ele>
        <time>2020-01-23T09:45:20.000Z</time>
      </trkpt>
      <trkpt lat="47.24093" lon="-2.27334">
        <ele>16.799999237061</ele>
        <time>2020-01-23T09:45:23.000Z</time>
      </trkpt>
      <trkpt lat="47.24093" lon="-2.27327">
        <ele>16.39999961853</ele>
        <time>2020-01-23T09:45:24.000Z</time>
      </trkpt>
      <trkpt lat="47.24094" lon="-2.27321">
        <ele>16</ele>
        <time>2020-01-23T09:45:25.000Z</time>
      </trkpt>
      <trkpt lat="47.24097" lon="-2.27318">
        <ele>15.39999961853</ele>
        <time>2020-01-23T09:45:26.000Z</time>
      </trkpt>
      <trkpt lat="47.24101" lon="-2.27317">
        <ele>15</ele>
        <time>2020-01-23T09:45:27.000Z</time>
      </trkpt>
      <trkpt lat="47.24105" lon="-2.27318">
        <ele>14.39999961853</ele>
        <time>2020-01-23T09:45:28.000Z</time>
      </trkpt>
      <trkpt lat="47.2411" lon="-2.27319">
        <ele>13.39999961853</ele>
        <time>2020-01-23T09:45:29.000Z</time>
      </trkpt>
      <trkpt lat="47.24114" lon="-2.2732">
        <ele>12.800000190735</ele>
        <time>2020-01-23T09:45:30.000Z</time>
      </trkpt>
      <trkpt lat="47.24123" lon="-2.27323">
        <ele>12.800000190735</ele>
        <time>2020-01-23T09:45:32.000Z</time>
      </trkpt>
      <trkpt lat="47.24158" lon="-2.27329">
        <ele>12.800000190735</ele>
        <time>2020-01-23T09:45:39.000Z</time>
      </trkpt>
      <trkpt lat="47.24173" lon="-2.27328">
        <ele>12.800000190735</ele>
        <time>2020-01-23T09:45:42.000Z</time>
      </trkpt>
      <trkpt lat="47.24182" lon="-2.27324">
        <ele>12.800000190735</ele>
        <time>2020-01-23T09:45:44.000Z</time>
      </trkpt>
      <trkpt lat="47.24214" lon="-2.27306">
        <ele>12.800000190735</ele>
        <time>2020-01-23T09:45:51.000Z</time>
      </trkpt>
      <trkpt lat="47.24229" lon="-2.27294">
        <ele>12.800000190735</ele>
        <time>2020-01-23T09:45:56.000Z</time>
      </trkpt>
      <trkpt lat="47.24239" lon="-2.27288">
        <ele>12.800000190735</ele>
        <time>2020-01-23T09:46:02.000Z</time>
      </trkpt>
      <trkpt lat="47.24247" lon="-2.27286">
        <ele>12.800000190735</ele>
        <time>2020-01-23T09:46:08.000Z</time>
      </trkpt>
      <trkpt lat="47.24252" lon="-2.27281">
        <ele>12.800000190735</ele>
        <time>2020-01-23T09:46:12.000Z</time>
      </trkpt>
      <trkpt lat="47.24256" lon="-2.27281">
        <ele>12.800000190735</ele>
        <time>2020-01-23T09:46:14.000Z</time>
      </trkpt>
      <trkpt lat="47.24258" lon="-2.27288">
        <ele>12.800000190735</ele>
        <time>2020-01-23T09:46:19.000Z</time>
      </trkpt>
      <trkpt lat="47.24252" lon="-2.27284">
        <ele>12.800000190735</ele>
        <time>2020-01-23T09:46:24.000Z</time>
      </trkpt>
      <trkpt lat="47.24251" lon="-2.27283">
        <ele>12.800000190735</ele>
        <time>2020-01-23T09:46:25.000Z</time>
      </trkpt>
      <trkpt lat="47.24246" lon="-2.27286">
        <ele>12.800000190735</ele>
        <time>2020-01-23T09:46:28.000Z</time>
      </trkpt>
      <trkpt lat="47.24244" lon="-2.27286">
        <ele>12.800000190735</ele>
        <time>2020-01-23T09:46:29.000Z</time>
      </trkpt>
      <trkpt lat="47.24243" lon="-2.27283">
        <ele>12.800000190735</ele>
        <time>2020-01-23T09:46:32.000Z</time>
      </trkpt>
      <trkpt lat="47.24249" lon="-2.27279">
        <ele>12.800000190735</ele>
        <time>2020-01-23T09:46:36.000Z</time>
      </trkpt>
      <trkpt lat="47.24254" lon="-2.2727">
        <ele>12.800000190735</ele>
        <time>2020-01-23T09:46:40.000Z</time>
      </trkpt>
      <trkpt lat="47.24255" lon="-2.27268">
        <ele>12.800000190735</ele>
        <time>2020-01-23T09:46:41.000Z</time>
      </trkpt>
      <trkpt lat="47.24265" lon="-2.27252">
        <ele>12.800000190735</ele>
        <time>2020-01-23T09:46:46.000Z</time>
      </trkpt>
      <trkpt lat="47.24273" lon="-2.27241">
        <ele>13.199999809265</ele>
        <time>2020-01-23T09:46:49.000Z</time>
      </trkpt>
      <trkpt lat="47.24275" lon="-2.27237">
        <ele>13.60000038147</ele>
        <time>2020-01-23T09:46:50.000Z</time>
      </trkpt>
      <trkpt lat="47.24277" lon="-2.27233">
        <ele>14</ele>
        <time>2020-01-23T09:46:51.000Z</time>
      </trkpt>
      <trkpt lat="47.24279" lon="-2.27228">
        <ele>14.39999961853</ele>
        <time>2020-01-23T09:46:52.000Z</time>
      </trkpt>
      <trkpt lat="47.24281" lon="-2.27223">
        <ele>14.800000190735</ele>
        <time>2020-01-23T09:46:53.000Z</time>
      </trkpt>
      <trkpt lat="47.24284" lon="-2.27213">
        <ele>15.199999809265</ele>
        <time>2020-01-23T09:46:55.000Z</time>
      </trkpt>
      <trkpt lat="47.24285" lon="-2.27207">
        <ele>15.60000038147</ele>
        <time>2020-01-23T09:46:56.000Z</time>
      </trkpt>
      <trkpt lat="47.24286" lon="-2.27202">
        <ele>16</ele>
        <time>2020-01-23T09:46:57.000Z</time>
      </trkpt>
      <trkpt lat="47.24288" lon="-2.27197">
        <ele>16.60000038147</ele>
        <time>2020-01-23T09:46:58.000Z</time>
      </trkpt>
      <trkpt lat="47.24291" lon="-2.27192">
        <ele>17</ele>
        <time>2020-01-23T09:46:59.000Z</time>
      </trkpt>
      <trkpt lat="47.24297" lon="-2.27186">
        <ele>17</ele>
        <time>2020-01-23T09:47:01.000Z</time>
      </trkpt>
      <trkpt lat="47.24313" lon="-2.27167">
        <ele>17.39999961853</ele>
        <time>2020-01-23T09:47:06.000Z</time>
      </trkpt>
      <trkpt lat="47.24316" lon="-2.27163">
        <ele>18.200000762939</ele>
        <time>2020-01-23T09:47:07.000Z</time>
      </trkpt>
      <trkpt lat="47.2432" lon="-2.27162">
        <ele>18.60000038147</ele>
        <time>2020-01-23T09:47:08.000Z</time>
      </trkpt>
      <trkpt lat="47.24325" lon="-2.27161">
        <ele>19</ele>
        <time>2020-01-23T09:47:09.000Z</time>
      </trkpt>
      <trkpt lat="47.2433" lon="-2.27161">
        <ele>19</ele>
        <time>2020-01-23T09:47:10.000Z</time>
      </trkpt>
      <trkpt lat="47.24344" lon="-2.27153">
        <ele>19</ele>
        <time>2020-01-23T09:47:13.000Z</time>
      </trkpt>
      <trkpt lat="47.24358" lon="-2.27138">
        <ele>19</ele>
        <time>2020-01-23T09:47:17.000Z</time>
      </trkpt>
      <trkpt lat="47.24371" lon="-2.2713">
        <ele>19</ele>
        <time>2020-01-23T09:47:20.000Z</time>
      </trkpt>
      <trkpt lat="47.24387" lon="-2.27121">
        <ele>19</ele>
        <time>2020-01-23T09:47:23.000Z</time>
      </trkpt>
      <trkpt lat="47.24391" lon="-2.27118">
        <ele>19</ele>
        <time>2020-01-23T09:47:24.000Z</time>
      </trkpt>
      <trkpt lat="47.24399" lon="-2.27106">
        <ele>19</ele>
        <time>2020-01-23T09:47:26.000Z</time>
      </trkpt>
      <trkpt lat="47.24406" lon="-2.27093">
        <ele>19</ele>
        <time>2020-01-23T09:47:28.000Z</time>
      </trkpt>
      <trkpt lat="47.24413" lon="-2.27075">
        <ele>19</ele>
        <time>2020-01-23T09:47:31.000Z</time>
      </trkpt>
      <trkpt lat="47.24415" lon="-2.27068">
        <ele>19</ele>
        <time>2020-01-23T09:47:32.000Z</time>
      </trkpt>
      <trkpt lat="47.24417" lon="-2.27062">
        <ele>19</ele>
        <time>2020-01-23T09:47:33.000Z</time>
      </trkpt>
      <trkpt lat="47.24417" lon="-2.27043">
        <ele>19</ele>
        <time>2020-01-23T09:47:36.000Z</time>
      </trkpt>
      <trkpt lat="47.24423" lon="-2.27017">
        <ele>19.39999961853</ele>
        <time>2020-01-23T09:47:40.000Z</time>
      </trkpt>
      <trkpt lat="47.24424" lon="-2.27012">
        <ele>20</ele>
        <time>2020-01-23T09:47:41.000Z</time>
      </trkpt>
      <trkpt lat="47.24427" lon="-2.27006">
        <ele>20.39999961853</ele>
        <time>2020-01-23T09:47:42.000Z</time>
      </trkpt>
      <trkpt lat="47.24429" lon="-2.27002">
        <ele>20.799999237061</ele>
        <time>2020-01-23T09:47:43.000Z</time>
      </trkpt>
      <trkpt lat="47.24433" lon="-2.26998">
        <ele>21.200000762939</ele>
        <time>2020-01-23T09:47:44.000Z</time>
      </trkpt>
      <trkpt lat="47.24448" lon="-2.26985">
        <ele>21.200000762939</ele>
        <time>2020-01-23T09:47:48.000Z</time>
      </trkpt>
      <trkpt lat="47.24457" lon="-2.26979">
        <ele>21.200000762939</ele>
        <time>2020-01-23T09:47:50.000Z</time>
      </trkpt>
      <trkpt lat="47.24466" lon="-2.26973">
        <ele>21.200000762939</ele>
        <time>2020-01-23T09:47:52.000Z</time>
      </trkpt>
      <trkpt lat="47.24475" lon="-2.26964">
        <ele>21.200000762939</ele>
        <time>2020-01-23T09:47:54.000Z</time>
      </trkpt>
      <trkpt lat="47.24478" lon="-2.26958">
        <ele>21.200000762939</ele>
        <time>2020-01-23T09:47:55.000Z</time>
      </trkpt>
      <trkpt lat="47.24491" lon="-2.2694">
        <ele>21.60000038147</ele>
        <time>2020-01-23T09:47:59.000Z</time>
      </trkpt>
      <trkpt lat="47.24495" lon="-2.26937">
        <ele>22</ele>
        <time>2020-01-23T09:48:00.000Z</time>
      </trkpt>
      <trkpt lat="47.24499" lon="-2.26933">
        <ele>22.39999961853</ele>
        <time>2020-01-23T09:48:01.000Z</time>
      </trkpt>
      <trkpt lat="47.24503" lon="-2.26929">
        <ele>22.799999237061</ele>
        <time>2020-01-23T09:48:02.000Z</time>
      </trkpt>
      <trkpt lat="47.24506" lon="-2.26927">
        <ele>23.200000762939</ele>
        <time>2020-01-23T09:48:03.000Z</time>
      </trkpt>
      <trkpt lat="47.2451" lon="-2.26924">
        <ele>23.200000762939</ele>
        <time>2020-01-23T09:48:04.000Z</time>
      </trkpt>
      <trkpt lat="47.24516" lon="-2.26916">
        <ele>23.200000762939</ele>
        <time>2020-01-23T09:48:06.000Z</time>
      </trkpt>
      <trkpt lat="47.24522" lon="-2.26904">
        <ele>23.200000762939</ele>
        <time>2020-01-23T09:48:08.000Z</time>
      </trkpt>
      <trkpt lat="47.24531" lon="-2.2689">
        <ele>23.200000762939</ele>
        <time>2020-01-23T09:48:12.000Z</time>
      </trkpt>
      <trkpt lat="47.24546" lon="-2.26874">
        <ele>23.200000762939</ele>
        <time>2020-01-23T09:48:17.000Z</time>
      </trkpt>
      <trkpt lat="47.24555" lon="-2.26868">
        <ele>23.200000762939</ele>
        <time>2020-01-23T09:48:19.000Z</time>
      </trkpt>
      <trkpt lat="47.24559" lon="-2.26865">
        <ele>23.60000038147</ele>
        <time>2020-01-23T09:48:20.000Z</time>
      </trkpt>
      <trkpt lat="47.24563" lon="-2.26862">
        <ele>24.60000038147</ele>
        <time>2020-01-23T09:48:21.000Z</time>
      </trkpt>
      <trkpt lat="47.24567" lon="-2.26858">
        <ele>25</ele>
        <time>2020-01-23T09:48:22.000Z</time>
      </trkpt>
      <trkpt lat="47.24571" lon="-2.26854">
        <ele>25.60000038147</ele>
        <time>2020-01-23T09:48:23.000Z</time>
      </trkpt>
      <trkpt lat="47.2458" lon="-2.26847">
        <ele>25.60000038147</ele>
        <time>2020-01-23T09:48:26.000Z</time>
      </trkpt>
      <trkpt lat="47.24585" lon="-2.26845">
        <ele>25.60000038147</ele>
        <time>2020-01-23T09:48:28.000Z</time>
      </trkpt>
      <trkpt lat="47.24592" lon="-2.26846">
        <ele>25.60000038147</ele>
        <time>2020-01-23T09:48:30.000Z</time>
      </trkpt>
      <trkpt lat="47.24597" lon="-2.26846">
        <ele>25.60000038147</ele>
        <time>2020-01-23T09:48:31.000Z</time>
      </trkpt>
      <trkpt lat="47.24608" lon="-2.26841">
        <ele>25.60000038147</ele>
        <time>2020-01-23T09:48:34.000Z</time>
      </trkpt>
      <trkpt lat="47.24612" lon="-2.26838">
        <ele>26</ele>
        <time>2020-01-23T09:48:35.000Z</time>
      </trkpt>
      <trkpt lat="47.24616" lon="-2.26835">
        <ele>26.39999961853</ele>
        <time>2020-01-23T09:48:36.000Z</time>
      </trkpt>
      <trkpt lat="47.2462" lon="-2.26831">
        <ele>26.799999237061</ele>
        <time>2020-01-23T09:48:37.000Z</time>
      </trkpt>
      <trkpt lat="47.24624" lon="-2.26826">
        <ele>27.200000762939</ele>
        <time>2020-01-23T09:48:38.000Z</time>
      </trkpt>
      <trkpt lat="47.24627" lon="-2.26822">
        <ele>27.60000038147</ele>
        <time>2020-01-23T09:48:39.000Z</time>
      </trkpt>
      <trkpt lat="47.24643" lon="-2.26813">
        <ele>27.60000038147</ele>
        <time>2020-01-23T09:48:43.000Z</time>
      </trkpt>
      <trkpt lat="47.24657" lon="-2.26809">
        <ele>27.60000038147</ele>
        <time>2020-01-23T09:48:47.000Z</time>
      </trkpt>
      <trkpt lat="47.24664" lon="-2.26804">
        <ele>28</ele>
        <time>2020-01-23T09:48:49.000Z</time>
      </trkpt>
      <trkpt lat="47.24667" lon="-2.26802">
        <ele>28.39999961853</ele>
        <time>2020-01-23T09:48:50.000Z</time>
      </trkpt>
      <trkpt lat="47.2467" lon="-2.26799">
        <ele>28.799999237061</ele>
        <time>2020-01-23T09:48:51.000Z</time>
      </trkpt>
      <trkpt lat="47.24673" lon="-2.26796">
        <ele>29.39999961853</ele>
        <time>2020-01-23T09:48:52.000Z</time>
      </trkpt>
      <trkpt lat="47.24676" lon="-2.26793">
        <ele>29.799999237061</ele>
        <time>2020-01-23T09:48:53.000Z</time>
      </trkpt>
      <trkpt lat="47.24685" lon="-2.26784">
        <ele>29.799999237061</ele>
        <time>2020-01-23T09:48:56.000Z</time>
      </trkpt>
      <trkpt lat="47.24707" lon="-2.26781">
        <ele>29.799999237061</ele>
        <time>2020-01-23T09:49:01.000Z</time>
      </trkpt>
      <trkpt lat="47.24712" lon="-2.26781">
        <ele>29.799999237061</ele>
        <time>2020-01-23T09:49:02.000Z</time>
      </trkpt>
      <trkpt lat="47.2473" lon="-2.26781">
        <ele>30.200000762939</ele>
        <time>2020-01-23T09:49:06.000Z</time>
      </trkpt>
      <trkpt lat="47.24734" lon="-2.26782">
        <ele>30.60000038147</ele>
        <time>2020-01-23T09:49:07.000Z</time>
      </trkpt>
      <trkpt lat="47.24738" lon="-2.26782">
        <ele>31</ele>
        <time>2020-01-23T09:49:08.000Z</time>
      </trkpt>
      <trkpt lat="47.24742" lon="-2.26783">
        <ele>31.39999961853</ele>
        <time>2020-01-23T09:49:09.000Z</time>
      </trkpt>
      <trkpt lat="47.24746" lon="-2.26783">
        <ele>31.799999237061</ele>
        <time>2020-01-23T09:49:10.000Z</time>
      </trkpt>
      <trkpt lat="47.24757" lon="-2.26783">
        <ele>31.799999237061</ele>
        <time>2020-01-23T09:49:13.000Z</time>
      </trkpt>
      <trkpt lat="47.24776" lon="-2.26784">
        <ele>31.799999237061</ele>
        <time>2020-01-23T09:49:19.000Z</time>
      </trkpt>
      <trkpt lat="47.24795" lon="-2.26792">
        <ele>31.799999237061</ele>
        <time>2020-01-23T09:49:25.000Z</time>
      </trkpt>
      <trkpt lat="47.24799" lon="-2.26794">
        <ele>32.200000762939</ele>
        <time>2020-01-23T09:49:26.000Z</time>
      </trkpt>
      <trkpt lat="47.24803" lon="-2.26795">
        <ele>32.599998474121</ele>
        <time>2020-01-23T09:49:27.000Z</time>
      </trkpt>
      <trkpt lat="47.24807" lon="-2.26797">
        <ele>33</ele>
        <time>2020-01-23T09:49:28.000Z</time>
      </trkpt>
      <trkpt lat="47.24811" lon="-2.26799">
        <ele>33.400001525879</ele>
        <time>2020-01-23T09:49:29.000Z</time>
      </trkpt>
      <trkpt lat="47.24815" lon="-2.268">
        <ele>33.799999237061</ele>
        <time>2020-01-23T09:49:30.000Z</time>
      </trkpt>
      <trkpt lat="47.24831" lon="-2.26805">
        <ele>33.799999237061</ele>
        <time>2020-01-23T09:49:34.000Z</time>
      </trkpt>
      <trkpt lat="47.24839" lon="-2.26803">
        <ele>33.799999237061</ele>
        <time>2020-01-23T09:49:36.000Z</time>
      </trkpt>
      <trkpt lat="47.24858" lon="-2.26805">
        <ele>33.799999237061</ele>
        <time>2020-01-23T09:49:41.000Z</time>
      </trkpt>
      <trkpt lat="47.24872" lon="-2.26814">
        <ele>33.799999237061</ele>
        <time>2020-01-23T09:49:45.000Z</time>
      </trkpt>
      <trkpt lat="47.24881" lon="-2.26816">
        <ele>34.200000762939</ele>
        <time>2020-01-23T09:49:47.000Z</time>
      </trkpt>
      <trkpt lat="47.24885" lon="-2.26818">
        <ele>34.599998474121</ele>
        <time>2020-01-23T09:49:48.000Z</time>
      </trkpt>
      <trkpt lat="47.24888" lon="-2.2682">
        <ele>35</ele>
        <time>2020-01-23T09:49:49.000Z</time>
      </trkpt>
      <trkpt lat="47.24892" lon="-2.26822">
        <ele>35.400001525879</ele>
        <time>2020-01-23T09:49:50.000Z</time>
      </trkpt>
      <trkpt lat="47.24896" lon="-2.26824">
        <ele>35.799999237061</ele>
        <time>2020-01-23T09:49:51.000Z</time>
      </trkpt>
      <trkpt lat="47.24908" lon="-2.26825">
        <ele>35.799999237061</ele>
        <time>2020-01-23T09:49:54.000Z</time>
      </trkpt>
      <trkpt lat="47.24917" lon="-2.2683">
        <ele>35.799999237061</ele>
        <time>2020-01-23T09:49:57.000Z</time>
      </trkpt>
      <trkpt lat="47.24925" lon="-2.26835">
        <ele>35.799999237061</ele>
        <time>2020-01-23T09:49:59.000Z</time>
      </trkpt>
      <trkpt lat="47.24936" lon="-2.26845">
        <ele>35.799999237061</ele>
        <time>2020-01-23T09:50:02.000Z</time>
      </trkpt>
      <trkpt lat="47.24941" lon="-2.26847">
        <ele>35.799999237061</ele>
        <time>2020-01-23T09:50:03.000Z</time>
      </trkpt>
      <trkpt lat="47.2495" lon="-2.26851">
        <ele>36.200000762939</ele>
        <time>2020-01-23T09:50:05.000Z</time>
      </trkpt>
      <trkpt lat="47.24954" lon="-2.26853">
        <ele>36.799999237061</ele>
        <time>2020-01-23T09:50:06.000Z</time>
      </trkpt>
      <trkpt lat="47.24958" lon="-2.26855">
        <ele>37.200000762939</ele>
        <time>2020-01-23T09:50:07.000Z</time>
      </trkpt>
      <trkpt lat="47.24961" lon="-2.26858">
        <ele>37.599998474121</ele>
        <time>2020-01-23T09:50:08.000Z</time>
      </trkpt>
      <trkpt lat="47.24964" lon="-2.26862">
        <ele>38</ele>
        <time>2020-01-23T09:50:09.000Z</time>
      </trkpt>
      <trkpt lat="47.24982" lon="-2.26874">
        <ele>38</ele>
        <time>2020-01-23T09:50:14.000Z</time>
      </trkpt>
      <trkpt lat="47.24997" lon="-2.26872">
        <ele>38</ele>
        <time>2020-01-23T09:50:18.000Z</time>
      </trkpt>
      <trkpt lat="47.25014" lon="-2.26868">
        <ele>38</ele>
        <time>2020-01-23T09:50:22.000Z</time>
      </trkpt>
      <trkpt lat="47.25023" lon="-2.26866">
        <ele>38</ele>
        <time>2020-01-23T09:50:24.000Z</time>
      </trkpt>
      <trkpt lat="47.25044" lon="-2.2686">
        <ele>38</ele>
        <time>2020-01-23T09:50:30.000Z</time>
      </trkpt>
      <trkpt lat="47.25056" lon="-2.26862">
        <ele>38</ele>
        <time>2020-01-23T09:50:33.000Z</time>
      </trkpt>
      <trkpt lat="47.25061" lon="-2.26863">
        <ele>38</ele>
        <time>2020-01-23T09:50:34.000Z</time>
      </trkpt>
      <trkpt lat="47.25082" lon="-2.26869">
        <ele>38</ele>
        <time>2020-01-23T09:50:39.000Z</time>
      </trkpt>
      <trkpt lat="47.25102" lon="-2.26872">
        <ele>38</ele>
        <time>2020-01-23T09:50:45.000Z</time>
      </trkpt>
      <trkpt lat="47.25125" lon="-2.26865">
        <ele>38</ele>
        <time>2020-01-23T09:50:52.000Z</time>
      </trkpt>
      <trkpt lat="47.25142" lon="-2.26848">
        <ele>38</ele>
        <time>2020-01-23T09:50:58.000Z</time>
      </trkpt>
      <trkpt lat="47.25157" lon="-2.26835">
        <ele>38</ele>
        <time>2020-01-23T09:51:02.000Z</time>
      </trkpt>
      <trkpt lat="47.25159" lon="-2.2683">
        <ele>38</ele>
        <time>2020-01-23T09:51:03.000Z</time>
      </trkpt>
      <trkpt lat="47.25164" lon="-2.2681">
        <ele>38</ele>
        <time>2020-01-23T09:51:07.000Z</time>
      </trkpt>
      <trkpt lat="47.2517" lon="-2.268">
        <ele>38</ele>
        <time>2020-01-23T09:51:09.000Z</time>
      </trkpt>
      <trkpt lat="47.25177" lon="-2.26789">
        <ele>38</ele>
        <time>2020-01-23T09:51:11.000Z</time>
      </trkpt>
      <trkpt lat="47.25181" lon="-2.26784">
        <ele>38</ele>
        <time>2020-01-23T09:51:12.000Z</time>
      </trkpt>
      <trkpt lat="47.25195" lon="-2.26775">
        <ele>38</ele>
        <time>2020-01-23T09:51:15.000Z</time>
      </trkpt>
      <trkpt lat="47.25217" lon="-2.26759">
        <ele>38</ele>
        <time>2020-01-23T09:51:20.000Z</time>
      </trkpt>
      <trkpt lat="47.25221" lon="-2.26755">
        <ele>38</ele>
        <time>2020-01-23T09:51:21.000Z</time>
      </trkpt>
      <trkpt lat="47.25252" lon="-2.26729">
        <ele>38</ele>
        <time>2020-01-23T09:51:28.000Z</time>
      </trkpt>
      <trkpt lat="47.25257" lon="-2.26726">
        <ele>38</ele>
        <time>2020-01-23T09:51:29.000Z</time>
      </trkpt>
      <trkpt lat="47.25272" lon="-2.26723">
        <ele>38</ele>
        <time>2020-01-23T09:51:32.000Z</time>
      </trkpt>
      <trkpt lat="47.25277" lon="-2.26722">
        <ele>38</ele>
        <time>2020-01-23T09:51:33.000Z</time>
      </trkpt>
      <trkpt lat="47.25292" lon="-2.26721">
        <ele>38</ele>
        <time>2020-01-23T09:51:36.000Z</time>
      </trkpt>
      <trkpt lat="47.25303" lon="-2.26721">
        <ele>38</ele>
        <time>2020-01-23T09:51:38.000Z</time>
      </trkpt>
      <trkpt lat="47.25323" lon="-2.26725">
        <ele>38</ele>
        <time>2020-01-23T09:51:42.000Z</time>
      </trkpt>
      <trkpt lat="47.25333" lon="-2.26728">
        <ele>38</ele>
        <time>2020-01-23T09:51:44.000Z</time>
      </trkpt>
      <trkpt lat="47.25342" lon="-2.26731">
        <ele>38</ele>
        <time>2020-01-23T09:51:46.000Z</time>
      </trkpt>
      <trkpt lat="47.25355" lon="-2.26732">
        <ele>38</ele>
        <time>2020-01-23T09:51:49.000Z</time>
      </trkpt>
      <trkpt lat="47.2536" lon="-2.26732">
        <ele>38</ele>
        <time>2020-01-23T09:51:50.000Z</time>
      </trkpt>
      <trkpt lat="47.25374" lon="-2.26733">
        <ele>38</ele>
        <time>2020-01-23T09:51:53.000Z</time>
      </trkpt>
      <trkpt lat="47.25389" lon="-2.26736">
        <ele>38</ele>
        <time>2020-01-23T09:51:56.000Z</time>
      </trkpt>
      <trkpt lat="47.25394" lon="-2.26736">
        <ele>38</ele>
        <time>2020-01-23T09:51:57.000Z</time>
      </trkpt>
      <trkpt lat="47.25413" lon="-2.2674">
        <ele>38</ele>
        <time>2020-01-23T09:52:01.000Z</time>
      </trkpt>
      <trkpt lat="47.25427" lon="-2.26743">
        <ele>37.599998474121</ele>
        <time>2020-01-23T09:52:04.000Z</time>
      </trkpt>
      <trkpt lat="47.25431" lon="-2.26744">
        <ele>37.200000762939</ele>
        <time>2020-01-23T09:52:05.000Z</time>
      </trkpt>
      <trkpt lat="47.25435" lon="-2.26746">
        <ele>36.799999237061</ele>
        <time>2020-01-23T09:52:06.000Z</time>
      </trkpt>
      <trkpt lat="47.25438" lon="-2.26747">
        <ele>36.400001525879</ele>
        <time>2020-01-23T09:52:07.000Z</time>
      </trkpt>
      <trkpt lat="47.25442" lon="-2.26748">
        <ele>36</ele>
        <time>2020-01-23T09:52:08.000Z</time>
      </trkpt>
      <trkpt lat="47.25449" lon="-2.26746">
        <ele>36</ele>
        <time>2020-01-23T09:52:10.000Z</time>
      </trkpt>
      <trkpt lat="47.25452" lon="-2.26742">
        <ele>36</ele>
        <time>2020-01-23T09:52:11.000Z</time>
      </trkpt>
      <trkpt lat="47.2546" lon="-2.26729">
        <ele>36</ele>
        <time>2020-01-23T09:52:14.000Z</time>
      </trkpt>
      <trkpt lat="47.25465" lon="-2.26722">
        <ele>36</ele>
        <time>2020-01-23T09:52:16.000Z</time>
      </trkpt>
      <trkpt lat="47.25468" lon="-2.2672">
        <ele>35.599998474121</ele>
        <time>2020-01-23T09:52:18.000Z</time>
      </trkpt>
      <trkpt lat="47.25469" lon="-2.2672">
        <ele>35.200000762939</ele>
        <time>2020-01-23T09:52:19.000Z</time>
      </trkpt>
      <trkpt lat="47.25471" lon="-2.2672">
        <ele>34.799999237061</ele>
        <time>2020-01-23T09:52:20.000Z</time>
      </trkpt>
      <trkpt lat="47.25472" lon="-2.2672">
        <ele>34.200000762939</ele>
        <time>2020-01-23T09:52:21.000Z</time>
      </trkpt>
      <trkpt lat="47.25473" lon="-2.2672">
        <ele>33.799999237061</ele>
        <time>2020-01-23T09:52:22.000Z</time>
      </trkpt>
      <trkpt lat="47.25473" lon="-2.26716">
        <ele>33.799999237061</ele>
        <time>2020-01-23T09:53:07.000Z</time>
      </trkpt>
      <trkpt lat="47.25475" lon="-2.26702">
        <ele>33.799999237061</ele>
        <time>2020-01-23T09:53:12.000Z</time>
      </trkpt>
      <trkpt lat="47.25476" lon="-2.26699">
        <ele>33.799999237061</ele>
        <time>2020-01-23T09:53:13.000Z</time>
      </trkpt>
      <trkpt lat="47.25483" lon="-2.26679">
        <ele>33.400001525879</ele>
        <time>2020-01-23T09:53:17.000Z</time>
      </trkpt>
      <trkpt lat="47.25484" lon="-2.26673">
        <ele>33</ele>
        <time>2020-01-23T09:53:18.000Z</time>
      </trkpt>
      <trkpt lat="47.25485" lon="-2.26666">
        <ele>32.599998474121</ele>
        <time>2020-01-23T09:53:19.000Z</time>
      </trkpt>
      <trkpt lat="47.25485" lon="-2.26659">
        <ele>32.200000762939</ele>
        <time>2020-01-23T09:53:20.000Z</time>
      </trkpt>
      <trkpt lat="47.25486" lon="-2.26651">
        <ele>31.799999237061</ele>
        <time>2020-01-23T09:53:21.000Z</time>
      </trkpt>
      <trkpt lat="47.25486" lon="-2.26627">
        <ele>31.799999237061</ele>
        <time>2020-01-23T09:53:24.000Z</time>
      </trkpt>
      <trkpt lat="47.25487" lon="-2.26618">
        <ele>31.799999237061</ele>
        <time>2020-01-23T09:53:25.000Z</time>
      </trkpt>
      <trkpt lat="47.25488" lon="-2.26589">
        <ele>31.799999237061</ele>
        <time>2020-01-23T09:53:29.000Z</time>
      </trkpt>
      <trkpt lat="47.25488" lon="-2.26575">
        <ele>31.799999237061</ele>
        <time>2020-01-23T09:53:31.000Z</time>
      </trkpt>
      <trkpt lat="47.25484" lon="-2.26558">
        <ele>31.799999237061</ele>
        <time>2020-01-23T09:53:34.000Z</time>
      </trkpt>
      <trkpt lat="47.25482" lon="-2.26554">
        <ele>31.799999237061</ele>
        <time>2020-01-23T09:53:35.000Z</time>
      </trkpt>
      <trkpt lat="47.25481" lon="-2.26544">
        <ele>31.799999237061</ele>
        <time>2020-01-23T09:53:37.000Z</time>
      </trkpt>
      <trkpt lat="47.25482" lon="-2.26538">
        <ele>31.799999237061</ele>
        <time>2020-01-23T09:53:38.000Z</time>
      </trkpt>
      <trkpt lat="47.25484" lon="-2.26529">
        <ele>31.799999237061</ele>
        <time>2020-01-23T09:53:41.000Z</time>
      </trkpt>
      <trkpt lat="47.25484" lon="-2.26525">
        <ele>31.799999237061</ele>
        <time>2020-01-23T09:53:43.000Z</time>
      </trkpt>
      <trkpt lat="47.25483" lon="-2.26515">
        <ele>31.799999237061</ele>
        <time>2020-01-23T09:53:47.000Z</time>
      </trkpt>
      <trkpt lat="47.2548" lon="-2.26496">
        <ele>31.799999237061</ele>
        <time>2020-01-23T09:53:53.000Z</time>
      </trkpt>
      <trkpt lat="47.25478" lon="-2.26485">
        <ele>31.799999237061</ele>
        <time>2020-01-23T09:53:55.000Z</time>
      </trkpt>
      <trkpt lat="47.25476" lon="-2.26467">
        <ele>31.799999237061</ele>
        <time>2020-01-23T09:53:58.000Z</time>
      </trkpt>
      <trkpt lat="47.25475" lon="-2.26448">
        <ele>31.799999237061</ele>
        <time>2020-01-23T09:54:02.000Z</time>
      </trkpt>
      <trkpt lat="47.25472" lon="-2.26432">
        <ele>31.799999237061</ele>
        <time>2020-01-23T09:54:07.000Z</time>
      </trkpt>
      <trkpt lat="47.25472" lon="-2.26418">
        <ele>31.799999237061</ele>
        <time>2020-01-23T09:54:14.000Z</time>
      </trkpt>
      <trkpt lat="47.25477" lon="-2.26392">
        <ele>31.799999237061</ele>
        <time>2020-01-23T09:54:37.000Z</time>
      </trkpt>
      <trkpt lat="47.25476" lon="-2.26383">
        <ele>31.799999237061</ele>
        <time>2020-01-23T09:54:39.000Z</time>
      </trkpt>
      <trkpt lat="47.25475" lon="-2.26375">
        <ele>31.39999961853</ele>
        <time>2020-01-23T09:54:41.000Z</time>
      </trkpt>
      <trkpt lat="47.25475" lon="-2.26371">
        <ele>31</ele>
        <time>2020-01-23T09:54:42.000Z</time>
      </trkpt>
      <trkpt lat="47.25474" lon="-2.26367">
        <ele>30.39999961853</ele>
        <time>2020-01-23T09:54:43.000Z</time>
      </trkpt>
      <trkpt lat="47.25474" lon="-2.26362">
        <ele>30</ele>
        <time>2020-01-23T09:54:44.000Z</time>
      </trkpt>
      <trkpt lat="47.25474" lon="-2.26358">
        <ele>29.39999961853</ele>
        <time>2020-01-23T09:54:45.000Z</time>
      </trkpt>
      <trkpt lat="47.25472" lon="-2.26346">
        <ele>29.39999961853</ele>
        <time>2020-01-23T09:54:48.000Z</time>
      </trkpt>
      <trkpt lat="47.25473" lon="-2.26341">
        <ele>29.39999961853</ele>
        <time>2020-01-23T09:54:50.000Z</time>
      </trkpt>
      <trkpt lat="47.25474" lon="-2.26339">
        <ele>29.39999961853</ele>
        <time>2020-01-23T09:54:51.000Z</time>
      </trkpt>
      <trkpt lat="47.25475" lon="-2.26336">
        <ele>29.39999961853</ele>
        <time>2020-01-23T09:54:52.000Z</time>
      </trkpt>
      <trkpt lat="47.2548" lon="-2.26328">
        <ele>29.39999961853</ele>
        <time>2020-01-23T09:54:56.000Z</time>
      </trkpt>
      <trkpt lat="47.2548" lon="-2.26313">
        <ele>29.39999961853</ele>
        <time>2020-01-23T09:55:00.000Z</time>
      </trkpt>
      <trkpt lat="47.25479" lon="-2.26302">
        <ele>29.39999961853</ele>
        <time>2020-01-23T09:55:03.000Z</time>
      </trkpt>
      <trkpt lat="47.25478" lon="-2.26294">
        <ele>29</ele>
        <time>2020-01-23T09:55:04.000Z</time>
      </trkpt>
      <trkpt lat="47.25478" lon="-2.26288">
        <ele>28.60000038147</ele>
        <time>2020-01-23T09:55:05.000Z</time>
      </trkpt>
      <trkpt lat="47.25479" lon="-2.26283">
        <ele>28.200000762939</ele>
        <time>2020-01-23T09:55:06.000Z</time>
      </trkpt>
      <trkpt lat="47.25479" lon="-2.26278">
        <ele>27.60000038147</ele>
        <time>2020-01-23T09:55:07.000Z</time>
      </trkpt>
      <trkpt lat="47.2548" lon="-2.26273">
        <ele>27.200000762939</ele>
        <time>2020-01-23T09:55:08.000Z</time>
      </trkpt>
      <trkpt lat="47.2548" lon="-2.26269">
        <ele>27.200000762939</ele>
        <time>2020-01-23T09:55:09.000Z</time>
      </trkpt>
      <trkpt lat="47.25479" lon="-2.26258">
        <ele>27.200000762939</ele>
        <time>2020-01-23T09:55:12.000Z</time>
      </trkpt>
      <trkpt lat="47.25477" lon="-2.26254">
        <ele>27.200000762939</ele>
        <time>2020-01-23T09:55:13.000Z</time>
      </trkpt>
      <trkpt lat="47.25474" lon="-2.26253">
        <ele>27.200000762939</ele>
        <time>2020-01-23T09:55:14.000Z</time>
      </trkpt>
      <trkpt lat="47.25468" lon="-2.26251">
        <ele>26.60000038147</ele>
        <time>2020-01-23T09:55:16.000Z</time>
      </trkpt>
      <trkpt lat="47.25465" lon="-2.2625">
        <ele>26</ele>
        <time>2020-01-23T09:55:17.000Z</time>
      </trkpt>
      <trkpt lat="47.25462" lon="-2.26249">
        <ele>25.39999961853</ele>
        <time>2020-01-23T09:55:18.000Z</time>
      </trkpt>
      <trkpt lat="47.25458" lon="-2.26247">
        <ele>24.799999237061</ele>
        <time>2020-01-23T09:55:19.000Z</time>
      </trkpt>
      <trkpt lat="47.25455" lon="-2.26244">
        <ele>24</ele>
        <time>2020-01-23T09:55:20.000Z</time>
      </trkpt>
      <trkpt lat="47.25453" lon="-2.26241">
        <ele>22.60000038147</ele>
        <time>2020-01-23T09:55:21.000Z</time>
      </trkpt>
      <trkpt lat="47.25452" lon="-2.26239">
        <ele>21.799999237061</ele>
        <time>2020-01-23T09:55:22.000Z</time>
      </trkpt>
      <trkpt lat="47.2545" lon="-2.2623">
        <ele>21.799999237061</ele>
        <time>2020-01-23T09:55:24.000Z</time>
      </trkpt>
      <trkpt lat="47.25444" lon="-2.26202">
        <ele>21.799999237061</ele>
        <time>2020-01-23T09:55:28.000Z</time>
      </trkpt>
      <trkpt lat="47.25443" lon="-2.26195">
        <ele>21.799999237061</ele>
        <time>2020-01-23T09:55:29.000Z</time>
      </trkpt>
      <trkpt lat="47.25443" lon="-2.26176">
        <ele>21.799999237061</ele>
        <time>2020-01-23T09:55:32.000Z</time>
      </trkpt>
      <trkpt lat="47.25444" lon="-2.26173">
        <ele>21.39999961853</ele>
        <time>2020-01-23T09:55:33.000Z</time>
      </trkpt>
      <trkpt lat="47.25446" lon="-2.2617">
        <ele>21</ele>
        <time>2020-01-23T09:55:34.000Z</time>
      </trkpt>
      <trkpt lat="47.25449" lon="-2.26167">
        <ele>20.60000038147</ele>
        <time>2020-01-23T09:55:35.000Z</time>
      </trkpt>
      <trkpt lat="47.25451" lon="-2.26163">
        <ele>20.200000762939</ele>
        <time>2020-01-23T09:55:36.000Z</time>
      </trkpt>
      <trkpt lat="47.25454" lon="-2.26159">
        <ele>19.799999237061</ele>
        <time>2020-01-23T09:55:37.000Z</time>
      </trkpt>
      <trkpt lat="47.25456" lon="-2.26154">
        <ele>19.799999237061</ele>
        <time>2020-01-23T09:55:38.000Z</time>
      </trkpt>
      <trkpt lat="47.25457" lon="-2.26141">
        <ele>19.799999237061</ele>
        <time>2020-01-23T09:55:40.000Z</time>
      </trkpt>
      <trkpt lat="47.25458" lon="-2.26129">
        <ele>19.799999237061</ele>
        <time>2020-01-23T09:55:42.000Z</time>
      </trkpt>
      <trkpt lat="47.25459" lon="-2.26123">
        <ele>20.200000762939</ele>
        <time>2020-01-23T09:55:43.000Z</time>
      </trkpt>
      <trkpt lat="47.2546" lon="-2.26117">
        <ele>20.799999237061</ele>
        <time>2020-01-23T09:55:44.000Z</time>
      </trkpt>
      <trkpt lat="47.25462" lon="-2.26112">
        <ele>21.200000762939</ele>
        <time>2020-01-23T09:55:45.000Z</time>
      </trkpt>
      <trkpt lat="47.25464" lon="-2.26106">
        <ele>22.200000762939</ele>
        <time>2020-01-23T09:55:46.000Z</time>
      </trkpt>
      <trkpt lat="47.25466" lon="-2.26101">
        <ele>22.200000762939</ele>
        <time>2020-01-23T09:55:47.000Z</time>
      </trkpt>
      <trkpt lat="47.25473" lon="-2.26067">
        <ele>22.200000762939</ele>
        <time>2020-01-23T09:55:53.000Z</time>
      </trkpt>
      <trkpt lat="47.25474" lon="-2.2606">
        <ele>22.200000762939</ele>
        <time>2020-01-23T09:55:54.000Z</time>
      </trkpt>
      <trkpt lat="47.25475" lon="-2.26034">
        <ele>22.200000762939</ele>
        <time>2020-01-23T09:55:59.000Z</time>
      </trkpt>
      <trkpt lat="47.25474" lon="-2.26024">
        <ele>21.799999237061</ele>
        <time>2020-01-23T09:56:01.000Z</time>
      </trkpt>
      <trkpt lat="47.25473" lon="-2.2602">
        <ele>21.39999961853</ele>
        <time>2020-01-23T09:56:02.000Z</time>
      </trkpt>
      <trkpt lat="47.25473" lon="-2.26014">
        <ele>21</ele>
        <time>2020-01-23T09:56:03.000Z</time>
      </trkpt>
      <trkpt lat="47.25471" lon="-2.2601">
        <ele>20.60000038147</ele>
        <time>2020-01-23T09:56:04.000Z</time>
      </trkpt>
      <trkpt lat="47.25469" lon="-2.26007">
        <ele>20</ele>
        <time>2020-01-23T09:56:05.000Z</time>
      </trkpt>
      <trkpt lat="47.25465" lon="-2.26005">
        <ele>20</ele>
        <time>2020-01-23T09:56:07.000Z</time>
      </trkpt>
      <trkpt lat="47.25463" lon="-2.26007">
        <ele>20</ele>
        <time>2020-01-23T09:56:08.000Z</time>
      </trkpt>
      <trkpt lat="47.2545" lon="-2.26016">
        <ele>20</ele>
        <time>2020-01-23T09:56:12.000Z</time>
      </trkpt>
      <trkpt lat="47.25429" lon="-2.2603">
        <ele>20</ele>
        <time>2020-01-23T09:56:16.000Z</time>
      </trkpt>
      <trkpt lat="47.25418" lon="-2.26035">
        <ele>20</ele>
        <time>2020-01-23T09:56:18.000Z</time>
      </trkpt>
      <trkpt lat="47.254" lon="-2.26047">
        <ele>20</ele>
        <time>2020-01-23T09:56:23.000Z</time>
      </trkpt>
      <trkpt lat="47.25398" lon="-2.26047">
        <ele>20</ele>
        <time>2020-01-23T09:56:24.000Z</time>
      </trkpt>
      <trkpt lat="47.25395" lon="-2.26041">
        <ele>20</ele>
        <time>2020-01-23T09:56:26.000Z</time>
      </trkpt>
      <trkpt lat="47.25391" lon="-2.26035">
        <ele>20</ele>
        <time>2020-01-23T09:56:28.000Z</time>
      </trkpt>
      <trkpt lat="47.25387" lon="-2.26028">
        <ele>20</ele>
        <time>2020-01-23T09:56:30.000Z</time>
      </trkpt>
      <trkpt lat="47.25381" lon="-2.26024">
        <ele>20</ele>
        <time>2020-01-23T09:56:33.000Z</time>
      </trkpt>
      <trkpt lat="47.25379" lon="-2.26024">
        <ele>20</ele>
        <time>2020-01-23T09:56:34.000Z</time>
      </trkpt>
      <trkpt lat="47.25377" lon="-2.26024">
        <ele>20.60000038147</ele>
        <time>2020-01-23T09:56:35.000Z</time>
      </trkpt>
      <trkpt lat="47.25375" lon="-2.26023">
        <ele>21</ele>
        <time>2020-01-23T09:56:36.000Z</time>
      </trkpt>
      <trkpt lat="47.25372" lon="-2.26021">
        <ele>21.39999961853</ele>
        <time>2020-01-23T09:56:37.000Z</time>
      </trkpt>
      <trkpt lat="47.25369" lon="-2.2602">
        <ele>22</ele>
        <time>2020-01-23T09:56:38.000Z</time>
      </trkpt>
      <trkpt lat="47.25365" lon="-2.26019">
        <ele>22.39999961853</ele>
        <time>2020-01-23T09:56:39.000Z</time>
      </trkpt>
      <trkpt lat="47.25359" lon="-2.26019">
        <ele>22.39999961853</ele>
        <time>2020-01-23T09:56:41.000Z</time>
      </trkpt>
      <trkpt lat="47.25352" lon="-2.26018">
        <ele>22.799999237061</ele>
        <time>2020-01-23T09:56:44.000Z</time>
      </trkpt>
      <trkpt lat="47.2535" lon="-2.26018">
        <ele>23.200000762939</ele>
        <time>2020-01-23T09:56:45.000Z</time>
      </trkpt>
      <trkpt lat="47.25347" lon="-2.26018">
        <ele>23.60000038147</ele>
        <time>2020-01-23T09:56:46.000Z</time>
      </trkpt>
      <trkpt lat="47.25345" lon="-2.26017">
        <ele>24</ele>
        <time>2020-01-23T09:56:47.000Z</time>
      </trkpt>
      <trkpt lat="47.25342" lon="-2.26017">
        <ele>24.60000038147</ele>
        <time>2020-01-23T09:56:48.000Z</time>
      </trkpt>
      <trkpt lat="47.25338" lon="-2.26015">
        <ele>24.60000038147</ele>
        <time>2020-01-23T09:56:50.000Z</time>
      </trkpt>
      <trkpt lat="47.25338" lon="-2.26">
        <ele>24.60000038147</ele>
        <time>2020-01-23T09:56:54.000Z</time>
      </trkpt>
      <trkpt lat="47.25344" lon="-2.2598">
        <ele>24.60000038147</ele>
        <time>2020-01-23T09:56:58.000Z</time>
      </trkpt>
      <trkpt lat="47.25345" lon="-2.25974">
        <ele>24.60000038147</ele>
        <time>2020-01-23T09:56:59.000Z</time>
      </trkpt>
      <trkpt lat="47.25349" lon="-2.25954">
        <ele>24.60000038147</ele>
        <time>2020-01-23T09:57:02.000Z</time>
      </trkpt>
      <trkpt lat="47.25351" lon="-2.25949">
        <ele>24.60000038147</ele>
        <time>2020-01-23T09:57:03.000Z</time>
      </trkpt>
      <trkpt lat="47.25358" lon="-2.25933">
        <ele>24</ele>
        <time>2020-01-23T09:57:07.000Z</time>
      </trkpt>
      <trkpt lat="47.25359" lon="-2.25929">
        <ele>23.60000038147</ele>
        <time>2020-01-23T09:57:08.000Z</time>
      </trkpt>
      <trkpt lat="47.25359" lon="-2.25925">
        <ele>23.200000762939</ele>
        <time>2020-01-23T09:57:09.000Z</time>
      </trkpt>
      <trkpt lat="47.2536" lon="-2.25922">
        <ele>22.799999237061</ele>
        <time>2020-01-23T09:57:10.000Z</time>
      </trkpt>
      <trkpt lat="47.2536" lon="-2.25919">
        <ele>22.39999961853</ele>
        <time>2020-01-23T09:57:11.000Z</time>
      </trkpt>
      <trkpt lat="47.2536" lon="-2.25916">
        <ele>22.39999961853</ele>
        <time>2020-01-23T09:57:12.000Z</time>
      </trkpt>
      <trkpt lat="47.25359" lon="-2.25906">
        <ele>22.39999961853</ele>
        <time>2020-01-23T09:57:16.000Z</time>
      </trkpt>
      <trkpt lat="47.25361" lon="-2.25898">
        <ele>22.39999961853</ele>
        <time>2020-01-23T09:57:21.000Z</time>
      </trkpt>
      <trkpt lat="47.25368" lon="-2.25895">
        <ele>22</ele>
        <time>2020-01-23T09:57:26.000Z</time>
      </trkpt>
      <trkpt lat="47.25371" lon="-2.25894">
        <ele>21.60000038147</ele>
        <time>2020-01-23T09:57:27.000Z</time>
      </trkpt>
      <trkpt lat="47.25375" lon="-2.25893">
        <ele>20.799999237061</ele>
        <time>2020-01-23T09:57:28.000Z</time>
      </trkpt>
      <trkpt lat="47.25378" lon="-2.25892">
        <ele>19.799999237061</ele>
        <time>2020-01-23T09:57:29.000Z</time>
      </trkpt>
      <trkpt lat="47.25382" lon="-2.25891">
        <ele>18.60000038147</ele>
        <time>2020-01-23T09:57:30.000Z</time>
      </trkpt>
      <trkpt lat="47.25384" lon="-2.2589">
        <ele>17.39999961853</ele>
        <time>2020-01-23T09:57:31.000Z</time>
      </trkpt>
      <trkpt lat="47.25386" lon="-2.25887">
        <ele>16.200000762939</ele>
        <time>2020-01-23T09:57:32.000Z</time>
      </trkpt>
      <trkpt lat="47.25387" lon="-2.25884">
        <ele>15</ele>
        <time>2020-01-23T09:57:33.000Z</time>
      </trkpt>
      <trkpt lat="47.25387" lon="-2.2588">
        <ele>13.800000190735</ele>
        <time>2020-01-23T09:57:34.000Z</time>
      </trkpt>
      <trkpt lat="47.25388" lon="-2.25877">
        <ele>12.60000038147</ele>
        <time>2020-01-23T09:57:35.000Z</time>
      </trkpt>
      <trkpt lat="47.25389" lon="-2.25873">
        <ele>11.39999961853</ele>
        <time>2020-01-23T09:57:36.000Z</time>
      </trkpt>
      <trkpt lat="47.25391" lon="-2.25866">
        <ele>11.39999961853</ele>
        <time>2020-01-23T09:57:38.000Z</time>
      </trkpt>
      <trkpt lat="47.25392" lon="-2.25859">
        <ele>11.39999961853</ele>
        <time>2020-01-23T09:57:40.000Z</time>
      </trkpt>
      <trkpt lat="47.2539" lon="-2.25853">
        <ele>11.39999961853</ele>
        <time>2020-01-23T09:57:41.000Z</time>
      </trkpt>
      <trkpt lat="47.25388" lon="-2.25844">
        <ele>11.39999961853</ele>
        <time>2020-01-23T09:57:43.000Z</time>
      </trkpt>
      <trkpt lat="47.25382" lon="-2.25819">
        <ele>11.39999961853</ele>
        <time>2020-01-23T09:57:47.000Z</time>
      </trkpt>
      <trkpt lat="47.25382" lon="-2.25813">
        <ele>11.39999961853</ele>
        <time>2020-01-23T09:57:48.000Z</time>
      </trkpt>
      <trkpt lat="47.25383" lon="-2.25796">
        <ele>11.39999961853</ele>
        <time>2020-01-23T09:57:51.000Z</time>
      </trkpt>
      <trkpt lat="47.25384" lon="-2.2579">
        <ele>11</ele>
        <time>2020-01-23T09:57:52.000Z</time>
      </trkpt>
      <trkpt lat="47.25385" lon="-2.25786">
        <ele>10.60000038147</ele>
        <time>2020-01-23T09:57:53.000Z</time>
      </trkpt>
      <trkpt lat="47.25385" lon="-2.25782">
        <ele>10.199999809265</ele>
        <time>2020-01-23T09:57:54.000Z</time>
      </trkpt>
      <trkpt lat="47.25386" lon="-2.2578">
        <ele>9.8000001907349</ele>
        <time>2020-01-23T09:57:55.000Z</time>
      </trkpt>
      <trkpt lat="47.25388" lon="-2.25778">
        <ele>9.3999996185303</ele>
        <time>2020-01-23T09:57:56.000Z</time>
      </trkpt>
      <trkpt lat="47.254" lon="-2.25772">
        <ele>9.3999996185303</ele>
        <time>2020-01-23T09:58:01.000Z</time>
      </trkpt>
      <trkpt lat="47.25407" lon="-2.2577">
        <ele>9.3999996185303</ele>
        <time>2020-01-23T09:58:04.000Z</time>
      </trkpt>
      <trkpt lat="47.2541" lon="-2.25763">
        <ele>9.3999996185303</ele>
        <time>2020-01-23T09:58:06.000Z</time>
      </trkpt>
      <trkpt lat="47.25423" lon="-2.25748">
        <ele>9.3999996185303</ele>
        <time>2020-01-23T09:58:11.000Z</time>
      </trkpt>
      <trkpt lat="47.2543" lon="-2.25741">
        <ele>9.8000001907349</ele>
        <time>2020-01-23T09:58:14.000Z</time>
      </trkpt>
      <trkpt lat="47.25432" lon="-2.25738">
        <ele>10.199999809265</ele>
        <time>2020-01-23T09:58:15.000Z</time>
      </trkpt>
      <trkpt lat="47.25434" lon="-2.25735">
        <ele>10.800000190735</ele>
        <time>2020-01-23T09:58:16.000Z</time>
      </trkpt>
      <trkpt lat="47.25437" lon="-2.25732">
        <ele>11.199999809265</ele>
        <time>2020-01-23T09:58:17.000Z</time>
      </trkpt>
      <trkpt lat="47.25438" lon="-2.25729">
        <ele>11.60000038147</ele>
        <time>2020-01-23T09:58:18.000Z</time>
      </trkpt>
      <trkpt lat="47.25443" lon="-2.25721">
        <ele>11.60000038147</ele>
        <time>2020-01-23T09:58:20.000Z</time>
      </trkpt>
      <trkpt lat="47.25453" lon="-2.25703">
        <ele>11.60000038147</ele>
        <time>2020-01-23T09:58:25.000Z</time>
      </trkpt>
      <trkpt lat="47.25449" lon="-2.25701">
        <ele>11.60000038147</ele>
        <time>2020-01-23T09:58:28.000Z</time>
      </trkpt>
      <trkpt lat="47.25447" lon="-2.25701">
        <ele>11.60000038147</ele>
        <time>2020-01-23T09:58:29.000Z</time>
      </trkpt>
      <trkpt lat="47.25442" lon="-2.25699">
        <ele>11.60000038147</ele>
        <time>2020-01-23T09:58:31.000Z</time>
      </trkpt>
      <trkpt lat="47.25436" lon="-2.257">
        <ele>11.199999809265</ele>
        <time>2020-01-23T09:58:33.000Z</time>
      </trkpt>
      <trkpt lat="47.25432" lon="-2.25701">
        <ele>10.800000190735</ele>
        <time>2020-01-23T09:58:34.000Z</time>
      </trkpt>
      <trkpt lat="47.25429" lon="-2.25701">
        <ele>10.199999809265</ele>
        <time>2020-01-23T09:58:35.000Z</time>
      </trkpt>
      <trkpt lat="47.25425" lon="-2.25701">
        <ele>9.8000001907349</ele>
        <time>2020-01-23T09:58:36.000Z</time>
      </trkpt>
      <trkpt lat="47.25422" lon="-2.257">
        <ele>9.3999996185303</ele>
        <time>2020-01-23T09:58:37.000Z</time>
      </trkpt>
      <trkpt lat="47.25418" lon="-2.257">
        <ele>8.8000001907349</ele>
        <time>2020-01-23T09:58:38.000Z</time>
      </trkpt>
      <trkpt lat="47.25415" lon="-2.257">
        <ele>8</ele>
        <time>2020-01-23T09:58:39.000Z</time>
      </trkpt>
      <trkpt lat="47.25412" lon="-2.25699">
        <ele>7.5999999046326</ele>
        <time>2020-01-23T09:58:40.000Z</time>
      </trkpt>
      <trkpt lat="47.25408" lon="-2.25698">
        <ele>7.1999998092651</ele>
        <time>2020-01-23T09:58:41.000Z</time>
      </trkpt>
      <trkpt lat="47.25404" lon="-2.25694">
        <ele>7.1999998092651</ele>
        <time>2020-01-23T09:58:43.000Z</time>
      </trkpt>
      <trkpt lat="47.25408" lon="-2.25681">
        <ele>7.1999998092651</ele>
        <time>2020-01-23T09:58:46.000Z</time>
      </trkpt>
      <trkpt lat="47.25419" lon="-2.25672">
        <ele>7.1999998092651</ele>
        <time>2020-01-23T09:58:49.000Z</time>
      </trkpt>
      <trkpt lat="47.25436" lon="-2.25659">
        <ele>7.1999998092651</ele>
        <time>2020-01-23T09:58:55.000Z</time>
      </trkpt>
      <trkpt lat="47.25438" lon="-2.25659">
        <ele>7.1999998092651</ele>
        <time>2020-01-23T09:58:56.000Z</time>
      </trkpt>
      <trkpt lat="47.2544" lon="-2.25661">
        <ele>7.5999999046326</ele>
        <time>2020-01-23T09:58:57.000Z</time>
      </trkpt>
      <trkpt lat="47.25442" lon="-2.25664">
        <ele>8</ele>
        <time>2020-01-23T09:58:58.000Z</time>
      </trkpt>
      <trkpt lat="47.25444" lon="-2.25666">
        <ele>8.3999996185303</ele>
        <time>2020-01-23T09:58:59.000Z</time>
      </trkpt>
      <trkpt lat="47.25446" lon="-2.25666">
        <ele>8.8000001907349</ele>
        <time>2020-01-23T09:59:00.000Z</time>
      </trkpt>
      <trkpt lat="47.25448" lon="-2.25665">
        <ele>9.1999998092651</ele>
        <time>2020-01-23T09:59:01.000Z</time>
      </trkpt>
      <trkpt lat="47.25451" lon="-2.25658">
        <ele>9.1999998092651</ele>
        <time>2020-01-23T09:59:04.000Z</time>
      </trkpt>
      <trkpt lat="47.25456" lon="-2.25646">
        <ele>9.6000003814697</ele>
        <time>2020-01-23T09:59:09.000Z</time>
      </trkpt>
      <trkpt lat="47.25457" lon="-2.25644">
        <ele>10</ele>
        <time>2020-01-23T09:59:10.000Z</time>
      </trkpt>
      <trkpt lat="47.25459" lon="-2.25642">
        <ele>10.39999961853</ele>
        <time>2020-01-23T09:59:11.000Z</time>
      </trkpt>
      <trkpt lat="47.2546" lon="-2.2564">
        <ele>10.800000190735</ele>
        <time>2020-01-23T09:59:12.000Z</time>
      </trkpt>
      <trkpt lat="47.25461" lon="-2.25637">
        <ele>11.199999809265</ele>
        <time>2020-01-23T09:59:13.000Z</time>
      </trkpt>
      <trkpt lat="47.25461" lon="-2.25636">
        <ele>11.199999809265</ele>
        <time>2020-01-23T09:59:14.000Z</time>
      </trkpt>
      <trkpt lat="47.25461" lon="-2.25632">
        <ele>11.800000190735</ele>
        <time>2020-01-23T09:59:15.000Z</time>
      </trkpt>
      <trkpt lat="47.2546" lon="-2.25629">
        <ele>12.199999809265</ele>
        <time>2020-01-23T09:59:16.000Z</time>
      </trkpt>
      <trkpt lat="47.25459" lon="-2.25626">
        <ele>12.60000038147</ele>
        <time>2020-01-23T09:59:17.000Z</time>
      </trkpt>
      <trkpt lat="47.25459" lon="-2.25624">
        <ele>13.199999809265</ele>
        <time>2020-01-23T09:59:18.000Z</time>
      </trkpt>
      <trkpt lat="47.25458" lon="-2.25622">
        <ele>13.60000038147</ele>
        <time>2020-01-23T09:59:19.000Z</time>
      </trkpt>
      <trkpt lat="47.25457" lon="-2.2562">
        <ele>13.60000038147</ele>
        <time>2020-01-23T09:59:20.000Z</time>
      </trkpt>
      <trkpt lat="47.25447" lon="-2.25609">
        <ele>13.60000038147</ele>
        <time>2020-01-23T09:59:25.000Z</time>
      </trkpt>
      <trkpt lat="47.25444" lon="-2.25609">
        <ele>13.60000038147</ele>
        <time>2020-01-23T09:59:26.000Z</time>
      </trkpt>
      <trkpt lat="47.25437" lon="-2.25609">
        <ele>13.199999809265</ele>
        <time>2020-01-23T09:59:28.000Z</time>
      </trkpt>
      <trkpt lat="47.25433" lon="-2.2561">
        <ele>12.39999961853</ele>
        <time>2020-01-23T09:59:29.000Z</time>
      </trkpt>
      <trkpt lat="47.25431" lon="-2.25608">
        <ele>12</ele>
        <time>2020-01-23T09:59:30.000Z</time>
      </trkpt>
      <trkpt lat="47.2543" lon="-2.25606">
        <ele>11.60000038147</ele>
        <time>2020-01-23T09:59:31.000Z</time>
      </trkpt>
      <trkpt lat="47.25428" lon="-2.25601">
        <ele>11.60000038147</ele>
        <time>2020-01-23T09:59:33.000Z</time>
      </trkpt>
      <trkpt lat="47.25428" lon="-2.25599">
        <ele>11.199999809265</ele>
        <time>2020-01-23T09:59:34.000Z</time>
      </trkpt>
      <trkpt lat="47.25427" lon="-2.25597">
        <ele>10.800000190735</ele>
        <time>2020-01-23T09:59:35.000Z</time>
      </trkpt>
      <trkpt lat="47.25426" lon="-2.25594">
        <ele>10.39999961853</ele>
        <time>2020-01-23T09:59:36.000Z</time>
      </trkpt>
      <trkpt lat="47.25426" lon="-2.25591">
        <ele>9.6000003814697</ele>
        <time>2020-01-23T09:59:37.000Z</time>
      </trkpt>
      <trkpt lat="47.25423" lon="-2.25586">
        <ele>9</ele>
        <time>2020-01-23T09:59:38.000Z</time>
      </trkpt>
      <trkpt lat="47.2542" lon="-2.25582">
        <ele>8.3999996185303</ele>
        <time>2020-01-23T09:59:39.000Z</time>
      </trkpt>
      <trkpt lat="47.25417" lon="-2.25579">
        <ele>7.8000001907349</ele>
        <time>2020-01-23T09:59:40.000Z</time>
      </trkpt>
      <trkpt lat="47.25415" lon="-2.25577">
        <ele>7</ele>
        <time>2020-01-23T09:59:41.000Z</time>
      </trkpt>
      <trkpt lat="47.25413" lon="-2.25577">
        <ele>7</ele>
        <time>2020-01-23T09:59:42.000Z</time>
      </trkpt>
      <trkpt lat="47.25411" lon="-2.25578">
        <ele>7</ele>
        <time>2020-01-23T09:59:43.000Z</time>
      </trkpt>
      <trkpt lat="47.25409" lon="-2.25576">
        <ele>7</ele>
        <time>2020-01-23T09:59:46.000Z</time>
      </trkpt>
      <trkpt lat="47.2541" lon="-2.25573">
        <ele>7</ele>
        <time>2020-01-23T09:59:47.000Z</time>
      </trkpt>
      <trkpt lat="47.2542" lon="-2.25558">
        <ele>7</ele>
        <time>2020-01-23T09:59:52.000Z</time>
      </trkpt>
      <trkpt lat="47.2543" lon="-2.2555">
        <ele>7.4000000953674</ele>
        <time>2020-01-23T09:59:57.000Z</time>
      </trkpt>
      <trkpt lat="47.25432" lon="-2.25549">
        <ele>7.8000001907349</ele>
        <time>2020-01-23T09:59:58.000Z</time>
      </trkpt>
      <trkpt lat="47.25433" lon="-2.25548">
        <ele>8.3999996185303</ele>
        <time>2020-01-23T09:59:59.000Z</time>
      </trkpt>
      <trkpt lat="47.25435" lon="-2.25548">
        <ele>8.8000001907349</ele>
        <time>2020-01-23T10:00:00.000Z</time>
      </trkpt>
      <trkpt lat="47.25437" lon="-2.25546">
        <ele>9.1999998092651</ele>
        <time>2020-01-23T10:00:01.000Z</time>
      </trkpt>
      <trkpt lat="47.2544" lon="-2.25547">
        <ele>9.1999998092651</ele>
        <time>2020-01-23T10:00:03.000Z</time>
      </trkpt>
      <trkpt lat="47.25444" lon="-2.25548">
        <ele>9.6000003814697</ele>
        <time>2020-01-23T10:00:05.000Z</time>
      </trkpt>
      <trkpt lat="47.25446" lon="-2.25548">
        <ele>10</ele>
        <time>2020-01-23T10:00:06.000Z</time>
      </trkpt>
      <trkpt lat="47.25448" lon="-2.25547">
        <ele>10.39999961853</ele>
        <time>2020-01-23T10:00:07.000Z</time>
      </trkpt>
      <trkpt lat="47.25451" lon="-2.25547">
        <ele>10.800000190735</ele>
        <time>2020-01-23T10:00:08.000Z</time>
      </trkpt>
      <trkpt lat="47.25453" lon="-2.25546">
        <ele>11.39999961853</ele>
        <time>2020-01-23T10:00:09.000Z</time>
      </trkpt>
      <trkpt lat="47.25458" lon="-2.25541">
        <ele>11.39999961853</ele>
        <time>2020-01-23T10:00:11.000Z</time>
      </trkpt>
      <trkpt lat="47.25464" lon="-2.25535">
        <ele>11.800000190735</ele>
        <time>2020-01-23T10:00:14.000Z</time>
      </trkpt>
      <trkpt lat="47.25466" lon="-2.25533">
        <ele>12.199999809265</ele>
        <time>2020-01-23T10:00:15.000Z</time>
      </trkpt>
      <trkpt lat="47.25468" lon="-2.25531">
        <ele>12.60000038147</ele>
        <time>2020-01-23T10:00:16.000Z</time>
      </trkpt>
      <trkpt lat="47.2547" lon="-2.25529">
        <ele>13</ele>
        <time>2020-01-23T10:00:17.000Z</time>
      </trkpt>
      <trkpt lat="47.25473" lon="-2.25528">
        <ele>13.39999961853</ele>
        <time>2020-01-23T10:00:18.000Z</time>
      </trkpt>
      <trkpt lat="47.25476" lon="-2.25526">
        <ele>13.800000190735</ele>
        <time>2020-01-23T10:00:20.000Z</time>
      </trkpt>
      <trkpt lat="47.25478" lon="-2.25525">
        <ele>14.199999809265</ele>
        <time>2020-01-23T10:00:21.000Z</time>
      </trkpt>
      <trkpt lat="47.25479" lon="-2.25524">
        <ele>14.60000038147</ele>
        <time>2020-01-23T10:00:22.000Z</time>
      </trkpt>
      <trkpt lat="47.2548" lon="-2.25521">
        <ele>15</ele>
        <time>2020-01-23T10:00:23.000Z</time>
      </trkpt>
      <trkpt lat="47.25481" lon="-2.25517">
        <ele>15.39999961853</ele>
        <time>2020-01-23T10:00:24.000Z</time>
      </trkpt>
      <trkpt lat="47.25484" lon="-2.25508">
        <ele>15.39999961853</ele>
        <time>2020-01-23T10:00:26.000Z</time>
      </trkpt>
      <trkpt lat="47.25487" lon="-2.25486">
        <ele>15.39999961853</ele>
        <time>2020-01-23T10:00:31.000Z</time>
      </trkpt>
      <trkpt lat="47.25484" lon="-2.25463">
        <ele>15.39999961853</ele>
        <time>2020-01-23T10:00:37.000Z</time>
      </trkpt>
      <trkpt lat="47.25488" lon="-2.25443">
        <ele>15.39999961853</ele>
        <time>2020-01-23T10:00:43.000Z</time>
      </trkpt>
      <trkpt lat="47.25489" lon="-2.2544">
        <ele>16.200000762939</ele>
        <time>2020-01-23T10:00:44.000Z</time>
      </trkpt>
      <trkpt lat="47.25491" lon="-2.25438">
        <ele>16.60000038147</ele>
        <time>2020-01-23T10:00:45.000Z</time>
      </trkpt>
      <trkpt lat="47.25492" lon="-2.25436">
        <ele>17</ele>
        <time>2020-01-23T10:00:46.000Z</time>
      </trkpt>
      <trkpt lat="47.25492" lon="-2.25435">
        <ele>17.39999961853</ele>
        <time>2020-01-23T10:00:47.000Z</time>
      </trkpt>
      <trkpt lat="47.25493" lon="-2.25433">
        <ele>17.39999961853</ele>
        <time>2020-01-23T10:00:48.000Z</time>
      </trkpt>
      <trkpt lat="47.25496" lon="-2.25431">
        <ele>17.39999961853</ele>
        <time>2020-01-23T10:00:50.000Z</time>
      </trkpt>
      <trkpt lat="47.25497" lon="-2.25429">
        <ele>17.39999961853</ele>
        <time>2020-01-23T10:00:52.000Z</time>
      </trkpt>
      <trkpt lat="47.25501" lon="-2.25426">
        <ele>17.39999961853</ele>
        <time>2020-01-23T10:00:57.000Z</time>
      </trkpt>
      <trkpt lat="47.25502" lon="-2.25424">
        <ele>17.39999961853</ele>
        <time>2020-01-23T10:00:59.000Z</time>
      </trkpt>
      <trkpt lat="47.25504" lon="-2.25423">
        <ele>17.39999961853</ele>
        <time>2020-01-23T10:01:01.000Z</time>
      </trkpt>
      <trkpt lat="47.25506" lon="-2.2542">
        <ele>17.39999961853</ele>
        <time>2020-01-23T10:01:05.000Z</time>
      </trkpt>
      <trkpt lat="47.25507" lon="-2.25417">
        <ele>17.39999961853</ele>
        <time>2020-01-23T10:01:07.000Z</time>
      </trkpt>
      <trkpt lat="47.25508" lon="-2.25407">
        <ele>17.39999961853</ele>
        <time>2020-01-23T10:01:11.000Z</time>
      </trkpt>
      <trkpt lat="47.255" lon="-2.25399">
        <ele>17.39999961853</ele>
        <time>2020-01-23T10:01:15.000Z</time>
      </trkpt>
      <trkpt lat="47.25489" lon="-2.25397">
        <ele>17.39999961853</ele>
        <time>2020-01-23T10:01:18.000Z</time>
      </trkpt>
      <trkpt lat="47.25479" lon="-2.25397">
        <ele>17.39999961853</ele>
        <time>2020-01-23T10:01:20.000Z</time>
      </trkpt>
      <trkpt lat="47.25475" lon="-2.25396">
        <ele>17</ele>
        <time>2020-01-23T10:01:21.000Z</time>
      </trkpt>
      <trkpt lat="47.25469" lon="-2.25396">
        <ele>16.60000038147</ele>
        <time>2020-01-23T10:01:22.000Z</time>
      </trkpt>
      <trkpt lat="47.25463" lon="-2.25397">
        <ele>16.200000762939</ele>
        <time>2020-01-23T10:01:23.000Z</time>
      </trkpt>
      <trkpt lat="47.25456" lon="-2.25398">
        <ele>15.60000038147</ele>
        <time>2020-01-23T10:01:24.000Z</time>
      </trkpt>
      <trkpt lat="47.25448" lon="-2.25398">
        <ele>15</ele>
        <time>2020-01-23T10:01:25.000Z</time>
      </trkpt>
      <trkpt lat="47.25439" lon="-2.25399">
        <ele>14.39999961853</ele>
        <time>2020-01-23T10:01:26.000Z</time>
      </trkpt>
      <trkpt lat="47.2543" lon="-2.254">
        <ele>13.60000038147</ele>
        <time>2020-01-23T10:01:27.000Z</time>
      </trkpt>
      <trkpt lat="47.25422" lon="-2.254">
        <ele>12.800000190735</ele>
        <time>2020-01-23T10:01:28.000Z</time>
      </trkpt>
      <trkpt lat="47.25415" lon="-2.25399">
        <ele>12</ele>
        <time>2020-01-23T10:01:29.000Z</time>
      </trkpt>
      <trkpt lat="47.25409" lon="-2.25399">
        <ele>11.199999809265</ele>
        <time>2020-01-23T10:01:30.000Z</time>
      </trkpt>
      <trkpt lat="47.25401" lon="-2.25399">
        <ele>10.199999809265</ele>
        <time>2020-01-23T10:01:31.000Z</time>
      </trkpt>
      <trkpt lat="47.25396" lon="-2.25398">
        <ele>9.3999996185303</ele>
        <time>2020-01-23T10:01:32.000Z</time>
      </trkpt>
      <trkpt lat="47.2539" lon="-2.25397">
        <ele>8</ele>
        <time>2020-01-23T10:01:33.000Z</time>
      </trkpt>
      <trkpt lat="47.25384" lon="-2.25395">
        <ele>7.4000000953674</ele>
        <time>2020-01-23T10:01:34.000Z</time>
      </trkpt>
      <trkpt lat="47.25379" lon="-2.25393">
        <ele>6.5999999046326</ele>
        <time>2020-01-23T10:01:35.000Z</time>
      </trkpt>
      <trkpt lat="47.25375" lon="-2.25392">
        <ele>6</ele>
        <time>2020-01-23T10:01:36.000Z</time>
      </trkpt>
      <trkpt lat="47.25371" lon="-2.25392">
        <ele>5.1999998092651</ele>
        <time>2020-01-23T10:01:37.000Z</time>
      </trkpt>
      <trkpt lat="47.25368" lon="-2.25392">
        <ele>4.5999999046326</ele>
        <time>2020-01-23T10:01:38.000Z</time>
      </trkpt>
      <trkpt lat="47.25364" lon="-2.25392">
        <ele>3.7999999523163</ele>
        <time>2020-01-23T10:01:39.000Z</time>
      </trkpt>
      <trkpt lat="47.25361" lon="-2.25392">
        <ele>3</ele>
        <time>2020-01-23T10:01:40.000Z</time>
      </trkpt>
      <trkpt lat="47.25355" lon="-2.25391">
        <ele>3</ele>
        <time>2020-01-23T10:01:43.000Z</time>
      </trkpt>
      <trkpt lat="47.25351" lon="-2.2539">
        <ele>3</ele>
        <time>2020-01-23T10:01:46.000Z</time>
      </trkpt>
      <trkpt lat="47.25343" lon="-2.25385">
        <ele>5</ele>
        <time>2020-01-23T10:12:34.000Z</time>
      </trkpt>
      <trkpt lat="47.25344" lon="-2.25386">
        <ele>5</ele>
        <time>2020-01-23T10:12:35.000Z</time>
      </trkpt>
      <trkpt lat="47.25345" lon="-2.25391">
        <ele>5</ele>
        <time>2020-01-23T10:12:40.000Z</time>
      </trkpt>
      <trkpt lat="47.25344" lon="-2.25396">
        <ele>5</ele>
        <time>2020-01-23T10:12:42.000Z</time>
      </trkpt>
      <trkpt lat="47.25343" lon="-2.25406">
        <ele>5</ele>
        <time>2020-01-23T10:12:47.000Z</time>
      </trkpt>
      <trkpt lat="47.2534" lon="-2.25416">
        <ele>5</ele>
        <time>2020-01-23T10:12:51.000Z</time>
      </trkpt>
      <trkpt lat="47.25339" lon="-2.25425">
        <ele>5.5999999046326</ele>
        <time>2020-01-23T10:12:55.000Z</time>
      </trkpt>
      <trkpt lat="47.25339" lon="-2.25427">
        <ele>6</ele>
        <time>2020-01-23T10:12:56.000Z</time>
      </trkpt>
      <trkpt lat="47.25339" lon="-2.2543">
        <ele>6.4000000953674</ele>
        <time>2020-01-23T10:12:57.000Z</time>
      </trkpt>
      <trkpt lat="47.25338" lon="-2.25432">
        <ele>6.8000001907349</ele>
        <time>2020-01-23T10:12:58.000Z</time>
      </trkpt>
      <trkpt lat="47.25338" lon="-2.25435">
        <ele>7.1999998092651</ele>
        <time>2020-01-23T10:12:59.000Z</time>
      </trkpt>
      <trkpt lat="47.2534" lon="-2.25442">
        <ele>7.1999998092651</ele>
        <time>2020-01-23T10:13:01.000Z</time>
      </trkpt>
      <trkpt lat="47.25344" lon="-2.25456">
        <ele>7.1999998092651</ele>
        <time>2020-01-23T10:13:05.000Z</time>
      </trkpt>
      <trkpt lat="47.25343" lon="-2.2546">
        <ele>7.1999998092651</ele>
        <time>2020-01-23T10:13:06.000Z</time>
      </trkpt>
      <trkpt lat="47.25348" lon="-2.25481">
        <ele>7.1999998092651</ele>
        <time>2020-01-23T10:13:10.000Z</time>
      </trkpt>
      <trkpt lat="47.25356" lon="-2.25506">
        <ele>7.1999998092651</ele>
        <time>2020-01-23T10:13:15.000Z</time>
      </trkpt>
      <trkpt lat="47.25359" lon="-2.2553">
        <ele>7.1999998092651</ele>
        <time>2020-01-23T10:13:19.000Z</time>
      </trkpt>
      <trkpt lat="47.25361" lon="-2.25542">
        <ele>7.5999999046326</ele>
        <time>2020-01-23T10:13:21.000Z</time>
      </trkpt>
      <trkpt lat="47.25362" lon="-2.25547">
        <ele>8</ele>
        <time>2020-01-23T10:13:22.000Z</time>
      </trkpt>
      <trkpt lat="47.25362" lon="-2.25553">
        <ele>8.6000003814697</ele>
        <time>2020-01-23T10:13:23.000Z</time>
      </trkpt>
      <trkpt lat="47.25362" lon="-2.25557">
        <ele>9</ele>
        <time>2020-01-23T10:13:24.000Z</time>
      </trkpt>
      <trkpt lat="47.25362" lon="-2.25562">
        <ele>9.3999996185303</ele>
        <time>2020-01-23T10:13:25.000Z</time>
      </trkpt>
      <trkpt lat="47.25362" lon="-2.25572">
        <ele>9.3999996185303</ele>
        <time>2020-01-23T10:13:27.000Z</time>
      </trkpt>
      <trkpt lat="47.25363" lon="-2.25592">
        <ele>9.3999996185303</ele>
        <time>2020-01-23T10:13:31.000Z</time>
      </trkpt>
      <trkpt lat="47.25365" lon="-2.25597">
        <ele>9.3999996185303</ele>
        <time>2020-01-23T10:13:32.000Z</time>
      </trkpt>
      <trkpt lat="47.25373" lon="-2.2562">
        <ele>9.3999996185303</ele>
        <time>2020-01-23T10:13:36.000Z</time>
      </trkpt>
      <trkpt lat="47.2538" lon="-2.25641">
        <ele>9.8000001907349</ele>
        <time>2020-01-23T10:13:40.000Z</time>
      </trkpt>
      <trkpt lat="47.25382" lon="-2.25647">
        <ele>10.199999809265</ele>
        <time>2020-01-23T10:13:41.000Z</time>
      </trkpt>
      <trkpt lat="47.25383" lon="-2.25652">
        <ele>10.60000038147</ele>
        <time>2020-01-23T10:13:42.000Z</time>
      </trkpt>
      <trkpt lat="47.25386" lon="-2.25656">
        <ele>11</ele>
        <time>2020-01-23T10:13:43.000Z</time>
      </trkpt>
      <trkpt lat="47.25388" lon="-2.25661">
        <ele>11.39999961853</ele>
        <time>2020-01-23T10:13:44.000Z</time>
      </trkpt>
      <trkpt lat="47.2539" lon="-2.25664">
        <ele>11.39999961853</ele>
        <time>2020-01-23T10:13:45.000Z</time>
      </trkpt>
      <trkpt lat="47.254" lon="-2.25691">
        <ele>11.39999961853</ele>
        <time>2020-01-23T10:13:51.000Z</time>
      </trkpt>
      <trkpt lat="47.25399" lon="-2.25697">
        <ele>11.39999961853</ele>
        <time>2020-01-23T10:13:52.000Z</time>
      </trkpt>
      <trkpt lat="47.25399" lon="-2.25713">
        <ele>11.39999961853</ele>
        <time>2020-01-23T10:13:54.000Z</time>
      </trkpt>
      <trkpt lat="47.254" lon="-2.25744">
        <ele>11.39999961853</ele>
        <time>2020-01-23T10:13:59.000Z</time>
      </trkpt>
      <trkpt lat="47.25401" lon="-2.25756">
        <ele>11.800000190735</ele>
        <time>2020-01-23T10:14:01.000Z</time>
      </trkpt>
      <trkpt lat="47.254" lon="-2.25758">
        <ele>12.199999809265</ele>
        <time>2020-01-23T10:14:02.000Z</time>
      </trkpt>
      <trkpt lat="47.254" lon="-2.25759">
        <ele>12.60000038147</ele>
        <time>2020-01-23T10:14:03.000Z</time>
      </trkpt>
      <trkpt lat="47.254" lon="-2.25759">
        <ele>13</ele>
        <time>2020-01-23T10:14:04.000Z</time>
      </trkpt>
      <trkpt lat="47.254" lon="-2.25764">
        <ele>13.39999961853</ele>
        <time>2020-01-23T10:14:05.000Z</time>
      </trkpt>
      <trkpt lat="47.254" lon="-2.25767">
        <ele>13.39999961853</ele>
        <time>2020-01-23T10:14:06.000Z</time>
      </trkpt>
      <trkpt lat="47.254" lon="-2.25771">
        <ele>13.39999961853</ele>
        <time>2020-01-23T10:14:07.000Z</time>
      </trkpt>
      <trkpt lat="47.25397" lon="-2.25789">
        <ele>13.39999961853</ele>
        <time>2020-01-23T10:14:13.000Z</time>
      </trkpt>
      <trkpt lat="47.25396" lon="-2.25789">
        <ele>13.800000190735</ele>
        <time>2020-01-23T10:14:14.000Z</time>
      </trkpt>
      <trkpt lat="47.25395" lon="-2.2579">
        <ele>14.39999961853</ele>
        <time>2020-01-23T10:14:15.000Z</time>
      </trkpt>
      <trkpt lat="47.25387" lon="-2.25794">
        <ele>14.800000190735</ele>
        <time>2020-01-23T10:14:16.000Z</time>
      </trkpt>
      <trkpt lat="47.25383" lon="-2.25797">
        <ele>15.199999809265</ele>
        <time>2020-01-23T10:14:17.000Z</time>
      </trkpt>
      <trkpt lat="47.2538" lon="-2.25799">
        <ele>15.800000190735</ele>
        <time>2020-01-23T10:14:18.000Z</time>
      </trkpt>
      <trkpt lat="47.25378" lon="-2.25801">
        <ele>16.200000762939</ele>
        <time>2020-01-23T10:14:19.000Z</time>
      </trkpt>
      <trkpt lat="47.25377" lon="-2.25804">
        <ele>16.60000038147</ele>
        <time>2020-01-23T10:14:20.000Z</time>
      </trkpt>
      <trkpt lat="47.25376" lon="-2.25806">
        <ele>17</ele>
        <time>2020-01-23T10:14:21.000Z</time>
      </trkpt>
      <trkpt lat="47.25374" lon="-2.25807">
        <ele>17.39999961853</ele>
        <time>2020-01-23T10:14:22.000Z</time>
      </trkpt>
      <trkpt lat="47.25372" lon="-2.2581">
        <ele>17.799999237061</ele>
        <time>2020-01-23T10:14:23.000Z</time>
      </trkpt>
      <trkpt lat="47.25371" lon="-2.25813">
        <ele>17.799999237061</ele>
        <time>2020-01-23T10:14:24.000Z</time>
      </trkpt>
      <trkpt lat="47.25368" lon="-2.25818">
        <ele>17.799999237061</ele>
        <time>2020-01-23T10:14:26.000Z</time>
      </trkpt>
      <trkpt lat="47.25363" lon="-2.25821">
        <ele>18.200000762939</ele>
        <time>2020-01-23T10:14:27.000Z</time>
      </trkpt>
      <trkpt lat="47.25361" lon="-2.25822">
        <ele>18.60000038147</ele>
        <time>2020-01-23T10:14:28.000Z</time>
      </trkpt>
      <trkpt lat="47.25359" lon="-2.25823">
        <ele>19.200000762939</ele>
        <time>2020-01-23T10:14:29.000Z</time>
      </trkpt>
      <trkpt lat="47.25359" lon="-2.25826">
        <ele>19.60000038147</ele>
        <time>2020-01-23T10:14:30.000Z</time>
      </trkpt>
      <trkpt lat="47.25357" lon="-2.25828">
        <ele>20</ele>
        <time>2020-01-23T10:14:31.000Z</time>
      </trkpt>
      <trkpt lat="47.25351" lon="-2.25835">
        <ele>20.39999961853</ele>
        <time>2020-01-23T10:14:34.000Z</time>
      </trkpt>
      <trkpt lat="47.2535" lon="-2.25838">
        <ele>20.799999237061</ele>
        <time>2020-01-23T10:14:35.000Z</time>
      </trkpt>
      <trkpt lat="47.25348" lon="-2.2584">
        <ele>21.39999961853</ele>
        <time>2020-01-23T10:14:36.000Z</time>
      </trkpt>
      <trkpt lat="47.25347" lon="-2.25843">
        <ele>21.799999237061</ele>
        <time>2020-01-23T10:14:37.000Z</time>
      </trkpt>
      <trkpt lat="47.25346" lon="-2.25844">
        <ele>22.200000762939</ele>
        <time>2020-01-23T10:14:38.000Z</time>
      </trkpt>
      <trkpt lat="47.25345" lon="-2.25849">
        <ele>22.60000038147</ele>
        <time>2020-01-23T10:14:40.000Z</time>
      </trkpt>
      <trkpt lat="47.25344" lon="-2.25852">
        <ele>23.60000038147</ele>
        <time>2020-01-23T10:14:41.000Z</time>
      </trkpt>
      <trkpt lat="47.25342" lon="-2.25854">
        <ele>24.200000762939</ele>
        <time>2020-01-23T10:14:42.000Z</time>
      </trkpt>
      <trkpt lat="47.25341" lon="-2.25855">
        <ele>24.60000038147</ele>
        <time>2020-01-23T10:14:43.000Z</time>
      </trkpt>
      <trkpt lat="47.25339" lon="-2.2586">
        <ele>24.60000038147</ele>
        <time>2020-01-23T10:14:45.000Z</time>
      </trkpt>
      <trkpt lat="47.25338" lon="-2.25862">
        <ele>25</ele>
        <time>2020-01-23T10:14:46.000Z</time>
      </trkpt>
      <trkpt lat="47.25338" lon="-2.25865">
        <ele>25.39999961853</ele>
        <time>2020-01-23T10:14:47.000Z</time>
      </trkpt>
      <trkpt lat="47.25337" lon="-2.25868">
        <ele>26</ele>
        <time>2020-01-23T10:14:48.000Z</time>
      </trkpt>
      <trkpt lat="47.25337" lon="-2.25871">
        <ele>26.39999961853</ele>
        <time>2020-01-23T10:14:49.000Z</time>
      </trkpt>
      <trkpt lat="47.25336" lon="-2.25874">
        <ele>26.799999237061</ele>
        <time>2020-01-23T10:14:50.000Z</time>
      </trkpt>
      <trkpt lat="47.25336" lon="-2.25876">
        <ele>26.799999237061</ele>
        <time>2020-01-23T10:14:51.000Z</time>
      </trkpt>
      <trkpt lat="47.25336" lon="-2.25879">
        <ele>27.200000762939</ele>
        <time>2020-01-23T10:14:52.000Z</time>
      </trkpt>
      <trkpt lat="47.25336" lon="-2.25882">
        <ele>27.60000038147</ele>
        <time>2020-01-23T10:14:53.000Z</time>
      </trkpt>
      <trkpt lat="47.25336" lon="-2.25885">
        <ele>28</ele>
        <time>2020-01-23T10:14:54.000Z</time>
      </trkpt>
      <trkpt lat="47.25337" lon="-2.25888">
        <ele>28.39999961853</ele>
        <time>2020-01-23T10:14:55.000Z</time>
      </trkpt>
      <trkpt lat="47.25337" lon="-2.25891">
        <ele>28.799999237061</ele>
        <time>2020-01-23T10:14:56.000Z</time>
      </trkpt>
      <trkpt lat="47.25338" lon="-2.25904">
        <ele>29.39999961853</ele>
        <time>2020-01-23T10:14:59.000Z</time>
      </trkpt>
      <trkpt lat="47.2534" lon="-2.25909">
        <ele>29.799999237061</ele>
        <time>2020-01-23T10:15:00.000Z</time>
      </trkpt>
      <trkpt lat="47.2534" lon="-2.25915">
        <ele>30.39999961853</ele>
        <time>2020-01-23T10:15:01.000Z</time>
      </trkpt>
      <trkpt lat="47.2534" lon="-2.25919">
        <ele>30.799999237061</ele>
        <time>2020-01-23T10:15:02.000Z</time>
      </trkpt>
      <trkpt lat="47.25341" lon="-2.25924">
        <ele>31.200000762939</ele>
        <time>2020-01-23T10:15:03.000Z</time>
      </trkpt>
      <trkpt lat="47.25342" lon="-2.2594">
        <ele>31.200000762939</ele>
        <time>2020-01-23T10:15:06.000Z</time>
      </trkpt>
      <trkpt lat="47.25345" lon="-2.25956">
        <ele>30.799999237061</ele>
        <time>2020-01-23T10:15:09.000Z</time>
      </trkpt>
      <trkpt lat="47.25348" lon="-2.25962">
        <ele>30.39999961853</ele>
        <time>2020-01-23T10:15:10.000Z</time>
      </trkpt>
      <trkpt lat="47.25349" lon="-2.25968">
        <ele>29.799999237061</ele>
        <time>2020-01-23T10:15:11.000Z</time>
      </trkpt>
      <trkpt lat="47.25354" lon="-2.25972">
        <ele>29.39999961853</ele>
        <time>2020-01-23T10:15:12.000Z</time>
      </trkpt>
      <trkpt lat="47.25358" lon="-2.25974">
        <ele>28.799999237061</ele>
        <time>2020-01-23T10:15:13.000Z</time>
      </trkpt>
      <trkpt lat="47.2536" lon="-2.25977">
        <ele>28.799999237061</ele>
        <time>2020-01-23T10:15:14.000Z</time>
      </trkpt>
      <trkpt lat="47.25365" lon="-2.25979">
        <ele>28.799999237061</ele>
        <time>2020-01-23T10:15:16.000Z</time>
      </trkpt>
      <trkpt lat="47.25368" lon="-2.2598">
        <ele>28.39999961853</ele>
        <time>2020-01-23T10:15:17.000Z</time>
      </trkpt>
      <trkpt lat="47.2537" lon="-2.25981">
        <ele>28</ele>
        <time>2020-01-23T10:15:18.000Z</time>
      </trkpt>
      <trkpt lat="47.25371" lon="-2.25984">
        <ele>27.60000038147</ele>
        <time>2020-01-23T10:15:19.000Z</time>
      </trkpt>
      <trkpt lat="47.25373" lon="-2.25987">
        <ele>27.200000762939</ele>
        <time>2020-01-23T10:15:20.000Z</time>
      </trkpt>
      <trkpt lat="47.25375" lon="-2.25989">
        <ele>26.799999237061</ele>
        <time>2020-01-23T10:15:21.000Z</time>
      </trkpt>
      <trkpt lat="47.25375" lon="-2.2599">
        <ele>26.799999237061</ele>
        <time>2020-01-23T10:15:22.000Z</time>
      </trkpt>
      <trkpt lat="47.25379" lon="-2.2599">
        <ele>26.799999237061</ele>
        <time>2020-01-23T10:15:24.000Z</time>
      </trkpt>
      <trkpt lat="47.25384" lon="-2.25989">
        <ele>26.200000762939</ele>
        <time>2020-01-23T10:15:26.000Z</time>
      </trkpt>
      <trkpt lat="47.25387" lon="-2.25989">
        <ele>25.60000038147</ele>
        <time>2020-01-23T10:15:27.000Z</time>
      </trkpt>
      <trkpt lat="47.25389" lon="-2.25989">
        <ele>25.200000762939</ele>
        <time>2020-01-23T10:15:28.000Z</time>
      </trkpt>
      <trkpt lat="47.25389" lon="-2.2599">
        <ele>24.60000038147</ele>
        <time>2020-01-23T10:15:29.000Z</time>
      </trkpt>
      <trkpt lat="47.2539" lon="-2.25991">
        <ele>24</ele>
        <time>2020-01-23T10:15:30.000Z</time>
      </trkpt>
      <trkpt lat="47.25392" lon="-2.26007">
        <ele>21.60000038147</ele>
        <time>2020-01-23T10:15:38.000Z</time>
      </trkpt>
      <trkpt lat="47.25391" lon="-2.26019">
        <ele>21.60000038147</ele>
        <time>2020-01-23T10:15:43.000Z</time>
      </trkpt>
      <trkpt lat="47.25391" lon="-2.26022">
        <ele>22.200000762939</ele>
        <time>2020-01-23T10:15:44.000Z</time>
      </trkpt>
      <trkpt lat="47.2539" lon="-2.26023">
        <ele>22.60000038147</ele>
        <time>2020-01-23T10:15:45.000Z</time>
      </trkpt>
      <trkpt lat="47.2539" lon="-2.26026">
        <ele>23</ele>
        <time>2020-01-23T10:15:46.000Z</time>
      </trkpt>
      <trkpt lat="47.2539" lon="-2.26027">
        <ele>23.60000038147</ele>
        <time>2020-01-23T10:15:47.000Z</time>
      </trkpt>
      <trkpt lat="47.2539" lon="-2.26029">
        <ele>24</ele>
        <time>2020-01-23T10:15:48.000Z</time>
      </trkpt>
      <trkpt lat="47.2539" lon="-2.26032">
        <ele>24</ele>
        <time>2020-01-23T10:15:49.000Z</time>
      </trkpt>
      <trkpt lat="47.25387" lon="-2.26036">
        <ele>24</ele>
        <time>2020-01-23T10:15:52.000Z</time>
      </trkpt>
      <trkpt lat="47.25387" lon="-2.26042">
        <ele>24.39999961853</ele>
        <time>2020-01-23T10:15:54.000Z</time>
      </trkpt>
      <trkpt lat="47.25387" lon="-2.26047">
        <ele>24.799999237061</ele>
        <time>2020-01-23T10:15:55.000Z</time>
      </trkpt>
      <trkpt lat="47.25388" lon="-2.26049">
        <ele>25.60000038147</ele>
        <time>2020-01-23T10:15:56.000Z</time>
      </trkpt>
      <trkpt lat="47.25389" lon="-2.26052">
        <ele>26</ele>
        <time>2020-01-23T10:15:57.000Z</time>
      </trkpt>
      <trkpt lat="47.25392" lon="-2.26073">
        <ele>26</ele>
        <time>2020-01-23T10:16:01.000Z</time>
      </trkpt>
      <trkpt lat="47.25392" lon="-2.26097">
        <ele>26</ele>
        <time>2020-01-23T10:16:06.000Z</time>
      </trkpt>
      <trkpt lat="47.25387" lon="-2.26113">
        <ele>26</ele>
        <time>2020-01-23T10:16:11.000Z</time>
      </trkpt>
      <trkpt lat="47.2538" lon="-2.26122">
        <ele>26</ele>
        <time>2020-01-23T10:16:15.000Z</time>
      </trkpt>
      <trkpt lat="47.2538" lon="-2.26125">
        <ele>26.60000038147</ele>
        <time>2020-01-23T10:16:16.000Z</time>
      </trkpt>
      <trkpt lat="47.2538" lon="-2.26129">
        <ele>27</ele>
        <time>2020-01-23T10:16:17.000Z</time>
      </trkpt>
      <trkpt lat="47.25379" lon="-2.26131">
        <ele>27.39999961853</ele>
        <time>2020-01-23T10:16:18.000Z</time>
      </trkpt>
      <trkpt lat="47.25378" lon="-2.26132">
        <ele>27.799999237061</ele>
        <time>2020-01-23T10:16:19.000Z</time>
      </trkpt>
      <trkpt lat="47.25378" lon="-2.26132">
        <ele>28.200000762939</ele>
        <time>2020-01-23T10:16:20.000Z</time>
      </trkpt>
      <trkpt lat="47.25374" lon="-2.26139">
        <ele>28.200000762939</ele>
        <time>2020-01-23T10:16:25.000Z</time>
      </trkpt>
      <trkpt lat="47.25369" lon="-2.26142">
        <ele>28.60000038147</ele>
        <time>2020-01-23T10:16:28.000Z</time>
      </trkpt>
      <trkpt lat="47.25368" lon="-2.26142">
        <ele>29</ele>
        <time>2020-01-23T10:16:29.000Z</time>
      </trkpt>
      <trkpt lat="47.25365" lon="-2.26142">
        <ele>29.39999961853</ele>
        <time>2020-01-23T10:16:30.000Z</time>
      </trkpt>
      <trkpt lat="47.25363" lon="-2.26144">
        <ele>29.799999237061</ele>
        <time>2020-01-23T10:16:31.000Z</time>
      </trkpt>
      <trkpt lat="47.25361" lon="-2.26144">
        <ele>30.200000762939</ele>
        <time>2020-01-23T10:16:32.000Z</time>
      </trkpt>
      <trkpt lat="47.25357" lon="-2.26145">
        <ele>30.200000762939</ele>
        <time>2020-01-23T10:16:34.000Z</time>
      </trkpt>
      <trkpt lat="47.25354" lon="-2.26147">
        <ele>30.60000038147</ele>
        <time>2020-01-23T10:16:36.000Z</time>
      </trkpt>
      <trkpt lat="47.25352" lon="-2.26149">
        <ele>31.200000762939</ele>
        <time>2020-01-23T10:16:37.000Z</time>
      </trkpt>
      <trkpt lat="47.25352" lon="-2.26152">
        <ele>31.60000038147</ele>
        <time>2020-01-23T10:16:38.000Z</time>
      </trkpt>
      <trkpt lat="47.25351" lon="-2.26154">
        <ele>32</ele>
        <time>2020-01-23T10:16:39.000Z</time>
      </trkpt>
      <trkpt lat="47.25351" lon="-2.26156">
        <ele>32.400001525879</ele>
        <time>2020-01-23T10:16:40.000Z</time>
      </trkpt>
      <trkpt lat="47.25346" lon="-2.26162">
        <ele>32.400001525879</ele>
        <time>2020-01-23T10:16:44.000Z</time>
      </trkpt>
      <trkpt lat="47.25344" lon="-2.26162">
        <ele>33.200000762939</ele>
        <time>2020-01-23T10:16:46.000Z</time>
      </trkpt>
      <trkpt lat="47.25341" lon="-2.26161">
        <ele>33.799999237061</ele>
        <time>2020-01-23T10:16:47.000Z</time>
      </trkpt>
      <trkpt lat="47.25341" lon="-2.26161">
        <ele>34.200000762939</ele>
        <time>2020-01-23T10:16:48.000Z</time>
      </trkpt>
      <trkpt lat="47.25339" lon="-2.2616">
        <ele>34.599998474121</ele>
        <time>2020-01-23T10:16:49.000Z</time>
      </trkpt>
      <trkpt lat="47.25334" lon="-2.26162">
        <ele>34.599998474121</ele>
        <time>2020-01-23T10:16:54.000Z</time>
      </trkpt>
      <trkpt lat="47.2535" lon="-2.26163">
        <ele>34.599998474121</ele>
        <time>2020-01-23T10:17:29.000Z</time>
      </trkpt>
      <trkpt lat="47.25355" lon="-2.26161">
        <ele>34.599998474121</ele>
        <time>2020-01-23T10:17:32.000Z</time>
      </trkpt>
      <trkpt lat="47.25361" lon="-2.26157">
        <ele>34.599998474121</ele>
        <time>2020-01-23T10:17:38.000Z</time>
      </trkpt>
      <trkpt lat="47.25361" lon="-2.26157">
        <ele>34.200000762939</ele>
        <time>2020-01-23T10:17:39.000Z</time>
      </trkpt>
      <trkpt lat="47.25363" lon="-2.26157">
        <ele>33.799999237061</ele>
        <time>2020-01-23T10:17:40.000Z</time>
      </trkpt>
      <trkpt lat="47.25363" lon="-2.26157">
        <ele>33.200000762939</ele>
        <time>2020-01-23T10:17:41.000Z</time>
      </trkpt>
      <trkpt lat="47.25363" lon="-2.26157">
        <ele>32.799999237061</ele>
        <time>2020-01-23T10:17:42.000Z</time>
      </trkpt>
      <trkpt lat="47.25365" lon="-2.2616">
        <ele>32.400001525879</ele>
        <time>2020-01-23T10:17:43.000Z</time>
      </trkpt>
      <trkpt lat="47.25367" lon="-2.26175">
        <ele>32.400001525879</ele>
        <time>2020-01-23T10:17:47.000Z</time>
      </trkpt>
      <trkpt lat="47.25371" lon="-2.26192">
        <ele>32.400001525879</ele>
        <time>2020-01-23T10:17:51.000Z</time>
      </trkpt>
      <trkpt lat="47.25381" lon="-2.26212">
        <ele>32.400001525879</ele>
        <time>2020-01-23T10:17:55.000Z</time>
      </trkpt>
      <trkpt lat="47.25392" lon="-2.26235">
        <ele>32.400001525879</ele>
        <time>2020-01-23T10:17:59.000Z</time>
      </trkpt>
      <trkpt lat="47.25394" lon="-2.26241">
        <ele>32.400001525879</ele>
        <time>2020-01-23T10:18:00.000Z</time>
      </trkpt>
      <trkpt lat="47.25395" lon="-2.26251">
        <ele>32.400001525879</ele>
        <time>2020-01-23T10:18:02.000Z</time>
      </trkpt>
      <trkpt lat="47.25397" lon="-2.26258">
        <ele>32.799999237061</ele>
        <time>2020-01-23T10:18:03.000Z</time>
      </trkpt>
      <trkpt lat="47.25397" lon="-2.26263">
        <ele>33.200000762939</ele>
        <time>2020-01-23T10:18:04.000Z</time>
      </trkpt>
      <trkpt lat="47.25399" lon="-2.26268">
        <ele>33.599998474121</ele>
        <time>2020-01-23T10:18:05.000Z</time>
      </trkpt>
      <trkpt lat="47.25399" lon="-2.26272">
        <ele>34</ele>
        <time>2020-01-23T10:18:06.000Z</time>
      </trkpt>
      <trkpt lat="47.254" lon="-2.26276">
        <ele>34.400001525879</ele>
        <time>2020-01-23T10:18:07.000Z</time>
      </trkpt>
      <trkpt lat="47.25406" lon="-2.26302">
        <ele>34.799999237061</ele>
        <time>2020-01-23T10:18:12.000Z</time>
      </trkpt>
      <trkpt lat="47.25406" lon="-2.26307">
        <ele>35.200000762939</ele>
        <time>2020-01-23T10:18:13.000Z</time>
      </trkpt>
      <trkpt lat="47.25406" lon="-2.26312">
        <ele>35.599998474121</ele>
        <time>2020-01-23T10:18:14.000Z</time>
      </trkpt>
      <trkpt lat="47.25406" lon="-2.26316">
        <ele>36</ele>
        <time>2020-01-23T10:18:15.000Z</time>
      </trkpt>
      <trkpt lat="47.25405" lon="-2.26318">
        <ele>36.400001525879</ele>
        <time>2020-01-23T10:18:16.000Z</time>
      </trkpt>
      <trkpt lat="47.254" lon="-2.26343">
        <ele>36.400001525879</ele>
        <time>2020-01-23T10:18:22.000Z</time>
      </trkpt>
      <trkpt lat="47.254" lon="-2.26376">
        <ele>36.400001525879</ele>
        <time>2020-01-23T10:18:27.000Z</time>
      </trkpt>
      <trkpt lat="47.25399" lon="-2.26391">
        <ele>36.400001525879</ele>
        <time>2020-01-23T10:18:30.000Z</time>
      </trkpt>
      <trkpt lat="47.25399" lon="-2.26393">
        <ele>36.400001525879</ele>
        <time>2020-01-23T10:18:31.000Z</time>
      </trkpt>
      <trkpt lat="47.25402" lon="-2.26393">
        <ele>36.400001525879</ele>
        <time>2020-01-23T10:18:33.000Z</time>
      </trkpt>
      <trkpt lat="47.25404" lon="-2.26392">
        <ele>36.400001525879</ele>
        <time>2020-01-23T10:18:34.000Z</time>
      </trkpt>
      <trkpt lat="47.25414" lon="-2.26382">
        <ele>36</ele>
        <time>2020-01-23T10:18:37.000Z</time>
      </trkpt>
      <trkpt lat="47.25416" lon="-2.26377">
        <ele>35.599998474121</ele>
        <time>2020-01-23T10:18:38.000Z</time>
      </trkpt>
      <trkpt lat="47.25416" lon="-2.26372">
        <ele>35.200000762939</ele>
        <time>2020-01-23T10:18:39.000Z</time>
      </trkpt>
      <trkpt lat="47.25416" lon="-2.26368">
        <ele>34.799999237061</ele>
        <time>2020-01-23T10:18:40.000Z</time>
      </trkpt>
      <trkpt lat="47.25414" lon="-2.26366">
        <ele>34.200000762939</ele>
        <time>2020-01-23T10:18:41.000Z</time>
      </trkpt>
      <trkpt lat="47.25408" lon="-2.26352">
        <ele>34.200000762939</ele>
        <time>2020-01-23T10:18:46.000Z</time>
      </trkpt>
      <trkpt lat="47.25405" lon="-2.26341">
        <ele>34.200000762939</ele>
        <time>2020-01-23T10:18:49.000Z</time>
      </trkpt>
      <trkpt lat="47.25405" lon="-2.26339">
        <ele>34.200000762939</ele>
        <time>2020-01-23T10:18:50.000Z</time>
      </trkpt>
      <trkpt lat="47.25405" lon="-2.26338">
        <ele>34.200000762939</ele>
        <time>2020-01-23T10:18:51.000Z</time>
      </trkpt>
      <trkpt lat="47.25407" lon="-2.26334">
        <ele>34.200000762939</ele>
        <time>2020-01-23T10:18:53.000Z</time>
      </trkpt>
      <trkpt lat="47.2541" lon="-2.26329">
        <ele>34.200000762939</ele>
        <time>2020-01-23T10:18:54.000Z</time>
      </trkpt>
      <trkpt lat="47.25414" lon="-2.26325">
        <ele>34.200000762939</ele>
        <time>2020-01-23T10:18:55.000Z</time>
      </trkpt>
      <trkpt lat="47.25418" lon="-2.26321">
        <ele>33.799999237061</ele>
        <time>2020-01-23T10:18:56.000Z</time>
      </trkpt>
      <trkpt lat="47.25425" lon="-2.26318">
        <ele>33.400001525879</ele>
        <time>2020-01-23T10:18:57.000Z</time>
      </trkpt>
      <trkpt lat="47.25431" lon="-2.26317">
        <ele>32.799999237061</ele>
        <time>2020-01-23T10:18:58.000Z</time>
      </trkpt>
      <trkpt lat="47.25436" lon="-2.26317">
        <ele>32.400001525879</ele>
        <time>2020-01-23T10:18:59.000Z</time>
      </trkpt>
      <trkpt lat="47.25441" lon="-2.26318">
        <ele>32</ele>
        <time>2020-01-23T10:19:00.000Z</time>
      </trkpt>
      <trkpt lat="47.25451" lon="-2.26327">
        <ele>32</ele>
        <time>2020-01-23T10:19:02.000Z</time>
      </trkpt>
      <trkpt lat="47.25457" lon="-2.26341">
        <ele>32</ele>
        <time>2020-01-23T10:19:04.000Z</time>
      </trkpt>
      <trkpt lat="47.25454" lon="-2.26347">
        <ele>32</ele>
        <time>2020-01-23T10:19:05.000Z</time>
      </trkpt>
      <trkpt lat="47.2545" lon="-2.26358">
        <ele>32</ele>
        <time>2020-01-23T10:19:07.000Z</time>
      </trkpt>
      <trkpt lat="47.25449" lon="-2.26372">
        <ele>32</ele>
        <time>2020-01-23T10:19:09.000Z</time>
      </trkpt>
      <trkpt lat="47.25447" lon="-2.26394">
        <ele>32</ele>
        <time>2020-01-23T10:19:12.000Z</time>
      </trkpt>
      <trkpt lat="47.25444" lon="-2.26413">
        <ele>32</ele>
        <time>2020-01-23T10:19:15.000Z</time>
      </trkpt>
      <trkpt lat="47.25445" lon="-2.26425">
        <ele>32</ele>
        <time>2020-01-23T10:19:17.000Z</time>
      </trkpt>
      <trkpt lat="47.25444" lon="-2.26431">
        <ele>32</ele>
        <time>2020-01-23T10:19:19.000Z</time>
      </trkpt>
      <trkpt lat="47.2544" lon="-2.26433">
        <ele>32</ele>
        <time>2020-01-23T10:19:21.000Z</time>
      </trkpt>
      <trkpt lat="47.25435" lon="-2.26433">
        <ele>32</ele>
        <time>2020-01-23T10:19:23.000Z</time>
      </trkpt>
      <trkpt lat="47.25429" lon="-2.26436">
        <ele>32</ele>
        <time>2020-01-23T10:19:25.000Z</time>
      </trkpt>
      <trkpt lat="47.25427" lon="-2.26445">
        <ele>32</ele>
        <time>2020-01-23T10:19:27.000Z</time>
      </trkpt>
      <trkpt lat="47.25427" lon="-2.26466">
        <ele>32.400001525879</ele>
        <time>2020-01-23T10:19:31.000Z</time>
      </trkpt>
      <trkpt lat="47.25427" lon="-2.26472">
        <ele>32.799999237061</ele>
        <time>2020-01-23T10:19:32.000Z</time>
      </trkpt>
      <trkpt lat="47.25427" lon="-2.26478">
        <ele>33.200000762939</ele>
        <time>2020-01-23T10:19:33.000Z</time>
      </trkpt>
      <trkpt lat="47.25426" lon="-2.26483">
        <ele>33.599998474121</ele>
        <time>2020-01-23T10:19:34.000Z</time>
      </trkpt>
      <trkpt lat="47.25426" lon="-2.26488">
        <ele>34</ele>
        <time>2020-01-23T10:19:35.000Z</time>
      </trkpt>
      <trkpt lat="47.25425" lon="-2.265">
        <ele>34.599998474121</ele>
        <time>2020-01-23T10:19:38.000Z</time>
      </trkpt>
      <trkpt lat="47.25425" lon="-2.26504">
        <ele>35.400001525879</ele>
        <time>2020-01-23T10:19:39.000Z</time>
      </trkpt>
      <trkpt lat="47.25425" lon="-2.26509">
        <ele>36</ele>
        <time>2020-01-23T10:19:40.000Z</time>
      </trkpt>
      <trkpt lat="47.25425" lon="-2.26513">
        <ele>36.400001525879</ele>
        <time>2020-01-23T10:19:41.000Z</time>
      </trkpt>
      <trkpt lat="47.25424" lon="-2.26524">
        <ele>36.799999237061</ele>
        <time>2020-01-23T10:19:43.000Z</time>
      </trkpt>
      <trkpt lat="47.25423" lon="-2.2653">
        <ele>37.200000762939</ele>
        <time>2020-01-23T10:19:44.000Z</time>
      </trkpt>
      <trkpt lat="47.25423" lon="-2.26535">
        <ele>37.799999237061</ele>
        <time>2020-01-23T10:19:45.000Z</time>
      </trkpt>
      <trkpt lat="47.25423" lon="-2.26541">
        <ele>38.200000762939</ele>
        <time>2020-01-23T10:19:46.000Z</time>
      </trkpt>
      <trkpt lat="47.25424" lon="-2.26547">
        <ele>38.599998474121</ele>
        <time>2020-01-23T10:19:47.000Z</time>
      </trkpt>
      <trkpt lat="47.25426" lon="-2.26559">
        <ele>38.599998474121</ele>
        <time>2020-01-23T10:19:49.000Z</time>
      </trkpt>
      <trkpt lat="47.25437" lon="-2.2659">
        <ele>38.599998474121</ele>
        <time>2020-01-23T10:19:54.000Z</time>
      </trkpt>
      <trkpt lat="47.2544" lon="-2.26615">
        <ele>38.599998474121</ele>
        <time>2020-01-23T10:19:58.000Z</time>
      </trkpt>
      <trkpt lat="47.25442" lon="-2.26641">
        <ele>39</ele>
        <time>2020-01-23T10:20:03.000Z</time>
      </trkpt>
      <trkpt lat="47.25443" lon="-2.26645">
        <ele>39.799999237061</ele>
        <time>2020-01-23T10:20:04.000Z</time>
      </trkpt>
      <trkpt lat="47.25445" lon="-2.26649">
        <ele>40.200000762939</ele>
        <time>2020-01-23T10:20:05.000Z</time>
      </trkpt>
      <trkpt lat="47.25446" lon="-2.26653">
        <ele>40.599998474121</ele>
        <time>2020-01-23T10:20:06.000Z</time>
      </trkpt>
      <trkpt lat="47.25451" lon="-2.26662">
        <ele>40.599998474121</ele>
        <time>2020-01-23T10:20:09.000Z</time>
      </trkpt>
      <trkpt lat="47.25462" lon="-2.26678">
        <ele>40.599998474121</ele>
        <time>2020-01-23T10:20:14.000Z</time>
      </trkpt>
      <trkpt lat="47.25467" lon="-2.26686">
        <ele>40.599998474121</ele>
        <time>2020-01-23T10:20:16.000Z</time>
      </trkpt>
      <trkpt lat="47.25472" lon="-2.26695">
        <ele>40.599998474121</ele>
        <time>2020-01-23T10:20:18.000Z</time>
      </trkpt>
      <trkpt lat="47.25475" lon="-2.2671">
        <ele>40.599998474121</ele>
        <time>2020-01-23T10:20:22.000Z</time>
      </trkpt>
      <trkpt lat="47.25474" lon="-2.26718">
        <ele>40.599998474121</ele>
        <time>2020-01-23T10:20:26.000Z</time>
      </trkpt>
      <trkpt lat="47.25473" lon="-2.26718">
        <ele>40.599998474121</ele>
        <time>2020-01-23T10:20:27.000Z</time>
      </trkpt>
      <trkpt lat="47.2547" lon="-2.26719">
        <ele>40.599998474121</ele>
        <time>2020-01-23T10:20:28.000Z</time>
      </trkpt>
      <trkpt lat="47.25465" lon="-2.26728">
        <ele>40.599998474121</ele>
        <time>2020-01-23T10:20:30.000Z</time>
      </trkpt>
      <trkpt lat="47.25459" lon="-2.26739">
        <ele>41</ele>
        <time>2020-01-23T10:20:32.000Z</time>
      </trkpt>
      <trkpt lat="47.25456" lon="-2.26744">
        <ele>41.400001525879</ele>
        <time>2020-01-23T10:20:33.000Z</time>
      </trkpt>
      <trkpt lat="47.25454" lon="-2.26749">
        <ele>41.799999237061</ele>
        <time>2020-01-23T10:20:34.000Z</time>
      </trkpt>
      <trkpt lat="47.25451" lon="-2.26754">
        <ele>42.200000762939</ele>
        <time>2020-01-23T10:20:35.000Z</time>
      </trkpt>
      <trkpt lat="47.25449" lon="-2.26758">
        <ele>42.599998474121</ele>
        <time>2020-01-23T10:20:36.000Z</time>
      </trkpt>
      <trkpt lat="47.25443" lon="-2.2677">
        <ele>42.599998474121</ele>
        <time>2020-01-23T10:20:39.000Z</time>
      </trkpt>
      <trkpt lat="47.25432" lon="-2.2678">
        <ele>43</ele>
        <time>2020-01-23T10:20:43.000Z</time>
      </trkpt>
      <trkpt lat="47.25429" lon="-2.26783">
        <ele>43.400001525879</ele>
        <time>2020-01-23T10:20:44.000Z</time>
      </trkpt>
      <trkpt lat="47.25427" lon="-2.26787">
        <ele>43.799999237061</ele>
        <time>2020-01-23T10:20:45.000Z</time>
      </trkpt>
      <trkpt lat="47.25424" lon="-2.26791">
        <ele>44.200000762939</ele>
        <time>2020-01-23T10:20:46.000Z</time>
      </trkpt>
      <trkpt lat="47.2542" lon="-2.26795">
        <ele>44.799999237061</ele>
        <time>2020-01-23T10:20:47.000Z</time>
      </trkpt>
      <trkpt lat="47.25405" lon="-2.26809">
        <ele>44.799999237061</ele>
        <time>2020-01-23T10:20:51.000Z</time>
      </trkpt>
      <trkpt lat="47.25398" lon="-2.26816">
        <ele>45.599998474121</ele>
        <time>2020-01-23T10:20:53.000Z</time>
      </trkpt>
      <trkpt lat="47.25394" lon="-2.26821">
        <ele>46</ele>
        <time>2020-01-23T10:20:54.000Z</time>
      </trkpt>
      <trkpt lat="47.25391" lon="-2.26826">
        <ele>46.400001525879</ele>
        <time>2020-01-23T10:20:55.000Z</time>
      </trkpt>
      <trkpt lat="47.25388" lon="-2.26832">
        <ele>46.799999237061</ele>
        <time>2020-01-23T10:20:56.000Z</time>
      </trkpt>
      <trkpt lat="47.25385" lon="-2.26838">
        <ele>46.799999237061</ele>
        <time>2020-01-23T10:20:57.000Z</time>
      </trkpt>
      <trkpt lat="47.25383" lon="-2.26845">
        <ele>46.799999237061</ele>
        <time>2020-01-23T10:20:58.000Z</time>
      </trkpt>
      <trkpt lat="47.2538" lon="-2.26867">
        <ele>46.799999237061</ele>
        <time>2020-01-23T10:21:01.000Z</time>
      </trkpt>
      <trkpt lat="47.25377" lon="-2.26913">
        <ele>46.799999237061</ele>
        <time>2020-01-23T10:21:07.000Z</time>
      </trkpt>
      <trkpt lat="47.25374" lon="-2.26969">
        <ele>46.799999237061</ele>
        <time>2020-01-23T10:21:14.000Z</time>
      </trkpt>
      <trkpt lat="47.25372" lon="-2.26983">
        <ele>46.799999237061</ele>
        <time>2020-01-23T10:21:16.000Z</time>
      </trkpt>
      <trkpt lat="47.25375" lon="-2.27">
        <ele>46.799999237061</ele>
        <time>2020-01-23T10:21:19.000Z</time>
      </trkpt>
      <trkpt lat="47.25385" lon="-2.27003">
        <ele>46.799999237061</ele>
        <time>2020-01-23T10:21:22.000Z</time>
      </trkpt>
      <trkpt lat="47.25388" lon="-2.27003">
        <ele>46.799999237061</ele>
        <time>2020-01-23T10:21:23.000Z</time>
      </trkpt>
      <trkpt lat="47.25395" lon="-2.27004">
        <ele>46.799999237061</ele>
        <time>2020-01-23T10:21:28.000Z</time>
      </trkpt>
      <trkpt lat="47.25402" lon="-2.27006">
        <ele>46.799999237061</ele>
        <time>2020-01-23T10:21:34.000Z</time>
      </trkpt>
      <trkpt lat="47.25411" lon="-2.27006">
        <ele>46.799999237061</ele>
        <time>2020-01-23T10:21:39.000Z</time>
      </trkpt>
      <trkpt lat="47.25425" lon="-2.27008">
        <ele>47.599998474121</ele>
        <time>2020-01-23T10:21:42.000Z</time>
      </trkpt>
      <trkpt lat="47.2543" lon="-2.2701">
        <ele>48</ele>
        <time>2020-01-23T10:21:43.000Z</time>
      </trkpt>
      <trkpt lat="47.25434" lon="-2.27012">
        <ele>48.400001525879</ele>
        <time>2020-01-23T10:21:44.000Z</time>
      </trkpt>
      <trkpt lat="47.25439" lon="-2.27013">
        <ele>48.799999237061</ele>
        <time>2020-01-23T10:21:45.000Z</time>
      </trkpt>
      <trkpt lat="47.25444" lon="-2.27014">
        <ele>48.799999237061</ele>
        <time>2020-01-23T10:21:46.000Z</time>
      </trkpt>
      <trkpt lat="47.25453" lon="-2.27017">
        <ele>48.799999237061</ele>
        <time>2020-01-23T10:21:48.000Z</time>
      </trkpt>
      <trkpt lat="47.25481" lon="-2.27023">
        <ele>48.799999237061</ele>
        <time>2020-01-23T10:21:54.000Z</time>
      </trkpt>
      <trkpt lat="47.25486" lon="-2.27025">
        <ele>49.200000762939</ele>
        <time>2020-01-23T10:21:55.000Z</time>
      </trkpt>
      <trkpt lat="47.2549" lon="-2.27027">
        <ele>49.799999237061</ele>
        <time>2020-01-23T10:21:56.000Z</time>
      </trkpt>
      <trkpt lat="47.25494" lon="-2.27031">
        <ele>50.200000762939</ele>
        <time>2020-01-23T10:21:57.000Z</time>
      </trkpt>
      <trkpt lat="47.25498" lon="-2.27034">
        <ele>50.799999237061</ele>
        <time>2020-01-23T10:21:58.000Z</time>
      </trkpt>
      <trkpt lat="47.25501" lon="-2.27037">
        <ele>51.200000762939</ele>
        <time>2020-01-23T10:21:59.000Z</time>
      </trkpt>
      <trkpt lat="47.25509" lon="-2.27044">
        <ele>51.200000762939</ele>
        <time>2020-01-23T10:22:01.000Z</time>
      </trkpt>
      <trkpt lat="47.25531" lon="-2.27068">
        <ele>51.200000762939</ele>
        <time>2020-01-23T10:22:07.000Z</time>
      </trkpt>
      <trkpt lat="47.25546" lon="-2.27086">
        <ele>51.200000762939</ele>
        <time>2020-01-23T10:22:11.000Z</time>
      </trkpt>
      <trkpt lat="47.25557" lon="-2.27098">
        <ele>51.599998474121</ele>
        <time>2020-01-23T10:22:14.000Z</time>
      </trkpt>
      <trkpt lat="47.2556" lon="-2.27102">
        <ele>52</ele>
        <time>2020-01-23T10:22:15.000Z</time>
      </trkpt>
      <trkpt lat="47.25563" lon="-2.27106">
        <ele>52.599998474121</ele>
        <time>2020-01-23T10:22:16.000Z</time>
      </trkpt>
      <trkpt lat="47.25566" lon="-2.27109">
        <ele>53</ele>
        <time>2020-01-23T10:22:17.000Z</time>
      </trkpt>
      <trkpt lat="47.25569" lon="-2.27113">
        <ele>53.400001525879</ele>
        <time>2020-01-23T10:22:18.000Z</time>
      </trkpt>
      <trkpt lat="47.25575" lon="-2.27118">
        <ele>53.400001525879</ele>
        <time>2020-01-23T10:22:20.000Z</time>
      </trkpt>
      <trkpt lat="47.25578" lon="-2.27119">
        <ele>53</ele>
        <time>2020-01-23T10:22:21.000Z</time>
      </trkpt>
      <trkpt lat="47.25581" lon="-2.27119">
        <ele>52.599998474121</ele>
        <time>2020-01-23T10:22:22.000Z</time>
      </trkpt>
      <trkpt lat="47.25583" lon="-2.27118">
        <ele>52.200000762939</ele>
        <time>2020-01-23T10:22:23.000Z</time>
      </trkpt>
      <trkpt lat="47.25585" lon="-2.27117">
        <ele>51.799999237061</ele>
        <time>2020-01-23T10:22:24.000Z</time>
      </trkpt>
      <trkpt lat="47.25586" lon="-2.27117">
        <ele>51.400001525879</ele>
        <time>2020-01-23T10:22:25.000Z</time>
      </trkpt>
      <trkpt lat="47.25588" lon="-2.27121">
        <ele>51.400001525879</ele>
        <time>2020-01-23T10:22:27.000Z</time>
      </trkpt>
      <trkpt lat="47.25586" lon="-2.2714">
        <ele>51.400001525879</ele>
        <time>2020-01-23T10:22:31.000Z</time>
      </trkpt>
      <trkpt lat="47.25595" lon="-2.27151">
        <ele>51.400001525879</ele>
        <time>2020-01-23T10:22:34.000Z</time>
      </trkpt>
      <trkpt lat="47.25612" lon="-2.27166">
        <ele>51.400001525879</ele>
        <time>2020-01-23T10:22:38.000Z</time>
      </trkpt>
      <trkpt lat="47.25618" lon="-2.27178">
        <ele>51.400001525879</ele>
        <time>2020-01-23T10:22:40.000Z</time>
      </trkpt>
      <trkpt lat="47.25631" lon="-2.27205">
        <ele>51.400001525879</ele>
        <time>2020-01-23T10:22:45.000Z</time>
      </trkpt>
      <trkpt lat="47.25638" lon="-2.27213">
        <ele>51.400001525879</ele>
        <time>2020-01-23T10:22:47.000Z</time>
      </trkpt>
      <trkpt lat="47.25642" lon="-2.27218">
        <ele>51.400001525879</ele>
        <time>2020-01-23T10:22:48.000Z</time>
      </trkpt>
      <trkpt lat="47.25649" lon="-2.27231">
        <ele>51.400001525879</ele>
        <time>2020-01-23T10:22:51.000Z</time>
      </trkpt>
      <trkpt lat="47.25656" lon="-2.2725">
        <ele>51.400001525879</ele>
        <time>2020-01-23T10:22:55.000Z</time>
      </trkpt>
      <trkpt lat="47.25659" lon="-2.27254">
        <ele>51.400001525879</ele>
        <time>2020-01-23T10:22:56.000Z</time>
      </trkpt>
      <trkpt lat="47.2567" lon="-2.27268">
        <ele>51.400001525879</ele>
        <time>2020-01-23T10:23:00.000Z</time>
      </trkpt>
      <trkpt lat="47.25675" lon="-2.27275">
        <ele>51.400001525879</ele>
        <time>2020-01-23T10:23:02.000Z</time>
      </trkpt>
      <trkpt lat="47.25679" lon="-2.27286">
        <ele>51.400001525879</ele>
        <time>2020-01-23T10:23:04.000Z</time>
      </trkpt>
      <trkpt lat="47.25687" lon="-2.27301">
        <ele>51.400001525879</ele>
        <time>2020-01-23T10:23:07.000Z</time>
      </trkpt>
      <trkpt lat="47.2569" lon="-2.27307">
        <ele>51.400001525879</ele>
        <time>2020-01-23T10:23:08.000Z</time>
      </trkpt>
      <trkpt lat="47.25707" lon="-2.27341">
        <ele>51.400001525879</ele>
        <time>2020-01-23T10:23:13.000Z</time>
      </trkpt>
      <trkpt lat="47.2571" lon="-2.27348">
        <ele>51.400001525879</ele>
        <time>2020-01-23T10:23:14.000Z</time>
      </trkpt>
      <trkpt lat="47.25728" lon="-2.27391">
        <ele>51.400001525879</ele>
        <time>2020-01-23T10:23:20.000Z</time>
      </trkpt>
      <trkpt lat="47.25736" lon="-2.27418">
        <ele>51.400001525879</ele>
        <time>2020-01-23T10:23:24.000Z</time>
      </trkpt>
      <trkpt lat="47.2574" lon="-2.27431">
        <ele>51.400001525879</ele>
        <time>2020-01-23T10:23:26.000Z</time>
      </trkpt>
      <trkpt lat="47.25744" lon="-2.27445">
        <ele>51.400001525879</ele>
        <time>2020-01-23T10:23:28.000Z</time>
      </trkpt>
      <trkpt lat="47.25746" lon="-2.27452">
        <ele>51.400001525879</ele>
        <time>2020-01-23T10:23:29.000Z</time>
      </trkpt>
      <trkpt lat="47.2575" lon="-2.27466">
        <ele>51.400001525879</ele>
        <time>2020-01-23T10:23:31.000Z</time>
      </trkpt>
      <trkpt lat="47.25761" lon="-2.27509">
        <ele>51.400001525879</ele>
        <time>2020-01-23T10:23:37.000Z</time>
      </trkpt>
      <trkpt lat="47.25779" lon="-2.27558">
        <ele>51.400001525879</ele>
        <time>2020-01-23T10:23:44.000Z</time>
      </trkpt>
      <trkpt lat="47.258" lon="-2.27599">
        <ele>51.400001525879</ele>
        <time>2020-01-23T10:23:50.000Z</time>
      </trkpt>
      <trkpt lat="47.25822" lon="-2.27642">
        <ele>51.400001525879</ele>
        <time>2020-01-23T10:23:56.000Z</time>
      </trkpt>
      <trkpt lat="47.2584" lon="-2.27689">
        <ele>51.400001525879</ele>
        <time>2020-01-23T10:24:03.000Z</time>
      </trkpt>
      <trkpt lat="47.25848" lon="-2.27712">
        <ele>51.400001525879</ele>
        <time>2020-01-23T10:24:08.000Z</time>
      </trkpt>
      <trkpt lat="47.25851" lon="-2.27715">
        <ele>51.400001525879</ele>
        <time>2020-01-23T10:24:10.000Z</time>
      </trkpt>
      <trkpt lat="47.25855" lon="-2.27715">
        <ele>51.400001525879</ele>
        <time>2020-01-23T10:24:12.000Z</time>
      </trkpt>
      <trkpt lat="47.25861" lon="-2.27723">
        <ele>51</ele>
        <time>2020-01-23T10:24:16.000Z</time>
      </trkpt>
      <trkpt lat="47.25861" lon="-2.27728">
        <ele>50.599998474121</ele>
        <time>2020-01-23T10:24:17.000Z</time>
      </trkpt>
      <trkpt lat="47.25861" lon="-2.27733">
        <ele>50.200000762939</ele>
        <time>2020-01-23T10:24:18.000Z</time>
      </trkpt>
      <trkpt lat="47.25861" lon="-2.2774">
        <ele>49.799999237061</ele>
        <time>2020-01-23T10:24:19.000Z</time>
      </trkpt>
      <trkpt lat="47.25861" lon="-2.27747">
        <ele>49.400001525879</ele>
        <time>2020-01-23T10:24:20.000Z</time>
      </trkpt>
      <trkpt lat="47.25858" lon="-2.27768">
        <ele>49.400001525879</ele>
        <time>2020-01-23T10:24:23.000Z</time>
      </trkpt>
      <trkpt lat="47.25852" lon="-2.2778">
        <ele>49.400001525879</ele>
        <time>2020-01-23T10:24:25.000Z</time>
      </trkpt>
      <trkpt lat="47.25836" lon="-2.27803">
        <ele>49.400001525879</ele>
        <time>2020-01-23T10:24:30.000Z</time>
      </trkpt>
      <trkpt lat="47.25819" lon="-2.27825">
        <ele>49.400001525879</ele>
        <time>2020-01-23T10:24:36.000Z</time>
      </trkpt>
      <trkpt lat="47.25804" lon="-2.27845">
        <ele>49.400001525879</ele>
        <time>2020-01-23T10:24:41.000Z</time>
      </trkpt>
      <trkpt lat="47.25771" lon="-2.27883">
        <ele>49.400001525879</ele>
        <time>2020-01-23T10:24:50.000Z</time>
      </trkpt>
      <trkpt lat="47.25745" lon="-2.27914">
        <ele>49.400001525879</ele>
        <time>2020-01-23T10:24:57.000Z</time>
      </trkpt>
      <trkpt lat="47.25738" lon="-2.27922">
        <ele>49.400001525879</ele>
        <time>2020-01-23T10:24:59.000Z</time>
      </trkpt>
      <trkpt lat="47.25725" lon="-2.27938">
        <ele>49.400001525879</ele>
        <time>2020-01-23T10:25:03.000Z</time>
      </trkpt>
      <trkpt lat="47.25707" lon="-2.27962">
        <ele>49.400001525879</ele>
        <time>2020-01-23T10:25:09.000Z</time>
      </trkpt>
      <trkpt lat="47.25694" lon="-2.2798">
        <ele>49.400001525879</ele>
        <time>2020-01-23T10:25:14.000Z</time>
      </trkpt>
      <trkpt lat="47.2569" lon="-2.27993">
        <ele>49.400001525879</ele>
        <time>2020-01-23T10:25:17.000Z</time>
      </trkpt>
      <trkpt lat="47.25692" lon="-2.27996">
        <ele>49.400001525879</ele>
        <time>2020-01-23T10:25:18.000Z</time>
      </trkpt>
      <trkpt lat="47.25704" lon="-2.28011">
        <ele>49.400001525879</ele>
        <time>2020-01-23T10:25:22.000Z</time>
      </trkpt>
      <trkpt lat="47.25711" lon="-2.28018">
        <ele>49.400001525879</ele>
        <time>2020-01-23T10:25:24.000Z</time>
      </trkpt>
      <trkpt lat="47.25728" lon="-2.28039">
        <ele>49.400001525879</ele>
        <time>2020-01-23T10:25:29.000Z</time>
      </trkpt>
      <trkpt lat="47.25739" lon="-2.28051">
        <ele>49.400001525879</ele>
        <time>2020-01-23T10:25:32.000Z</time>
      </trkpt>
      <trkpt lat="47.25748" lon="-2.28059">
        <ele>49.400001525879</ele>
        <time>2020-01-23T10:25:34.000Z</time>
      </trkpt>
      <trkpt lat="47.25752" lon="-2.28064">
        <ele>49.400001525879</ele>
        <time>2020-01-23T10:25:35.000Z</time>
      </trkpt>
      <trkpt lat="47.25779" lon="-2.28088">
        <ele>49.400001525879</ele>
        <time>2020-01-23T10:25:41.000Z</time>
      </trkpt>
      <trkpt lat="47.25788" lon="-2.28095">
        <ele>49.400001525879</ele>
        <time>2020-01-23T10:25:43.000Z</time>
      </trkpt>
      <trkpt lat="47.25809" lon="-2.28115">
        <ele>49.400001525879</ele>
        <time>2020-01-23T10:25:48.000Z</time>
      </trkpt>
      <trkpt lat="47.25817" lon="-2.28124">
        <ele>49.400001525879</ele>
        <time>2020-01-23T10:25:50.000Z</time>
      </trkpt>
      <trkpt lat="47.25842" lon="-2.28148">
        <ele>49.400001525879</ele>
        <time>2020-01-23T10:25:56.000Z</time>
      </trkpt>
      <trkpt lat="47.2585" lon="-2.28156">
        <ele>49.400001525879</ele>
        <time>2020-01-23T10:25:58.000Z</time>
      </trkpt>
      <trkpt lat="47.25861" lon="-2.28167">
        <ele>49.400001525879</ele>
        <time>2020-01-23T10:26:01.000Z</time>
      </trkpt>
      <trkpt lat="47.25882" lon="-2.2818">
        <ele>49.400001525879</ele>
        <time>2020-01-23T10:26:07.000Z</time>
      </trkpt>
      <trkpt lat="47.25905" lon="-2.28186">
        <ele>49.400001525879</ele>
        <time>2020-01-23T10:26:13.000Z</time>
      </trkpt>
      <trkpt lat="47.25908" lon="-2.28193">
        <ele>49.400001525879</ele>
        <time>2020-01-23T10:26:15.000Z</time>
      </trkpt>
      <trkpt lat="47.25908" lon="-2.28197">
        <ele>49.400001525879</ele>
        <time>2020-01-23T10:26:16.000Z</time>
      </trkpt>
      <trkpt lat="47.25906" lon="-2.28219">
        <ele>49.400001525879</ele>
        <time>2020-01-23T10:26:21.000Z</time>
      </trkpt>
      <trkpt lat="47.25907" lon="-2.28235">
        <ele>49.400001525879</ele>
        <time>2020-01-23T10:26:26.000Z</time>
      </trkpt>
      <trkpt lat="47.25904" lon="-2.2824">
        <ele>49.400001525879</ele>
        <time>2020-01-23T10:26:29.000Z</time>
      </trkpt>
      <trkpt lat="47.25902" lon="-2.2824">
        <ele>49.400001525879</ele>
        <time>2020-01-23T10:26:31.000Z</time>
      </trkpt>
      <trkpt lat="47.25887" lon="-2.2824">
        <ele>49.400001525879</ele>
        <time>2020-01-23T10:26:36.000Z</time>
      </trkpt>
      <trkpt lat="47.2588" lon="-2.28241">
        <ele>49.400001525879</ele>
        <time>2020-01-23T10:26:38.000Z</time>
      </trkpt>
      <trkpt lat="47.25862" lon="-2.28244">
        <ele>49.400001525879</ele>
        <time>2020-01-23T10:26:42.000Z</time>
      </trkpt>
      <trkpt lat="47.25848" lon="-2.28247">
        <ele>49.400001525879</ele>
        <time>2020-01-23T10:26:45.000Z</time>
      </trkpt>
      <trkpt lat="47.25837" lon="-2.28254">
        <ele>49.400001525879</ele>
        <time>2020-01-23T10:26:48.000Z</time>
      </trkpt>
      <trkpt lat="47.25836" lon="-2.28268">
        <ele>49.400001525879</ele>
        <time>2020-01-23T10:26:51.000Z</time>
      </trkpt>
      <trkpt lat="47.25843" lon="-2.2827">
        <ele>49.400001525879</ele>
        <time>2020-01-23T10:26:53.000Z</time>
      </trkpt>
      <trkpt lat="47.25864" lon="-2.28266">
        <ele>49.400001525879</ele>
        <time>2020-01-23T10:26:58.000Z</time>
      </trkpt>
      <trkpt lat="47.25878" lon="-2.28267">
        <ele>49.400001525879</ele>
        <time>2020-01-23T10:27:01.000Z</time>
      </trkpt>
      <trkpt lat="47.25886" lon="-2.28268">
        <ele>49.400001525879</ele>
        <time>2020-01-23T10:27:03.000Z</time>
      </trkpt>
      <trkpt lat="47.25891" lon="-2.28269">
        <ele>49.400001525879</ele>
        <time>2020-01-23T10:27:06.000Z</time>
      </trkpt>
      <trkpt lat="47.25898" lon="-2.28269">
        <ele>49.400001525879</ele>
        <time>2020-01-23T10:27:10.000Z</time>
      </trkpt>
      <trkpt lat="47.25908" lon="-2.28273">
        <ele>49.400001525879</ele>
        <time>2020-01-23T10:27:13.000Z</time>
      </trkpt>
      <trkpt lat="47.25911" lon="-2.28277">
        <ele>49.400001525879</ele>
        <time>2020-01-23T10:27:14.000Z</time>
      </trkpt>
      <trkpt lat="47.2592" lon="-2.28293">
        <ele>49.400001525879</ele>
        <time>2020-01-23T10:27:17.000Z</time>
      </trkpt>
      <trkpt lat="47.25922" lon="-2.28299">
        <ele>49.400001525879</ele>
        <time>2020-01-23T10:27:18.000Z</time>
      </trkpt>
      <trkpt lat="47.2592" lon="-2.28313">
        <ele>49.400001525879</ele>
        <time>2020-01-23T10:27:21.000Z</time>
      </trkpt>
      <trkpt lat="47.25923" lon="-2.28321">
        <ele>49.400001525879</ele>
        <time>2020-01-23T10:27:24.000Z</time>
      </trkpt>
      <trkpt lat="47.2593" lon="-2.28317">
        <ele>49.400001525879</ele>
        <time>2020-01-23T10:27:29.000Z</time>
      </trkpt>
      <trkpt lat="47.25937" lon="-2.28325">
        <ele>49.400001525879</ele>
        <time>2020-01-23T10:27:33.000Z</time>
      </trkpt>
      <trkpt lat="47.25937" lon="-2.28336">
        <ele>49.400001525879</ele>
        <time>2020-01-23T10:27:35.000Z</time>
      </trkpt>
      <trkpt lat="47.25937" lon="-2.28349">
        <ele>49.400001525879</ele>
        <time>2020-01-23T10:27:37.000Z</time>
      </trkpt>
      <trkpt lat="47.25937" lon="-2.28381">
        <ele>49.400001525879</ele>
        <time>2020-01-23T10:27:41.000Z</time>
      </trkpt>
      <trkpt lat="47.25937" lon="-2.28389">
        <ele>49.400001525879</ele>
        <time>2020-01-23T10:27:42.000Z</time>
      </trkpt>
      <trkpt lat="47.25936" lon="-2.28406">
        <ele>49.400001525879</ele>
        <time>2020-01-23T10:27:44.000Z</time>
      </trkpt>
      <trkpt lat="47.25936" lon="-2.28438">
        <ele>49.400001525879</ele>
        <time>2020-01-23T10:27:48.000Z</time>
      </trkpt>
      <trkpt lat="47.25934" lon="-2.28494">
        <ele>49.400001525879</ele>
        <time>2020-01-23T10:27:54.000Z</time>
      </trkpt>
      <trkpt lat="47.25932" lon="-2.28562">
        <ele>49.400001525879</ele>
        <time>2020-01-23T10:28:00.000Z</time>
      </trkpt>
      <trkpt lat="47.2593" lon="-2.28647">
        <ele>49.400001525879</ele>
        <time>2020-01-23T10:28:07.000Z</time>
      </trkpt>
      <trkpt lat="47.2593" lon="-2.28672">
        <ele>49.400001525879</ele>
        <time>2020-01-23T10:28:09.000Z</time>
      </trkpt>
      <trkpt lat="47.25927" lon="-2.28753">
        <ele>49.400001525879</ele>
        <time>2020-01-23T10:28:16.000Z</time>
      </trkpt>
      <trkpt lat="47.25927" lon="-2.28764">
        <ele>49.400001525879</ele>
        <time>2020-01-23T10:28:17.000Z</time>
      </trkpt>
      <trkpt lat="47.25928" lon="-2.28805">
        <ele>49.400001525879</ele>
        <time>2020-01-23T10:28:21.000Z</time>
      </trkpt>
      <trkpt lat="47.25926" lon="-2.28814">
        <ele>49.400001525879</ele>
        <time>2020-01-23T10:28:22.000Z</time>
      </trkpt>
      <trkpt lat="47.25912" lon="-2.28837">
        <ele>49</ele>
        <time>2020-01-23T10:28:25.000Z</time>
      </trkpt>
      <trkpt lat="47.25906" lon="-2.28843">
        <ele>48.599998474121</ele>
        <time>2020-01-23T10:28:26.000Z</time>
      </trkpt>
      <trkpt lat="47.259" lon="-2.28849">
        <ele>48</ele>
        <time>2020-01-23T10:28:27.000Z</time>
      </trkpt>
      <trkpt lat="47.25894" lon="-2.28854">
        <ele>47.599998474121</ele>
        <time>2020-01-23T10:28:28.000Z</time>
      </trkpt>
      <trkpt lat="47.25887" lon="-2.28858">
        <ele>47.200000762939</ele>
        <time>2020-01-23T10:28:29.000Z</time>
      </trkpt>
      <trkpt lat="47.2588" lon="-2.28862">
        <ele>47.200000762939</ele>
        <time>2020-01-23T10:28:30.000Z</time>
      </trkpt>
      <trkpt lat="47.25837" lon="-2.28873">
        <ele>47.200000762939</ele>
        <time>2020-01-23T10:28:36.000Z</time>
      </trkpt>
      <trkpt lat="47.25806" lon="-2.2888">
        <ele>47.200000762939</ele>
        <time>2020-01-23T10:28:41.000Z</time>
      </trkpt>
      <trkpt lat="47.25766" lon="-2.28894">
        <ele>47.200000762939</ele>
        <time>2020-01-23T10:28:47.000Z</time>
      </trkpt>
      <trkpt lat="47.25753" lon="-2.28897">
        <ele>46.799999237061</ele>
        <time>2020-01-23T10:28:49.000Z</time>
      </trkpt>
      <trkpt lat="47.25746" lon="-2.28898">
        <ele>46.400001525879</ele>
        <time>2020-01-23T10:28:50.000Z</time>
      </trkpt>
      <trkpt lat="47.25739" lon="-2.289">
        <ele>46</ele>
        <time>2020-01-23T10:28:51.000Z</time>
      </trkpt>
      <trkpt lat="47.25732" lon="-2.28903">
        <ele>45.599998474121</ele>
        <time>2020-01-23T10:28:52.000Z</time>
      </trkpt>
      <trkpt lat="47.25726" lon="-2.28906">
        <ele>45.200000762939</ele>
        <time>2020-01-23T10:28:53.000Z</time>
      </trkpt>
      <trkpt lat="47.25714" lon="-2.28927">
        <ele>45.200000762939</ele>
        <time>2020-01-23T10:28:56.000Z</time>
      </trkpt>
      <trkpt lat="47.25712" lon="-2.28937">
        <ele>45.200000762939</ele>
        <time>2020-01-23T10:28:57.000Z</time>
      </trkpt>
      <trkpt lat="47.25708" lon="-2.28957">
        <ele>45.200000762939</ele>
        <time>2020-01-23T10:28:59.000Z</time>
      </trkpt>
      <trkpt lat="47.25703" lon="-2.28974">
        <ele>45.200000762939</ele>
        <time>2020-01-23T10:29:01.000Z</time>
      </trkpt>
      <trkpt lat="47.25693" lon="-2.28985">
        <ele>44.799999237061</ele>
        <time>2020-01-23T10:29:03.000Z</time>
      </trkpt>
      <trkpt lat="47.25686" lon="-2.28988">
        <ele>44.400001525879</ele>
        <time>2020-01-23T10:29:04.000Z</time>
      </trkpt>
      <trkpt lat="47.25679" lon="-2.28991">
        <ele>43.599998474121</ele>
        <time>2020-01-23T10:29:05.000Z</time>
      </trkpt>
      <trkpt lat="47.25672" lon="-2.28993">
        <ele>43</ele>
        <time>2020-01-23T10:29:06.000Z</time>
      </trkpt>
      <trkpt lat="47.25664" lon="-2.28994">
        <ele>43</ele>
        <time>2020-01-23T10:29:07.000Z</time>
      </trkpt>
      <trkpt lat="47.25649" lon="-2.28991">
        <ele>43</ele>
        <time>2020-01-23T10:29:09.000Z</time>
      </trkpt>
      <trkpt lat="47.25633" lon="-2.28982">
        <ele>43</ele>
        <time>2020-01-23T10:29:11.000Z</time>
      </trkpt>
      <trkpt lat="47.25616" lon="-2.28975">
        <ele>42.599998474121</ele>
        <time>2020-01-23T10:29:13.000Z</time>
      </trkpt>
      <trkpt lat="47.25609" lon="-2.28973">
        <ele>42</ele>
        <time>2020-01-23T10:29:14.000Z</time>
      </trkpt>
      <trkpt lat="47.25602" lon="-2.28973">
        <ele>41.599998474121</ele>
        <time>2020-01-23T10:29:15.000Z</time>
      </trkpt>
      <trkpt lat="47.25596" lon="-2.28974">
        <ele>41</ele>
        <time>2020-01-23T10:29:16.000Z</time>
      </trkpt>
      <trkpt lat="47.2559" lon="-2.28977">
        <ele>40.599998474121</ele>
        <time>2020-01-23T10:29:17.000Z</time>
      </trkpt>
      <trkpt lat="47.25579" lon="-2.28988">
        <ele>40.599998474121</ele>
        <time>2020-01-23T10:29:19.000Z</time>
      </trkpt>
      <trkpt lat="47.25572" lon="-2.28993">
        <ele>40.599998474121</ele>
        <time>2020-01-23T10:29:20.000Z</time>
      </trkpt>
      <trkpt lat="47.25566" lon="-2.28996">
        <ele>40.599998474121</ele>
        <time>2020-01-23T10:29:21.000Z</time>
      </trkpt>
      <trkpt lat="47.25552" lon="-2.29003">
        <ele>40.599998474121</ele>
        <time>2020-01-23T10:29:23.000Z</time>
      </trkpt>
      <trkpt lat="47.25542" lon="-2.29015">
        <ele>40.599998474121</ele>
        <time>2020-01-23T10:29:25.000Z</time>
      </trkpt>
      <trkpt lat="47.25536" lon="-2.29037">
        <ele>40.599998474121</ele>
        <time>2020-01-23T10:29:28.000Z</time>
      </trkpt>
      <trkpt lat="47.25538" lon="-2.29056">
        <ele>40.599998474121</ele>
        <time>2020-01-23T10:29:30.000Z</time>
      </trkpt>
      <trkpt lat="47.25542" lon="-2.29075">
        <ele>40.599998474121</ele>
        <time>2020-01-23T10:29:32.000Z</time>
      </trkpt>
      <trkpt lat="47.25542" lon="-2.29084">
        <ele>40.599998474121</ele>
        <time>2020-01-23T10:29:33.000Z</time>
      </trkpt>
      <trkpt lat="47.25539" lon="-2.291">
        <ele>40.599998474121</ele>
        <time>2020-01-23T10:29:35.000Z</time>
      </trkpt>
      <trkpt lat="47.25526" lon="-2.29115">
        <ele>40.599998474121</ele>
        <time>2020-01-23T10:29:38.000Z</time>
      </trkpt>
      <trkpt lat="47.25514" lon="-2.2912">
        <ele>40.599998474121</ele>
        <time>2020-01-23T10:29:40.000Z</time>
      </trkpt>
      <trkpt lat="47.25509" lon="-2.29122">
        <ele>40.599998474121</ele>
        <time>2020-01-23T10:29:41.000Z</time>
      </trkpt>
      <trkpt lat="47.25498" lon="-2.29125">
        <ele>40.599998474121</ele>
        <time>2020-01-23T10:29:43.000Z</time>
      </trkpt>
      <trkpt lat="47.25474" lon="-2.29139">
        <ele>40.599998474121</ele>
        <time>2020-01-23T10:29:48.000Z</time>
      </trkpt>
      <trkpt lat="47.25469" lon="-2.29141">
        <ele>40.599998474121</ele>
        <time>2020-01-23T10:29:49.000Z</time>
      </trkpt>
      <trkpt lat="47.25452" lon="-2.29154">
        <ele>41</ele>
        <time>2020-01-23T10:29:53.000Z</time>
      </trkpt>
      <trkpt lat="47.25448" lon="-2.29158">
        <ele>41.400001525879</ele>
        <time>2020-01-23T10:29:54.000Z</time>
      </trkpt>
      <trkpt lat="47.25445" lon="-2.29163">
        <ele>42.200000762939</ele>
        <time>2020-01-23T10:29:55.000Z</time>
      </trkpt>
      <trkpt lat="47.25442" lon="-2.29168">
        <ele>42.599998474121</ele>
        <time>2020-01-23T10:29:56.000Z</time>
      </trkpt>
      <trkpt lat="47.25433" lon="-2.29178">
        <ele>42.599998474121</ele>
        <time>2020-01-23T10:29:59.000Z</time>
      </trkpt>
      <trkpt lat="47.25423" lon="-2.29184">
        <ele>42.599998474121</ele>
        <time>2020-01-23T10:30:03.000Z</time>
      </trkpt>
      <trkpt lat="47.2541" lon="-2.29194">
        <ele>42.599998474121</ele>
        <time>2020-01-23T10:30:07.000Z</time>
      </trkpt>
      <trkpt lat="47.25406" lon="-2.29198">
        <ele>42.599998474121</ele>
        <time>2020-01-23T10:30:08.000Z</time>
      </trkpt>
      <trkpt lat="47.25402" lon="-2.29202">
        <ele>42.599998474121</ele>
        <time>2020-01-23T10:30:09.000Z</time>
      </trkpt>
      <trkpt lat="47.25393" lon="-2.29213">
        <ele>42.599998474121</ele>
        <time>2020-01-23T10:30:12.000Z</time>
      </trkpt>
      <trkpt lat="47.25382" lon="-2.2923">
        <ele>42.599998474121</ele>
        <time>2020-01-23T10:30:17.000Z</time>
      </trkpt>
      <trkpt lat="47.2538" lon="-2.29235">
        <ele>42.599998474121</ele>
        <time>2020-01-23T10:30:19.000Z</time>
      </trkpt>
      <trkpt lat="47.25374" lon="-2.29245">
        <ele>42.599998474121</ele>
        <time>2020-01-23T10:30:22.000Z</time>
      </trkpt>
      <trkpt lat="47.25366" lon="-2.29271">
        <ele>42.599998474121</ele>
        <time>2020-01-23T10:30:27.000Z</time>
      </trkpt>
      <trkpt lat="47.2536" lon="-2.29305">
        <ele>42.599998474121</ele>
        <time>2020-01-23T10:30:33.000Z</time>
      </trkpt>
      <trkpt lat="47.25357" lon="-2.29325">
        <ele>42.599998474121</ele>
        <time>2020-01-23T10:30:37.000Z</time>
      </trkpt>
      <trkpt lat="47.25354" lon="-2.29346">
        <ele>42.599998474121</ele>
        <time>2020-01-23T10:30:42.000Z</time>
      </trkpt>
      <trkpt lat="47.2535" lon="-2.29364">
        <ele>42.599998474121</ele>
        <time>2020-01-23T10:30:47.000Z</time>
      </trkpt>
      <trkpt lat="47.25347" lon="-2.29379">
        <ele>42.599998474121</ele>
        <time>2020-01-23T10:30:53.000Z</time>
      </trkpt>
      <trkpt lat="47.25347" lon="-2.29386">
        <ele>42.599998474121</ele>
        <time>2020-01-23T10:30:58.000Z</time>
      </trkpt>
      <trkpt lat="47.25345" lon="-2.29395">
        <ele>42.599998474121</ele>
        <time>2020-01-23T10:31:22.000Z</time>
      </trkpt>
      <trkpt lat="47.25345" lon="-2.29409">
        <ele>42.599998474121</ele>
        <time>2020-01-23T10:31:28.000Z</time>
      </trkpt>
      <trkpt lat="47.25344" lon="-2.29429">
        <ele>42.599998474121</ele>
        <time>2020-01-23T10:31:35.000Z</time>
      </trkpt>
      <trkpt lat="47.25343" lon="-2.29444">
        <ele>42.599998474121</ele>
        <time>2020-01-23T10:31:41.000Z</time>
      </trkpt>
      <trkpt lat="47.25343" lon="-2.29458">
        <ele>42.599998474121</ele>
        <time>2020-01-23T10:31:46.000Z</time>
      </trkpt>
      <trkpt lat="47.25341" lon="-2.29475">
        <ele>42.599998474121</ele>
        <time>2020-01-23T10:31:52.000Z</time>
      </trkpt>
      <trkpt lat="47.25338" lon="-2.2949">
        <ele>42.599998474121</ele>
        <time>2020-01-23T10:31:57.000Z</time>
      </trkpt>
      <trkpt lat="47.25332" lon="-2.29507">
        <ele>42.599998474121</ele>
        <time>2020-01-23T10:32:03.000Z</time>
      </trkpt>
      <trkpt lat="47.25318" lon="-2.29522">
        <ele>42.599998474121</ele>
        <time>2020-01-23T10:32:10.000Z</time>
      </trkpt>
      <trkpt lat="47.25303" lon="-2.29529">
        <ele>42.599998474121</ele>
        <time>2020-01-23T10:32:16.000Z</time>
      </trkpt>
      <trkpt lat="47.25278" lon="-2.29539">
        <ele>42.599998474121</ele>
        <time>2020-01-23T10:32:23.000Z</time>
      </trkpt>
      <trkpt lat="47.25271" lon="-2.29543">
        <ele>42.599998474121</ele>
        <time>2020-01-23T10:32:25.000Z</time>
      </trkpt>
      <trkpt lat="47.25263" lon="-2.2955">
        <ele>42.599998474121</ele>
        <time>2020-01-23T10:32:28.000Z</time>
      </trkpt>
      <trkpt lat="47.25246" lon="-2.29562">
        <ele>42.599998474121</ele>
        <time>2020-01-23T10:32:33.000Z</time>
      </trkpt>
      <trkpt lat="47.25226" lon="-2.29577">
        <ele>42.599998474121</ele>
        <time>2020-01-23T10:32:39.000Z</time>
      </trkpt>
      <trkpt lat="47.25213" lon="-2.29586">
        <ele>42.599998474121</ele>
        <time>2020-01-23T10:32:44.000Z</time>
      </trkpt>
      <trkpt lat="47.25206" lon="-2.29601">
        <ele>42.599998474121</ele>
        <time>2020-01-23T10:32:47.000Z</time>
      </trkpt>
      <trkpt lat="47.25204" lon="-2.29607">
        <ele>42.599998474121</ele>
        <time>2020-01-23T10:32:48.000Z</time>
      </trkpt>
      <trkpt lat="47.252" lon="-2.29618">
        <ele>42.599998474121</ele>
        <time>2020-01-23T10:32:50.000Z</time>
      </trkpt>
      <trkpt lat="47.25191" lon="-2.29633">
        <ele>42.599998474121</ele>
        <time>2020-01-23T10:32:53.000Z</time>
      </trkpt>
      <trkpt lat="47.25188" lon="-2.29652">
        <ele>42.599998474121</ele>
        <time>2020-01-23T10:32:57.000Z</time>
      </trkpt>
      <trkpt lat="47.2519" lon="-2.2968">
        <ele>42.599998474121</ele>
        <time>2020-01-23T10:33:02.000Z</time>
      </trkpt>
      <trkpt lat="47.2519" lon="-2.29686">
        <ele>42.599998474121</ele>
        <time>2020-01-23T10:33:03.000Z</time>
      </trkpt>
      <trkpt lat="47.25192" lon="-2.29726">
        <ele>42.599998474121</ele>
        <time>2020-01-23T10:33:09.000Z</time>
      </trkpt>
      <trkpt lat="47.25191" lon="-2.29743">
        <ele>42</ele>
        <time>2020-01-23T10:33:12.000Z</time>
      </trkpt>
      <trkpt lat="47.25191" lon="-2.29747">
        <ele>41.599998474121</ele>
        <time>2020-01-23T10:33:13.000Z</time>
      </trkpt>
      <trkpt lat="47.2519" lon="-2.2975">
        <ele>41.200000762939</ele>
        <time>2020-01-23T10:33:14.000Z</time>
      </trkpt>
      <trkpt lat="47.25189" lon="-2.29753">
        <ele>40.799999237061</ele>
        <time>2020-01-23T10:33:15.000Z</time>
      </trkpt>
      <trkpt lat="47.25186" lon="-2.29753">
        <ele>40.400001525879</ele>
        <time>2020-01-23T10:33:16.000Z</time>
      </trkpt>
      <trkpt lat="47.25183" lon="-2.29751">
        <ele>40.400001525879</ele>
        <time>2020-01-23T10:33:17.000Z</time>
      </trkpt>
      <trkpt lat="47.25169" lon="-2.29747">
        <ele>40.400001525879</ele>
        <time>2020-01-23T10:33:21.000Z</time>
      </trkpt>
      <trkpt lat="47.25141" lon="-2.29734">
        <ele>40.400001525879</ele>
        <time>2020-01-23T10:33:27.000Z</time>
      </trkpt>
      <trkpt lat="47.25109" lon="-2.29721">
        <ele>40.400001525879</ele>
        <time>2020-01-23T10:33:33.000Z</time>
      </trkpt>
      <trkpt lat="47.25072" lon="-2.29713">
        <ele>40.400001525879</ele>
        <time>2020-01-23T10:33:40.000Z</time>
      </trkpt>
      <trkpt lat="47.25067" lon="-2.29714">
        <ele>40.400001525879</ele>
        <time>2020-01-23T10:33:41.000Z</time>
      </trkpt>
      <trkpt lat="47.25045" lon="-2.29716">
        <ele>40.799999237061</ele>
        <time>2020-01-23T10:33:45.000Z</time>
      </trkpt>
      <trkpt lat="47.25039" lon="-2.29718">
        <ele>41.400001525879</ele>
        <time>2020-01-23T10:33:46.000Z</time>
      </trkpt>
      <trkpt lat="47.25034" lon="-2.29719">
        <ele>41.799999237061</ele>
        <time>2020-01-23T10:33:47.000Z</time>
      </trkpt>
      <trkpt lat="47.25028" lon="-2.2972">
        <ele>42.200000762939</ele>
        <time>2020-01-23T10:33:48.000Z</time>
      </trkpt>
      <trkpt lat="47.25023" lon="-2.29722">
        <ele>42.599998474121</ele>
        <time>2020-01-23T10:33:49.000Z</time>
      </trkpt>
      <trkpt lat="47.24984" lon="-2.29731">
        <ele>42.599998474121</ele>
        <time>2020-01-23T10:33:56.000Z</time>
      </trkpt>
      <trkpt lat="47.24944" lon="-2.29744">
        <ele>42.599998474121</ele>
        <time>2020-01-23T10:34:03.000Z</time>
      </trkpt>
      <trkpt lat="47.24899" lon="-2.29762">
        <ele>42.599998474121</ele>
        <time>2020-01-23T10:34:11.000Z</time>
      </trkpt>
      <trkpt lat="47.24878" lon="-2.29777">
        <ele>42.599998474121</ele>
        <time>2020-01-23T10:34:15.000Z</time>
      </trkpt>
      <trkpt lat="47.24873" lon="-2.29784">
        <ele>42.599998474121</ele>
        <time>2020-01-23T10:34:16.000Z</time>
      </trkpt>
      <trkpt lat="47.24866" lon="-2.29808">
        <ele>42.599998474121</ele>
        <time>2020-01-23T10:34:19.000Z</time>
      </trkpt>
      <trkpt lat="47.24864" lon="-2.29816">
        <ele>42.599998474121</ele>
        <time>2020-01-23T10:34:20.000Z</time>
      </trkpt>
      <trkpt lat="47.24863" lon="-2.29823">
        <ele>42.599998474121</ele>
        <time>2020-01-23T10:34:21.000Z</time>
      </trkpt>
      <trkpt lat="47.24855" lon="-2.29835">
        <ele>42.599998474121</ele>
        <time>2020-01-23T10:34:23.000Z</time>
      </trkpt>
      <trkpt lat="47.24838" lon="-2.29844">
        <ele>42.599998474121</ele>
        <time>2020-01-23T10:34:26.000Z</time>
      </trkpt>
      <trkpt lat="47.24826" lon="-2.29847">
        <ele>42.599998474121</ele>
        <time>2020-01-23T10:34:28.000Z</time>
      </trkpt>
      <trkpt lat="47.24812" lon="-2.29851">
        <ele>42.599998474121</ele>
        <time>2020-01-23T10:34:30.000Z</time>
      </trkpt>
      <trkpt lat="47.24798" lon="-2.29857">
        <ele>42.599998474121</ele>
        <time>2020-01-23T10:34:32.000Z</time>
      </trkpt>
      <trkpt lat="47.24779" lon="-2.2987">
        <ele>42.599998474121</ele>
        <time>2020-01-23T10:34:35.000Z</time>
      </trkpt>
      <trkpt lat="47.24751" lon="-2.29895">
        <ele>42.599998474121</ele>
        <time>2020-01-23T10:34:40.000Z</time>
      </trkpt>
      <trkpt lat="47.24747" lon="-2.29921">
        <ele>42.599998474121</ele>
        <time>2020-01-23T10:34:43.000Z</time>
      </trkpt>
      <trkpt lat="47.24746" lon="-2.2993">
        <ele>42.599998474121</ele>
        <time>2020-01-23T10:34:44.000Z</time>
      </trkpt>
      <trkpt lat="47.2474" lon="-2.29987">
        <ele>42.599998474121</ele>
        <time>2020-01-23T10:34:50.000Z</time>
      </trkpt>
      <trkpt lat="47.24723" lon="-2.30018">
        <ele>42.599998474121</ele>
        <time>2020-01-23T10:34:54.000Z</time>
      </trkpt>
      <trkpt lat="47.24712" lon="-2.3003">
        <ele>42.599998474121</ele>
        <time>2020-01-23T10:34:56.000Z</time>
      </trkpt>
      <trkpt lat="47.24706" lon="-2.30037">
        <ele>42.200000762939</ele>
        <time>2020-01-23T10:34:57.000Z</time>
      </trkpt>
      <trkpt lat="47.24701" lon="-2.30042">
        <ele>41.799999237061</ele>
        <time>2020-01-23T10:34:58.000Z</time>
      </trkpt>
      <trkpt lat="47.24695" lon="-2.30047">
        <ele>41.400001525879</ele>
        <time>2020-01-23T10:34:59.000Z</time>
      </trkpt>
      <trkpt lat="47.24689" lon="-2.30051">
        <ele>41</ele>
        <time>2020-01-23T10:35:00.000Z</time>
      </trkpt>
      <trkpt lat="47.24683" lon="-2.30056">
        <ele>40.599998474121</ele>
        <time>2020-01-23T10:35:01.000Z</time>
      </trkpt>
      <trkpt lat="47.24657" lon="-2.30076">
        <ele>40.599998474121</ele>
        <time>2020-01-23T10:35:06.000Z</time>
      </trkpt>
      <trkpt lat="47.2465" lon="-2.30085">
        <ele>40.200000762939</ele>
        <time>2020-01-23T10:35:09.000Z</time>
      </trkpt>
      <trkpt lat="47.24648" lon="-2.30088">
        <ele>39.799999237061</ele>
        <time>2020-01-23T10:35:10.000Z</time>
      </trkpt>
      <trkpt lat="47.24646" lon="-2.3009">
        <ele>39.400001525879</ele>
        <time>2020-01-23T10:35:11.000Z</time>
      </trkpt>
      <trkpt lat="47.24643" lon="-2.30094">
        <ele>38.799999237061</ele>
        <time>2020-01-23T10:35:12.000Z</time>
      </trkpt>
      <trkpt lat="47.24639" lon="-2.30096">
        <ele>38.400001525879</ele>
        <time>2020-01-23T10:35:13.000Z</time>
      </trkpt>
      <trkpt lat="47.24618" lon="-2.30115">
        <ele>38.400001525879</ele>
        <time>2020-01-23T10:35:17.000Z</time>
      </trkpt>
      <trkpt lat="47.2459" lon="-2.30146">
        <ele>38.400001525879</ele>
        <time>2020-01-23T10:35:22.000Z</time>
      </trkpt>
      <trkpt lat="47.24585" lon="-2.30154">
        <ele>38.400001525879</ele>
        <time>2020-01-23T10:35:23.000Z</time>
      </trkpt>
      <trkpt lat="47.24555" lon="-2.30197">
        <ele>38.400001525879</ele>
        <time>2020-01-23T10:35:29.000Z</time>
      </trkpt>
      <trkpt lat="47.24509" lon="-2.30246">
        <ele>38.400001525879</ele>
        <time>2020-01-23T10:35:38.000Z</time>
      </trkpt>
      <trkpt lat="47.24503" lon="-2.30249">
        <ele>38.400001525879</ele>
        <time>2020-01-23T10:35:39.000Z</time>
      </trkpt>
      <trkpt lat="47.24493" lon="-2.30251">
        <ele>38</ele>
        <time>2020-01-23T10:35:41.000Z</time>
      </trkpt>
      <trkpt lat="47.24487" lon="-2.30246">
        <ele>37.599998474121</ele>
        <time>2020-01-23T10:35:42.000Z</time>
      </trkpt>
      <trkpt lat="47.24483" lon="-2.3024">
        <ele>37.200000762939</ele>
        <time>2020-01-23T10:35:43.000Z</time>
      </trkpt>
      <trkpt lat="47.2448" lon="-2.30232">
        <ele>36.799999237061</ele>
        <time>2020-01-23T10:35:44.000Z</time>
      </trkpt>
      <trkpt lat="47.24477" lon="-2.30225">
        <ele>36.400001525879</ele>
        <time>2020-01-23T10:35:45.000Z</time>
      </trkpt>
      <trkpt lat="47.24474" lon="-2.30218">
        <ele>36.400001525879</ele>
        <time>2020-01-23T10:35:46.000Z</time>
      </trkpt>
      <trkpt lat="47.24464" lon="-2.30199">
        <ele>36.400001525879</ele>
        <time>2020-01-23T10:35:49.000Z</time>
      </trkpt>
      <trkpt lat="47.24455" lon="-2.30191">
        <ele>36.400001525879</ele>
        <time>2020-01-23T10:35:51.000Z</time>
      </trkpt>
      <trkpt lat="47.24447" lon="-2.30182">
        <ele>36.400001525879</ele>
        <time>2020-01-23T10:35:53.000Z</time>
      </trkpt>
      <trkpt lat="47.24441" lon="-2.30169">
        <ele>36.400001525879</ele>
        <time>2020-01-23T10:35:55.000Z</time>
      </trkpt>
      <trkpt lat="47.24438" lon="-2.30163">
        <ele>36.799999237061</ele>
        <time>2020-01-23T10:35:56.000Z</time>
      </trkpt>
      <trkpt lat="47.24434" lon="-2.30158">
        <ele>37.200000762939</ele>
        <time>2020-01-23T10:35:57.000Z</time>
      </trkpt>
      <trkpt lat="47.24431" lon="-2.30155">
        <ele>37.599998474121</ele>
        <time>2020-01-23T10:35:58.000Z</time>
      </trkpt>
      <trkpt lat="47.24426" lon="-2.30152">
        <ele>38</ele>
        <time>2020-01-23T10:35:59.000Z</time>
      </trkpt>
      <trkpt lat="47.24422" lon="-2.3015">
        <ele>38.400001525879</ele>
        <time>2020-01-23T10:36:00.000Z</time>
      </trkpt>
      <trkpt lat="47.24417" lon="-2.30148">
        <ele>38.400001525879</ele>
        <time>2020-01-23T10:36:01.000Z</time>
      </trkpt>
      <trkpt lat="47.24408" lon="-2.3014">
        <ele>38.400001525879</ele>
        <time>2020-01-23T10:36:03.000Z</time>
      </trkpt>
      <trkpt lat="47.24401" lon="-2.30127">
        <ele>38.400001525879</ele>
        <time>2020-01-23T10:36:05.000Z</time>
      </trkpt>
      <trkpt lat="47.24383" lon="-2.30091">
        <ele>38.400001525879</ele>
        <time>2020-01-23T10:36:11.000Z</time>
      </trkpt>
      <trkpt lat="47.24377" lon="-2.30089">
        <ele>38.400001525879</ele>
        <time>2020-01-23T10:36:12.000Z</time>
      </trkpt>
      <trkpt lat="47.24363" lon="-2.30098">
        <ele>38.400001525879</ele>
        <time>2020-01-23T10:36:15.000Z</time>
      </trkpt>
      <trkpt lat="47.24351" lon="-2.30111">
        <ele>38.400001525879</ele>
        <time>2020-01-23T10:36:18.000Z</time>
      </trkpt>
      <trkpt lat="47.24338" lon="-2.30125">
        <ele>38</ele>
        <time>2020-01-23T10:36:21.000Z</time>
      </trkpt>
      <trkpt lat="47.24335" lon="-2.30128">
        <ele>37.599998474121</ele>
        <time>2020-01-23T10:36:22.000Z</time>
      </trkpt>
      <trkpt lat="47.24331" lon="-2.30131">
        <ele>37.200000762939</ele>
        <time>2020-01-23T10:36:23.000Z</time>
      </trkpt>
      <trkpt lat="47.24327" lon="-2.30132">
        <ele>36.799999237061</ele>
        <time>2020-01-23T10:36:24.000Z</time>
      </trkpt>
      <trkpt lat="47.24324" lon="-2.30131">
        <ele>36.400001525879</ele>
        <time>2020-01-23T10:36:25.000Z</time>
      </trkpt>
      <trkpt lat="47.2431" lon="-2.30123">
        <ele>36.400001525879</ele>
        <time>2020-01-23T10:36:28.000Z</time>
      </trkpt>
      <trkpt lat="47.24295" lon="-2.3012">
        <ele>36.400001525879</ele>
        <time>2020-01-23T10:36:31.000Z</time>
      </trkpt>
      <trkpt lat="47.2429" lon="-2.30122">
        <ele>36.400001525879</ele>
        <time>2020-01-23T10:36:32.000Z</time>
      </trkpt>
      <trkpt lat="47.24277" lon="-2.30134">
        <ele>36.400001525879</ele>
        <time>2020-01-23T10:36:35.000Z</time>
      </trkpt>
      <trkpt lat="47.24272" lon="-2.30138">
        <ele>36.400001525879</ele>
        <time>2020-01-23T10:36:36.000Z</time>
      </trkpt>
      <trkpt lat="47.24256" lon="-2.3016">
        <ele>36.400001525879</ele>
        <time>2020-01-23T10:36:40.000Z</time>
      </trkpt>
      <trkpt lat="47.24251" lon="-2.30166">
        <ele>36</ele>
        <time>2020-01-23T10:36:41.000Z</time>
      </trkpt>
      <trkpt lat="47.24248" lon="-2.30174">
        <ele>35.599998474121</ele>
        <time>2020-01-23T10:36:42.000Z</time>
      </trkpt>
      <trkpt lat="47.24243" lon="-2.30182">
        <ele>34.599998474121</ele>
        <time>2020-01-23T10:36:43.000Z</time>
      </trkpt>
      <trkpt lat="47.2424" lon="-2.3019">
        <ele>34.200000762939</ele>
        <time>2020-01-23T10:36:44.000Z</time>
      </trkpt>
      <trkpt lat="47.24233" lon="-2.30206">
        <ele>33.799999237061</ele>
        <time>2020-01-23T10:36:46.000Z</time>
      </trkpt>
      <trkpt lat="47.2423" lon="-2.30214">
        <ele>33.400001525879</ele>
        <time>2020-01-23T10:36:47.000Z</time>
      </trkpt>
      <trkpt lat="47.24226" lon="-2.30219">
        <ele>32.799999237061</ele>
        <time>2020-01-23T10:36:48.000Z</time>
      </trkpt>
      <trkpt lat="47.24219" lon="-2.30222">
        <ele>32.400001525879</ele>
        <time>2020-01-23T10:36:49.000Z</time>
      </trkpt>
      <trkpt lat="47.24214" lon="-2.30225">
        <ele>32</ele>
        <time>2020-01-23T10:36:50.000Z</time>
      </trkpt>
      <trkpt lat="47.24205" lon="-2.30229">
        <ele>31.60000038147</ele>
        <time>2020-01-23T10:36:52.000Z</time>
      </trkpt>
      <trkpt lat="47.24202" lon="-2.30231">
        <ele>31.200000762939</ele>
        <time>2020-01-23T10:36:53.000Z</time>
      </trkpt>
      <trkpt lat="47.24199" lon="-2.30232">
        <ele>30.799999237061</ele>
        <time>2020-01-23T10:36:54.000Z</time>
      </trkpt>
      <trkpt lat="47.24197" lon="-2.30233">
        <ele>30.200000762939</ele>
        <time>2020-01-23T10:36:55.000Z</time>
      </trkpt>
      <trkpt lat="47.24195" lon="-2.30234">
        <ele>29.799999237061</ele>
        <time>2020-01-23T10:36:56.000Z</time>
      </trkpt>
      <trkpt lat="47.24193" lon="-2.30236">
        <ele>29.200000762939</ele>
        <time>2020-01-23T10:36:57.000Z</time>
      </trkpt>
      <trkpt lat="47.24193" lon="-2.30239">
        <ele>28.799999237061</ele>
        <time>2020-01-23T10:36:58.000Z</time>
      </trkpt>
      <trkpt lat="47.24194" lon="-2.30243">
        <ele>28.200000762939</ele>
        <time>2020-01-23T10:36:59.000Z</time>
      </trkpt>
      <trkpt lat="47.24194" lon="-2.30248">
        <ele>27.799999237061</ele>
        <time>2020-01-23T10:37:00.000Z</time>
      </trkpt>
      <trkpt lat="47.24195" lon="-2.30268">
        <ele>27.799999237061</ele>
        <time>2020-01-23T10:37:03.000Z</time>
      </trkpt>
      <trkpt lat="47.24197" lon="-2.30283">
        <ele>27.799999237061</ele>
        <time>2020-01-23T10:37:05.000Z</time>
      </trkpt>
      <trkpt lat="47.24199" lon="-2.30303">
        <ele>27.799999237061</ele>
        <time>2020-01-23T10:37:08.000Z</time>
      </trkpt>
      <trkpt lat="47.24203" lon="-2.30323">
        <ele>27.799999237061</ele>
        <time>2020-01-23T10:37:11.000Z</time>
      </trkpt>
      <trkpt lat="47.24208" lon="-2.3033">
        <ele>27.799999237061</ele>
        <time>2020-01-23T10:37:13.000Z</time>
      </trkpt>
      <trkpt lat="47.24215" lon="-2.30329">
        <ele>27.799999237061</ele>
        <time>2020-01-23T10:37:15.000Z</time>
      </trkpt>
      <trkpt lat="47.24221" lon="-2.30326">
        <ele>28.200000762939</ele>
        <time>2020-01-23T10:37:17.000Z</time>
      </trkpt>
      <trkpt lat="47.24224" lon="-2.30326">
        <ele>28.60000038147</ele>
        <time>2020-01-23T10:37:18.000Z</time>
      </trkpt>
      <trkpt lat="47.24226" lon="-2.30326">
        <ele>29.200000762939</ele>
        <time>2020-01-23T10:37:19.000Z</time>
      </trkpt>
      <trkpt lat="47.24228" lon="-2.30324">
        <ele>29.60000038147</ele>
        <time>2020-01-23T10:37:20.000Z</time>
      </trkpt>
      <trkpt lat="47.2423" lon="-2.30324">
        <ele>30</ele>
        <time>2020-01-23T10:37:21.000Z</time>
      </trkpt>
      <trkpt lat="47.24233" lon="-2.30324">
        <ele>30.60000038147</ele>
        <time>2020-01-23T10:37:22.000Z</time>
      </trkpt>
      <trkpt lat="47.24235" lon="-2.30325">
        <ele>31</ele>
        <time>2020-01-23T10:37:23.000Z</time>
      </trkpt>
      <trkpt lat="47.24238" lon="-2.30327">
        <ele>31.39999961853</ele>
        <time>2020-01-23T10:37:24.000Z</time>
      </trkpt>
      <trkpt lat="47.24241" lon="-2.30331">
        <ele>32</ele>
        <time>2020-01-23T10:37:25.000Z</time>
      </trkpt>
      <trkpt lat="47.24243" lon="-2.30336">
        <ele>32.400001525879</ele>
        <time>2020-01-23T10:37:26.000Z</time>
      </trkpt>
      <trkpt lat="47.24247" lon="-2.30344">
        <ele>32.400001525879</ele>
        <time>2020-01-23T10:37:28.000Z</time>
      </trkpt>
      <trkpt lat="47.24259" lon="-2.30368">
        <ele>32.799999237061</ele>
        <time>2020-01-23T10:37:33.000Z</time>
      </trkpt>
      <trkpt lat="47.24262" lon="-2.30373">
        <ele>33.200000762939</ele>
        <time>2020-01-23T10:37:34.000Z</time>
      </trkpt>
      <trkpt lat="47.24265" lon="-2.30378">
        <ele>33.599998474121</ele>
        <time>2020-01-23T10:37:35.000Z</time>
      </trkpt>
      <trkpt lat="47.24268" lon="-2.30383">
        <ele>34</ele>
        <time>2020-01-23T10:37:36.000Z</time>
      </trkpt>
      <trkpt lat="47.24271" lon="-2.30388">
        <ele>34.400001525879</ele>
        <time>2020-01-23T10:37:37.000Z</time>
      </trkpt>
      <trkpt lat="47.24282" lon="-2.30406">
        <ele>34.400001525879</ele>
        <time>2020-01-23T10:37:41.000Z</time>
      </trkpt>
      <trkpt lat="47.24287" lon="-2.3041">
        <ele>34.400001525879</ele>
        <time>2020-01-23T10:37:42.000Z</time>
      </trkpt>
      <trkpt lat="47.24293" lon="-2.30416">
        <ele>34.400001525879</ele>
        <time>2020-01-23T10:37:44.000Z</time>
      </trkpt>
      <trkpt lat="47.24303" lon="-2.30421">
        <ele>34.400001525879</ele>
        <time>2020-01-23T10:37:47.000Z</time>
      </trkpt>
      <trkpt lat="47.24311" lon="-2.30429">
        <ele>34.400001525879</ele>
        <time>2020-01-23T10:37:49.000Z</time>
      </trkpt>
      <trkpt lat="47.24331" lon="-2.30441">
        <ele>34.400001525879</ele>
        <time>2020-01-23T10:37:53.000Z</time>
      </trkpt>
      <trkpt lat="47.24336" lon="-2.30444">
        <ele>34.400001525879</ele>
        <time>2020-01-23T10:37:54.000Z</time>
      </trkpt>
      <trkpt lat="47.2434" lon="-2.30446">
        <ele>34</ele>
        <time>2020-01-23T10:37:55.000Z</time>
      </trkpt>
      <trkpt lat="47.24345" lon="-2.30448">
        <ele>33.200000762939</ele>
        <time>2020-01-23T10:37:56.000Z</time>
      </trkpt>
      <trkpt lat="47.24351" lon="-2.30448">
        <ele>32.799999237061</ele>
        <time>2020-01-23T10:37:57.000Z</time>
      </trkpt>
      <trkpt lat="47.24357" lon="-2.30447">
        <ele>32.400001525879</ele>
        <time>2020-01-23T10:37:58.000Z</time>
      </trkpt>
      <trkpt lat="47.24367" lon="-2.30445">
        <ele>32.400001525879</ele>
        <time>2020-01-23T10:38:00.000Z</time>
      </trkpt>
      <trkpt lat="47.24371" lon="-2.30447">
        <ele>32.400001525879</ele>
        <time>2020-01-23T10:38:01.000Z</time>
      </trkpt>
      <trkpt lat="47.24376" lon="-2.30461">
        <ele>32</ele>
        <time>2020-01-23T10:38:04.000Z</time>
      </trkpt>
      <trkpt lat="47.24375" lon="-2.3047">
        <ele>31.60000038147</ele>
        <time>2020-01-23T10:38:05.000Z</time>
      </trkpt>
      <trkpt lat="47.24375" lon="-2.30477">
        <ele>31.200000762939</ele>
        <time>2020-01-23T10:38:06.000Z</time>
      </trkpt>
      <trkpt lat="47.24374" lon="-2.30483">
        <ele>30.799999237061</ele>
        <time>2020-01-23T10:38:07.000Z</time>
      </trkpt>
      <trkpt lat="47.24373" lon="-2.30489">
        <ele>30.39999961853</ele>
        <time>2020-01-23T10:38:08.000Z</time>
      </trkpt>
      <trkpt lat="47.24369" lon="-2.30501">
        <ele>30.39999961853</ele>
        <time>2020-01-23T10:38:10.000Z</time>
      </trkpt>
      <trkpt lat="47.24367" lon="-2.30506">
        <ele>30.39999961853</ele>
        <time>2020-01-23T10:38:11.000Z</time>
      </trkpt>
      <trkpt lat="47.24367" lon="-2.30515">
        <ele>30</ele>
        <time>2020-01-23T10:38:12.000Z</time>
      </trkpt>
      <trkpt lat="47.24367" lon="-2.30522">
        <ele>29.39999961853</ele>
        <time>2020-01-23T10:38:13.000Z</time>
      </trkpt>
      <trkpt lat="47.24368" lon="-2.3053">
        <ele>29</ele>
        <time>2020-01-23T10:38:14.000Z</time>
      </trkpt>
      <trkpt lat="47.24369" lon="-2.30538">
        <ele>28.60000038147</ele>
        <time>2020-01-23T10:38:15.000Z</time>
      </trkpt>
      <trkpt lat="47.24371" lon="-2.30545">
        <ele>28</ele>
        <time>2020-01-23T10:38:16.000Z</time>
      </trkpt>
      <trkpt lat="47.24373" lon="-2.30551">
        <ele>27.60000038147</ele>
        <time>2020-01-23T10:38:17.000Z</time>
      </trkpt>
      <trkpt lat="47.24376" lon="-2.30557">
        <ele>27.200000762939</ele>
        <time>2020-01-23T10:38:18.000Z</time>
      </trkpt>
      <trkpt lat="47.2438" lon="-2.30561">
        <ele>26.799999237061</ele>
        <time>2020-01-23T10:38:19.000Z</time>
      </trkpt>
      <trkpt lat="47.24384" lon="-2.30565">
        <ele>25.799999237061</ele>
        <time>2020-01-23T10:38:20.000Z</time>
      </trkpt>
      <trkpt lat="47.24389" lon="-2.30568">
        <ele>25.799999237061</ele>
        <time>2020-01-23T10:38:21.000Z</time>
      </trkpt>
      <trkpt lat="47.24395" lon="-2.30572">
        <ele>25.799999237061</ele>
        <time>2020-01-23T10:38:22.000Z</time>
      </trkpt>
      <trkpt lat="47.244" lon="-2.30574">
        <ele>25.799999237061</ele>
        <time>2020-01-23T10:38:23.000Z</time>
      </trkpt>
      <trkpt lat="47.24417" lon="-2.30576">
        <ele>25.799999237061</ele>
        <time>2020-01-23T10:38:26.000Z</time>
      </trkpt>
      <trkpt lat="47.24428" lon="-2.30573">
        <ele>25.799999237061</ele>
        <time>2020-01-23T10:38:28.000Z</time>
      </trkpt>
      <trkpt lat="47.24438" lon="-2.30569">
        <ele>25.799999237061</ele>
        <time>2020-01-23T10:38:30.000Z</time>
      </trkpt>
      <trkpt lat="47.24447" lon="-2.30563">
        <ele>25.799999237061</ele>
        <time>2020-01-23T10:38:32.000Z</time>
      </trkpt>
      <trkpt lat="47.24462" lon="-2.30548">
        <ele>25.799999237061</ele>
        <time>2020-01-23T10:38:37.000Z</time>
      </trkpt>
      <trkpt lat="47.24466" lon="-2.30554">
        <ele>26.200000762939</ele>
        <time>2020-01-23T10:38:40.000Z</time>
      </trkpt>
      <trkpt lat="47.24466" lon="-2.30558">
        <ele>26.60000038147</ele>
        <time>2020-01-23T10:38:41.000Z</time>
      </trkpt>
      <trkpt lat="47.24465" lon="-2.30563">
        <ele>27</ele>
        <time>2020-01-23T10:38:42.000Z</time>
      </trkpt>
      <trkpt lat="47.24464" lon="-2.30567">
        <ele>27.60000038147</ele>
        <time>2020-01-23T10:38:43.000Z</time>
      </trkpt>
      <trkpt lat="47.24462" lon="-2.30571">
        <ele>28</ele>
        <time>2020-01-23T10:38:44.000Z</time>
      </trkpt>
      <trkpt lat="47.2446" lon="-2.30575">
        <ele>28</ele>
        <time>2020-01-23T10:38:45.000Z</time>
      </trkpt>
      <trkpt lat="47.24455" lon="-2.30594">
        <ele>28.39999961853</ele>
        <time>2020-01-23T10:38:50.000Z</time>
      </trkpt>
      <trkpt lat="47.24453" lon="-2.30597">
        <ele>28.799999237061</ele>
        <time>2020-01-23T10:38:51.000Z</time>
      </trkpt>
      <trkpt lat="47.24451" lon="-2.30599">
        <ele>29.200000762939</ele>
        <time>2020-01-23T10:38:52.000Z</time>
      </trkpt>
      <trkpt lat="47.24448" lon="-2.30603">
        <ele>29.60000038147</ele>
        <time>2020-01-23T10:38:53.000Z</time>
      </trkpt>
      <trkpt lat="47.24444" lon="-2.30606">
        <ele>30</ele>
        <time>2020-01-23T10:38:54.000Z</time>
      </trkpt>
      <trkpt lat="47.2444" lon="-2.3061">
        <ele>30</ele>
        <time>2020-01-23T10:38:55.000Z</time>
      </trkpt>
      <trkpt lat="47.24424" lon="-2.30627">
        <ele>30</ele>
        <time>2020-01-23T10:38:59.000Z</time>
      </trkpt>
      <trkpt lat="47.24422" lon="-2.30633">
        <ele>30</ele>
        <time>2020-01-23T10:39:00.000Z</time>
      </trkpt>
      <trkpt lat="47.24419" lon="-2.30644">
        <ele>30.39999961853</ele>
        <time>2020-01-23T10:39:02.000Z</time>
      </trkpt>
      <trkpt lat="47.24419" lon="-2.30649">
        <ele>30.799999237061</ele>
        <time>2020-01-23T10:39:03.000Z</time>
      </trkpt>
      <trkpt lat="47.24419" lon="-2.30655">
        <ele>31.200000762939</ele>
        <time>2020-01-23T10:39:04.000Z</time>
      </trkpt>
      <trkpt lat="47.24419" lon="-2.30662">
        <ele>31.60000038147</ele>
        <time>2020-01-23T10:39:05.000Z</time>
      </trkpt>
      <trkpt lat="47.24418" lon="-2.3067">
        <ele>32</ele>
        <time>2020-01-23T10:39:06.000Z</time>
      </trkpt>
      <trkpt lat="47.24417" lon="-2.30678">
        <ele>32</ele>
        <time>2020-01-23T10:39:07.000Z</time>
      </trkpt>
      <trkpt lat="47.24415" lon="-2.30685">
        <ele>32</ele>
        <time>2020-01-23T10:39:08.000Z</time>
      </trkpt>
      <trkpt lat="47.24411" lon="-2.30711">
        <ele>32</ele>
        <time>2020-01-23T10:39:12.000Z</time>
      </trkpt>
      <trkpt lat="47.24411" lon="-2.30718">
        <ele>32</ele>
        <time>2020-01-23T10:39:13.000Z</time>
      </trkpt>
      <trkpt lat="47.24409" lon="-2.30726">
        <ele>32</ele>
        <time>2020-01-23T10:39:14.000Z</time>
      </trkpt>
      <trkpt lat="47.24403" lon="-2.3074">
        <ele>32</ele>
        <time>2020-01-23T10:39:16.000Z</time>
      </trkpt>
      <trkpt lat="47.2439" lon="-2.30758">
        <ele>32</ele>
        <time>2020-01-23T10:39:19.000Z</time>
      </trkpt>
      <trkpt lat="47.24384" lon="-2.30767">
        <ele>32</ele>
        <time>2020-01-23T10:39:20.000Z</time>
      </trkpt>
      <trkpt lat="47.24372" lon="-2.30782">
        <ele>32</ele>
        <time>2020-01-23T10:39:22.000Z</time>
      </trkpt>
      <trkpt lat="47.24356" lon="-2.30791">
        <ele>32</ele>
        <time>2020-01-23T10:39:24.000Z</time>
      </trkpt>
      <trkpt lat="47.24326" lon="-2.30801">
        <ele>31.60000038147</ele>
        <time>2020-01-23T10:39:28.000Z</time>
      </trkpt>
      <trkpt lat="47.24318" lon="-2.30805">
        <ele>31.200000762939</ele>
        <time>2020-01-23T10:39:29.000Z</time>
      </trkpt>
      <trkpt lat="47.24312" lon="-2.3081">
        <ele>30.799999237061</ele>
        <time>2020-01-23T10:39:30.000Z</time>
      </trkpt>
      <trkpt lat="47.24305" lon="-2.30817">
        <ele>30.39999961853</ele>
        <time>2020-01-23T10:39:31.000Z</time>
      </trkpt>
      <trkpt lat="47.243" lon="-2.30825">
        <ele>30</ele>
        <time>2020-01-23T10:39:32.000Z</time>
      </trkpt>
      <trkpt lat="47.24295" lon="-2.30834">
        <ele>30</ele>
        <time>2020-01-23T10:39:33.000Z</time>
      </trkpt>
      <trkpt lat="47.24291" lon="-2.30844">
        <ele>29.39999961853</ele>
        <time>2020-01-23T10:39:34.000Z</time>
      </trkpt>
      <trkpt lat="47.24289" lon="-2.30854">
        <ele>29</ele>
        <time>2020-01-23T10:39:35.000Z</time>
      </trkpt>
      <trkpt lat="47.24287" lon="-2.30864">
        <ele>28.60000038147</ele>
        <time>2020-01-23T10:39:36.000Z</time>
      </trkpt>
      <trkpt lat="47.24288" lon="-2.30875">
        <ele>28.200000762939</ele>
        <time>2020-01-23T10:39:37.000Z</time>
      </trkpt>
      <trkpt lat="47.24289" lon="-2.30886">
        <ele>27.799999237061</ele>
        <time>2020-01-23T10:39:38.000Z</time>
      </trkpt>
      <trkpt lat="47.2429" lon="-2.30897">
        <ele>27.799999237061</ele>
        <time>2020-01-23T10:39:39.000Z</time>
      </trkpt>
      <trkpt lat="47.24294" lon="-2.3093">
        <ele>27.799999237061</ele>
        <time>2020-01-23T10:39:42.000Z</time>
      </trkpt>
      <trkpt lat="47.24295" lon="-2.30941">
        <ele>27.799999237061</ele>
        <time>2020-01-23T10:39:43.000Z</time>
      </trkpt>
      <trkpt lat="47.24294" lon="-2.30952">
        <ele>27.799999237061</ele>
        <time>2020-01-23T10:39:44.000Z</time>
      </trkpt>
      <trkpt lat="47.24293" lon="-2.30965">
        <ele>27.39999961853</ele>
        <time>2020-01-23T10:39:45.000Z</time>
      </trkpt>
      <trkpt lat="47.2429" lon="-2.30978">
        <ele>26.799999237061</ele>
        <time>2020-01-23T10:39:46.000Z</time>
      </trkpt>
      <trkpt lat="47.24288" lon="-2.30991">
        <ele>26.200000762939</ele>
        <time>2020-01-23T10:39:47.000Z</time>
      </trkpt>
      <trkpt lat="47.24285" lon="-2.31003">
        <ele>25.799999237061</ele>
        <time>2020-01-23T10:39:48.000Z</time>
      </trkpt>
      <trkpt lat="47.24284" lon="-2.31013">
        <ele>25.200000762939</ele>
        <time>2020-01-23T10:39:49.000Z</time>
      </trkpt>
      <trkpt lat="47.24282" lon="-2.31021">
        <ele>24.60000038147</ele>
        <time>2020-01-23T10:39:50.000Z</time>
      </trkpt>
      <trkpt lat="47.24282" lon="-2.31027">
        <ele>23.799999237061</ele>
        <time>2020-01-23T10:39:51.000Z</time>
      </trkpt>
      <trkpt lat="47.24283" lon="-2.31032">
        <ele>23.200000762939</ele>
        <time>2020-01-23T10:39:52.000Z</time>
      </trkpt>
      <trkpt lat="47.24285" lon="-2.31034">
        <ele>22.39999961853</ele>
        <time>2020-01-23T10:39:53.000Z</time>
      </trkpt>
      <trkpt lat="47.24289" lon="-2.31034">
        <ele>21.60000038147</ele>
        <time>2020-01-23T10:39:54.000Z</time>
      </trkpt>
      <trkpt lat="47.24294" lon="-2.31034">
        <ele>20.799999237061</ele>
        <time>2020-01-23T10:39:55.000Z</time>
      </trkpt>
      <trkpt lat="47.24303" lon="-2.31035">
        <ele>20.799999237061</ele>
        <time>2020-01-23T10:39:57.000Z</time>
      </trkpt>
      <trkpt lat="47.24321" lon="-2.31038">
        <ele>20.799999237061</ele>
        <time>2020-01-23T10:40:01.000Z</time>
      </trkpt>
      <trkpt lat="47.24329" lon="-2.31042">
        <ele>20.799999237061</ele>
        <time>2020-01-23T10:40:03.000Z</time>
      </trkpt>
      <trkpt lat="47.24335" lon="-2.31052">
        <ele>20.799999237061</ele>
        <time>2020-01-23T10:40:05.000Z</time>
      </trkpt>
      <trkpt lat="47.24338" lon="-2.31058">
        <ele>20.799999237061</ele>
        <time>2020-01-23T10:40:06.000Z</time>
      </trkpt>
      <trkpt lat="47.24341" lon="-2.31065">
        <ele>21.200000762939</ele>
        <time>2020-01-23T10:40:07.000Z</time>
      </trkpt>
      <trkpt lat="47.24343" lon="-2.31072">
        <ele>21.60000038147</ele>
        <time>2020-01-23T10:40:08.000Z</time>
      </trkpt>
      <trkpt lat="47.24345" lon="-2.31079">
        <ele>22.200000762939</ele>
        <time>2020-01-23T10:40:09.000Z</time>
      </trkpt>
      <trkpt lat="47.24348" lon="-2.31086">
        <ele>22.60000038147</ele>
        <time>2020-01-23T10:40:10.000Z</time>
      </trkpt>
      <trkpt lat="47.2435" lon="-2.31093">
        <ele>23</ele>
        <time>2020-01-23T10:40:11.000Z</time>
      </trkpt>
      <trkpt lat="47.24351" lon="-2.31097">
        <ele>23</ele>
        <time>2020-01-23T10:40:12.000Z</time>
      </trkpt>
      <trkpt lat="47.24353" lon="-2.31108">
        <ele>23</ele>
        <time>2020-01-23T10:40:14.000Z</time>
      </trkpt>
      <trkpt lat="47.24358" lon="-2.3112">
        <ele>23</ele>
        <time>2020-01-23T10:40:16.000Z</time>
      </trkpt>
      <trkpt lat="47.24365" lon="-2.31133">
        <ele>23</ele>
        <time>2020-01-23T10:40:18.000Z</time>
      </trkpt>
      <trkpt lat="47.24376" lon="-2.3115">
        <ele>23</ele>
        <time>2020-01-23T10:40:21.000Z</time>
      </trkpt>
      <trkpt lat="47.24397" lon="-2.31179">
        <ele>23</ele>
        <time>2020-01-23T10:40:26.000Z</time>
      </trkpt>
      <trkpt lat="47.24408" lon="-2.31187">
        <ele>23</ele>
        <time>2020-01-23T10:40:29.000Z</time>
      </trkpt>
      <trkpt lat="47.24412" lon="-2.31193">
        <ele>22.39999961853</ele>
        <time>2020-01-23T10:40:31.000Z</time>
      </trkpt>
      <trkpt lat="47.24413" lon="-2.31197">
        <ele>22</ele>
        <time>2020-01-23T10:40:32.000Z</time>
      </trkpt>
      <trkpt lat="47.24415" lon="-2.31201">
        <ele>21.60000038147</ele>
        <time>2020-01-23T10:40:33.000Z</time>
      </trkpt>
      <trkpt lat="47.24417" lon="-2.31204">
        <ele>21</ele>
        <time>2020-01-23T10:40:34.000Z</time>
      </trkpt>
      <trkpt lat="47.24419" lon="-2.31209">
        <ele>20.39999961853</ele>
        <time>2020-01-23T10:40:35.000Z</time>
      </trkpt>
      <trkpt lat="47.24422" lon="-2.31215">
        <ele>19.799999237061</ele>
        <time>2020-01-23T10:40:36.000Z</time>
      </trkpt>
      <trkpt lat="47.24425" lon="-2.3122">
        <ele>19.200000762939</ele>
        <time>2020-01-23T10:40:37.000Z</time>
      </trkpt>
      <trkpt lat="47.24428" lon="-2.31223">
        <ele>18.60000038147</ele>
        <time>2020-01-23T10:40:38.000Z</time>
      </trkpt>
      <trkpt lat="47.24435" lon="-2.31222">
        <ele>18.60000038147</ele>
        <time>2020-01-23T10:40:40.000Z</time>
      </trkpt>
      <trkpt lat="47.24438" lon="-2.31221">
        <ele>18.60000038147</ele>
        <time>2020-01-23T10:40:41.000Z</time>
      </trkpt>
      <trkpt lat="47.2444" lon="-2.31221">
        <ele>18.60000038147</ele>
        <time>2020-01-23T10:40:42.000Z</time>
      </trkpt>
      <trkpt lat="47.24444" lon="-2.31222">
        <ele>18.60000038147</ele>
        <time>2020-01-23T10:40:44.000Z</time>
      </trkpt>
      <trkpt lat="47.24453" lon="-2.31239">
        <ele>19</ele>
        <time>2020-01-23T10:40:49.000Z</time>
      </trkpt>
      <trkpt lat="47.24455" lon="-2.31245">
        <ele>19.39999961853</ele>
        <time>2020-01-23T10:40:50.000Z</time>
      </trkpt>
      <trkpt lat="47.24457" lon="-2.3125">
        <ele>19.799999237061</ele>
        <time>2020-01-23T10:40:51.000Z</time>
      </trkpt>
      <trkpt lat="47.24458" lon="-2.31255">
        <ele>20.200000762939</ele>
        <time>2020-01-23T10:40:52.000Z</time>
      </trkpt>
      <trkpt lat="47.24457" lon="-2.31261">
        <ele>20.60000038147</ele>
        <time>2020-01-23T10:40:53.000Z</time>
      </trkpt>
      <trkpt lat="47.24445" lon="-2.31273">
        <ele>20.60000038147</ele>
        <time>2020-01-23T10:40:56.000Z</time>
      </trkpt>
      <trkpt lat="47.24417" lon="-2.31296">
        <ele>20.60000038147</ele>
        <time>2020-01-23T10:41:01.000Z</time>
      </trkpt>
      <trkpt lat="47.24411" lon="-2.31301">
        <ele>20.200000762939</ele>
        <time>2020-01-23T10:41:02.000Z</time>
      </trkpt>
      <trkpt lat="47.24405" lon="-2.31307">
        <ele>19.799999237061</ele>
        <time>2020-01-23T10:41:03.000Z</time>
      </trkpt>
      <trkpt lat="47.24399" lon="-2.31312">
        <ele>19.39999961853</ele>
        <time>2020-01-23T10:41:04.000Z</time>
      </trkpt>
      <trkpt lat="47.24392" lon="-2.31319">
        <ele>19</ele>
        <time>2020-01-23T10:41:05.000Z</time>
      </trkpt>
      <trkpt lat="47.24386" lon="-2.31325">
        <ele>18.39999961853</ele>
        <time>2020-01-23T10:41:06.000Z</time>
      </trkpt>
      <trkpt lat="47.2438" lon="-2.3133">
        <ele>18.39999961853</ele>
        <time>2020-01-23T10:41:07.000Z</time>
      </trkpt>
      <trkpt lat="47.24375" lon="-2.31335">
        <ele>18</ele>
        <time>2020-01-23T10:41:08.000Z</time>
      </trkpt>
      <trkpt lat="47.24371" lon="-2.3134">
        <ele>17.60000038147</ele>
        <time>2020-01-23T10:41:09.000Z</time>
      </trkpt>
      <trkpt lat="47.24368" lon="-2.31345">
        <ele>17.200000762939</ele>
        <time>2020-01-23T10:41:10.000Z</time>
      </trkpt>
      <trkpt lat="47.24367" lon="-2.3135">
        <ele>16.799999237061</ele>
        <time>2020-01-23T10:41:11.000Z</time>
      </trkpt>
      <trkpt lat="47.24368" lon="-2.31355">
        <ele>16.39999961853</ele>
        <time>2020-01-23T10:41:12.000Z</time>
      </trkpt>
      <trkpt lat="47.24371" lon="-2.31366">
        <ele>16.39999961853</ele>
        <time>2020-01-23T10:41:14.000Z</time>
      </trkpt>
      <trkpt lat="47.24372" lon="-2.31372">
        <ele>16.39999961853</ele>
        <time>2020-01-23T10:41:15.000Z</time>
      </trkpt>
      <trkpt lat="47.24374" lon="-2.31379">
        <ele>16.39999961853</ele>
        <time>2020-01-23T10:41:16.000Z</time>
      </trkpt>
      <trkpt lat="47.24379" lon="-2.31398">
        <ele>16.39999961853</ele>
        <time>2020-01-23T10:41:19.000Z</time>
      </trkpt>
      <trkpt lat="47.24381" lon="-2.31404">
        <ele>16.39999961853</ele>
        <time>2020-01-23T10:41:20.000Z</time>
      </trkpt>
      <trkpt lat="47.24384" lon="-2.31426">
        <ele>16.39999961853</ele>
        <time>2020-01-23T10:41:24.000Z</time>
      </trkpt>
      <trkpt lat="47.24378" lon="-2.31437">
        <ele>16.39999961853</ele>
        <time>2020-01-23T10:41:27.000Z</time>
      </trkpt>
      <trkpt lat="47.24376" lon="-2.31448">
        <ele>16.39999961853</ele>
        <time>2020-01-23T10:41:29.000Z</time>
      </trkpt>
      <trkpt lat="47.24374" lon="-2.31454">
        <ele>16.39999961853</ele>
        <time>2020-01-23T10:41:30.000Z</time>
      </trkpt>
      <trkpt lat="47.24371" lon="-2.31459">
        <ele>16.39999961853</ele>
        <time>2020-01-23T10:41:31.000Z</time>
      </trkpt>
      <trkpt lat="47.24359" lon="-2.31474">
        <ele>16.39999961853</ele>
        <time>2020-01-23T10:41:34.000Z</time>
      </trkpt>
      <trkpt lat="47.24357" lon="-2.31481">
        <ele>16.39999961853</ele>
        <time>2020-01-23T10:41:35.000Z</time>
      </trkpt>
      <trkpt lat="47.24355" lon="-2.31503">
        <ele>15.39999961853</ele>
        <time>2020-01-23T10:41:38.000Z</time>
      </trkpt>
      <trkpt lat="47.24356" lon="-2.3151">
        <ele>15</ele>
        <time>2020-01-23T10:41:39.000Z</time>
      </trkpt>
      <trkpt lat="47.24357" lon="-2.31516">
        <ele>14.60000038147</ele>
        <time>2020-01-23T10:41:40.000Z</time>
      </trkpt>
      <trkpt lat="47.24359" lon="-2.31521">
        <ele>14.199999809265</ele>
        <time>2020-01-23T10:41:41.000Z</time>
      </trkpt>
      <trkpt lat="47.24361" lon="-2.31525">
        <ele>14.199999809265</ele>
        <time>2020-01-23T10:41:42.000Z</time>
      </trkpt>
      <trkpt lat="47.24365" lon="-2.31537">
        <ele>14.199999809265</ele>
        <time>2020-01-23T10:41:46.000Z</time>
      </trkpt>
      <trkpt lat="47.24365" lon="-2.31538">
        <ele>14.199999809265</ele>
        <time>2020-01-23T10:41:47.000Z</time>
      </trkpt>
      <trkpt lat="47.24365" lon="-2.31548">
        <ele>14.199999809265</ele>
        <time>2020-01-23T10:41:50.000Z</time>
      </trkpt>
      <trkpt lat="47.24366" lon="-2.31573">
        <ele>14.199999809265</ele>
        <time>2020-01-23T10:41:54.000Z</time>
      </trkpt>
      <trkpt lat="47.24373" lon="-2.31593">
        <ele>14.199999809265</ele>
        <time>2020-01-23T10:41:58.000Z</time>
      </trkpt>
      <trkpt lat="47.24374" lon="-2.31599">
        <ele>14.60000038147</ele>
        <time>2020-01-23T10:41:59.000Z</time>
      </trkpt>
      <trkpt lat="47.24375" lon="-2.31606">
        <ele>15</ele>
        <time>2020-01-23T10:42:00.000Z</time>
      </trkpt>
      <trkpt lat="47.24375" lon="-2.31612">
        <ele>15.39999961853</ele>
        <time>2020-01-23T10:42:01.000Z</time>
      </trkpt>
      <trkpt lat="47.24375" lon="-2.31618">
        <ele>15.800000190735</ele>
        <time>2020-01-23T10:42:02.000Z</time>
      </trkpt>
      <trkpt lat="47.24375" lon="-2.31624">
        <ele>16.799999237061</ele>
        <time>2020-01-23T10:42:03.000Z</time>
      </trkpt>
      <trkpt lat="47.24376" lon="-2.3163">
        <ele>17.39999961853</ele>
        <time>2020-01-23T10:42:04.000Z</time>
      </trkpt>
      <trkpt lat="47.24376" lon="-2.31636">
        <ele>18</ele>
        <time>2020-01-23T10:42:05.000Z</time>
      </trkpt>
      <trkpt lat="47.24376" lon="-2.31641">
        <ele>18.39999961853</ele>
        <time>2020-01-23T10:42:06.000Z</time>
      </trkpt>
      <trkpt lat="47.24374" lon="-2.31647">
        <ele>18.39999961853</ele>
        <time>2020-01-23T10:42:07.000Z</time>
      </trkpt>
      <trkpt lat="47.24373" lon="-2.31653">
        <ele>18.39999961853</ele>
        <time>2020-01-23T10:42:08.000Z</time>
      </trkpt>
      <trkpt lat="47.24371" lon="-2.31673">
        <ele>18.39999961853</ele>
        <time>2020-01-23T10:42:11.000Z</time>
      </trkpt>
      <trkpt lat="47.24365" lon="-2.31706">
        <ele>18.39999961853</ele>
        <time>2020-01-23T10:42:16.000Z</time>
      </trkpt>
      <trkpt lat="47.24363" lon="-2.31712">
        <ele>18.39999961853</ele>
        <time>2020-01-23T10:42:17.000Z</time>
      </trkpt>
      <trkpt lat="47.2435" lon="-2.3174">
        <ele>18.39999961853</ele>
        <time>2020-01-23T10:42:23.000Z</time>
      </trkpt>
      <trkpt lat="47.2435" lon="-2.31764">
        <ele>18.39999961853</ele>
        <time>2020-01-23T10:42:27.000Z</time>
      </trkpt>
      <trkpt lat="47.24352" lon="-2.3179">
        <ele>18.39999961853</ele>
        <time>2020-01-23T10:42:31.000Z</time>
      </trkpt>
      <trkpt lat="47.24354" lon="-2.31797">
        <ele>18</ele>
        <time>2020-01-23T10:42:32.000Z</time>
      </trkpt>
      <trkpt lat="47.24357" lon="-2.31803">
        <ele>17.60000038147</ele>
        <time>2020-01-23T10:42:33.000Z</time>
      </trkpt>
      <trkpt lat="47.2436" lon="-2.31809">
        <ele>17.200000762939</ele>
        <time>2020-01-23T10:42:34.000Z</time>
      </trkpt>
      <trkpt lat="47.24363" lon="-2.31815">
        <ele>16.799999237061</ele>
        <time>2020-01-23T10:42:35.000Z</time>
      </trkpt>
      <trkpt lat="47.24367" lon="-2.31821">
        <ele>16.39999961853</ele>
        <time>2020-01-23T10:42:36.000Z</time>
      </trkpt>
      <trkpt lat="47.24374" lon="-2.31832">
        <ele>16.39999961853</ele>
        <time>2020-01-23T10:42:38.000Z</time>
      </trkpt>
      <trkpt lat="47.24395" lon="-2.31857">
        <ele>16.39999961853</ele>
        <time>2020-01-23T10:42:43.000Z</time>
      </trkpt>
      <trkpt lat="47.24399" lon="-2.3186">
        <ele>16.39999961853</ele>
        <time>2020-01-23T10:42:44.000Z</time>
      </trkpt>
      <trkpt lat="47.24408" lon="-2.31865">
        <ele>16.39999961853</ele>
        <time>2020-01-23T10:42:46.000Z</time>
      </trkpt>
      <trkpt lat="47.24431" lon="-2.31875">
        <ele>16.39999961853</ele>
        <time>2020-01-23T10:42:51.000Z</time>
      </trkpt>
      <trkpt lat="47.24437" lon="-2.31882">
        <ele>16.799999237061</ele>
        <time>2020-01-23T10:42:53.000Z</time>
      </trkpt>
      <trkpt lat="47.24439" lon="-2.31888">
        <ele>17.200000762939</ele>
        <time>2020-01-23T10:42:54.000Z</time>
      </trkpt>
      <trkpt lat="47.24442" lon="-2.31893">
        <ele>17.60000038147</ele>
        <time>2020-01-23T10:42:55.000Z</time>
      </trkpt>
      <trkpt lat="47.24444" lon="-2.31899">
        <ele>18</ele>
        <time>2020-01-23T10:42:56.000Z</time>
      </trkpt>
      <trkpt lat="47.24446" lon="-2.31905">
        <ele>18.39999961853</ele>
        <time>2020-01-23T10:42:57.000Z</time>
      </trkpt>
      <trkpt lat="47.24452" lon="-2.31926">
        <ele>18.39999961853</ele>
        <time>2020-01-23T10:43:00.000Z</time>
      </trkpt>
      <trkpt lat="47.24469" lon="-2.31972">
        <ele>18.39999961853</ele>
        <time>2020-01-23T10:43:07.000Z</time>
      </trkpt>
      <trkpt lat="47.24479" lon="-2.31989">
        <ele>18</ele>
        <time>2020-01-23T10:43:10.000Z</time>
      </trkpt>
      <trkpt lat="47.24483" lon="-2.31994">
        <ele>17.60000038147</ele>
        <time>2020-01-23T10:43:11.000Z</time>
      </trkpt>
      <trkpt lat="47.24487" lon="-2.31999">
        <ele>17.200000762939</ele>
        <time>2020-01-23T10:43:12.000Z</time>
      </trkpt>
      <trkpt lat="47.24491" lon="-2.32003">
        <ele>16.799999237061</ele>
        <time>2020-01-23T10:43:13.000Z</time>
      </trkpt>
      <trkpt lat="47.24495" lon="-2.32008">
        <ele>16.39999961853</ele>
        <time>2020-01-23T10:43:14.000Z</time>
      </trkpt>
      <trkpt lat="47.24499" lon="-2.32012">
        <ele>16.39999961853</ele>
        <time>2020-01-23T10:43:15.000Z</time>
      </trkpt>
      <trkpt lat="47.24513" lon="-2.32022">
        <ele>16.39999961853</ele>
        <time>2020-01-23T10:43:18.000Z</time>
      </trkpt>
      <trkpt lat="47.24517" lon="-2.32024">
        <ele>16.39999961853</ele>
        <time>2020-01-23T10:43:19.000Z</time>
      </trkpt>
      <trkpt lat="47.2454" lon="-2.32036">
        <ele>16.39999961853</ele>
        <time>2020-01-23T10:43:24.000Z</time>
      </trkpt>
      <trkpt lat="47.24545" lon="-2.32038">
        <ele>16.39999961853</ele>
        <time>2020-01-23T10:43:25.000Z</time>
      </trkpt>
      <trkpt lat="47.24549" lon="-2.32041">
        <ele>16.39999961853</ele>
        <time>2020-01-23T10:43:26.000Z</time>
      </trkpt>
      <trkpt lat="47.24561" lon="-2.32052">
        <ele>16.39999961853</ele>
        <time>2020-01-23T10:43:29.000Z</time>
      </trkpt>
      <trkpt lat="47.24566" lon="-2.32054">
        <ele>16.39999961853</ele>
        <time>2020-01-23T10:43:30.000Z</time>
      </trkpt>
      <trkpt lat="47.24577" lon="-2.32059">
        <ele>16.39999961853</ele>
        <time>2020-01-23T10:43:33.000Z</time>
      </trkpt>
      <trkpt lat="47.24588" lon="-2.32061">
        <ele>16.39999961853</ele>
        <time>2020-01-23T10:43:36.000Z</time>
      </trkpt>
      <trkpt lat="47.246" lon="-2.3205">
        <ele>16.39999961853</ele>
        <time>2020-01-23T10:43:40.000Z</time>
      </trkpt>
      <trkpt lat="47.24603" lon="-2.32047">
        <ele>16.39999961853</ele>
        <time>2020-01-23T10:43:41.000Z</time>
      </trkpt>
      <trkpt lat="47.2461" lon="-2.3204">
        <ele>16.799999237061</ele>
        <time>2020-01-23T10:43:43.000Z</time>
      </trkpt>
      <trkpt lat="47.24613" lon="-2.32037">
        <ele>17.200000762939</ele>
        <time>2020-01-23T10:43:44.000Z</time>
      </trkpt>
      <trkpt lat="47.24616" lon="-2.32034">
        <ele>17.60000038147</ele>
        <time>2020-01-23T10:43:45.000Z</time>
      </trkpt>
      <trkpt lat="47.24619" lon="-2.32032">
        <ele>18</ele>
        <time>2020-01-23T10:43:46.000Z</time>
      </trkpt>
      <trkpt lat="47.24622" lon="-2.3203">
        <ele>18.60000038147</ele>
        <time>2020-01-23T10:43:47.000Z</time>
      </trkpt>
      <trkpt lat="47.2463" lon="-2.32025">
        <ele>19</ele>
        <time>2020-01-23T10:43:50.000Z</time>
      </trkpt>
      <trkpt lat="47.24632" lon="-2.32026">
        <ele>19.39999961853</ele>
        <time>2020-01-23T10:43:51.000Z</time>
      </trkpt>
      <trkpt lat="47.24635" lon="-2.32027">
        <ele>19.799999237061</ele>
        <time>2020-01-23T10:43:52.000Z</time>
      </trkpt>
      <trkpt lat="47.24638" lon="-2.32029">
        <ele>20.200000762939</ele>
        <time>2020-01-23T10:43:53.000Z</time>
      </trkpt>
      <trkpt lat="47.24641" lon="-2.32031">
        <ele>20.60000038147</ele>
        <time>2020-01-23T10:43:54.000Z</time>
      </trkpt>
      <trkpt lat="47.24644" lon="-2.32035">
        <ele>20.60000038147</ele>
        <time>2020-01-23T10:43:55.000Z</time>
      </trkpt>
      <trkpt lat="47.24648" lon="-2.3204">
        <ele>20.60000038147</ele>
        <time>2020-01-23T10:43:56.000Z</time>
      </trkpt>
      <trkpt lat="47.24657" lon="-2.32058">
        <ele>20.60000038147</ele>
        <time>2020-01-23T10:43:59.000Z</time>
      </trkpt>
      <trkpt lat="47.24679" lon="-2.321">
        <ele>20.60000038147</ele>
        <time>2020-01-23T10:44:05.000Z</time>
      </trkpt>
      <trkpt lat="47.24699" lon="-2.32138">
        <ele>20.200000762939</ele>
        <time>2020-01-23T10:44:10.000Z</time>
      </trkpt>
      <trkpt lat="47.24703" lon="-2.32146">
        <ele>19.60000038147</ele>
        <time>2020-01-23T10:44:11.000Z</time>
      </trkpt>
      <trkpt lat="47.24707" lon="-2.32154">
        <ele>19.200000762939</ele>
        <time>2020-01-23T10:44:12.000Z</time>
      </trkpt>
      <trkpt lat="47.24711" lon="-2.32162">
        <ele>18.60000038147</ele>
        <time>2020-01-23T10:44:13.000Z</time>
      </trkpt>
      <trkpt lat="47.24715" lon="-2.32171">
        <ele>18.200000762939</ele>
        <time>2020-01-23T10:44:14.000Z</time>
      </trkpt>
      <trkpt lat="47.24719" lon="-2.32179">
        <ele>17.60000038147</ele>
        <time>2020-01-23T10:44:15.000Z</time>
      </trkpt>
      <trkpt lat="47.24723" lon="-2.32188">
        <ele>17.200000762939</ele>
        <time>2020-01-23T10:44:16.000Z</time>
      </trkpt>
      <trkpt lat="47.24728" lon="-2.32196">
        <ele>16.60000038147</ele>
        <time>2020-01-23T10:44:17.000Z</time>
      </trkpt>
      <trkpt lat="47.24732" lon="-2.32204">
        <ele>16</ele>
        <time>2020-01-23T10:44:18.000Z</time>
      </trkpt>
      <trkpt lat="47.24753" lon="-2.32242">
        <ele>16</ele>
        <time>2020-01-23T10:44:23.000Z</time>
      </trkpt>
      <trkpt lat="47.24769" lon="-2.3227">
        <ele>16</ele>
        <time>2020-01-23T10:44:27.000Z</time>
      </trkpt>
      <trkpt lat="47.24777" lon="-2.32285">
        <ele>16</ele>
        <time>2020-01-23T10:44:29.000Z</time>
      </trkpt>
      <trkpt lat="47.24788" lon="-2.32306">
        <ele>16</ele>
        <time>2020-01-23T10:44:32.000Z</time>
      </trkpt>
      <trkpt lat="47.24796" lon="-2.32321">
        <ele>16</ele>
        <time>2020-01-23T10:44:34.000Z</time>
      </trkpt>
      <trkpt lat="47.24824" lon="-2.32375">
        <ele>16</ele>
        <time>2020-01-23T10:44:41.000Z</time>
      </trkpt>
      <trkpt lat="47.24853" lon="-2.32433">
        <ele>16</ele>
        <time>2020-01-23T10:44:49.000Z</time>
      </trkpt>
      <trkpt lat="47.24875" lon="-2.32489">
        <ele>16</ele>
        <time>2020-01-23T10:44:56.000Z</time>
      </trkpt>
      <trkpt lat="47.24896" lon="-2.32546">
        <ele>16</ele>
        <time>2020-01-23T10:45:03.000Z</time>
      </trkpt>
      <trkpt lat="47.24909" lon="-2.32578">
        <ele>15.60000038147</ele>
        <time>2020-01-23T10:45:07.000Z</time>
      </trkpt>
      <trkpt lat="47.24912" lon="-2.32586">
        <ele>15.199999809265</ele>
        <time>2020-01-23T10:45:08.000Z</time>
      </trkpt>
      <trkpt lat="47.24915" lon="-2.32594">
        <ele>14.800000190735</ele>
        <time>2020-01-23T10:45:09.000Z</time>
      </trkpt>
      <trkpt lat="47.24917" lon="-2.32603">
        <ele>14.39999961853</ele>
        <time>2020-01-23T10:45:10.000Z</time>
      </trkpt>
      <trkpt lat="47.2492" lon="-2.32611">
        <ele>14</ele>
        <time>2020-01-23T10:45:11.000Z</time>
      </trkpt>
      <trkpt lat="47.24936" lon="-2.32655">
        <ele>14</ele>
        <time>2020-01-23T10:45:16.000Z</time>
      </trkpt>
      <trkpt lat="47.24946" lon="-2.32681">
        <ele>14</ele>
        <time>2020-01-23T10:45:19.000Z</time>
      </trkpt>
      <trkpt lat="47.24952" lon="-2.32698">
        <ele>13</ele>
        <time>2020-01-23T10:45:21.000Z</time>
      </trkpt>
      <trkpt lat="47.24955" lon="-2.32707">
        <ele>12.60000038147</ele>
        <time>2020-01-23T10:45:22.000Z</time>
      </trkpt>
      <trkpt lat="47.24958" lon="-2.32716">
        <ele>12.199999809265</ele>
        <time>2020-01-23T10:45:23.000Z</time>
      </trkpt>
      <trkpt lat="47.24962" lon="-2.32725">
        <ele>11.800000190735</ele>
        <time>2020-01-23T10:45:24.000Z</time>
      </trkpt>
      <trkpt lat="47.24977" lon="-2.32762">
        <ele>11.800000190735</ele>
        <time>2020-01-23T10:45:28.000Z</time>
      </trkpt>
      <trkpt lat="47.2498" lon="-2.32771">
        <ele>11.800000190735</ele>
        <time>2020-01-23T10:45:29.000Z</time>
      </trkpt>
      <trkpt lat="47.24985" lon="-2.32784">
        <ele>11.800000190735</ele>
        <time>2020-01-23T10:45:31.000Z</time>
      </trkpt>
      <trkpt lat="47.24989" lon="-2.32786">
        <ele>11.800000190735</ele>
        <time>2020-01-23T10:45:32.000Z</time>
      </trkpt>
      <trkpt lat="47.25003" lon="-2.32779">
        <ele>11.800000190735</ele>
        <time>2020-01-23T10:45:35.000Z</time>
      </trkpt>
      <trkpt lat="47.25015" lon="-2.32765">
        <ele>11.800000190735</ele>
        <time>2020-01-23T10:45:38.000Z</time>
      </trkpt>
      <trkpt lat="47.25022" lon="-2.32758">
        <ele>11.800000190735</ele>
        <time>2020-01-23T10:45:40.000Z</time>
      </trkpt>
      <trkpt lat="47.2503" lon="-2.32759">
        <ele>11.800000190735</ele>
        <time>2020-01-23T10:45:43.000Z</time>
      </trkpt>
      <trkpt lat="47.25034" lon="-2.32765">
        <ele>11.800000190735</ele>
        <time>2020-01-23T10:45:45.000Z</time>
      </trkpt>
      <trkpt lat="47.25043" lon="-2.3278">
        <ele>11.800000190735</ele>
        <time>2020-01-23T10:45:49.000Z</time>
      </trkpt>
      <trkpt lat="47.25048" lon="-2.32803">
        <ele>11.800000190735</ele>
        <time>2020-01-23T10:45:53.000Z</time>
      </trkpt>
      <trkpt lat="47.25051" lon="-2.32809">
        <ele>11.199999809265</ele>
        <time>2020-01-23T10:45:54.000Z</time>
      </trkpt>
      <trkpt lat="47.25053" lon="-2.32815">
        <ele>10.800000190735</ele>
        <time>2020-01-23T10:45:55.000Z</time>
      </trkpt>
      <trkpt lat="47.25056" lon="-2.3282">
        <ele>10.39999961853</ele>
        <time>2020-01-23T10:45:56.000Z</time>
      </trkpt>
      <trkpt lat="47.2506" lon="-2.32825">
        <ele>10</ele>
        <time>2020-01-23T10:45:57.000Z</time>
      </trkpt>
      <trkpt lat="47.25064" lon="-2.32829">
        <ele>9.6000003814697</ele>
        <time>2020-01-23T10:45:58.000Z</time>
      </trkpt>
      <trkpt lat="47.25076" lon="-2.32839">
        <ele>9.6000003814697</ele>
        <time>2020-01-23T10:46:01.000Z</time>
      </trkpt>
      <trkpt lat="47.25083" lon="-2.32839">
        <ele>9.6000003814697</ele>
        <time>2020-01-23T10:46:03.000Z</time>
      </trkpt>
      <trkpt lat="47.25085" lon="-2.32839">
        <ele>9.6000003814697</ele>
        <time>2020-01-23T10:46:04.000Z</time>
      </trkpt>
      <trkpt lat="47.25088" lon="-2.32841">
        <ele>9.6000003814697</ele>
        <time>2020-01-23T10:46:05.000Z</time>
      </trkpt>
      <trkpt lat="47.25094" lon="-2.32849">
        <ele>9.6000003814697</ele>
        <time>2020-01-23T10:46:07.000Z</time>
      </trkpt>
      <trkpt lat="47.25104" lon="-2.32866">
        <ele>9.6000003814697</ele>
        <time>2020-01-23T10:46:11.000Z</time>
      </trkpt>
      <trkpt lat="47.25111" lon="-2.32877">
        <ele>10</ele>
        <time>2020-01-23T10:46:15.000Z</time>
      </trkpt>
      <trkpt lat="47.25112" lon="-2.32881">
        <ele>10.39999961853</ele>
        <time>2020-01-23T10:46:16.000Z</time>
      </trkpt>
      <trkpt lat="47.25114" lon="-2.32885">
        <ele>10.800000190735</ele>
        <time>2020-01-23T10:46:17.000Z</time>
      </trkpt>
      <trkpt lat="47.25115" lon="-2.32889">
        <ele>11.199999809265</ele>
        <time>2020-01-23T10:46:18.000Z</time>
      </trkpt>
      <trkpt lat="47.25117" lon="-2.32893">
        <ele>11.60000038147</ele>
        <time>2020-01-23T10:46:19.000Z</time>
      </trkpt>
      <trkpt lat="47.25121" lon="-2.32903">
        <ele>11.60000038147</ele>
        <time>2020-01-23T10:46:21.000Z</time>
      </trkpt>
      <trkpt lat="47.25134" lon="-2.32918">
        <ele>11.60000038147</ele>
        <time>2020-01-23T10:46:25.000Z</time>
      </trkpt>
      <trkpt lat="47.25137" lon="-2.32917">
        <ele>11.199999809265</ele>
        <time>2020-01-23T10:46:26.000Z</time>
      </trkpt>
      <trkpt lat="47.2514" lon="-2.32914">
        <ele>10.800000190735</ele>
        <time>2020-01-23T10:46:27.000Z</time>
      </trkpt>
      <trkpt lat="47.25141" lon="-2.32908">
        <ele>10.199999809265</ele>
        <time>2020-01-23T10:46:28.000Z</time>
      </trkpt>
      <trkpt lat="47.25141" lon="-2.32903">
        <ele>9.8000001907349</ele>
        <time>2020-01-23T10:46:29.000Z</time>
      </trkpt>
      <trkpt lat="47.25141" lon="-2.32897">
        <ele>9.3999996185303</ele>
        <time>2020-01-23T10:46:30.000Z</time>
      </trkpt>
      <trkpt lat="47.2514" lon="-2.32892">
        <ele>9.3999996185303</ele>
        <time>2020-01-23T10:46:31.000Z</time>
      </trkpt>
      <trkpt lat="47.25139" lon="-2.32882">
        <ele>9.3999996185303</ele>
        <time>2020-01-23T10:46:33.000Z</time>
      </trkpt>
      <trkpt lat="47.25139" lon="-2.32872">
        <ele>9.8000001907349</ele>
        <time>2020-01-23T10:46:35.000Z</time>
      </trkpt>
      <trkpt lat="47.25139" lon="-2.32867">
        <ele>10.199999809265</ele>
        <time>2020-01-23T10:46:36.000Z</time>
      </trkpt>
      <trkpt lat="47.25139" lon="-2.32861">
        <ele>10.60000038147</ele>
        <time>2020-01-23T10:46:37.000Z</time>
      </trkpt>
      <trkpt lat="47.25138" lon="-2.32855">
        <ele>11</ele>
        <time>2020-01-23T10:46:38.000Z</time>
      </trkpt>
      <trkpt lat="47.25138" lon="-2.3285">
        <ele>11.39999961853</ele>
        <time>2020-01-23T10:46:39.000Z</time>
      </trkpt>
      <trkpt lat="47.25138" lon="-2.32844">
        <ele>11.39999961853</ele>
        <time>2020-01-23T10:46:40.000Z</time>
      </trkpt>
      <trkpt lat="47.25139" lon="-2.32805">
        <ele>11.39999961853</ele>
        <time>2020-01-23T10:46:47.000Z</time>
      </trkpt>
      <trkpt lat="47.2514" lon="-2.32781">
        <ele>11.39999961853</ele>
        <time>2020-01-23T10:46:51.000Z</time>
      </trkpt>
      <trkpt lat="47.25142" lon="-2.3277">
        <ele>11.39999961853</ele>
        <time>2020-01-23T10:46:53.000Z</time>
      </trkpt>
      <trkpt lat="47.25147" lon="-2.32743">
        <ele>11.39999961853</ele>
        <time>2020-01-23T10:46:58.000Z</time>
      </trkpt>
      <trkpt lat="47.25159" lon="-2.32721">
        <ele>11.39999961853</ele>
        <time>2020-01-23T10:47:04.000Z</time>
      </trkpt>
      <trkpt lat="47.25168" lon="-2.32713">
        <ele>11.800000190735</ele>
        <time>2020-01-23T10:47:07.000Z</time>
      </trkpt>
      <trkpt lat="47.2517" lon="-2.32709">
        <ele>12.39999961853</ele>
        <time>2020-01-23T10:47:08.000Z</time>
      </trkpt>
      <trkpt lat="47.25173" lon="-2.32707">
        <ele>12.800000190735</ele>
        <time>2020-01-23T10:47:09.000Z</time>
      </trkpt>
      <trkpt lat="47.25176" lon="-2.32707">
        <ele>13.199999809265</ele>
        <time>2020-01-23T10:47:10.000Z</time>
      </trkpt>
      <trkpt lat="47.25179" lon="-2.32706">
        <ele>13.60000038147</ele>
        <time>2020-01-23T10:47:11.000Z</time>
      </trkpt>
      <trkpt lat="47.25187" lon="-2.32713">
        <ele>13.60000038147</ele>
        <time>2020-01-23T10:47:14.000Z</time>
      </trkpt>
      <trkpt lat="47.2519" lon="-2.32718">
        <ele>13.60000038147</ele>
        <time>2020-01-23T10:47:15.000Z</time>
      </trkpt>
      <trkpt lat="47.25193" lon="-2.32722">
        <ele>13.60000038147</ele>
        <time>2020-01-23T10:47:16.000Z</time>
      </trkpt>
      <trkpt lat="47.25204" lon="-2.32736">
        <ele>13.60000038147</ele>
        <time>2020-01-23T10:47:20.000Z</time>
      </trkpt>
      <trkpt lat="47.25215" lon="-2.32731">
        <ele>13.60000038147</ele>
        <time>2020-01-23T10:47:23.000Z</time>
      </trkpt>
      <trkpt lat="47.25217" lon="-2.32719">
        <ele>13.60000038147</ele>
        <time>2020-01-23T10:47:26.000Z</time>
      </trkpt>
      <trkpt lat="47.25218" lon="-2.32716">
        <ele>13.60000038147</ele>
        <time>2020-01-23T10:47:27.000Z</time>
      </trkpt>
      <trkpt lat="47.25219" lon="-2.32709">
        <ele>13.60000038147</ele>
        <time>2020-01-23T10:47:31.000Z</time>
      </trkpt>
      <trkpt lat="47.2522" lon="-2.32707">
        <ele>13.60000038147</ele>
        <time>2020-01-23T10:47:33.000Z</time>
      </trkpt>
      <trkpt lat="47.25224" lon="-2.32699">
        <ele>13.60000038147</ele>
        <time>2020-01-23T10:47:41.000Z</time>
      </trkpt>
      <trkpt lat="47.25227" lon="-2.32697">
        <ele>13.60000038147</ele>
        <time>2020-01-23T10:47:43.000Z</time>
      </trkpt>
      <trkpt lat="47.25231" lon="-2.32692">
        <ele>13.60000038147</ele>
        <time>2020-01-23T10:47:45.000Z</time>
      </trkpt>
      <trkpt lat="47.2523" lon="-2.32684">
        <ele>13.60000038147</ele>
        <time>2020-01-23T10:47:47.000Z</time>
      </trkpt>
      <trkpt lat="47.2523" lon="-2.32679">
        <ele>14</ele>
        <time>2020-01-23T10:47:48.000Z</time>
      </trkpt>
      <trkpt lat="47.25231" lon="-2.32675">
        <ele>14.800000190735</ele>
        <time>2020-01-23T10:47:49.000Z</time>
      </trkpt>
      <trkpt lat="47.25233" lon="-2.32671">
        <ele>15.199999809265</ele>
        <time>2020-01-23T10:47:50.000Z</time>
      </trkpt>
      <trkpt lat="47.25235" lon="-2.32667">
        <ele>15.60000038147</ele>
        <time>2020-01-23T10:47:51.000Z</time>
      </trkpt>
      <trkpt lat="47.25237" lon="-2.32662">
        <ele>15.60000038147</ele>
        <time>2020-01-23T10:47:52.000Z</time>
      </trkpt>
      <trkpt lat="47.2525" lon="-2.32638">
        <ele>15.60000038147</ele>
        <time>2020-01-23T10:47:57.000Z</time>
      </trkpt>
      <trkpt lat="47.25253" lon="-2.32633">
        <ele>16</ele>
        <time>2020-01-23T10:47:58.000Z</time>
      </trkpt>
      <trkpt lat="47.25255" lon="-2.32628">
        <ele>16.60000038147</ele>
        <time>2020-01-23T10:47:59.000Z</time>
      </trkpt>
      <trkpt lat="47.25258" lon="-2.32623">
        <ele>17</ele>
        <time>2020-01-23T10:48:00.000Z</time>
      </trkpt>
      <trkpt lat="47.25261" lon="-2.32617">
        <ele>17.39999961853</ele>
        <time>2020-01-23T10:48:01.000Z</time>
      </trkpt>
      <trkpt lat="47.25264" lon="-2.32613">
        <ele>17.799999237061</ele>
        <time>2020-01-23T10:48:02.000Z</time>
      </trkpt>
      <trkpt lat="47.25273" lon="-2.32598">
        <ele>17.799999237061</ele>
        <time>2020-01-23T10:48:05.000Z</time>
      </trkpt>
      <trkpt lat="47.25283" lon="-2.32584">
        <ele>17.799999237061</ele>
        <time>2020-01-23T10:48:08.000Z</time>
      </trkpt>
      <trkpt lat="47.2529" lon="-2.32575">
        <ele>17.799999237061</ele>
        <time>2020-01-23T10:48:10.000Z</time>
      </trkpt>
      <trkpt lat="47.25307" lon="-2.32548">
        <ele>17.799999237061</ele>
        <time>2020-01-23T10:48:17.000Z</time>
      </trkpt>
      <trkpt lat="47.25312" lon="-2.32535">
        <ele>18.39999961853</ele>
        <time>2020-01-23T10:48:20.000Z</time>
      </trkpt>
      <trkpt lat="47.25315" lon="-2.32532">
        <ele>18.799999237061</ele>
        <time>2020-01-23T10:48:21.000Z</time>
      </trkpt>
      <trkpt lat="47.25319" lon="-2.32529">
        <ele>19.200000762939</ele>
        <time>2020-01-23T10:48:22.000Z</time>
      </trkpt>
      <trkpt lat="47.25322" lon="-2.32525">
        <ele>19.60000038147</ele>
        <time>2020-01-23T10:48:23.000Z</time>
      </trkpt>
      <trkpt lat="47.25326" lon="-2.3252">
        <ele>20</ele>
        <time>2020-01-23T10:48:24.000Z</time>
      </trkpt>
      <trkpt lat="47.25338" lon="-2.32502">
        <ele>20</ele>
        <time>2020-01-23T10:48:28.000Z</time>
      </trkpt>
      <trkpt lat="47.2535" lon="-2.32484">
        <ele>20</ele>
        <time>2020-01-23T10:48:32.000Z</time>
      </trkpt>
      <trkpt lat="47.25359" lon="-2.32471">
        <ele>20</ele>
        <time>2020-01-23T10:48:35.000Z</time>
      </trkpt>
      <trkpt lat="47.25381" lon="-2.32439">
        <ele>20</ele>
        <time>2020-01-23T10:48:42.000Z</time>
      </trkpt>
      <trkpt lat="47.25393" lon="-2.32423">
        <ele>19.60000038147</ele>
        <time>2020-01-23T10:48:45.000Z</time>
      </trkpt>
      <trkpt lat="47.25397" lon="-2.32418">
        <ele>19</ele>
        <time>2020-01-23T10:48:46.000Z</time>
      </trkpt>
      <trkpt lat="47.25402" lon="-2.32412">
        <ele>18.60000038147</ele>
        <time>2020-01-23T10:48:47.000Z</time>
      </trkpt>
      <trkpt lat="47.25406" lon="-2.32406">
        <ele>18.200000762939</ele>
        <time>2020-01-23T10:48:48.000Z</time>
      </trkpt>
      <trkpt lat="47.2541" lon="-2.32402">
        <ele>17.799999237061</ele>
        <time>2020-01-23T10:48:49.000Z</time>
      </trkpt>
      <trkpt lat="47.25414" lon="-2.32398">
        <ele>17.799999237061</ele>
        <time>2020-01-23T10:48:50.000Z</time>
      </trkpt>
      <trkpt lat="47.25417" lon="-2.32394">
        <ele>17.39999961853</ele>
        <time>2020-01-23T10:48:51.000Z</time>
      </trkpt>
      <trkpt lat="47.25421" lon="-2.3239">
        <ele>16.799999237061</ele>
        <time>2020-01-23T10:48:52.000Z</time>
      </trkpt>
      <trkpt lat="47.25422" lon="-2.32386">
        <ele>16.39999961853</ele>
        <time>2020-01-23T10:48:53.000Z</time>
      </trkpt>
      <trkpt lat="47.25423" lon="-2.3238">
        <ele>16</ele>
        <time>2020-01-23T10:48:54.000Z</time>
      </trkpt>
      <trkpt lat="47.25423" lon="-2.32375">
        <ele>15.60000038147</ele>
        <time>2020-01-23T10:48:55.000Z</time>
      </trkpt>
      <trkpt lat="47.25424" lon="-2.3237">
        <ele>15.60000038147</ele>
        <time>2020-01-23T10:48:56.000Z</time>
      </trkpt>
      <trkpt lat="47.25429" lon="-2.32364">
        <ele>15.60000038147</ele>
        <time>2020-01-23T10:48:58.000Z</time>
      </trkpt>
      <trkpt lat="47.25443" lon="-2.32353">
        <ele>15.199999809265</ele>
        <time>2020-01-23T10:49:02.000Z</time>
      </trkpt>
      <trkpt lat="47.25447" lon="-2.3235">
        <ele>14.39999961853</ele>
        <time>2020-01-23T10:49:03.000Z</time>
      </trkpt>
      <trkpt lat="47.25451" lon="-2.32347">
        <ele>14</ele>
        <time>2020-01-23T10:49:04.000Z</time>
      </trkpt>
      <trkpt lat="47.25454" lon="-2.32344">
        <ele>13.60000038147</ele>
        <time>2020-01-23T10:49:05.000Z</time>
      </trkpt>
      <trkpt lat="47.25462" lon="-2.32337">
        <ele>13.60000038147</ele>
        <time>2020-01-23T10:49:07.000Z</time>
      </trkpt>
      <trkpt lat="47.2547" lon="-2.32327">
        <ele>13.60000038147</ele>
        <time>2020-01-23T10:49:09.000Z</time>
      </trkpt>
      <trkpt lat="47.25474" lon="-2.32323">
        <ele>13.60000038147</ele>
        <time>2020-01-23T10:49:10.000Z</time>
      </trkpt>
      <trkpt lat="47.25485" lon="-2.32313">
        <ele>13</ele>
        <time>2020-01-23T10:49:13.000Z</time>
      </trkpt>
      <trkpt lat="47.25488" lon="-2.32311">
        <ele>12.60000038147</ele>
        <time>2020-01-23T10:49:14.000Z</time>
      </trkpt>
      <trkpt lat="47.25491" lon="-2.32309">
        <ele>12.199999809265</ele>
        <time>2020-01-23T10:49:15.000Z</time>
      </trkpt>
      <trkpt lat="47.25495" lon="-2.32307">
        <ele>11.60000038147</ele>
        <time>2020-01-23T10:49:16.000Z</time>
      </trkpt>
      <trkpt lat="47.25497" lon="-2.32307">
        <ele>11.199999809265</ele>
        <time>2020-01-23T10:49:17.000Z</time>
      </trkpt>
      <trkpt lat="47.25499" lon="-2.32309">
        <ele>11.199999809265</ele>
        <time>2020-01-23T10:49:18.000Z</time>
      </trkpt>
      <trkpt lat="47.25503" lon="-2.32314">
        <ele>10.800000190735</ele>
        <time>2020-01-23T10:49:20.000Z</time>
      </trkpt>
      <trkpt lat="47.25504" lon="-2.32317">
        <ele>10.39999961853</ele>
        <time>2020-01-23T10:49:21.000Z</time>
      </trkpt>
      <trkpt lat="47.25504" lon="-2.32321">
        <ele>10</ele>
        <time>2020-01-23T10:49:22.000Z</time>
      </trkpt>
      <trkpt lat="47.25505" lon="-2.32323">
        <ele>9.6000003814697</ele>
        <time>2020-01-23T10:49:23.000Z</time>
      </trkpt>
      <trkpt lat="47.25506" lon="-2.32325">
        <ele>9.1999998092651</ele>
        <time>2020-01-23T10:49:24.000Z</time>
      </trkpt>
      <trkpt lat="47.25509" lon="-2.3233">
        <ele>9.1999998092651</ele>
        <time>2020-01-23T10:49:26.000Z</time>
      </trkpt>
      <trkpt lat="47.25514" lon="-2.32345">
        <ele>9.1999998092651</ele>
        <time>2020-01-23T10:49:31.000Z</time>
      </trkpt>
      <trkpt lat="47.25518" lon="-2.32358">
        <ele>9.1999998092651</ele>
        <time>2020-01-23T10:49:34.000Z</time>
      </trkpt>
      <trkpt lat="47.25522" lon="-2.32369">
        <ele>9.1999998092651</ele>
        <time>2020-01-23T10:49:36.000Z</time>
      </trkpt>
      <trkpt lat="47.25528" lon="-2.32396">
        <ele>9.1999998092651</ele>
        <time>2020-01-23T10:49:41.000Z</time>
      </trkpt>
      <trkpt lat="47.25528" lon="-2.32422">
        <ele>9.1999998092651</ele>
        <time>2020-01-23T10:49:46.000Z</time>
      </trkpt>
      <trkpt lat="47.25539" lon="-2.32439">
        <ele>9.1999998092651</ele>
        <time>2020-01-23T10:49:50.000Z</time>
      </trkpt>
      <trkpt lat="47.25553" lon="-2.32463">
        <ele>9.1999998092651</ele>
        <time>2020-01-23T10:49:55.000Z</time>
      </trkpt>
      <trkpt lat="47.25556" lon="-2.32467">
        <ele>9.1999998092651</ele>
        <time>2020-01-23T10:49:56.000Z</time>
      </trkpt>
      <trkpt lat="47.25565" lon="-2.32483">
        <ele>9.1999998092651</ele>
        <time>2020-01-23T10:50:00.000Z</time>
      </trkpt>
      <trkpt lat="47.25567" lon="-2.32484">
        <ele>9.1999998092651</ele>
        <time>2020-01-23T10:50:01.000Z</time>
      </trkpt>
      <trkpt lat="47.25572" lon="-2.32481">
        <ele>9.1999998092651</ele>
        <time>2020-01-23T10:50:03.000Z</time>
      </trkpt>
      <trkpt lat="47.25586" lon="-2.32467">
        <ele>9.1999998092651</ele>
        <time>2020-01-23T10:50:07.000Z</time>
      </trkpt>
      <trkpt lat="47.25614" lon="-2.32435">
        <ele>9.1999998092651</ele>
        <time>2020-01-23T10:50:14.000Z</time>
      </trkpt>
      <trkpt lat="47.25622" lon="-2.32427">
        <ele>8.8000001907349</ele>
        <time>2020-01-23T10:50:17.000Z</time>
      </trkpt>
      <trkpt lat="47.25623" lon="-2.32426">
        <ele>8.1999998092651</ele>
        <time>2020-01-23T10:50:18.000Z</time>
      </trkpt>
      <trkpt lat="47.25625" lon="-2.32424">
        <ele>7.8000001907349</ele>
        <time>2020-01-23T10:50:19.000Z</time>
      </trkpt>
      <trkpt lat="47.25627" lon="-2.32422">
        <ele>7.1999998092651</ele>
        <time>2020-01-23T10:50:20.000Z</time>
      </trkpt>
      <trkpt lat="47.25629" lon="-2.3242">
        <ele>6.8000001907349</ele>
        <time>2020-01-23T10:50:21.000Z</time>
      </trkpt>
      <trkpt lat="47.25636" lon="-2.32413">
        <ele>6.8000001907349</ele>
        <time>2020-01-23T10:50:24.000Z</time>
      </trkpt>
      <trkpt lat="47.25648" lon="-2.32397">
        <ele>6.8000001907349</ele>
        <time>2020-01-23T10:50:28.000Z</time>
      </trkpt>
      <trkpt lat="47.2565" lon="-2.32392">
        <ele>6.8000001907349</ele>
        <time>2020-01-23T10:50:29.000Z</time>
      </trkpt>
      <trkpt lat="47.25655" lon="-2.32376">
        <ele>6.8000001907349</ele>
        <time>2020-01-23T10:50:32.000Z</time>
      </trkpt>
      <trkpt lat="47.25657" lon="-2.3237">
        <ele>6.8000001907349</ele>
        <time>2020-01-23T10:50:33.000Z</time>
      </trkpt>
      <trkpt lat="47.25657" lon="-2.3235">
        <ele>6.8000001907349</ele>
        <time>2020-01-23T10:50:36.000Z</time>
      </trkpt>
      <trkpt lat="47.25653" lon="-2.32309">
        <ele>7.1999998092651</ele>
        <time>2020-01-23T10:50:41.000Z</time>
      </trkpt>
      <trkpt lat="47.25653" lon="-2.323">
        <ele>8</ele>
        <time>2020-01-23T10:50:42.000Z</time>
      </trkpt>
      <trkpt lat="47.25652" lon="-2.32292">
        <ele>8.3999996185303</ele>
        <time>2020-01-23T10:50:43.000Z</time>
      </trkpt>
      <trkpt lat="47.25652" lon="-2.32283">
        <ele>8.8000001907349</ele>
        <time>2020-01-23T10:50:44.000Z</time>
      </trkpt>
      <trkpt lat="47.2565" lon="-2.3226">
        <ele>9.3999996185303</ele>
        <time>2020-01-23T10:50:47.000Z</time>
      </trkpt>
      <trkpt lat="47.2565" lon="-2.32253">
        <ele>9.8000001907349</ele>
        <time>2020-01-23T10:50:48.000Z</time>
      </trkpt>
      <trkpt lat="47.25649" lon="-2.32245">
        <ele>10.199999809265</ele>
        <time>2020-01-23T10:50:49.000Z</time>
      </trkpt>
      <trkpt lat="47.25648" lon="-2.32238">
        <ele>10.60000038147</ele>
        <time>2020-01-23T10:50:50.000Z</time>
      </trkpt>
      <trkpt lat="47.25648" lon="-2.32232">
        <ele>11.199999809265</ele>
        <time>2020-01-23T10:50:51.000Z</time>
      </trkpt>
      <trkpt lat="47.25647" lon="-2.32225">
        <ele>11.60000038147</ele>
        <time>2020-01-23T10:50:52.000Z</time>
      </trkpt>
      <trkpt lat="47.25647" lon="-2.32219">
        <ele>12</ele>
        <time>2020-01-23T10:50:53.000Z</time>
      </trkpt>
      <trkpt lat="47.25646" lon="-2.32212">
        <ele>12.39999961853</ele>
        <time>2020-01-23T10:50:54.000Z</time>
      </trkpt>
      <trkpt lat="47.25644" lon="-2.32206">
        <ele>12.800000190735</ele>
        <time>2020-01-23T10:50:55.000Z</time>
      </trkpt>
      <trkpt lat="47.25643" lon="-2.322">
        <ele>13.39999961853</ele>
        <time>2020-01-23T10:50:56.000Z</time>
      </trkpt>
      <trkpt lat="47.25636" lon="-2.32174">
        <ele>13.39999961853</ele>
        <time>2020-01-23T10:51:00.000Z</time>
      </trkpt>
      <trkpt lat="47.25631" lon="-2.32156">
        <ele>13.800000190735</ele>
        <time>2020-01-23T10:51:03.000Z</time>
      </trkpt>
      <trkpt lat="47.2563" lon="-2.32149">
        <ele>14.199999809265</ele>
        <time>2020-01-23T10:51:04.000Z</time>
      </trkpt>
      <trkpt lat="47.25628" lon="-2.32143">
        <ele>14.60000038147</ele>
        <time>2020-01-23T10:51:05.000Z</time>
      </trkpt>
      <trkpt lat="47.25626" lon="-2.32137">
        <ele>15</ele>
        <time>2020-01-23T10:51:06.000Z</time>
      </trkpt>
      <trkpt lat="47.25624" lon="-2.32131">
        <ele>15.39999961853</ele>
        <time>2020-01-23T10:51:07.000Z</time>
      </trkpt>
      <trkpt lat="47.25622" lon="-2.32126">
        <ele>15.39999961853</ele>
        <time>2020-01-23T10:51:08.000Z</time>
      </trkpt>
      <trkpt lat="47.25611" lon="-2.32097">
        <ele>15.39999961853</ele>
        <time>2020-01-23T10:51:13.000Z</time>
      </trkpt>
      <trkpt lat="47.25609" lon="-2.32091">
        <ele>15.39999961853</ele>
        <time>2020-01-23T10:51:14.000Z</time>
      </trkpt>
      <trkpt lat="47.25596" lon="-2.32057">
        <ele>15.39999961853</ele>
        <time>2020-01-23T10:51:20.000Z</time>
      </trkpt>
      <trkpt lat="47.2559" lon="-2.3204">
        <ele>15.39999961853</ele>
        <time>2020-01-23T10:51:23.000Z</time>
      </trkpt>
      <trkpt lat="47.25582" lon="-2.32019">
        <ele>15.39999961853</ele>
        <time>2020-01-23T10:51:27.000Z</time>
      </trkpt>
      <trkpt lat="47.25575" lon="-2.32003">
        <ele>15.39999961853</ele>
        <time>2020-01-23T10:51:30.000Z</time>
      </trkpt>
      <trkpt lat="47.25572" lon="-2.31985">
        <ele>15.39999961853</ele>
        <time>2020-01-23T10:51:33.000Z</time>
      </trkpt>
      <trkpt lat="47.25566" lon="-2.31939">
        <ele>15.39999961853</ele>
        <time>2020-01-23T10:51:41.000Z</time>
      </trkpt>
      <trkpt lat="47.25564" lon="-2.31922">
        <ele>15.800000190735</ele>
        <time>2020-01-23T10:51:44.000Z</time>
      </trkpt>
      <trkpt lat="47.25562" lon="-2.31918">
        <ele>16.200000762939</ele>
        <time>2020-01-23T10:51:45.000Z</time>
      </trkpt>
      <trkpt lat="47.25559" lon="-2.31915">
        <ele>16.60000038147</ele>
        <time>2020-01-23T10:51:46.000Z</time>
      </trkpt>
      <trkpt lat="47.25556" lon="-2.31915">
        <ele>17</ele>
        <time>2020-01-23T10:51:47.000Z</time>
      </trkpt>
      <trkpt lat="47.25553" lon="-2.31916">
        <ele>17.60000038147</ele>
        <time>2020-01-23T10:51:48.000Z</time>
      </trkpt>
      <trkpt lat="47.25551" lon="-2.31917">
        <ele>17.60000038147</ele>
        <time>2020-01-23T10:51:49.000Z</time>
      </trkpt>
      <trkpt lat="47.25547" lon="-2.31919">
        <ele>17.60000038147</ele>
        <time>2020-01-23T10:51:50.000Z</time>
      </trkpt>
      <trkpt lat="47.25538" lon="-2.3192">
        <ele>17.60000038147</ele>
        <time>2020-01-23T10:51:53.000Z</time>
      </trkpt>
      <trkpt lat="47.25536" lon="-2.31915">
        <ele>17.60000038147</ele>
        <time>2020-01-23T10:51:54.000Z</time>
      </trkpt>
      <trkpt lat="47.25533" lon="-2.31894">
        <ele>17.60000038147</ele>
        <time>2020-01-23T10:51:58.000Z</time>
      </trkpt>
      <trkpt lat="47.25531" lon="-2.3188">
        <ele>18</ele>
        <time>2020-01-23T10:52:01.000Z</time>
      </trkpt>
      <trkpt lat="47.25531" lon="-2.31875">
        <ele>18.39999961853</ele>
        <time>2020-01-23T10:52:02.000Z</time>
      </trkpt>
      <trkpt lat="47.2553" lon="-2.31871">
        <ele>18.799999237061</ele>
        <time>2020-01-23T10:52:03.000Z</time>
      </trkpt>
      <trkpt lat="47.25529" lon="-2.31867">
        <ele>19.200000762939</ele>
        <time>2020-01-23T10:52:04.000Z</time>
      </trkpt>
      <trkpt lat="47.25529" lon="-2.31863">
        <ele>19.60000038147</ele>
        <time>2020-01-23T10:52:05.000Z</time>
      </trkpt>
      <trkpt lat="47.25528" lon="-2.31859">
        <ele>19.60000038147</ele>
        <time>2020-01-23T10:52:06.000Z</time>
      </trkpt>
      <trkpt lat="47.25525" lon="-2.31849">
        <ele>19.60000038147</ele>
        <time>2020-01-23T10:52:11.000Z</time>
      </trkpt>
      <trkpt lat="47.25523" lon="-2.31842">
        <ele>19.60000038147</ele>
        <time>2020-01-23T10:56:49.000Z</time>
      </trkpt>
      <trkpt lat="47.25523" lon="-2.31833">
        <ele>19.60000038147</ele>
        <time>2020-01-23T10:56:52.000Z</time>
      </trkpt>
      <trkpt lat="47.25524" lon="-2.31824">
        <ele>19.60000038147</ele>
        <time>2020-01-23T10:56:56.000Z</time>
      </trkpt>
      <trkpt lat="47.25524" lon="-2.3182">
        <ele>19.60000038147</ele>
        <time>2020-01-23T10:56:58.000Z</time>
      </trkpt>
      <trkpt lat="47.25526" lon="-2.31815">
        <ele>19.60000038147</ele>
        <time>2020-01-23T10:57:00.000Z</time>
      </trkpt>
      <trkpt lat="47.25529" lon="-2.31811">
        <ele>19.60000038147</ele>
        <time>2020-01-23T10:57:02.000Z</time>
      </trkpt>
      <trkpt lat="47.2554" lon="-2.31805">
        <ele>19.60000038147</ele>
        <time>2020-01-23T10:57:06.000Z</time>
      </trkpt>
      <trkpt lat="47.25544" lon="-2.31803">
        <ele>19.60000038147</ele>
        <time>2020-01-23T10:57:07.000Z</time>
      </trkpt>
      <trkpt lat="47.25561" lon="-2.31793">
        <ele>19.60000038147</ele>
        <time>2020-01-23T10:57:12.000Z</time>
      </trkpt>
      <trkpt lat="47.25564" lon="-2.31787">
        <ele>19.60000038147</ele>
        <time>2020-01-23T10:57:14.000Z</time>
      </trkpt>
      <trkpt lat="47.25566" lon="-2.31783">
        <ele>19.60000038147</ele>
        <time>2020-01-23T10:57:15.000Z</time>
      </trkpt>
      <trkpt lat="47.25572" lon="-2.31775">
        <ele>19.200000762939</ele>
        <time>2020-01-23T10:57:17.000Z</time>
      </trkpt>
      <trkpt lat="47.25576" lon="-2.3177">
        <ele>18.799999237061</ele>
        <time>2020-01-23T10:57:18.000Z</time>
      </trkpt>
      <trkpt lat="47.25579" lon="-2.31764">
        <ele>18</ele>
        <time>2020-01-23T10:57:19.000Z</time>
      </trkpt>
      <trkpt lat="47.25584" lon="-2.31759">
        <ele>17.60000038147</ele>
        <time>2020-01-23T10:57:20.000Z</time>
      </trkpt>
      <trkpt lat="47.25588" lon="-2.31752">
        <ele>17.60000038147</ele>
        <time>2020-01-23T10:57:21.000Z</time>
      </trkpt>
      <trkpt lat="47.25592" lon="-2.31737">
        <ele>17.60000038147</ele>
        <time>2020-01-23T10:57:23.000Z</time>
      </trkpt>
      <trkpt lat="47.25597" lon="-2.31723">
        <ele>17.60000038147</ele>
        <time>2020-01-23T10:57:25.000Z</time>
      </trkpt>
      <trkpt lat="47.25599" lon="-2.31717">
        <ele>17.60000038147</ele>
        <time>2020-01-23T10:57:26.000Z</time>
      </trkpt>
      <trkpt lat="47.25604" lon="-2.31709">
        <ele>17.60000038147</ele>
        <time>2020-01-23T10:57:28.000Z</time>
      </trkpt>
      <trkpt lat="47.2562" lon="-2.31705">
        <ele>17.60000038147</ele>
        <time>2020-01-23T10:57:31.000Z</time>
      </trkpt>
      <trkpt lat="47.25626" lon="-2.31704">
        <ele>17</ele>
        <time>2020-01-23T10:57:32.000Z</time>
      </trkpt>
      <trkpt lat="47.25631" lon="-2.31702">
        <ele>16.60000038147</ele>
        <time>2020-01-23T10:57:33.000Z</time>
      </trkpt>
      <trkpt lat="47.25637" lon="-2.31699">
        <ele>16</ele>
        <time>2020-01-23T10:57:34.000Z</time>
      </trkpt>
      <trkpt lat="47.25643" lon="-2.31695">
        <ele>15.60000038147</ele>
        <time>2020-01-23T10:57:35.000Z</time>
      </trkpt>
      <trkpt lat="47.25648" lon="-2.31689">
        <ele>15</ele>
        <time>2020-01-23T10:57:36.000Z</time>
      </trkpt>
      <trkpt lat="47.25658" lon="-2.31669">
        <ele>15</ele>
        <time>2020-01-23T10:57:39.000Z</time>
      </trkpt>
      <trkpt lat="47.2567" lon="-2.31662">
        <ele>14.60000038147</ele>
        <time>2020-01-23T10:57:42.000Z</time>
      </trkpt>
      <trkpt lat="47.25674" lon="-2.31666">
        <ele>13.800000190735</ele>
        <time>2020-01-23T10:57:43.000Z</time>
      </trkpt>
      <trkpt lat="47.25679" lon="-2.3167">
        <ele>13.39999961853</ele>
        <time>2020-01-23T10:57:44.000Z</time>
      </trkpt>
      <trkpt lat="47.25684" lon="-2.31673">
        <ele>13</ele>
        <time>2020-01-23T10:57:45.000Z</time>
      </trkpt>
      <trkpt lat="47.25713" lon="-2.31689">
        <ele>13</ele>
        <time>2020-01-23T10:57:50.000Z</time>
      </trkpt>
      <trkpt lat="47.25719" lon="-2.31693">
        <ele>12.60000038147</ele>
        <time>2020-01-23T10:57:51.000Z</time>
      </trkpt>
      <trkpt lat="47.25724" lon="-2.31697">
        <ele>12.199999809265</ele>
        <time>2020-01-23T10:57:52.000Z</time>
      </trkpt>
      <trkpt lat="47.25731" lon="-2.31697">
        <ele>11.800000190735</ele>
        <time>2020-01-23T10:57:53.000Z</time>
      </trkpt>
      <trkpt lat="47.25737" lon="-2.31694">
        <ele>11.39999961853</ele>
        <time>2020-01-23T10:57:54.000Z</time>
      </trkpt>
      <trkpt lat="47.25742" lon="-2.31689">
        <ele>11</ele>
        <time>2020-01-23T10:57:55.000Z</time>
      </trkpt>
      <trkpt lat="47.25752" lon="-2.31681">
        <ele>11</ele>
        <time>2020-01-23T10:57:57.000Z</time>
      </trkpt>
      <trkpt lat="47.2578" lon="-2.31659">
        <ele>11.39999961853</ele>
        <time>2020-01-23T10:58:03.000Z</time>
      </trkpt>
      <trkpt lat="47.25784" lon="-2.31655">
        <ele>11.800000190735</ele>
        <time>2020-01-23T10:58:04.000Z</time>
      </trkpt>
      <trkpt lat="47.25789" lon="-2.31651">
        <ele>12.199999809265</ele>
        <time>2020-01-23T10:58:05.000Z</time>
      </trkpt>
      <trkpt lat="47.25793" lon="-2.31648">
        <ele>12.60000038147</ele>
        <time>2020-01-23T10:58:06.000Z</time>
      </trkpt>
      <trkpt lat="47.25798" lon="-2.31644">
        <ele>13</ele>
        <time>2020-01-23T10:58:07.000Z</time>
      </trkpt>
      <trkpt lat="47.25822" lon="-2.31625">
        <ele>13</ele>
        <time>2020-01-23T10:58:12.000Z</time>
      </trkpt>
      <trkpt lat="47.25857" lon="-2.31595">
        <ele>13</ele>
        <time>2020-01-23T10:58:19.000Z</time>
      </trkpt>
      <trkpt lat="47.25888" lon="-2.31566">
        <ele>13</ele>
        <time>2020-01-23T10:58:25.000Z</time>
      </trkpt>
      <trkpt lat="47.25892" lon="-2.31559">
        <ele>13</ele>
        <time>2020-01-23T10:58:26.000Z</time>
      </trkpt>
      <trkpt lat="47.259" lon="-2.31537">
        <ele>12.60000038147</ele>
        <time>2020-01-23T10:58:29.000Z</time>
      </trkpt>
      <trkpt lat="47.25902" lon="-2.3153">
        <ele>12</ele>
        <time>2020-01-23T10:58:30.000Z</time>
      </trkpt>
      <trkpt lat="47.25905" lon="-2.31524">
        <ele>11.60000038147</ele>
        <time>2020-01-23T10:58:31.000Z</time>
      </trkpt>
      <trkpt lat="47.25907" lon="-2.31519">
        <ele>11.199999809265</ele>
        <time>2020-01-23T10:58:32.000Z</time>
      </trkpt>
      <trkpt lat="47.2591" lon="-2.31515">
        <ele>10.800000190735</ele>
        <time>2020-01-23T10:58:33.000Z</time>
      </trkpt>
      <trkpt lat="47.25913" lon="-2.31513">
        <ele>10.800000190735</ele>
        <time>2020-01-23T10:58:34.000Z</time>
      </trkpt>
      <trkpt lat="47.25915" lon="-2.3151">
        <ele>10.199999809265</ele>
        <time>2020-01-23T10:58:35.000Z</time>
      </trkpt>
      <trkpt lat="47.25915" lon="-2.31508">
        <ele>9.8000001907349</ele>
        <time>2020-01-23T10:58:36.000Z</time>
      </trkpt>
      <trkpt lat="47.25916" lon="-2.31506">
        <ele>9.1999998092651</ele>
        <time>2020-01-23T10:58:37.000Z</time>
      </trkpt>
      <trkpt lat="47.25916" lon="-2.31505">
        <ele>8.8000001907349</ele>
        <time>2020-01-23T10:58:38.000Z</time>
      </trkpt>
      <trkpt lat="47.25915" lon="-2.31504">
        <ele>8.1999998092651</ele>
        <time>2020-01-23T10:58:39.000Z</time>
      </trkpt>
      <trkpt lat="47.25914" lon="-2.31503">
        <ele>8.1999998092651</ele>
        <time>2020-01-23T10:58:40.000Z</time>
      </trkpt>
      <trkpt lat="47.25914" lon="-2.31501">
        <ele>8.1999998092651</ele>
        <time>2020-01-23T10:58:41.000Z</time>
      </trkpt>
      <trkpt lat="47.25918" lon="-2.31489">
        <ele>8.1999998092651</ele>
        <time>2020-01-23T10:58:44.000Z</time>
      </trkpt>
      <trkpt lat="47.25928" lon="-2.31459">
        <ele>8.1999998092651</ele>
        <time>2020-01-23T10:58:49.000Z</time>
      </trkpt>
      <trkpt lat="47.25932" lon="-2.31456">
        <ele>8.1999998092651</ele>
        <time>2020-01-23T10:58:50.000Z</time>
      </trkpt>
      <trkpt lat="47.25939" lon="-2.31456">
        <ele>8.1999998092651</ele>
        <time>2020-01-23T10:58:52.000Z</time>
      </trkpt>
      <trkpt lat="47.25953" lon="-2.3146">
        <ele>8.1999998092651</ele>
        <time>2020-01-23T10:58:56.000Z</time>
      </trkpt>
      <trkpt lat="47.25962" lon="-2.31444">
        <ele>8.1999998092651</ele>
        <time>2020-01-23T10:58:59.000Z</time>
      </trkpt>
      <trkpt lat="47.25965" lon="-2.31438">
        <ele>8.1999998092651</ele>
        <time>2020-01-23T10:59:00.000Z</time>
      </trkpt>
      <trkpt lat="47.25974" lon="-2.31425">
        <ele>8.1999998092651</ele>
        <time>2020-01-23T10:59:03.000Z</time>
      </trkpt>
      <trkpt lat="47.25979" lon="-2.31422">
        <ele>8.1999998092651</ele>
        <time>2020-01-23T10:59:04.000Z</time>
      </trkpt>
      <trkpt lat="47.25993" lon="-2.31428">
        <ele>8.1999998092651</ele>
        <time>2020-01-23T10:59:07.000Z</time>
      </trkpt>
      <trkpt lat="47.25998" lon="-2.31432">
        <ele>8.1999998092651</ele>
        <time>2020-01-23T10:59:08.000Z</time>
      </trkpt>
      <trkpt lat="47.26011" lon="-2.31442">
        <ele>8.1999998092651</ele>
        <time>2020-01-23T10:59:11.000Z</time>
      </trkpt>
      <trkpt lat="47.2602" lon="-2.31449">
        <ele>8.1999998092651</ele>
        <time>2020-01-23T10:59:13.000Z</time>
      </trkpt>
      <trkpt lat="47.26048" lon="-2.31467">
        <ele>8.1999998092651</ele>
        <time>2020-01-23T10:59:19.000Z</time>
      </trkpt>
      <trkpt lat="47.26057" lon="-2.31473">
        <ele>8.1999998092651</ele>
        <time>2020-01-23T10:59:21.000Z</time>
      </trkpt>
      <trkpt lat="47.26063" lon="-2.31481">
        <ele>8.1999998092651</ele>
        <time>2020-01-23T10:59:23.000Z</time>
      </trkpt>
      <trkpt lat="47.26062" lon="-2.31487">
        <ele>8.1999998092651</ele>
        <time>2020-01-23T10:59:24.000Z</time>
      </trkpt>
      <trkpt lat="47.26052" lon="-2.31498">
        <ele>8.1999998092651</ele>
        <time>2020-01-23T10:59:27.000Z</time>
      </trkpt>
      <trkpt lat="47.26045" lon="-2.31504">
        <ele>8.1999998092651</ele>
        <time>2020-01-23T10:59:29.000Z</time>
      </trkpt>
      <trkpt lat="47.26043" lon="-2.31508">
        <ele>8.1999998092651</ele>
        <time>2020-01-23T10:59:30.000Z</time>
      </trkpt>
      <trkpt lat="47.26044" lon="-2.31513">
        <ele>8.1999998092651</ele>
        <time>2020-01-23T10:59:31.000Z</time>
      </trkpt>
      <trkpt lat="47.26054" lon="-2.3153">
        <ele>7.8000001907349</ele>
        <time>2020-01-23T10:59:34.000Z</time>
      </trkpt>
      <trkpt lat="47.26058" lon="-2.31535">
        <ele>7.4000000953674</ele>
        <time>2020-01-23T10:59:35.000Z</time>
      </trkpt>
      <trkpt lat="47.26061" lon="-2.3154">
        <ele>7</ele>
        <time>2020-01-23T10:59:36.000Z</time>
      </trkpt>
      <trkpt lat="47.26064" lon="-2.31546">
        <ele>6.5999999046326</ele>
        <time>2020-01-23T10:59:37.000Z</time>
      </trkpt>
      <trkpt lat="47.26067" lon="-2.31552">
        <ele>6.1999998092651</ele>
        <time>2020-01-23T10:59:38.000Z</time>
      </trkpt>
      <trkpt lat="47.26072" lon="-2.31564">
        <ele>6.1999998092651</ele>
        <time>2020-01-23T10:59:40.000Z</time>
      </trkpt>
      <trkpt lat="47.26076" lon="-2.31575">
        <ele>6.1999998092651</ele>
        <time>2020-01-23T10:59:42.000Z</time>
      </trkpt>
      <trkpt lat="47.26083" lon="-2.31579">
        <ele>6.1999998092651</ele>
        <time>2020-01-23T10:59:44.000Z</time>
      </trkpt>
      <trkpt lat="47.26095" lon="-2.31592">
        <ele>6.1999998092651</ele>
        <time>2020-01-23T10:59:48.000Z</time>
      </trkpt>
      <trkpt lat="47.26102" lon="-2.31603">
        <ele>6.1999998092651</ele>
        <time>2020-01-23T10:59:50.000Z</time>
      </trkpt>
      <trkpt lat="47.26109" lon="-2.31613">
        <ele>6.1999998092651</ele>
        <time>2020-01-23T10:59:52.000Z</time>
      </trkpt>
      <trkpt lat="47.26125" lon="-2.31615">
        <ele>6.1999998092651</ele>
        <time>2020-01-23T10:59:55.000Z</time>
      </trkpt>
      <trkpt lat="47.26134" lon="-2.31614">
        <ele>6.1999998092651</ele>
        <time>2020-01-23T10:59:57.000Z</time>
      </trkpt>
      <trkpt lat="47.26138" lon="-2.31614">
        <ele>6.1999998092651</ele>
        <time>2020-01-23T10:59:58.000Z</time>
      </trkpt>
      <trkpt lat="47.26146" lon="-2.31613">
        <ele>6.1999998092651</ele>
        <time>2020-01-23T11:00:00.000Z</time>
      </trkpt>
      <trkpt lat="47.26154" lon="-2.31609">
        <ele>6.1999998092651</ele>
        <time>2020-01-23T11:00:02.000Z</time>
      </trkpt>
      <trkpt lat="47.26163" lon="-2.31604">
        <ele>6.1999998092651</ele>
        <time>2020-01-23T11:00:04.000Z</time>
      </trkpt>
      <trkpt lat="47.26167" lon="-2.31602">
        <ele>6.1999998092651</ele>
        <time>2020-01-23T11:00:05.000Z</time>
      </trkpt>
      <trkpt lat="47.26177" lon="-2.31598">
        <ele>6.1999998092651</ele>
        <time>2020-01-23T11:00:07.000Z</time>
      </trkpt>
      <trkpt lat="47.26186" lon="-2.31595">
        <ele>6.1999998092651</ele>
        <time>2020-01-23T11:00:09.000Z</time>
      </trkpt>
      <trkpt lat="47.26216" lon="-2.31588">
        <ele>6.1999998092651</ele>
        <time>2020-01-23T11:00:15.000Z</time>
      </trkpt>
      <trkpt lat="47.26235" lon="-2.31599">
        <ele>6.1999998092651</ele>
        <time>2020-01-23T11:00:19.000Z</time>
      </trkpt>
      <trkpt lat="47.26239" lon="-2.31603">
        <ele>6.1999998092651</ele>
        <time>2020-01-23T11:00:20.000Z</time>
      </trkpt>
      <trkpt lat="47.26254" lon="-2.31622">
        <ele>6.1999998092651</ele>
        <time>2020-01-23T11:00:24.000Z</time>
      </trkpt>
      <trkpt lat="47.26266" lon="-2.31645">
        <ele>6.1999998092651</ele>
        <time>2020-01-23T11:00:28.000Z</time>
      </trkpt>
      <trkpt lat="47.26272" lon="-2.31657">
        <ele>6.1999998092651</ele>
        <time>2020-01-23T11:00:30.000Z</time>
      </trkpt>
      <trkpt lat="47.26288" lon="-2.31685">
        <ele>6.1999998092651</ele>
        <time>2020-01-23T11:00:35.000Z</time>
      </trkpt>
      <trkpt lat="47.263" lon="-2.31709">
        <ele>6.1999998092651</ele>
        <time>2020-01-23T11:00:39.000Z</time>
      </trkpt>
      <trkpt lat="47.26309" lon="-2.31711">
        <ele>6.1999998092651</ele>
        <time>2020-01-23T11:00:41.000Z</time>
      </trkpt>
      <trkpt lat="47.26326" lon="-2.31704">
        <ele>6.1999998092651</ele>
        <time>2020-01-23T11:00:45.000Z</time>
      </trkpt>
      <trkpt lat="47.26336" lon="-2.3169">
        <ele>6.1999998092651</ele>
        <time>2020-01-23T11:00:49.000Z</time>
      </trkpt>
      <trkpt lat="47.26346" lon="-2.31684">
        <ele>6.1999998092651</ele>
        <time>2020-01-23T11:00:52.000Z</time>
      </trkpt>
      <trkpt lat="47.2635" lon="-2.31682">
        <ele>6.1999998092651</ele>
        <time>2020-01-23T11:00:53.000Z</time>
      </trkpt>
      <trkpt lat="47.26363" lon="-2.31676">
        <ele>6.5999999046326</ele>
        <time>2020-01-23T11:00:57.000Z</time>
      </trkpt>
      <trkpt lat="47.26366" lon="-2.31674">
        <ele>7</ele>
        <time>2020-01-23T11:00:58.000Z</time>
      </trkpt>
      <trkpt lat="47.26369" lon="-2.31673">
        <ele>7.4000000953674</ele>
        <time>2020-01-23T11:00:59.000Z</time>
      </trkpt>
      <trkpt lat="47.26373" lon="-2.31672">
        <ele>8.1999998092651</ele>
        <time>2020-01-23T11:01:00.000Z</time>
      </trkpt>
      <trkpt lat="47.26391" lon="-2.31663">
        <ele>8.1999998092651</ele>
        <time>2020-01-23T11:01:05.000Z</time>
      </trkpt>
      <trkpt lat="47.26408" lon="-2.31653">
        <ele>8.1999998092651</ele>
        <time>2020-01-23T11:01:11.000Z</time>
      </trkpt>
      <trkpt lat="47.26412" lon="-2.31645">
        <ele>8.1999998092651</ele>
        <time>2020-01-23T11:01:13.000Z</time>
      </trkpt>
      <trkpt lat="47.26412" lon="-2.3164">
        <ele>8.1999998092651</ele>
        <time>2020-01-23T11:01:14.000Z</time>
      </trkpt>
      <trkpt lat="47.26411" lon="-2.31601">
        <ele>8.1999998092651</ele>
        <time>2020-01-23T11:01:22.000Z</time>
      </trkpt>
      <trkpt lat="47.26412" lon="-2.31583">
        <ele>8.6000003814697</ele>
        <time>2020-01-23T11:01:26.000Z</time>
      </trkpt>
      <trkpt lat="47.26412" lon="-2.31579">
        <ele>9</ele>
        <time>2020-01-23T11:01:27.000Z</time>
      </trkpt>
      <trkpt lat="47.26412" lon="-2.31574">
        <ele>9.3999996185303</ele>
        <time>2020-01-23T11:01:28.000Z</time>
      </trkpt>
      <trkpt lat="47.26412" lon="-2.3157">
        <ele>9.8000001907349</ele>
        <time>2020-01-23T11:01:29.000Z</time>
      </trkpt>
      <trkpt lat="47.26412" lon="-2.31566">
        <ele>10.199999809265</ele>
        <time>2020-01-23T11:01:30.000Z</time>
      </trkpt>
      <trkpt lat="47.26412" lon="-2.31555">
        <ele>10.199999809265</ele>
        <time>2020-01-23T11:01:33.000Z</time>
      </trkpt>
      <trkpt lat="47.26414" lon="-2.31552">
        <ele>10.199999809265</ele>
        <time>2020-01-23T11:01:34.000Z</time>
      </trkpt>
      <trkpt lat="47.26417" lon="-2.31552">
        <ele>10.199999809265</ele>
        <time>2020-01-23T11:01:36.000Z</time>
      </trkpt>
      <trkpt lat="47.26417" lon="-2.31554">
        <ele>10.199999809265</ele>
        <time>2020-01-23T11:01:39.000Z</time>
      </trkpt>
    </trkseg>
  </trk>
</gpx>